<?xml version='1.0' encoding='UTF-8'?><gpx version="1.1" creator="JPX - https://github.com/jenetics/jpx" xmlns="http://www.topografix.com/GPX/1/1"><trk><trkseg><trkpt lat="42.7628778301583" lon="-3.2980628135484102"><ele>543.0</ele><time>2026-04-13T15:16:51.001Z</time></trkpt><trkpt lat="42.76281443126861" lon="-3.29805570558189"><ele>543.0</ele><time>2026-04-13T15:16:53.001Z</time></trkpt><trkpt lat="42.76275481663958" lon="-3.2981650146641437"><ele>543.0</ele><time>2026-04-13T15:16:55.001Z</time></trkpt><trkpt lat="42.762690427615915" lon="-3.2981848187742346"><ele>543.0</ele><time>2026-04-13T15:16:58.001Z</time></trkpt><trkpt lat="42.76263736560729" lon="-3.298121295834708"><ele>543.0</ele><time>2026-04-13T15:17:00.001Z</time></trkpt><trkpt lat="42.76260558974608" lon="-3.2980361478875735"><ele>543.0</ele><time>2026-04-13T15:17:02.001Z</time></trkpt><trkpt lat="42.762565963757524" lon="-3.2979669366085687"><ele>543.0</ele><time>2026-04-13T15:17:04.001Z</time></trkpt><trkpt lat="42.762507671136284" lon="-3.2978681438555597"><ele>546.0</ele><time>2026-04-13T15:17:06.001Z</time></trkpt><trkpt lat="42.76244270914168" lon="-3.2977279819615335"><ele>549.0</ele><time>2026-04-13T15:17:08.001Z</time></trkpt><trkpt lat="42.7623684915933" lon="-3.2975905944454107"><ele>552.0</ele><time>2026-04-13T15:17:10.001Z</time></trkpt><trkpt lat="42.76232008700147" lon="-3.2974997398467214"><ele>555.0</ele><time>2026-04-13T15:17:11.001Z</time></trkpt><trkpt lat="42.76226774522472" lon="-3.2974059400704863"><ele>558.0</ele><time>2026-04-13T15:17:12.001Z</time></trkpt><trkpt lat="42.76221678335183" lon="-3.2973192117922374"><ele>558.1666666666666</ele><time>2026-04-13T15:17:13.001Z</time></trkpt><trkpt lat="42.76216911029827" lon="-3.297228853652473"><ele>558.3333333333334</ele><time>2026-04-13T15:17:14.001Z</time></trkpt><trkpt lat="42.76211890260146" lon="-3.297127504129837"><ele>558.5</ele><time>2026-04-13T15:17:15.001Z</time></trkpt><trkpt lat="42.76208598208233" lon="-3.2970146479469813"><ele>558.6666666666667</ele><time>2026-04-13T15:17:16.001Z</time></trkpt><trkpt lat="42.762071490290886" lon="-3.2969006542197987"><ele>558.8333333333334</ele><time>2026-04-13T15:17:17.001Z</time></trkpt><trkpt lat="42.7620560469733" lon="-3.2967947349037217"><ele>559.0</ele><time>2026-04-13T15:17:18.001Z</time></trkpt><trkpt lat="42.76203759375451" lon="-3.296707258404986"><ele>559.0</ele><time>2026-04-13T15:17:19.001Z</time></trkpt><trkpt lat="42.762005755534766" lon="-3.296604130978272"><ele>559.0</ele><time>2026-04-13T15:17:21.001Z</time></trkpt><trkpt lat="42.76196762249176" lon="-3.2965034294825615"><ele>559.0</ele><time>2026-04-13T15:17:23.001Z</time></trkpt><trkpt lat="42.76202308813278" lon="-3.296440208846588"><ele>559.0</ele><time>2026-04-13T15:17:26.001Z</time></trkpt><trkpt lat="42.76209662086225" lon="-3.2965511117012603"><ele>559.0</ele><time>2026-04-13T15:17:29.001Z</time></trkpt><trkpt lat="42.7621377832578" lon="-3.2966609369497686"><ele>559.0</ele><time>2026-04-13T15:17:30.001Z</time></trkpt><trkpt lat="42.76218774713044" lon="-3.2967801680801787"><ele>559.0</ele><time>2026-04-13T15:17:31.001Z</time></trkpt><trkpt lat="42.76224434945898" lon="-3.296896652181314"><ele>559.0</ele><time>2026-04-13T15:17:32.001Z</time></trkpt><trkpt lat="42.76230097043798" lon="-3.296988613559123"><ele>559.0</ele><time>2026-04-13T15:17:33.001Z</time></trkpt><trkpt lat="42.76235021296628" lon="-3.2970563399919364"><ele>559.0</ele><time>2026-04-13T15:17:34.001Z</time></trkpt><trkpt lat="42.7624076282984" lon="-3.297126458715237"><ele>559.0</ele><time>2026-04-13T15:17:35.001Z</time></trkpt><trkpt lat="42.762464578319666" lon="-3.2971929589051325"><ele>559.0</ele><time>2026-04-13T15:17:36.001Z</time></trkpt><trkpt lat="42.762528384533326" lon="-3.297272355107728"><ele>558.8</ele><time>2026-04-13T15:17:37.001Z</time></trkpt><trkpt lat="42.762606546678185" lon="-3.297381292316027"><ele>558.5999999999999</ele><time>2026-04-13T15:17:38.001Z</time></trkpt><trkpt lat="42.762684509844796" lon="-3.2974887219116122"><ele>558.4</ele><time>2026-04-13T15:17:39.001Z</time></trkpt><trkpt lat="42.76275643137534" lon="-3.2975706368339246"><ele>558.1999999999999</ele><time>2026-04-13T15:17:40.001Z</time></trkpt><trkpt lat="42.762850367665" lon="-3.2976413502308195"><ele>558.0</ele><time>2026-04-13T15:17:41.001Z</time></trkpt><trkpt lat="42.76293826657526" lon="-3.297730065930227"><ele>555.4</ele><time>2026-04-13T15:17:42.001Z</time></trkpt><trkpt lat="42.7630321223282" lon="-3.2978227374017925"><ele>552.8</ele><time>2026-04-13T15:17:43.001Z</time></trkpt><trkpt lat="42.76311226444507" lon="-3.2979010224096026"><ele>550.2</ele><time>2026-04-13T15:17:44.001Z</time></trkpt><trkpt lat="42.76319194099607" lon="-3.2979718674748297"><ele>547.6</ele><time>2026-04-13T15:17:45.001Z</time></trkpt><trkpt lat="42.76327459732621" lon="-3.2980690168000595"><ele>545.0</ele><time>2026-04-13T15:17:46.001Z</time></trkpt><trkpt lat="42.76334084808883" lon="-3.2981649661703303"><ele>545.0</ele><time>2026-04-13T15:17:47.001Z</time></trkpt><trkpt lat="42.76340818301406" lon="-3.2982578952620623"><ele>545.0</ele><time>2026-04-13T15:17:48.001Z</time></trkpt><trkpt lat="42.76348456922576" lon="-3.2983602175698326"><ele>545.0</ele><time>2026-04-13T15:17:49.001Z</time></trkpt><trkpt lat="42.76357011237346" lon="-3.2984723052666194"><ele>545.0</ele><time>2026-04-13T15:17:50.001Z</time></trkpt><trkpt lat="42.76365074552029" lon="-3.2985830295330465"><ele>545.0</ele><time>2026-04-13T15:17:51.001Z</time></trkpt><trkpt lat="42.76374888833762" lon="-3.2987128398316248"><ele>544.0</ele><time>2026-04-13T15:17:52.001Z</time></trkpt><trkpt lat="42.763860871929346" lon="-3.298842193112303"><ele>543.0</ele><time>2026-04-13T15:17:53.001Z</time></trkpt><trkpt lat="42.76396640961593" lon="-3.2989537166497183"><ele>542.0</ele><time>2026-04-13T15:17:54.001Z</time></trkpt><trkpt lat="42.76405660404922" lon="-3.2990374848533497"><ele>541.0</ele><time>2026-04-13T15:17:55.001Z</time></trkpt><trkpt lat="42.764121404937946" lon="-3.2991102196046747"><ele>541.0</ele><time>2026-04-13T15:17:56.001Z</time></trkpt><trkpt lat="42.76416273426419" lon="-3.2991858344672806"><ele>541.0</ele><time>2026-04-13T15:17:57.001Z</time></trkpt><trkpt lat="42.76422222413908" lon="-3.299285778802516"><ele>541.0</ele><time>2026-04-13T15:17:58.001Z</time></trkpt><trkpt lat="42.764284285005516" lon="-3.299385693456263"><ele>541.0</ele><time>2026-04-13T15:17:59.001Z</time></trkpt><trkpt lat="42.76434557252387" lon="-3.2994706462847505"><ele>541.0</ele><time>2026-04-13T15:18:00.001Z</time></trkpt><trkpt lat="42.76440273384121" lon="-3.299544607851219"><ele>541.0</ele><time>2026-04-13T15:18:01.001Z</time></trkpt><trkpt lat="42.76446711717001" lon="-3.299621157789733"><ele>541.5</ele><time>2026-04-13T15:18:02.001Z</time></trkpt><trkpt lat="42.76451903374788" lon="-3.2996903307136147"><ele>542.0</ele><time>2026-04-13T15:18:03.001Z</time></trkpt><trkpt lat="42.76459330868749" lon="-3.2997521726388483"><ele>542.5</ele><time>2026-04-13T15:18:26.001Z</time></trkpt><trkpt lat="42.76477263182879" lon="-3.2996174850476288"><ele>543.0</ele><time>2026-04-13T15:18:28.001Z</time></trkpt><trkpt lat="42.76486899300983" lon="-3.299549322763018"><ele>541.0</ele><time>2026-04-13T15:18:29.001Z</time></trkpt><trkpt lat="42.76497141676744" lon="-3.299491949027833"><ele>539.0</ele><time>2026-04-13T15:18:30.001Z</time></trkpt><trkpt lat="42.76507857199132" lon="-3.2994339473329477"><ele>537.0</ele><time>2026-04-13T15:18:31.001Z</time></trkpt><trkpt lat="42.765206485894254" lon="-3.299362182337789"><ele>535.0</ele><time>2026-04-13T15:18:32.001Z</time></trkpt><trkpt lat="42.765355101871265" lon="-3.2993382036792407"><ele>533.3333333333334</ele><time>2026-04-13T15:18:33.001Z</time></trkpt><trkpt lat="42.76552420378829" lon="-3.2993562954429323"><ele>531.6666666666666</ele><time>2026-04-13T15:18:34.001Z</time></trkpt><trkpt lat="42.765691133371185" lon="-3.2994117758475485"><ele>530.0</ele><time>2026-04-13T15:18:35.001Z</time></trkpt><trkpt lat="42.765829533292774" lon="-3.299469594455584"><ele>530.0</ele><time>2026-04-13T15:18:36.001Z</time></trkpt><trkpt lat="42.765952347523644" lon="-3.299520507845865"><ele>530.0</ele><time>2026-04-13T15:18:37.001Z</time></trkpt><trkpt lat="42.76606611276138" lon="-3.299563117853101"><ele>530.0</ele><time>2026-04-13T15:18:38.001Z</time></trkpt><trkpt lat="42.766170378500036" lon="-3.2995861419636068"><ele>530.0</ele><time>2026-04-13T15:18:39.001Z</time></trkpt><trkpt lat="42.76626549532388" lon="-3.2996019969369517"><ele>530.0</ele><time>2026-04-13T15:18:40.001Z</time></trkpt><trkpt lat="42.76635787993746" lon="-3.299609454450646"><ele>529.4</ele><time>2026-04-13T15:18:41.001Z</time></trkpt><trkpt lat="42.76645381937679" lon="-3.299599390687981"><ele>528.8</ele><time>2026-04-13T15:18:42.001Z</time></trkpt><trkpt lat="42.76656613572391" lon="-3.299582929410376"><ele>528.2</ele><time>2026-04-13T15:18:43.001Z</time></trkpt><trkpt lat="42.766669172056076" lon="-3.299559613456523"><ele>527.6</ele><time>2026-04-13T15:18:44.001Z</time></trkpt><trkpt lat="42.76676057035472" lon="-3.299530913727905"><ele>527.0</ele><time>2026-04-13T15:18:45.001Z</time></trkpt><trkpt lat="42.766852015768485" lon="-3.2995098324994516"><ele>526.6</ele><time>2026-04-13T15:18:46.001Z</time></trkpt><trkpt lat="42.76694133411538" lon="-3.299477247637573"><ele>526.2</ele><time>2026-04-13T15:18:47.001Z</time></trkpt><trkpt lat="42.76703937514997" lon="-3.299409856700607"><ele>525.8</ele><time>2026-04-13T15:18:48.001Z</time></trkpt><trkpt lat="42.76713682774126" lon="-3.2993300815087943"><ele>525.4</ele><time>2026-04-13T15:18:49.001Z</time></trkpt><trkpt lat="42.7672177330451" lon="-3.299262888458811"><ele>525.0</ele><time>2026-04-13T15:18:50.001Z</time></trkpt><trkpt lat="42.76728723660599" lon="-3.299194635532163"><ele>525.0</ele><time>2026-04-13T15:18:51.001Z</time></trkpt><trkpt lat="42.76736016140574" lon="-3.2991076163461646"><ele>525.0</ele><time>2026-04-13T15:18:52.001Z</time></trkpt><trkpt lat="42.76744152645791" lon="-3.2990164506453024"><ele>525.0</ele><time>2026-04-13T15:18:53.001Z</time></trkpt><trkpt lat="42.76752855281329" lon="-3.2989174336380476"><ele>525.0</ele><time>2026-04-13T15:18:54.001Z</time></trkpt><trkpt lat="42.767583720643366" lon="-3.2987853391373565"><ele>525.0</ele><time>2026-04-13T15:18:55.001Z</time></trkpt><trkpt lat="42.76763869310646" lon="-3.2986477416725366"><ele>524.6666666666666</ele><time>2026-04-13T15:18:56.001Z</time></trkpt><trkpt lat="42.767695843218604" lon="-3.2984663879062173"><ele>524.3333333333333</ele><time>2026-04-13T15:18:57.001Z</time></trkpt><trkpt lat="42.76774938457663" lon="-3.298253782941257"><ele>524.0</ele><time>2026-04-13T15:18:58.001Z</time></trkpt><trkpt lat="42.76780223826724" lon="-3.2980295903355534"><ele>524.0</ele><time>2026-04-13T15:18:59.001Z</time></trkpt><trkpt lat="42.767858582535055" lon="-3.297785047338032"><ele>524.0</ele><time>2026-04-13T15:19:00.001Z</time></trkpt><trkpt lat="42.767925622825416" lon="-3.297520836714392"><ele>524.0</ele><time>2026-04-13T15:19:01.001Z</time></trkpt><trkpt lat="42.7679869628851" lon="-3.297250193383457"><ele>524.3333333333333</ele><time>2026-04-13T15:19:02.001Z</time></trkpt><trkpt lat="42.7680500603777" lon="-3.2969900273721433"><ele>524.6666666666666</ele><time>2026-04-13T15:19:03.001Z</time></trkpt><trkpt lat="42.768114895629175" lon="-3.2967194545788923"><ele>525.0</ele><time>2026-04-13T15:19:04.001Z</time></trkpt><trkpt lat="42.768169569171285" lon="-3.2964446975385515"><ele>525.6666666666666</ele><time>2026-04-13T15:19:05.001Z</time></trkpt><trkpt lat="42.768230657742954" lon="-3.2961732827443666"><ele>526.3333333333333</ele><time>2026-04-13T15:19:06.001Z</time></trkpt><trkpt lat="42.7682971189435" lon="-3.2958949138030706"><ele>527.0</ele><time>2026-04-13T15:19:07.001Z</time></trkpt><trkpt lat="42.76835571204008" lon="-3.2956531894026946"><ele>527.6666666666666</ele><time>2026-04-13T15:19:08.001Z</time></trkpt><trkpt lat="42.76840549803858" lon="-3.295437834951699"><ele>528.3333333333334</ele><time>2026-04-13T15:19:09.001Z</time></trkpt><trkpt lat="42.76845364226602" lon="-3.2952312934853896"><ele>529.0</ele><time>2026-04-13T15:19:10.001Z</time></trkpt><trkpt lat="42.768494464337365" lon="-3.2950451689367344"><ele>528.25</ele><time>2026-04-13T15:19:11.001Z</time></trkpt><trkpt lat="42.7685454981269" lon="-3.294884903224835"><ele>527.5</ele><time>2026-04-13T15:19:12.001Z</time></trkpt><trkpt lat="42.76864084690772" lon="-3.294755475978708"><ele>526.75</ele><time>2026-04-13T15:19:13.001Z</time></trkpt><trkpt lat="42.76877697166115" lon="-3.2946837285314405"><ele>526.0</ele><time>2026-04-13T15:19:14.001Z</time></trkpt><trkpt lat="42.76894253014699" lon="-3.2946531339484357"><ele>525.0</ele><time>2026-04-13T15:19:15.001Z</time></trkpt><trkpt lat="42.76911614462446" lon="-3.2946606374179956"><ele>524.0</ele><time>2026-04-13T15:19:16.001Z</time></trkpt><trkpt lat="42.769290240036455" lon="-3.294670875604611"><ele>523.0</ele><time>2026-04-13T15:19:17.001Z</time></trkpt><trkpt lat="42.7694704975151" lon="-3.2946618725391565"><ele>522.0</ele><time>2026-04-13T15:19:18.001Z</time></trkpt><trkpt lat="42.76965853455228" lon="-3.294650378497348"><ele>521.0</ele><time>2026-04-13T15:19:19.001Z</time></trkpt><trkpt lat="42.76985094283491" lon="-3.2946287703394703"><ele>520.0</ele><time>2026-04-13T15:19:20.001Z</time></trkpt><trkpt lat="42.77003946254003" lon="-3.294611561677654"><ele>522.0</ele><time>2026-04-13T15:19:21.001Z</time></trkpt><trkpt lat="42.770208857814204" lon="-3.2945895390898254"><ele>524.0</ele><time>2026-04-13T15:19:22.001Z</time></trkpt><trkpt lat="42.77036458618376" lon="-3.2945791059375797"><ele>526.0</ele><time>2026-04-13T15:19:23.001Z</time></trkpt><trkpt lat="42.77049831974561" lon="-3.2945688651642784"><ele>526.0</ele><time>2026-04-13T15:19:24.001Z</time></trkpt><trkpt lat="42.77060443384076" lon="-3.2945586780297984"><ele>526.0</ele><time>2026-04-13T15:19:25.001Z</time></trkpt><trkpt lat="42.770670260028794" lon="-3.294563586435928"><ele>526.0</ele><time>2026-04-13T15:19:26.001Z</time></trkpt><trkpt lat="42.77079155962449" lon="-3.294554853417385"><ele>526.0</ele><time>2026-04-13T15:19:28.001Z</time></trkpt><trkpt lat="42.77088198710838" lon="-3.2945498650487646"><ele>526.0</ele><time>2026-04-13T15:19:29.001Z</time></trkpt><trkpt lat="42.770971731113185" lon="-3.294529427608774"><ele>526.0</ele><time>2026-04-13T15:19:30.001Z</time></trkpt><trkpt lat="42.77108238113219" lon="-3.294506402239788"><ele>526.0</ele><time>2026-04-13T15:19:31.001Z</time></trkpt><trkpt lat="42.77116787582856" lon="-3.2944861383071897"><ele>526.0</ele><time>2026-04-13T15:19:32.001Z</time></trkpt><trkpt lat="42.77148717802274" lon="-3.2951958335572247"><ele>526.0</ele><time>2026-04-13T15:19:33.001Z</time></trkpt><trkpt lat="42.77166920139221" lon="-3.295322738095426"><ele>526.0</ele><time>2026-04-13T15:19:34.001Z</time></trkpt><trkpt lat="42.771852627725934" lon="-3.2954519803530835"><ele>526.0</ele><time>2026-04-13T15:19:35.001Z</time></trkpt><trkpt lat="42.77203816906182" lon="-3.2955888162676934"><ele>527.0</ele><time>2026-04-13T15:19:36.001Z</time></trkpt><trkpt lat="42.772216357866874" lon="-3.2957249521090786"><ele>528.0</ele><time>2026-04-13T15:19:37.001Z</time></trkpt><trkpt lat="42.77239951768474" lon="-3.2958712402451127"><ele>529.0</ele><time>2026-04-13T15:19:38.001Z</time></trkpt><trkpt lat="42.77254081824632" lon="-3.2960163884783036"><ele>529.0</ele><time>2026-04-13T15:19:39.001Z</time></trkpt><trkpt lat="42.77265889826733" lon="-3.296162720188759"><ele>529.0</ele><time>2026-04-13T15:19:40.001Z</time></trkpt><trkpt lat="42.77278915219442" lon="-3.2963348808764086"><ele>529.0</ele><time>2026-04-13T15:19:41.001Z</time></trkpt><trkpt lat="42.77292713720403" lon="-3.2965024222081807"><ele>530.3333333333334</ele><time>2026-04-13T15:19:42.001Z</time></trkpt><trkpt lat="42.77307171690817" lon="-3.296664419896838"><ele>531.6666666666666</ele><time>2026-04-13T15:19:43.001Z</time></trkpt><trkpt lat="42.7732289197778" lon="-3.296834942536577"><ele>533.0</ele><time>2026-04-13T15:19:44.001Z</time></trkpt><trkpt lat="42.77338355884607" lon="-3.297010581007008"><ele>533.0</ele><time>2026-04-13T15:19:45.001Z</time></trkpt><trkpt lat="42.77354815974408" lon="-3.297192589835355"><ele>533.0</ele><time>2026-04-13T15:19:46.001Z</time></trkpt><trkpt lat="42.77371082034535" lon="-3.297370850021853"><ele>533.0</ele><time>2026-04-13T15:19:47.001Z</time></trkpt><trkpt lat="42.77384305712407" lon="-3.2975215613751923"><ele>533.0</ele><time>2026-04-13T15:19:48.001Z</time></trkpt><trkpt lat="42.773947721939976" lon="-3.2976376754645607"><ele>533.0</ele><time>2026-04-13T15:19:49.001Z</time></trkpt><trkpt lat="42.77403687705308" lon="-3.2977368932505815"><ele>533.0</ele><time>2026-04-13T15:19:50.001Z</time></trkpt><trkpt lat="42.77411016278831" lon="-3.2978202019108336"><ele>533.0</ele><time>2026-04-13T15:19:51.001Z</time></trkpt><trkpt lat="42.77417496947305" lon="-3.2978929311774072"><ele>533.0</ele><time>2026-04-13T15:19:52.001Z</time></trkpt><trkpt lat="42.77424528464701" lon="-3.297946724587135"><ele>533.0</ele><time>2026-04-13T15:19:53.001Z</time></trkpt><trkpt lat="42.774324092600615" lon="-3.2979937871931075"><ele>533.0</ele><time>2026-04-13T15:19:54.001Z</time></trkpt><trkpt lat="42.77439655353576" lon="-3.2980001802833603"><ele>533.0</ele><time>2026-04-13T15:19:55.001Z</time></trkpt><trkpt lat="42.774486489041124" lon="-3.297974876730696"><ele>533.0</ele><time>2026-04-13T15:19:56.001Z</time></trkpt><trkpt lat="42.774567285787114" lon="-3.2979278548117867"><ele>533.0</ele><time>2026-04-13T15:19:57.001Z</time></trkpt><trkpt lat="42.77463862249993" lon="-3.297915786432922"><ele>533.0</ele><time>2026-04-13T15:19:58.001Z</time></trkpt><trkpt lat="42.774722944453664" lon="-3.2979605424494247"><ele>533.5</ele><time>2026-04-13T15:19:59.001Z</time></trkpt><trkpt lat="42.77484593776528" lon="-3.2980554061008944"><ele>534.0</ele><time>2026-04-13T15:20:00.001Z</time></trkpt><trkpt lat="42.77498263214818" lon="-3.2981504796135765"><ele>534.5</ele><time>2026-04-13T15:20:01.001Z</time></trkpt><trkpt lat="42.775118098587484" lon="-3.298237625774042"><ele>535.0</ele><time>2026-04-13T15:20:02.001Z</time></trkpt><trkpt lat="42.7752620885841" lon="-3.298360090511735"><ele>536.6666666666667</ele><time>2026-04-13T15:20:03.001Z</time></trkpt><trkpt lat="42.77542512233781" lon="-3.298507545071725"><ele>538.3333333333334</ele><time>2026-04-13T15:20:04.001Z</time></trkpt><trkpt lat="42.775566258564275" lon="-3.298648552115985"><ele>540.0</ele><time>2026-04-13T15:20:05.001Z</time></trkpt><trkpt lat="42.775704361713174" lon="-3.298776962668754"><ele>540.0</ele><time>2026-04-13T15:20:06.001Z</time></trkpt><trkpt lat="42.775824169134204" lon="-3.2988729290274286"><ele>540.0</ele><time>2026-04-13T15:20:07.001Z</time></trkpt><trkpt lat="42.77593231948443" lon="-3.2989351151544914"><ele>540.0</ele><time>2026-04-13T15:20:08.001Z</time></trkpt><trkpt lat="42.77605394620192" lon="-3.2989649446012046"><ele>540.0</ele><time>2026-04-13T15:20:09.001Z</time></trkpt><trkpt lat="42.7761847221434" lon="-3.2989768731346816"><ele>539.6666666666666</ele><time>2026-04-13T15:20:10.001Z</time></trkpt><trkpt lat="42.77633125019143" lon="-3.2989869875589624"><ele>539.3333333333333</ele><time>2026-04-13T15:20:11.001Z</time></trkpt><trkpt lat="42.77649012712913" lon="-3.2989953019791596"><ele>539.0</ele><time>2026-04-13T15:20:12.001Z</time></trkpt><trkpt lat="42.77665201566454" lon="-3.299004062595596"><ele>539.0</ele><time>2026-04-13T15:20:13.001Z</time></trkpt><trkpt lat="42.77681256170347" lon="-3.2990144380021054"><ele>539.0</ele><time>2026-04-13T15:20:14.001Z</time></trkpt><trkpt lat="42.77694484327023" lon="-3.299025840090645"><ele>539.0</ele><time>2026-04-13T15:20:15.001Z</time></trkpt><trkpt lat="42.77705781586341" lon="-3.2990292765372"><ele>539.0</ele><time>2026-04-13T15:20:16.001Z</time></trkpt><trkpt lat="42.777192867606914" lon="-3.299016134600739"><ele>539.3333333333333</ele><time>2026-04-13T15:20:17.001Z</time></trkpt><trkpt lat="42.77737475510785" lon="-3.2989851342419008"><ele>539.6666666666666</ele><time>2026-04-13T15:20:18.001Z</time></trkpt><trkpt lat="42.777537528212555" lon="-3.298977360064188"><ele>540.0</ele><time>2026-04-13T15:20:19.001Z</time></trkpt><trkpt lat="42.77771709084095" lon="-3.2989994878213365"><ele>540.0</ele><time>2026-04-13T15:20:20.001Z</time></trkpt><trkpt lat="42.77790287335662" lon="-3.299030613033883"><ele>540.0</ele><time>2026-04-13T15:20:21.001Z</time></trkpt><trkpt lat="42.778063494899214" lon="-3.299060888121719"><ele>540.0</ele><time>2026-04-13T15:20:22.001Z</time></trkpt><trkpt lat="42.77819752229041" lon="-3.299080669214242"><ele>540.0</ele><time>2026-04-13T15:20:23.001Z</time></trkpt><trkpt lat="42.77832340940182" lon="-3.2990686274245697"><ele>540.0</ele><time>2026-04-13T15:20:24.001Z</time></trkpt><trkpt lat="42.77843514530485" lon="-3.2990239117301083"><ele>540.0</ele><time>2026-04-13T15:20:25.001Z</time></trkpt><trkpt lat="42.77853566775157" lon="-3.29895628745165"><ele>540.0</ele><time>2026-04-13T15:20:26.001Z</time></trkpt><trkpt lat="42.77863960236213" lon="-3.2988980813139457"><ele>540.75</ele><time>2026-04-13T15:20:27.001Z</time></trkpt><trkpt lat="42.77875058951033" lon="-3.29888083769336"><ele>541.5</ele><time>2026-04-13T15:20:28.001Z</time></trkpt><trkpt lat="42.77888520659724" lon="-3.298902546629508"><ele>542.25</ele><time>2026-04-13T15:20:29.001Z</time></trkpt><trkpt lat="42.779037561107366" lon="-3.2989836550590304"><ele>543.0</ele><time>2026-04-13T15:20:30.001Z</time></trkpt><trkpt lat="42.77920802591859" lon="-3.299064840230863"><ele>543.0</ele><time>2026-04-13T15:20:31.001Z</time></trkpt><trkpt lat="42.77932371439167" lon="-3.299124444350007"><ele>543.0</ele><time>2026-04-13T15:20:32.001Z</time></trkpt><trkpt lat="42.77944751524761" lon="-3.2991788580689962"><ele>543.0</ele><time>2026-04-13T15:20:33.001Z</time></trkpt><trkpt lat="42.779591384787686" lon="-3.299230451058321"><ele>543.0</ele><time>2026-04-13T15:20:34.001Z</time></trkpt><trkpt lat="42.77972853788475" lon="-3.2992918113321372"><ele>544.6666666666666</ele><time>2026-04-13T15:20:35.001Z</time></trkpt><trkpt lat="42.779875085123344" lon="-3.2993731140338043"><ele>546.3333333333333</ele><time>2026-04-13T15:20:36.001Z</time></trkpt><trkpt lat="42.78004050344376" lon="-3.299446071809928"><ele>548.0</ele><time>2026-04-13T15:20:37.001Z</time></trkpt><trkpt lat="42.78019910176051" lon="-3.2995243507886416"><ele>549.0</ele><time>2026-04-13T15:20:38.001Z</time></trkpt><trkpt lat="42.78038250810315" lon="-3.2995691358484014"><ele>550.0</ele><time>2026-04-13T15:20:39.001Z</time></trkpt><trkpt lat="42.78052415324269" lon="-3.299610780432369"><ele>551.0</ele><time>2026-04-13T15:20:40.001Z</time></trkpt><trkpt lat="42.78063382854088" lon="-3.299614219413961"><ele>552.0</ele><time>2026-04-13T15:20:41.001Z</time></trkpt><trkpt lat="42.78074500401358" lon="-3.299566622951291"><ele>552.0</ele><time>2026-04-13T15:20:42.001Z</time></trkpt><trkpt lat="42.780888693310985" lon="-3.299467914577103"><ele>552.0</ele><time>2026-04-13T15:20:43.001Z</time></trkpt><trkpt lat="42.78103417562791" lon="-3.2993548978139358"><ele>552.0</ele><time>2026-04-13T15:20:44.001Z</time></trkpt><trkpt lat="42.781142626186444" lon="-3.2992847682581066"><ele>552.0</ele><time>2026-04-13T15:20:45.001Z</time></trkpt><trkpt lat="42.78125901906742" lon="-3.2992222272174043"><ele>552.75</ele><time>2026-04-13T15:20:46.001Z</time></trkpt><trkpt lat="42.78138160052459" lon="-3.2991868517313963"><ele>553.5</ele><time>2026-04-13T15:20:47.001Z</time></trkpt><trkpt lat="42.781522141736275" lon="-3.2991938613708074"><ele>554.25</ele><time>2026-04-13T15:20:48.001Z</time></trkpt><trkpt lat="42.781693150155235" lon="-3.2992309015059456"><ele>555.0</ele><time>2026-04-13T15:20:49.001Z</time></trkpt><trkpt lat="42.7818928591515" lon="-3.2992591385036163"><ele>556.6666666666666</ele><time>2026-04-13T15:20:50.001Z</time></trkpt><trkpt lat="42.78209486469171" lon="-3.2992956924348467"><ele>558.3333333333333</ele><time>2026-04-13T15:20:51.001Z</time></trkpt><trkpt lat="42.782298296720235" lon="-3.299323004501953"><ele>560.0</ele><time>2026-04-13T15:20:52.001Z</time></trkpt><trkpt lat="42.782484294887155" lon="-3.299351010840995"><ele>560.0</ele><time>2026-04-13T15:20:53.001Z</time></trkpt><trkpt lat="42.78263392996692" lon="-3.299363096263463"><ele>560.0</ele><time>2026-04-13T15:20:54.001Z</time></trkpt><trkpt lat="42.782758913366536" lon="-3.2993680398910374"><ele>560.0</ele><time>2026-04-13T15:20:55.001Z</time></trkpt><trkpt lat="42.78286101820207" lon="-3.299370356845851"><ele>560.0</ele><time>2026-04-13T15:20:56.001Z</time></trkpt><trkpt lat="42.78295437462503" lon="-3.2993628449006334"><ele>560.75</ele><time>2026-04-13T15:20:57.001Z</time></trkpt><trkpt lat="42.783060913207365" lon="-3.2993325294029385"><ele>561.5</ele><time>2026-04-13T15:20:58.001Z</time></trkpt><trkpt lat="42.78317239980342" lon="-3.2992923884811263"><ele>562.25</ele><time>2026-04-13T15:20:59.001Z</time></trkpt><trkpt lat="42.7832967586765" lon="-3.2992603282987423"><ele>563.0</ele><time>2026-04-13T15:21:00.001Z</time></trkpt><trkpt lat="42.783419996414096" lon="-3.299230136635041"><ele>562.5</ele><time>2026-04-13T15:21:01.001Z</time></trkpt><trkpt lat="42.783541362535566" lon="-3.2991931381153337"><ele>562.0</ele><time>2026-04-13T15:21:02.001Z</time></trkpt><trkpt lat="42.78366946779411" lon="-3.2991586153585466"><ele>561.5</ele><time>2026-04-13T15:21:03.001Z</time></trkpt><trkpt lat="42.783809005984025" lon="-3.2991121261805167"><ele>561.0</ele><time>2026-04-13T15:21:04.001Z</time></trkpt><trkpt lat="42.783952370031614" lon="-3.2990630946526216"><ele>561.0</ele><time>2026-04-13T15:21:05.001Z</time></trkpt><trkpt lat="42.78409711269653" lon="-3.299018282015618"><ele>561.0</ele><time>2026-04-13T15:21:06.001Z</time></trkpt><trkpt lat="42.78424826983947" lon="-3.298971633726847"><ele>561.0</ele><time>2026-04-13T15:21:07.001Z</time></trkpt><trkpt lat="42.78439525451694" lon="-3.298925188554014"><ele>561.75</ele><time>2026-04-13T15:21:08.001Z</time></trkpt><trkpt lat="42.784533859345395" lon="-3.298889452656459"><ele>562.5</ele><time>2026-04-13T15:21:09.001Z</time></trkpt><trkpt lat="42.78465783685278" lon="-3.2988551796915386"><ele>563.25</ele><time>2026-04-13T15:21:10.001Z</time></trkpt><trkpt lat="42.78476381647807" lon="-3.298829740292758"><ele>564.0</ele><time>2026-04-13T15:21:11.001Z</time></trkpt><trkpt lat="42.78483832412478" lon="-3.298812678372081"><ele>564.0</ele><time>2026-04-13T15:21:12.001Z</time></trkpt><trkpt lat="42.78494543633133" lon="-3.2987176099703315"><ele>564.0</ele><time>2026-04-13T15:21:14.001Z</time></trkpt><trkpt lat="42.78498955177307" lon="-3.2986046419979744"><ele>564.0</ele><time>2026-04-13T15:21:15.001Z</time></trkpt><trkpt lat="42.78504264732003" lon="-3.2984444022847725"><ele>564.0</ele><time>2026-04-13T15:21:16.001Z</time></trkpt><trkpt lat="42.785097762130775" lon="-3.298258338874792"><ele>564.3333333333334</ele><time>2026-04-13T15:21:17.001Z</time></trkpt><trkpt lat="42.785139378941814" lon="-3.298065853089592"><ele>564.6666666666667</ele><time>2026-04-13T15:21:18.001Z</time></trkpt><trkpt lat="42.785168578231605" lon="-3.2978487864807495"><ele>565.0</ele><time>2026-04-13T15:21:19.001Z</time></trkpt><trkpt lat="42.785189087079786" lon="-3.297617328537459"><ele>565.0</ele><time>2026-04-13T15:21:20.001Z</time></trkpt><trkpt lat="42.78518642182853" lon="-3.2973812731436687"><ele>565.0</ele><time>2026-04-13T15:21:21.001Z</time></trkpt><trkpt lat="42.785166972820754" lon="-3.2971423821546213"><ele>565.0</ele><time>2026-04-13T15:21:22.001Z</time></trkpt><trkpt lat="42.78514638268797" lon="-3.2968790346293804"><ele>565.0</ele><time>2026-04-13T15:21:23.001Z</time></trkpt><trkpt lat="42.78513313731019" lon="-3.2966436958122998"><ele>565.0</ele><time>2026-04-13T15:21:24.001Z</time></trkpt><trkpt lat="42.785119771579225" lon="-3.2964756328373244"><ele>565.0</ele><time>2026-04-13T15:21:25.001Z</time></trkpt><trkpt lat="42.785112420509115" lon="-3.2963584836123623"><ele>565.0</ele><time>2026-04-13T15:21:26.001Z</time></trkpt><trkpt lat="42.78511566543382" lon="-3.2962322068716063"><ele>565.8</ele><time>2026-04-13T15:21:28.001Z</time></trkpt><trkpt lat="42.785191067646885" lon="-3.2961680825134403"><ele>566.6</ele><time>2026-04-13T15:21:30.001Z</time></trkpt><trkpt lat="42.78525982798487" lon="-3.296156724374059"><ele>567.4</ele><time>2026-04-13T15:21:31.001Z</time></trkpt><trkpt lat="42.78534469136861" lon="-3.296127557369714"><ele>568.2</ele><time>2026-04-13T15:21:32.001Z</time></trkpt><trkpt lat="42.78545190346545" lon="-3.2960743124303162"><ele>569.0</ele><time>2026-04-13T15:21:33.001Z</time></trkpt><trkpt lat="42.78558786986983" lon="-3.2960022279663894"><ele>569.0</ele><time>2026-04-13T15:21:34.001Z</time></trkpt><trkpt lat="42.78573096412051" lon="-3.295923490129759"><ele>569.0</ele><time>2026-04-13T15:21:35.001Z</time></trkpt><trkpt lat="42.78587515919714" lon="-3.2958423768573413"><ele>569.0</ele><time>2026-04-13T15:21:36.001Z</time></trkpt><trkpt lat="42.78603690100664" lon="-3.295752760345824"><ele>569.25</ele><time>2026-04-13T15:21:37.001Z</time></trkpt><trkpt lat="42.78620097401608" lon="-3.2956520043969633"><ele>569.5</ele><time>2026-04-13T15:21:38.001Z</time></trkpt><trkpt lat="42.786331770968125" lon="-3.295567121845443"><ele>569.75</ele><time>2026-04-13T15:21:39.001Z</time></trkpt><trkpt lat="42.78643804427749" lon="-3.2954978971579596"><ele>570.0</ele><time>2026-04-13T15:21:40.001Z</time></trkpt><trkpt lat="42.78654415495325" lon="-3.295433516225414"><ele>570.4</ele><time>2026-04-13T15:21:41.001Z</time></trkpt><trkpt lat="42.78663517719687" lon="-3.29538035316556"><ele>570.8</ele><time>2026-04-13T15:21:42.001Z</time></trkpt><trkpt lat="42.7867286125267" lon="-3.295324622413752"><ele>571.2</ele><time>2026-04-13T15:21:43.001Z</time></trkpt><trkpt lat="42.78683459730112" lon="-3.2952620060493234"><ele>571.6</ele><time>2026-04-13T15:21:44.001Z</time></trkpt><trkpt lat="42.78695574014816" lon="-3.2951913470829126"><ele>572.0</ele><time>2026-04-13T15:21:45.001Z</time></trkpt><trkpt lat="42.78708211045989" lon="-3.2951184872725894"><ele>573.3333333333333</ele><time>2026-04-13T15:21:46.001Z</time></trkpt><trkpt lat="42.78721823145969" lon="-3.295042660988513"><ele>574.6666666666666</ele><time>2026-04-13T15:21:47.001Z</time></trkpt><trkpt lat="42.787372212868284" lon="-3.2949815080073455"><ele>576.0</ele><time>2026-04-13T15:21:48.001Z</time></trkpt><trkpt lat="42.78753151382067" lon="-3.2949342705384583"><ele>577.6666666666666</ele><time>2026-04-13T15:21:49.001Z</time></trkpt><trkpt lat="42.787679337256314" lon="-3.2948938809454758"><ele>579.3333333333333</ele><time>2026-04-13T15:21:50.001Z</time></trkpt><trkpt lat="42.787841215848665" lon="-3.294842614588392"><ele>581.0</ele><time>2026-04-13T15:21:51.001Z</time></trkpt><trkpt lat="42.7880002278855" lon="-3.29479221622697"><ele>581.0</ele><time>2026-04-13T15:21:52.001Z</time></trkpt><trkpt lat="42.78816283187911" lon="-3.2947428171541056"><ele>581.0</ele><time>2026-04-13T15:21:53.001Z</time></trkpt><trkpt lat="42.78832545064103" lon="-3.2946860491873613"><ele>581.0</ele><time>2026-04-13T15:21:54.001Z</time></trkpt><trkpt lat="42.78845870832281" lon="-3.29463840604924"><ele>582.0</ele><time>2026-04-13T15:21:55.001Z</time></trkpt><trkpt lat="42.788576986402305" lon="-3.2946007423362587"><ele>583.0</ele><time>2026-04-13T15:21:56.001Z</time></trkpt><trkpt lat="42.788668829110236" lon="-3.294574256742417"><ele>584.0</ele><time>2026-04-13T15:21:57.001Z</time></trkpt><trkpt lat="42.788741469271436" lon="-3.29455451969489"><ele>585.0</ele><time>2026-04-13T15:21:58.001Z</time></trkpt><trkpt lat="42.788806386406876" lon="-3.294541430285646"><ele>586.0</ele><time>2026-04-13T15:22:00.001Z</time></trkpt><trkpt lat="42.78890638190374" lon="-3.294503990826456"><ele>586.0</ele><time>2026-04-13T15:22:04.001Z</time></trkpt><trkpt lat="42.7889789758164" lon="-3.294471765897187"><ele>586.0</ele><time>2026-04-13T15:22:05.001Z</time></trkpt><trkpt lat="42.789073669684576" lon="-3.2944262705789313"><ele>586.0</ele><time>2026-04-13T15:22:06.001Z</time></trkpt><trkpt lat="42.78916222626774" lon="-3.2943597766075685"><ele>586.0</ele><time>2026-04-13T15:22:07.001Z</time></trkpt><trkpt lat="42.78925341711689" lon="-3.2942963757443464"><ele>586.0</ele><time>2026-04-13T15:22:08.001Z</time></trkpt><trkpt lat="42.78934632741624" lon="-3.294232129286232"><ele>586.75</ele><time>2026-04-13T15:22:09.001Z</time></trkpt><trkpt lat="42.789459050959536" lon="-3.2941613623585604"><ele>587.5</ele><time>2026-04-13T15:22:10.001Z</time></trkpt><trkpt lat="42.78958395464483" lon="-3.294074161686964"><ele>588.25</ele><time>2026-04-13T15:22:11.001Z</time></trkpt><trkpt lat="42.78972810536129" lon="-3.293970797878143"><ele>589.0</ele><time>2026-04-13T15:22:12.001Z</time></trkpt><trkpt lat="42.78988456110988" lon="-3.2938557161312083"><ele>589.6666666666667</ele><time>2026-04-13T15:22:13.001Z</time></trkpt><trkpt lat="42.790032701655576" lon="-3.293754702058624"><ele>590.3333333333334</ele><time>2026-04-13T15:22:14.001Z</time></trkpt><trkpt lat="42.790173491072075" lon="-3.2936607276645753"><ele>591.0</ele><time>2026-04-13T15:22:15.001Z</time></trkpt><trkpt lat="42.790304286071624" lon="-3.293558528379655"><ele>592.0</ele><time>2026-04-13T15:22:16.001Z</time></trkpt><trkpt lat="42.79044767895081" lon="-3.2934598495391154"><ele>593.0</ele><time>2026-04-13T15:22:17.001Z</time></trkpt><trkpt lat="42.790584691641016" lon="-3.293368919448841"><ele>594.0</ele><time>2026-04-13T15:22:18.001Z</time></trkpt><trkpt lat="42.79073495107365" lon="-3.2932716975706238"><ele>594.0</ele><time>2026-04-13T15:22:19Z</time></trkpt><trkpt lat="42.79087875621025" lon="-3.293168032286871"><ele>594.0</ele><time>2026-04-13T15:22:20Z</time></trkpt><trkpt lat="42.79103128896605" lon="-3.2930578181438874"><ele>594.0</ele><time>2026-04-13T15:22:21Z</time></trkpt><trkpt lat="42.791183620316886" lon="-3.2929543414385636"><ele>596.0</ele><time>2026-04-13T15:22:22Z</time></trkpt><trkpt lat="42.79134546751562" lon="-3.2928445503555746"><ele>598.0</ele><time>2026-04-13T15:22:23Z</time></trkpt><trkpt lat="42.791508723900264" lon="-3.292735811012739"><ele>600.0</ele><time>2026-04-13T15:22:24Z</time></trkpt><trkpt lat="42.79167813369584" lon="-3.292619885462755"><ele>600.0</ele><time>2026-04-13T15:22:25Z</time></trkpt><trkpt lat="42.79181938620092" lon="-3.2925219183480205"><ele>600.0</ele><time>2026-04-13T15:22:26Z</time></trkpt><trkpt lat="42.791918863489684" lon="-3.292446891294294"><ele>600.0</ele><time>2026-04-13T15:22:27Z</time></trkpt><trkpt lat="42.791987129851044" lon="-3.2923957100210406"><ele>600.0</ele><time>2026-04-13T15:22:28Z</time></trkpt><trkpt lat="42.792051842701945" lon="-3.2924140957890256"><ele>600.0</ele><time>2026-04-13T15:22:32Z</time></trkpt><trkpt lat="42.79205914505911" lon="-3.292596034929179"><ele>601.0</ele><time>2026-04-13T15:22:34Z</time></trkpt><trkpt lat="42.79206720450729" lon="-3.2927308209780133"><ele>602.0</ele><time>2026-04-13T15:22:35Z</time></trkpt><trkpt lat="42.792105269002136" lon="-3.292868097730451"><ele>603.0</ele><time>2026-04-13T15:22:36Z</time></trkpt><trkpt lat="42.792164133129475" lon="-3.2930328631308154"><ele>604.0</ele><time>2026-04-13T15:22:37Z</time></trkpt><trkpt lat="42.79223953812607" lon="-3.2932116418643513"><ele>604.0</ele><time>2026-04-13T15:22:38Z</time></trkpt><trkpt lat="42.79232367118105" lon="-3.2933963113220877"><ele>604.0</ele><time>2026-04-13T15:22:39Z</time></trkpt><trkpt lat="42.79240699263379" lon="-3.293569947079533"><ele>604.0</ele><time>2026-04-13T15:22:40Z</time></trkpt><trkpt lat="42.792493870274264" lon="-3.293759738387461"><ele>603.6666666666667</ele><time>2026-04-13T15:22:41Z</time></trkpt><trkpt lat="42.79257741257033" lon="-3.2939517137367"><ele>603.3333333333334</ele><time>2026-04-13T15:22:42Z</time></trkpt><trkpt lat="42.79266313459601" lon="-3.294151544383299"><ele>603.0</ele><time>2026-04-13T15:22:43Z</time></trkpt><trkpt lat="42.79275132969398" lon="-3.294357448444841"><ele>603.3333333333334</ele><time>2026-04-13T15:22:44Z</time></trkpt><trkpt lat="42.79284745066425" lon="-3.2945645953250895"><ele>603.6666666666667</ele><time>2026-04-13T15:22:45Z</time></trkpt><trkpt lat="42.792950400448966" lon="-3.2947776766216545"><ele>604.0</ele><time>2026-04-13T15:22:46Z</time></trkpt><trkpt lat="42.79305432511597" lon="-3.294993941870231"><ele>604.0</ele><time>2026-04-13T15:22:47Z</time></trkpt><trkpt lat="42.79315025616124" lon="-3.295214394151304"><ele>604.0</ele><time>2026-04-13T15:22:48Z</time></trkpt><trkpt lat="42.7932444129099" lon="-3.2954292712793785"><ele>604.0</ele><time>2026-04-13T15:22:49Z</time></trkpt><trkpt lat="42.79334176033153" lon="-3.2956370151011853"><ele>603.3333333333334</ele><time>2026-04-13T15:22:50Z</time></trkpt><trkpt lat="42.79343717036574" lon="-3.295846401795874"><ele>602.6666666666666</ele><time>2026-04-13T15:22:51Z</time></trkpt><trkpt lat="42.793533758879946" lon="-3.296078656795459"><ele>602.0</ele><time>2026-04-13T15:22:52Z</time></trkpt><trkpt lat="42.793634914719746" lon="-3.296312999431382"><ele>604.0</ele><time>2026-04-13T15:22:53Z</time></trkpt><trkpt lat="42.79373254818238" lon="-3.296533327804493"><ele>606.0</ele><time>2026-04-13T15:22:54Z</time></trkpt><trkpt lat="42.793838029246814" lon="-3.2967642874781267"><ele>608.0</ele><time>2026-04-13T15:22:55Z</time></trkpt><trkpt lat="42.79394587127484" lon="-3.2970027750722855"><ele>608.0</ele><time>2026-04-13T15:22:56Z</time></trkpt><trkpt lat="42.794052389345474" lon="-3.297245096596135"><ele>608.0</ele><time>2026-04-13T15:22:57Z</time></trkpt><trkpt lat="42.794156142258174" lon="-3.297498937477481"><ele>608.0</ele><time>2026-04-13T15:22:58Z</time></trkpt><trkpt lat="42.79425090175382" lon="-3.2977130630579228"><ele>607.6666666666666</ele><time>2026-04-13T15:22:59Z</time></trkpt><trkpt lat="42.794330382298554" lon="-3.2979040008151332"><ele>607.3333333333334</ele><time>2026-04-13T15:23:00Z</time></trkpt><trkpt lat="42.794414501762866" lon="-3.2980975500559837"><ele>607.0</ele><time>2026-04-13T15:23:01Z</time></trkpt><trkpt lat="42.79450590436547" lon="-3.298283877016688"><ele>607.6666666666667</ele><time>2026-04-13T15:23:02Z</time></trkpt><trkpt lat="42.79460205939901" lon="-3.298481040816407"><ele>608.3333333333334</ele><time>2026-04-13T15:23:03Z</time></trkpt><trkpt lat="42.794682321356234" lon="-3.2986541114336414"><ele>609.0</ele><time>2026-04-13T15:23:04Z</time></trkpt><trkpt lat="42.79475120990292" lon="-3.298813647123972"><ele>608.5</ele><time>2026-04-13T15:23:05Z</time></trkpt><trkpt lat="42.79479287070883" lon="-3.298968476674558"><ele>608.0</ele><time>2026-04-13T15:23:06Z</time></trkpt><trkpt lat="42.794803839854126" lon="-3.2991229463656664"><ele>607.5</ele><time>2026-04-13T15:23:07Z</time></trkpt><trkpt lat="42.79478932313452" lon="-3.2992851549427185"><ele>607.0</ele><time>2026-04-13T15:23:08Z</time></trkpt><trkpt lat="42.794772071556295" lon="-3.299478988641308"><ele>607.0</ele><time>2026-04-13T15:23:09Z</time></trkpt><trkpt lat="42.79478052890882" lon="-3.299693606079256"><ele>607.0</ele><time>2026-04-13T15:23:10Z</time></trkpt><trkpt lat="42.79479770607907" lon="-3.299942338688684"><ele>607.0</ele><time>2026-04-13T15:23:11Z</time></trkpt><trkpt lat="42.7948102523749" lon="-3.300190326206745"><ele>606.3333333333334</ele><time>2026-04-13T15:23:12Z</time></trkpt><trkpt lat="42.79481264259077" lon="-3.300481714383237"><ele>605.6666666666666</ele><time>2026-04-13T15:23:13Z</time></trkpt><trkpt lat="42.794822469859284" lon="-3.300776418562714"><ele>605.0</ele><time>2026-04-13T15:23:14Z</time></trkpt><trkpt lat="42.794840359531676" lon="-3.3010677174138237"><ele>604.3333333333333</ele><time>2026-04-13T15:23:15Z</time></trkpt><trkpt lat="42.7948527395049" lon="-3.301370149687556"><ele>603.6666666666666</ele><time>2026-04-13T15:23:16Z</time></trkpt><trkpt lat="42.79485907168873" lon="-3.3016715565175807"><ele>603.0</ele><time>2026-04-13T15:23:17Z</time></trkpt><trkpt lat="42.794856765643736" lon="-3.301919289557525"><ele>603.0</ele><time>2026-04-13T15:23:18Z</time></trkpt><trkpt lat="42.794860869731934" lon="-3.3021527380390414"><ele>603.0</ele><time>2026-04-13T15:23:19Z</time></trkpt><trkpt lat="42.79486991081702" lon="-3.3024103441738397"><ele>603.0</ele><time>2026-04-13T15:23:20Z</time></trkpt><trkpt lat="42.794876905235064" lon="-3.3026679985629515"><ele>603.0</ele><time>2026-04-13T15:23:21Z</time></trkpt><trkpt lat="42.79488533007383" lon="-3.3029441218189612"><ele>603.0</ele><time>2026-04-13T15:23:22Z</time></trkpt><trkpt lat="42.794893589904326" lon="-3.3032057154377124"><ele>603.0</ele><time>2026-04-13T15:23:23Z</time></trkpt><trkpt lat="42.79489921591001" lon="-3.303436149257707"><ele>602.6666666666666</ele><time>2026-04-13T15:23:24Z</time></trkpt><trkpt lat="42.79491085656828" lon="-3.3036580034477465"><ele>602.3333333333333</ele><time>2026-04-13T15:23:25Z</time></trkpt><trkpt lat="42.79492998475796" lon="-3.303912045226602"><ele>602.0</ele><time>2026-04-13T15:23:26Z</time></trkpt><trkpt lat="42.79495007361704" lon="-3.3041835083310978"><ele>601.0</ele><time>2026-04-13T15:23:27Z</time></trkpt><trkpt lat="42.79497352771023" lon="-3.304449114669102"><ele>600.0</ele><time>2026-04-13T15:23:28Z</time></trkpt><trkpt lat="42.79499609599217" lon="-3.3047244219922782"><ele>599.0</ele><time>2026-04-13T15:23:29Z</time></trkpt><trkpt lat="42.795019889024154" lon="-3.305003000600662"><ele>598.0</ele><time>2026-04-13T15:23:30Z</time></trkpt><trkpt lat="42.7950436595514" lon="-3.305285468941617"><ele>597.0</ele><time>2026-04-13T15:23:31Z</time></trkpt><trkpt lat="42.79506374531427" lon="-3.3055494908388323"><ele>596.0</ele><time>2026-04-13T15:23:32Z</time></trkpt><trkpt lat="42.795084249660086" lon="-3.305797324439617"><ele>595.0</ele><time>2026-04-13T15:23:33Z</time></trkpt><trkpt lat="42.79510106941334" lon="-3.3060330754625356"><ele>594.0</ele><time>2026-04-13T15:23:34Z</time></trkpt><trkpt lat="42.79511867147367" lon="-3.306238226607611"><ele>593.0</ele><time>2026-04-13T15:23:35Z</time></trkpt><trkpt lat="42.79513756117183" lon="-3.3064249800752195"><ele>592.6666666666666</ele><time>2026-04-13T15:23:36Z</time></trkpt><trkpt lat="42.79516443353345" lon="-3.3065919893352187"><ele>592.3333333333334</ele><time>2026-04-13T15:23:37Z</time></trkpt><trkpt lat="42.79520831965554" lon="-3.3067958214829796"><ele>592.0</ele><time>2026-04-13T15:23:38Z</time></trkpt><trkpt lat="42.79527973366378" lon="-3.307009274826862"><ele>593.0</ele><time>2026-04-13T15:23:39Z</time></trkpt><trkpt lat="42.79534941057205" lon="-3.307215126811717"><ele>594.0</ele><time>2026-04-13T15:23:40Z</time></trkpt><trkpt lat="42.79542652601527" lon="-3.307429864108802"><ele>595.0</ele><time>2026-04-13T15:23:41Z</time></trkpt><trkpt lat="42.79550033156056" lon="-3.307662613448523"><ele>595.0</ele><time>2026-04-13T15:23:42Z</time></trkpt><trkpt lat="42.79557280415981" lon="-3.3078879475841134"><ele>595.0</ele><time>2026-04-13T15:23:43Z</time></trkpt><trkpt lat="42.79562845507549" lon="-3.3080817186888045"><ele>595.0</ele><time>2026-04-13T15:23:44Z</time></trkpt><trkpt lat="42.795663528218476" lon="-3.308269468119861"><ele>595.0</ele><time>2026-04-13T15:23:45Z</time></trkpt><trkpt lat="42.79568140578664" lon="-3.3084680588518034"><ele>595.0</ele><time>2026-04-13T15:23:46Z</time></trkpt><trkpt lat="42.795694678590294" lon="-3.308676917019068"><ele>595.0</ele><time>2026-04-13T15:23:47Z</time></trkpt><trkpt lat="42.795715438805345" lon="-3.308855498920301"><ele>595.0</ele><time>2026-04-13T15:23:48Z</time></trkpt><trkpt lat="42.7957375978981" lon="-3.3090122782909686"><ele>595.25</ele><time>2026-04-13T15:23:49Z</time></trkpt><trkpt lat="42.79576731598523" lon="-3.3091559780438775"><ele>595.5</ele><time>2026-04-13T15:23:50Z</time></trkpt><trkpt lat="42.79581068662072" lon="-3.309288039357254"><ele>595.75</ele><time>2026-04-13T15:23:51Z</time></trkpt><trkpt lat="42.79586620409415" lon="-3.309428163888162"><ele>596.0</ele><time>2026-04-13T15:23:52Z</time></trkpt><trkpt lat="42.79592280862674" lon="-3.309572369194828"><ele>596.0</ele><time>2026-04-13T15:23:53Z</time></trkpt><trkpt lat="42.79600104193717" lon="-3.309711393708672"><ele>596.0</ele><time>2026-04-13T15:23:54Z</time></trkpt><trkpt lat="42.79603963690214" lon="-3.3099167323097736"><ele>596.0</ele><time>2026-04-13T15:23:55Z</time></trkpt><trkpt lat="42.796076234107375" lon="-3.310124139405557"><ele>596.0</ele><time>2026-04-13T15:23:56Z</time></trkpt><trkpt lat="42.7961047863863" lon="-3.3103222940997132"><ele>596.4</ele><time>2026-04-13T15:23:57Z</time></trkpt><trkpt lat="42.796132980193384" lon="-3.3104908538986186"><ele>596.8</ele><time>2026-04-13T15:23:58Z</time></trkpt><trkpt lat="42.796162451713094" lon="-3.310632024567225"><ele>597.1999999999999</ele><time>2026-04-13T15:23:59Z</time></trkpt><trkpt lat="42.796201056580706" lon="-3.3107503734713686"><ele>597.6</ele><time>2026-04-13T15:24:00.001Z</time></trkpt><trkpt lat="42.79625879240012" lon="-3.310863963316596"><ele>598.0</ele><time>2026-04-13T15:24:01.001Z</time></trkpt><trkpt lat="42.79632850222307" lon="-3.310974194337889"><ele>599.0</ele><time>2026-04-13T15:24:02.001Z</time></trkpt><trkpt lat="42.79638546458356" lon="-3.31109955754085"><ele>600.0</ele><time>2026-04-13T15:24:03.001Z</time></trkpt><trkpt lat="42.796407168752346" lon="-3.311231517575062"><ele>601.0</ele><time>2026-04-13T15:24:04.001Z</time></trkpt><trkpt lat="42.79640427436686" lon="-3.3113317591831053"><ele>602.0</ele><time>2026-04-13T15:24:05.001Z</time></trkpt><trkpt lat="42.79652586374613" lon="-3.3113462869600756"><ele>603.0</ele><time>2026-04-13T15:24:08.001Z</time></trkpt><trkpt lat="42.79661296511055" lon="-3.3113681849074004"><ele>603.0</ele><time>2026-04-13T15:24:09.001Z</time></trkpt><trkpt lat="42.79672112766071" lon="-3.3113714900883227"><ele>603.0</ele><time>2026-04-13T15:24:10.001Z</time></trkpt><trkpt lat="42.79682640935693" lon="-3.3113564320623388"><ele>603.0</ele><time>2026-04-13T15:24:11.001Z</time></trkpt><trkpt lat="42.79693144277829" lon="-3.311362199173026"><ele>603.0</ele><time>2026-04-13T15:24:12.001Z</time></trkpt><trkpt lat="42.7970369528408" lon="-3.311392123838999"><ele>603.0</ele><time>2026-04-13T15:24:13.001Z</time></trkpt><trkpt lat="42.7971495769111" lon="-3.3113917995935522"><ele>603.75</ele><time>2026-04-13T15:24:14.001Z</time></trkpt><trkpt lat="42.79726758491405" lon="-3.3113919475331413"><ele>604.5</ele><time>2026-04-13T15:24:15.001Z</time></trkpt><trkpt lat="42.79738998805025" lon="-3.3113430719430434"><ele>605.25</ele><time>2026-04-13T15:24:16.001Z</time></trkpt><trkpt lat="42.797512383036945" lon="-3.311301603225176"><ele>606.0</ele><time>2026-04-13T15:24:17.001Z</time></trkpt><trkpt lat="42.797639044559354" lon="-3.3112469529093342"><ele>606.75</ele><time>2026-04-13T15:24:18Z</time></trkpt><trkpt lat="42.7977526705586" lon="-3.31119871128433"><ele>607.5</ele><time>2026-04-13T15:24:19Z</time></trkpt><trkpt lat="42.79787095356082" lon="-3.3111705662541704"><ele>608.25</ele><time>2026-04-13T15:24:20Z</time></trkpt><trkpt lat="42.79801001484705" lon="-3.3111670362706165"><ele>609.0</ele><time>2026-04-13T15:24:21Z</time></trkpt><trkpt lat="42.79815774201586" lon="-3.311148353635"><ele>609.0</ele><time>2026-04-13T15:24:22Z</time></trkpt><trkpt lat="42.79831010512958" lon="-3.3111647970814175"><ele>609.0</ele><time>2026-04-13T15:24:23Z</time></trkpt><trkpt lat="42.79845597670828" lon="-3.311161758531862"><ele>609.0</ele><time>2026-04-13T15:24:24Z</time></trkpt><trkpt lat="42.798599516371624" lon="-3.311110616600391"><ele>609.0</ele><time>2026-04-13T15:24:25Z</time></trkpt><trkpt lat="42.798757769985365" lon="-3.311090337463467"><ele>609.6666666666666</ele><time>2026-04-13T15:24:26Z</time></trkpt><trkpt lat="42.79891829330325" lon="-3.3110494013285825"><ele>610.3333333333333</ele><time>2026-04-13T15:24:27Z</time></trkpt><trkpt lat="42.79908566419938" lon="-3.3110194906068844"><ele>611.0</ele><time>2026-04-13T15:24:28Z</time></trkpt><trkpt lat="42.79924061418918" lon="-3.310958853536964"><ele>612.3333333333333</ele><time>2026-04-13T15:24:29Z</time></trkpt><trkpt lat="42.79938472857792" lon="-3.310891394183588"><ele>613.6666666666666</ele><time>2026-04-13T15:24:30Z</time></trkpt><trkpt lat="42.79952825635726" lon="-3.310804609922841"><ele>615.0</ele><time>2026-04-13T15:24:31Z</time></trkpt><trkpt lat="42.79966356057953" lon="-3.3107137036258796"><ele>615.0</ele><time>2026-04-13T15:24:32Z</time></trkpt><trkpt lat="42.79979131509426" lon="-3.3106575328978303"><ele>615.0</ele><time>2026-04-13T15:24:33Z</time></trkpt><trkpt lat="42.79991483717582" lon="-3.310596879810319"><ele>615.0</ele><time>2026-04-13T15:24:34Z</time></trkpt><trkpt lat="42.80002917665254" lon="-3.3105738609177338"><ele>615.0</ele><time>2026-04-13T15:24:35Z</time></trkpt><trkpt lat="42.80015405119977" lon="-3.310575031699554"><ele>615.6666666666666</ele><time>2026-04-13T15:24:36Z</time></trkpt><trkpt lat="42.80029536147752" lon="-3.3105548375857055"><ele>616.3333333333333</ele><time>2026-04-13T15:24:37Z</time></trkpt><trkpt lat="42.80045067085806" lon="-3.3105665919658405"><ele>617.0</ele><time>2026-04-13T15:24:38Z</time></trkpt><trkpt lat="42.800613399664385" lon="-3.31057903269982"><ele>617.0</ele><time>2026-04-13T15:24:39Z</time></trkpt><trkpt lat="42.800772503689075" lon="-3.3105928711584163"><ele>617.0</ele><time>2026-04-13T15:24:40Z</time></trkpt><trkpt lat="42.800899047940554" lon="-3.3106038776473152"><ele>617.0</ele><time>2026-04-13T15:24:41Z</time></trkpt><trkpt lat="42.800983517519825" lon="-3.310629868866684"><ele>617.0</ele><time>2026-04-13T15:24:42Z</time></trkpt><trkpt lat="42.80110378323522" lon="-3.310634369315699"><ele>617.0</ele><time>2026-04-13T15:24:44Z</time></trkpt><trkpt lat="42.80091027542559" lon="-3.31063183735408"><ele>617.0</ele><time>2026-04-13T15:24:56Z</time></trkpt><trkpt lat="42.80077962194197" lon="-3.310610505334721"><ele>617.0</ele><time>2026-04-13T15:24:57Z</time></trkpt><trkpt lat="42.80065190958885" lon="-3.310611432813177"><ele>617.0</ele><time>2026-04-13T15:24:58Z</time></trkpt><trkpt lat="42.800500341513725" lon="-3.310586641643162"><ele>617.0</ele><time>2026-04-13T15:24:59Z</time></trkpt><trkpt lat="42.800361137385885" lon="-3.3105719149845476"><ele>617.0</ele><time>2026-04-13T15:25:00Z</time></trkpt><trkpt lat="42.80022954221641" lon="-3.31056105301483"><ele>617.0</ele><time>2026-04-13T15:25:01Z</time></trkpt><trkpt lat="42.80012682405862" lon="-3.3105552124275923"><ele>616.8333333333333</ele><time>2026-04-13T15:25:02Z</time></trkpt><trkpt lat="42.800040592883924" lon="-3.3105588007231037"><ele>616.6666666666666</ele><time>2026-04-13T15:25:04Z</time></trkpt><trkpt lat="42.79996807327545" lon="-3.3106013744378004"><ele>616.5</ele><time>2026-04-13T15:25:09Z</time></trkpt><trkpt lat="42.799927954301026" lon="-3.310509483190892"><ele>616.3333333333334</ele><time>2026-04-13T15:25:13Z</time></trkpt><trkpt lat="42.80004157439817" lon="-3.3104675361057008"><ele>616.1666666666667</ele><time>2026-04-13T15:25:14Z</time></trkpt><trkpt lat="42.800092469597836" lon="-3.3105561050040824"><ele>616.0</ele><time>2026-04-13T15:25:30Z</time></trkpt><trkpt lat="42.80017854566598" lon="-3.310573863486458"><ele>616.5</ele><time>2026-04-13T15:25:32Z</time></trkpt><trkpt lat="42.80031174079697" lon="-3.3110212114333035"><ele>617.0</ele><time>2026-04-13T15:25:34Z</time></trkpt><trkpt lat="42.800402428939044" lon="-3.311184528623548"><ele>617.0</ele><time>2026-04-13T15:25:35Z</time></trkpt><trkpt lat="42.80051125470972" lon="-3.3113623208177234"><ele>617.0</ele><time>2026-04-13T15:25:36Z</time></trkpt><trkpt lat="42.80062851845056" lon="-3.311566025807223"><ele>617.0</ele><time>2026-04-13T15:25:37Z</time></trkpt><trkpt lat="42.80075379913013" lon="-3.3117865526167827"><ele>617.6666666666666</ele><time>2026-04-13T15:25:38Z</time></trkpt><trkpt lat="42.800873756960804" lon="-3.3119959131448873"><ele>618.3333333333334</ele><time>2026-04-13T15:25:39Z</time></trkpt><trkpt lat="42.800995252996785" lon="-3.312218714413423"><ele>619.0</ele><time>2026-04-13T15:25:40Z</time></trkpt><trkpt lat="42.80111334317281" lon="-3.312422690864897"><ele>619.0</ele><time>2026-04-13T15:25:41Z</time></trkpt><trkpt lat="42.80122815741067" lon="-3.312625183451496"><ele>619.0</ele><time>2026-04-13T15:25:42Z</time></trkpt><trkpt lat="42.80133276249153" lon="-3.3128188259852"><ele>619.0</ele><time>2026-04-13T15:25:43Z</time></trkpt><trkpt lat="42.801445352265304" lon="-3.313024462220277"><ele>618.3333333333334</ele><time>2026-04-13T15:25:44Z</time></trkpt><trkpt lat="42.80156201835362" lon="-3.313234884506513"><ele>617.6666666666666</ele><time>2026-04-13T15:25:45Z</time></trkpt><trkpt lat="42.8016913895237" lon="-3.313456707094145"><ele>617.0</ele><time>2026-04-13T15:25:46Z</time></trkpt><trkpt lat="42.801817389063594" lon="-3.313694328202867"><ele>619.0</ele><time>2026-04-13T15:25:47Z</time></trkpt><trkpt lat="42.801938438339704" lon="-3.3139079439786543"><ele>621.0</ele><time>2026-04-13T15:25:48Z</time></trkpt><trkpt lat="42.80206515826643" lon="-3.314139763245706"><ele>623.0</ele><time>2026-04-13T15:25:49Z</time></trkpt><trkpt lat="42.80218509584177" lon="-3.3143641604855594"><ele>623.0</ele><time>2026-04-13T15:25:50Z</time></trkpt><trkpt lat="42.80229353767481" lon="-3.314559161531408"><ele>623.0</ele><time>2026-04-13T15:25:51Z</time></trkpt><trkpt lat="42.80240620915861" lon="-3.3147722799996475"><ele>623.0</ele><time>2026-04-13T15:25:52Z</time></trkpt><trkpt lat="42.80252189377261" lon="-3.314987833437686"><ele>624.0</ele><time>2026-04-13T15:25:53Z</time></trkpt><trkpt lat="42.80263738656832" lon="-3.3151778617469327"><ele>625.0</ele><time>2026-04-13T15:25:54Z</time></trkpt><trkpt lat="42.80273535107079" lon="-3.3153601486599245"><ele>626.0</ele><time>2026-04-13T15:25:55Z</time></trkpt><trkpt lat="42.802816838895815" lon="-3.315530577000912"><ele>628.0</ele><time>2026-04-13T15:25:56Z</time></trkpt><trkpt lat="42.802884456229506" lon="-3.3157093372286814"><ele>630.0</ele><time>2026-04-13T15:25:57Z</time></trkpt><trkpt lat="42.802963204074665" lon="-3.315895424892446"><ele>632.0</ele><time>2026-04-13T15:25:58Z</time></trkpt><trkpt lat="42.80303527006298" lon="-3.3161066320672004"><ele>632.0</ele><time>2026-04-13T15:25:59Z</time></trkpt><trkpt lat="42.80311327343468" lon="-3.3163181669460595"><ele>632.0</ele><time>2026-04-13T15:26:00Z</time></trkpt><trkpt lat="42.80319779950442" lon="-3.3165492455411165"><ele>632.0</ele><time>2026-04-13T15:26:01Z</time></trkpt><trkpt lat="42.803282928420664" lon="-3.3167541241296465"><ele>633.3333333333333</ele><time>2026-04-13T15:26:02Z</time></trkpt><trkpt lat="42.80337090297108" lon="-3.3169781606450646"><ele>634.6666666666666</ele><time>2026-04-13T15:26:03Z</time></trkpt><trkpt lat="42.803457696472535" lon="-3.317219178743536"><ele>636.0</ele><time>2026-04-13T15:26:04Z</time></trkpt><trkpt lat="42.80354615417498" lon="-3.3174584050525104"><ele>639.3333333333334</ele><time>2026-04-13T15:26:05Z</time></trkpt><trkpt lat="42.80364525572076" lon="-3.3177069278872544"><ele>642.6666666666667</ele><time>2026-04-13T15:26:06.001Z</time></trkpt><trkpt lat="42.80374528088383" lon="-3.31796300854021"><ele>646.0</ele><time>2026-04-13T15:26:07.001Z</time></trkpt><trkpt lat="42.803813551979374" lon="-3.318153438036736"><ele>646.0</ele><time>2026-04-13T15:26:08.001Z</time></trkpt><trkpt lat="42.80386190091817" lon="-3.318294780654826"><ele>646.0</ele><time>2026-04-13T15:26:09.001Z</time></trkpt><trkpt lat="42.803903778881484" lon="-3.31840276429483"><ele>646.0</ele><time>2026-04-13T15:26:10.001Z</time></trkpt><trkpt lat="42.80396868396345" lon="-3.318516166036501"><ele>646.0</ele><time>2026-04-13T15:26:11.001Z</time></trkpt><trkpt lat="42.804053016060045" lon="-3.3186344659609945"><ele>646.0</ele><time>2026-04-13T15:26:12.001Z</time></trkpt><trkpt lat="42.804162279378815" lon="-3.3187646074707904"><ele>646.0</ele><time>2026-04-13T15:26:13.001Z</time></trkpt><trkpt lat="42.80428882190426" lon="-3.3188989509439843"><ele>646.0</ele><time>2026-04-13T15:26:14Z</time></trkpt><trkpt lat="42.80439411633159" lon="-3.319029138777002"><ele>646.0</ele><time>2026-04-13T15:26:15Z</time></trkpt><trkpt lat="42.804476190840205" lon="-3.3191543063297417"><ele>646.0</ele><time>2026-04-13T15:26:16Z</time></trkpt><trkpt lat="42.80453767789596" lon="-3.319295146693795"><ele>645.75</ele><time>2026-04-13T15:26:17Z</time></trkpt><trkpt lat="42.804565620982835" lon="-3.319445982481834"><ele>645.5</ele><time>2026-04-13T15:26:18Z</time></trkpt><trkpt lat="42.80458493644118" lon="-3.3196106489587707"><ele>645.25</ele><time>2026-04-13T15:26:19Z</time></trkpt><trkpt lat="42.80460583393066" lon="-3.3197616261113954"><ele>645.0</ele><time>2026-04-13T15:26:20Z</time></trkpt><trkpt lat="42.80466206983457" lon="-3.319924490677077"><ele>645.0</ele><time>2026-04-13T15:26:21Z</time></trkpt><trkpt lat="42.80473135231506" lon="-3.320100394706401"><ele>645.0</ele><time>2026-04-13T15:26:22Z</time></trkpt><trkpt lat="42.80479467649693" lon="-3.320260113800026"><ele>645.0</ele><time>2026-04-13T15:26:23Z</time></trkpt><trkpt lat="42.8048579454288" lon="-3.3203833094904334"><ele>645.0</ele><time>2026-04-13T15:26:24Z</time></trkpt><trkpt lat="42.80493717121199" lon="-3.3204693822153706"><ele>645.0</ele><time>2026-04-13T15:26:25Z</time></trkpt><trkpt lat="42.80504198524856" lon="-3.3205427633348967"><ele>645.0</ele><time>2026-04-13T15:26:26Z</time></trkpt><trkpt lat="42.80516873572175" lon="-3.320644114854375"><ele>645.0</ele><time>2026-04-13T15:26:27Z</time></trkpt><trkpt lat="42.80528773713636" lon="-3.3207619492681477"><ele>645.0</ele><time>2026-04-13T15:26:28Z</time></trkpt><trkpt lat="42.80539506527343" lon="-3.3208883104605813"><ele>642.5</ele><time>2026-04-13T15:26:29Z</time></trkpt><trkpt lat="42.80547838262729" lon="-3.3210145155802104"><ele>640.0</ele><time>2026-04-13T15:26:30Z</time></trkpt><trkpt lat="42.805558334922296" lon="-3.321174645653092"><ele>637.5</ele><time>2026-04-13T15:26:31Z</time></trkpt><trkpt lat="42.80563912730247" lon="-3.3213698437976795"><ele>635.0</ele><time>2026-04-13T15:26:32Z</time></trkpt><trkpt lat="42.80570712418756" lon="-3.321577972048537"><ele>634.6666666666666</ele><time>2026-04-13T15:26:33Z</time></trkpt><trkpt lat="42.80577065454979" lon="-3.321846947023795"><ele>634.3333333333334</ele><time>2026-04-13T15:26:34Z</time></trkpt><trkpt lat="42.80582725972327" lon="-3.322117861877794"><ele>634.0</ele><time>2026-04-13T15:26:35Z</time></trkpt><trkpt lat="42.805863507446304" lon="-3.3223185356707834"><ele>633.0</ele><time>2026-04-13T15:26:36Z</time></trkpt><trkpt lat="42.80591247080283" lon="-3.3224738905986606"><ele>632.0</ele><time>2026-04-13T15:26:37Z</time></trkpt><trkpt lat="42.80595660722229" lon="-3.3226334607269834"><ele>631.0</ele><time>2026-04-13T15:26:38Z</time></trkpt><trkpt lat="42.80604344012351" lon="-3.3227928873847272"><ele>630.0</ele><time>2026-04-13T15:26:39Z</time></trkpt><trkpt lat="42.80613529457602" lon="-3.322982333666916"><ele>632.0</ele><time>2026-04-13T15:26:40Z</time></trkpt><trkpt lat="42.806243748932054" lon="-3.323096630598294"><ele>634.0</ele><time>2026-04-13T15:26:41Z</time></trkpt><trkpt lat="42.80634653080287" lon="-3.3232580604582296"><ele>636.0</ele><time>2026-04-13T15:26:42Z</time></trkpt><trkpt lat="42.806425774643074" lon="-3.323377227804897"><ele>638.0</ele><time>2026-04-13T15:26:43Z</time></trkpt><trkpt lat="42.806479615465136" lon="-3.3234845925234224"><ele>638.0</ele><time>2026-04-13T15:26:44Z</time></trkpt><trkpt lat="42.80651913499961" lon="-3.3236280420392212"><ele>638.0</ele><time>2026-04-13T15:26:45Z</time></trkpt><trkpt lat="42.80656675148263" lon="-3.323813800030667"><ele>638.0</ele><time>2026-04-13T15:26:46Z</time></trkpt><trkpt lat="42.80664510995808" lon="-3.324004621794412"><ele>638.0</ele><time>2026-04-13T15:26:47Z</time></trkpt><trkpt lat="42.806729958507155" lon="-3.3241881117968997"><ele>638.0</ele><time>2026-04-13T15:26:48Z</time></trkpt><trkpt lat="42.80679116598865" lon="-3.324310156620037"><ele>638.0</ele><time>2026-04-13T15:26:49Z</time></trkpt><trkpt lat="42.80682640555837" lon="-3.324401456125811"><ele>638.0</ele><time>2026-04-13T15:26:50Z</time></trkpt><trkpt lat="42.80686423495498" lon="-3.3245470469403777"><ele>638.0</ele><time>2026-04-13T15:26:51Z</time></trkpt><trkpt lat="42.80690665116197" lon="-3.3247277512662605"><ele>638.0</ele><time>2026-04-13T15:26:52Z</time></trkpt><trkpt lat="42.80695500468462" lon="-3.3249277572773024"><ele>639.3333333333333</ele><time>2026-04-13T15:26:53Z</time></trkpt><trkpt lat="42.807017624436206" lon="-3.3251429278022693"><ele>640.6666666666666</ele><time>2026-04-13T15:26:54Z</time></trkpt><trkpt lat="42.807079717875595" lon="-3.3253505235261858"><ele>642.0</ele><time>2026-04-13T15:26:55Z</time></trkpt><trkpt lat="42.80713626664459" lon="-3.3255613559499215"><ele>641.6666666666666</ele><time>2026-04-13T15:26:56Z</time></trkpt><trkpt lat="42.80719572792491" lon="-3.325780752524129"><ele>641.3333333333333</ele><time>2026-04-13T15:26:57Z</time></trkpt><trkpt lat="42.80725861353635" lon="-3.325978378988632"><ele>641.0</ele><time>2026-04-13T15:26:58Z</time></trkpt><trkpt lat="42.80733019558701" lon="-3.326137113044327"><ele>641.0</ele><time>2026-04-13T15:26:59Z</time></trkpt><trkpt lat="42.807415941959455" lon="-3.326258015825516"><ele>641.0</ele><time>2026-04-13T15:27:00Z</time></trkpt><trkpt lat="42.807522148367894" lon="-3.326369992219536"><ele>641.0</ele><time>2026-04-13T15:27:01Z</time></trkpt><trkpt lat="42.807639873447805" lon="-3.3264915574659004"><ele>641.0</ele><time>2026-04-13T15:27:02Z</time></trkpt><trkpt lat="42.80777678289279" lon="-3.3266299195589144"><ele>641.25</ele><time>2026-04-13T15:27:03Z</time></trkpt><trkpt lat="42.80790180109432" lon="-3.3267547073137234"><ele>641.5</ele><time>2026-04-13T15:27:04Z</time></trkpt><trkpt lat="42.80800555547347" lon="-3.326858028574136"><ele>641.75</ele><time>2026-04-13T15:27:05Z</time></trkpt><trkpt lat="42.808112007040215" lon="-3.32696925694313"><ele>642.0</ele><time>2026-04-13T15:27:06Z</time></trkpt><trkpt lat="42.808225743115045" lon="-3.3270783368021277"><ele>642.0</ele><time>2026-04-13T15:27:07Z</time></trkpt><trkpt lat="42.80833363882762" lon="-3.3271997678511864"><ele>642.0</ele><time>2026-04-13T15:27:08Z</time></trkpt><trkpt lat="42.80843334327205" lon="-3.3272934260223215"><ele>642.0</ele><time>2026-04-13T15:27:09Z</time></trkpt><trkpt lat="42.808535608006885" lon="-3.3273882704412507"><ele>642.0</ele><time>2026-04-13T15:27:10Z</time></trkpt><trkpt lat="42.808625075660686" lon="-3.3274853925215826"><ele>641.5</ele><time>2026-04-13T15:27:11Z</time></trkpt><trkpt lat="42.80868803437119" lon="-3.3276106482618895"><ele>641.0</ele><time>2026-04-13T15:27:12Z</time></trkpt><trkpt lat="42.80872748718076" lon="-3.327780107488171"><ele>640.5</ele><time>2026-04-13T15:27:13Z</time></trkpt><trkpt lat="42.80874836007187" lon="-3.3279878242224803"><ele>640.0</ele><time>2026-04-13T15:27:14Z</time></trkpt><trkpt lat="42.80876321872169" lon="-3.3281943167850994"><ele>638.6666666666667</ele><time>2026-04-13T15:27:15Z</time></trkpt><trkpt lat="42.80879109446964" lon="-3.3284111276866577"><ele>637.3333333333334</ele><time>2026-04-13T15:27:16Z</time></trkpt><trkpt lat="42.808827928711835" lon="-3.3286242037152185"><ele>636.0</ele><time>2026-04-13T15:27:17Z</time></trkpt><trkpt lat="42.808863916686036" lon="-3.3288696015990746"><ele>635.5</ele><time>2026-04-13T15:27:18Z</time></trkpt><trkpt lat="42.80889742423263" lon="-3.32909756998599"><ele>635.0</ele><time>2026-04-13T15:27:19Z</time></trkpt><trkpt lat="42.80892202644097" lon="-3.3292865401387246"><ele>634.5</ele><time>2026-04-13T15:27:20Z</time></trkpt><trkpt lat="42.808956713351336" lon="-3.3294393449643387"><ele>634.0</ele><time>2026-04-13T15:27:21Z</time></trkpt><trkpt lat="42.80900896627857" lon="-3.329578203477093"><ele>633.25</ele><time>2026-04-13T15:27:22Z</time></trkpt><trkpt lat="42.80908412275996" lon="-3.3297320428331023"><ele>632.5</ele><time>2026-04-13T15:27:23Z</time></trkpt><trkpt lat="42.80916181722965" lon="-3.3298649214568816"><ele>631.75</ele><time>2026-04-13T15:27:24Z</time></trkpt><trkpt lat="42.809243237361514" lon="-3.329982087531219"><ele>631.0</ele><time>2026-04-13T15:27:25Z</time></trkpt><trkpt lat="42.80934068260242" lon="-3.330114937921528"><ele>631.0</ele><time>2026-04-13T15:27:26Z</time></trkpt><trkpt lat="42.80945498744967" lon="-3.330242516733865"><ele>631.0</ele><time>2026-04-13T15:27:27Z</time></trkpt><trkpt lat="42.80955770614036" lon="-3.330352698124653"><ele>631.0</ele><time>2026-04-13T15:27:28Z</time></trkpt><trkpt lat="42.80964956266512" lon="-3.3304484350443966"><ele>631.0</ele><time>2026-04-13T15:27:29Z</time></trkpt><trkpt lat="42.80968893305421" lon="-3.3306271520292126"><ele>630.0</ele><time>2026-04-13T15:27:30Z</time></trkpt><trkpt lat="42.80974957993548" lon="-3.330675077594479"><ele>629.0</ele><time>2026-04-13T15:27:31Z</time></trkpt><trkpt lat="42.8098150695684" lon="-3.3307481409890785"><ele>628.0</ele><time>2026-04-13T15:27:33Z</time></trkpt><trkpt lat="42.80985719450908" lon="-3.3308248627718426"><ele>627.0</ele><time>2026-04-13T15:27:34Z</time></trkpt><trkpt lat="42.80992841538655" lon="-3.3309357018040306"><ele>626.0</ele><time>2026-04-13T15:27:35Z</time></trkpt><trkpt lat="42.81002144377757" lon="-3.331073893225353"><ele>626.0</ele><time>2026-04-13T15:27:36Z</time></trkpt><trkpt lat="42.81012925020146" lon="-3.3312391427674424"><ele>626.0</ele><time>2026-04-13T15:27:37Z</time></trkpt><trkpt lat="42.81024455722557" lon="-3.331410877685106"><ele>626.0</ele><time>2026-04-13T15:27:38Z</time></trkpt><trkpt lat="42.81034860740775" lon="-3.331586787826712"><ele>626.3333333333333</ele><time>2026-04-13T15:27:39Z</time></trkpt><trkpt lat="42.81044987898836" lon="-3.3317882571354143"><ele>626.6666666666666</ele><time>2026-04-13T15:27:40Z</time></trkpt><trkpt lat="42.81056804623907" lon="-3.331976466993306"><ele>627.0</ele><time>2026-04-13T15:27:41Z</time></trkpt><trkpt lat="42.81069071913073" lon="-3.332113122456212"><ele>625.75</ele><time>2026-04-13T15:27:42Z</time></trkpt><trkpt lat="42.81078168510785" lon="-3.332243535519643"><ele>624.5</ele><time>2026-04-13T15:27:43Z</time></trkpt><trkpt lat="42.81087866003678" lon="-3.332350663353575"><ele>623.25</ele><time>2026-04-13T15:27:44Z</time></trkpt><trkpt lat="42.81096488336722" lon="-3.3324458426114316"><ele>622.0</ele><time>2026-04-13T15:27:45Z</time></trkpt><trkpt lat="42.81105029946329" lon="-3.3325534901353544"><ele>621.5</ele><time>2026-04-13T15:27:46Z</time></trkpt><trkpt lat="42.811122576144726" lon="-3.3326620556086843"><ele>621.0</ele><time>2026-04-13T15:27:47Z</time></trkpt><trkpt lat="42.81118415958143" lon="-3.3327833588937383"><ele>620.5</ele><time>2026-04-13T15:27:48Z</time></trkpt><trkpt lat="42.811238707055544" lon="-3.3329308726730544"><ele>620.0</ele><time>2026-04-13T15:27:49Z</time></trkpt><trkpt lat="42.81128662253488" lon="-3.333092314926886"><ele>620.0</ele><time>2026-04-13T15:27:50Z</time></trkpt><trkpt lat="42.811340302529665" lon="-3.3332467835057527"><ele>620.0</ele><time>2026-04-13T15:27:51Z</time></trkpt><trkpt lat="42.8113811355044" lon="-3.333387244655727"><ele>620.0</ele><time>2026-04-13T15:27:52Z</time></trkpt><trkpt lat="42.8114021066407" lon="-3.3335072859700254"><ele>620.0</ele><time>2026-04-13T15:27:53Z</time></trkpt><trkpt lat="42.811440411112265" lon="-3.3336302717805912"><ele>620.0</ele><time>2026-04-13T15:27:55Z</time></trkpt><trkpt lat="42.81152139301831" lon="-3.3336567423285657"><ele>620.0</ele><time>2026-04-13T15:27:57Z</time></trkpt><trkpt lat="42.81157957435019" lon="-3.3337479532512675"><ele>620.0</ele><time>2026-04-13T15:27:58Z</time></trkpt><trkpt lat="42.811647983460915" lon="-3.33375516821868"><ele>620.0</ele><time>2026-04-13T15:27:59Z</time></trkpt><trkpt lat="42.8118638775085" lon="-3.333253896850016"><ele>619.4</ele><time>2026-04-13T15:28:02Z</time></trkpt><trkpt lat="42.81192042712414" lon="-3.3331364598642286"><ele>618.8</ele><time>2026-04-13T15:28:03Z</time></trkpt><trkpt lat="42.81200005894568" lon="-3.333023707562253"><ele>618.2</ele><time>2026-04-13T15:28:04Z</time></trkpt><trkpt lat="42.8120813170489" lon="-3.332942301703325"><ele>617.6</ele><time>2026-04-13T15:28:05Z</time></trkpt><trkpt lat="42.81217736487692" lon="-3.3328841282645927"><ele>617.0</ele><time>2026-04-13T15:28:06Z</time></trkpt><trkpt lat="42.81229206545427" lon="-3.3328219698611314"><ele>619.5</ele><time>2026-04-13T15:28:07Z</time></trkpt><trkpt lat="42.812401008320876" lon="-3.3327742463824803"><ele>622.0</ele><time>2026-04-13T15:28:08Z</time></trkpt><trkpt lat="42.81251518616302" lon="-3.332720145789693"><ele>624.5</ele><time>2026-04-13T15:28:09Z</time></trkpt><trkpt lat="42.81261865562282" lon="-3.3326659559094476"><ele>627.0</ele><time>2026-04-13T15:28:10Z</time></trkpt><trkpt lat="42.81273344383563" lon="-3.3326203498279408"><ele>627.0</ele><time>2026-04-13T15:28:11Z</time></trkpt><trkpt lat="42.812857249585306" lon="-3.3325770900504845"><ele>627.0</ele><time>2026-04-13T15:28:12Z</time></trkpt><trkpt lat="42.81300301521364" lon="-3.3325345973402043"><ele>627.0</ele><time>2026-04-13T15:28:13Z</time></trkpt><trkpt lat="42.81312639903978" lon="-3.3324812732058686"><ele>627.0</ele><time>2026-04-13T15:28:14Z</time></trkpt><trkpt lat="42.813228411645795" lon="-3.3324270683684385"><ele>627.0</ele><time>2026-04-13T15:28:15Z</time></trkpt><trkpt lat="42.81330832007546" lon="-3.3323740893311204"><ele>627.0</ele><time>2026-04-13T15:28:16Z</time></trkpt><trkpt lat="42.813387102664265" lon="-3.3323105241740905"><ele>627.0</ele><time>2026-04-13T15:28:17Z</time></trkpt><trkpt lat="42.81347052667487" lon="-3.332218990689963"><ele>627.0</ele><time>2026-04-13T15:28:18Z</time></trkpt><trkpt lat="42.81354234979685" lon="-3.3321069278918496"><ele>627.0</ele><time>2026-04-13T15:28:19Z</time></trkpt><trkpt lat="42.813600401132916" lon="-3.3319903564349036"><ele>627.6</ele><time>2026-04-13T15:28:20Z</time></trkpt><trkpt lat="42.81366651906214" lon="-3.3318707904496963"><ele>628.2</ele><time>2026-04-13T15:28:21Z</time></trkpt><trkpt lat="42.81373438490037" lon="-3.3317833146596945"><ele>628.8</ele><time>2026-04-13T15:28:22Z</time></trkpt><trkpt lat="42.8138071272534" lon="-3.3317065015835166"><ele>629.4</ele><time>2026-04-13T15:28:23Z</time></trkpt><trkpt lat="42.81389957520278" lon="-3.3316433847028377"><ele>630.0</ele><time>2026-04-13T15:28:24Z</time></trkpt><trkpt lat="42.81400563153501" lon="-3.331607418669928"><ele>630.0</ele><time>2026-04-13T15:28:25Z</time></trkpt><trkpt lat="42.814135814322995" lon="-3.331585108124412"><ele>630.0</ele><time>2026-04-13T15:28:26Z</time></trkpt><trkpt lat="42.81428152388796" lon="-3.331568312865645"><ele>630.0</ele><time>2026-04-13T15:28:27Z</time></trkpt><trkpt lat="42.81439968411797" lon="-3.331564127048516"><ele>630.0</ele><time>2026-04-13T15:28:28Z</time></trkpt><trkpt lat="42.814498116150354" lon="-3.331584008625701"><ele>631.0</ele><time>2026-04-13T15:28:29Z</time></trkpt><trkpt lat="42.81459954816539" lon="-3.331629448208452"><ele>632.0</ele><time>2026-04-13T15:28:30Z</time></trkpt><trkpt lat="42.814707254524905" lon="-3.331693096891598"><ele>633.0</ele><time>2026-04-13T15:28:31Z</time></trkpt><trkpt lat="42.8148101387779" lon="-3.331749076902589"><ele>634.0</ele><time>2026-04-13T15:28:32Z</time></trkpt><trkpt lat="42.81489431053577" lon="-3.331784992749452"><ele>635.0</ele><time>2026-04-13T15:28:33Z</time></trkpt><trkpt lat="42.814982625778036" lon="-3.3318216238799616"><ele>635.0</ele><time>2026-04-13T15:28:34Z</time></trkpt><trkpt lat="42.81508386991686" lon="-3.331847973114602"><ele>635.0</ele><time>2026-04-13T15:28:35Z</time></trkpt><trkpt lat="42.81518455228312" lon="-3.331863029262255"><ele>635.0</ele><time>2026-04-13T15:28:36Z</time></trkpt><trkpt lat="42.815281535494904" lon="-3.3318599278217707"><ele>635.0</ele><time>2026-04-13T15:28:37Z</time></trkpt><trkpt lat="42.81537578418365" lon="-3.33183310254205"><ele>635.0</ele><time>2026-04-13T15:28:38Z</time></trkpt><trkpt lat="42.815470543520256" lon="-3.331794933957584"><ele>634.6666666666666</ele><time>2026-04-13T15:28:39Z</time></trkpt><trkpt lat="42.81558024616822" lon="-3.331752164406536"><ele>634.3333333333333</ele><time>2026-04-13T15:28:40Z</time></trkpt><trkpt lat="42.81567636417194" lon="-3.3317208189234764"><ele>634.0</ele><time>2026-04-13T15:28:41Z</time></trkpt><trkpt lat="42.815757068708606" lon="-3.3317052776046845"><ele>633.6666666666666</ele><time>2026-04-13T15:28:42Z</time></trkpt><trkpt lat="42.81582670059817" lon="-3.331705842611199"><ele>633.3333333333334</ele><time>2026-04-13T15:28:43Z</time></trkpt><trkpt lat="42.815900842186466" lon="-3.3317378375871627"><ele>633.0</ele><time>2026-04-13T15:28:44Z</time></trkpt><trkpt lat="42.81599137041336" lon="-3.3317986327341234"><ele>635.2</ele><time>2026-04-13T15:28:45Z</time></trkpt><trkpt lat="42.81609627675429" lon="-3.3318999663628603"><ele>637.4</ele><time>2026-04-13T15:28:46Z</time></trkpt><trkpt lat="42.816180050463274" lon="-3.3319973152851614"><ele>639.6</ele><time>2026-04-13T15:28:47Z</time></trkpt><trkpt lat="42.81623733069841" lon="-3.3320656738963335"><ele>641.8000000000001</ele><time>2026-04-13T15:28:48Z</time></trkpt><trkpt lat="42.81629534940712" lon="-3.3321112086813294"><ele>644.0</ele><time>2026-04-13T15:28:49Z</time></trkpt><trkpt lat="42.816410216249956" lon="-3.332071143060988"><ele>644.0</ele><time>2026-04-13T15:28:51Z</time></trkpt><trkpt lat="42.81647460491741" lon="-3.332015675754523"><ele>644.0</ele><time>2026-04-13T15:28:52Z</time></trkpt><trkpt lat="42.81655012160151" lon="-3.3319359320182675"><ele>644.0</ele><time>2026-04-13T15:28:53Z</time></trkpt><trkpt lat="42.81664277057191" lon="-3.331863171213659"><ele>644.0</ele><time>2026-04-13T15:28:54Z</time></trkpt><trkpt lat="42.81674593814857" lon="-3.331816574690584"><ele>644.0</ele><time>2026-04-13T15:28:55Z</time></trkpt><trkpt lat="42.816836047443275" lon="-3.3318257200681733"><ele>644.2</ele><time>2026-04-13T15:28:56Z</time></trkpt><trkpt lat="42.816929694304896" lon="-3.3318675161953517"><ele>644.4000000000001</ele><time>2026-04-13T15:28:57Z</time></trkpt><trkpt lat="42.817024010731636" lon="-3.3319366270292297"><ele>644.6</ele><time>2026-04-13T15:28:58Z</time></trkpt><trkpt lat="42.81712157308634" lon="-3.332017691487912"><ele>644.8</ele><time>2026-04-13T15:28:59Z</time></trkpt><trkpt lat="42.81721023134239" lon="-3.332105942275308"><ele>645.0</ele><time>2026-04-13T15:29:00Z</time></trkpt><trkpt lat="42.81729494571703" lon="-3.3321824393538177"><ele>645.0</ele><time>2026-04-13T15:29:01Z</time></trkpt><trkpt lat="42.817375989400375" lon="-3.332242267254179"><ele>645.0</ele><time>2026-04-13T15:29:02Z</time></trkpt><trkpt lat="42.817439012650425" lon="-3.3322719169644657"><ele>645.0</ele><time>2026-04-13T15:29:03Z</time></trkpt><trkpt lat="42.817523239270656" lon="-3.3322824083591733"><ele>645.0</ele><time>2026-04-13T15:29:05Z</time></trkpt><trkpt lat="42.817580578726634" lon="-3.332212607489367"><ele>645.0</ele><time>2026-04-13T15:29:07Z</time></trkpt><trkpt lat="42.8175717938478" lon="-3.3320500832258824"><ele>645.0</ele><time>2026-04-13T15:29:09Z</time></trkpt><trkpt lat="42.81756855849454" lon="-3.3319306883447015"><ele>645.0</ele><time>2026-04-13T15:29:10Z</time></trkpt><trkpt lat="42.81757657387002" lon="-3.331813089163887"><ele>645.0</ele><time>2026-04-13T15:29:11Z</time></trkpt><trkpt lat="42.81760683603246" lon="-3.331671300996953"><ele>645.0</ele><time>2026-04-13T15:29:12Z</time></trkpt><trkpt lat="42.81764781633759" lon="-3.3315053874373928"><ele>645.0</ele><time>2026-04-13T15:29:13Z</time></trkpt><trkpt lat="42.81769012130329" lon="-3.3313481347492386"><ele>645.0</ele><time>2026-04-13T15:29:14Z</time></trkpt><trkpt lat="42.817733967934146" lon="-3.331203768194196"><ele>645.25</ele><time>2026-04-13T15:29:15Z</time></trkpt><trkpt lat="42.81778148957991" lon="-3.3310843565867136"><ele>645.5</ele><time>2026-04-13T15:29:16Z</time></trkpt><trkpt lat="42.817850703002215" lon="-3.3309710782605557"><ele>645.75</ele><time>2026-04-13T15:29:17Z</time></trkpt><trkpt lat="42.81795044832244" lon="-3.3308615023160355"><ele>646.0</ele><time>2026-04-13T15:29:18Z</time></trkpt><trkpt lat="42.81805134069983" lon="-3.3307445634402715"><ele>646.0</ele><time>2026-04-13T15:29:19Z</time></trkpt><trkpt lat="42.818155006298646" lon="-3.3306130447076154"><ele>646.0</ele><time>2026-04-13T15:29:20Z</time></trkpt><trkpt lat="42.81824962856001" lon="-3.3304949157423507"><ele>646.0</ele><time>2026-04-13T15:29:21Z</time></trkpt><trkpt lat="42.818325214168205" lon="-3.330404815530625"><ele>646.0</ele><time>2026-04-13T15:29:22Z</time></trkpt><trkpt lat="42.81837211531676" lon="-3.3303393762897655"><ele>646.0</ele><time>2026-04-13T15:29:23Z</time></trkpt><trkpt lat="42.81841080020572" lon="-3.3302473163601123"><ele>646.75</ele><time>2026-04-13T15:29:24Z</time></trkpt><trkpt lat="42.81843555218857" lon="-3.3301212204154127"><ele>647.5</ele><time>2026-04-13T15:29:25Z</time></trkpt><trkpt lat="42.81846751381848" lon="-3.3299612388150455"><ele>648.25</ele><time>2026-04-13T15:29:26Z</time></trkpt><trkpt lat="42.818505721262774" lon="-3.3297608250289343"><ele>649.0</ele><time>2026-04-13T15:29:27Z</time></trkpt><trkpt lat="42.81854168272884" lon="-3.3295732018404096"><ele>653.25</ele><time>2026-04-13T15:29:28Z</time></trkpt><trkpt lat="42.81857681299526" lon="-3.3293836452495165"><ele>657.5</ele><time>2026-04-13T15:29:29Z</time></trkpt><trkpt lat="42.81859967531149" lon="-3.3292227327446295"><ele>661.75</ele><time>2026-04-13T15:29:30Z</time></trkpt><trkpt lat="42.81861116827437" lon="-3.3290258235639136"><ele>666.0</ele><time>2026-04-13T15:29:31Z</time></trkpt><trkpt lat="42.81860140590725" lon="-3.3288234035480135"><ele>670.3333333333334</ele><time>2026-04-13T15:29:32Z</time></trkpt><trkpt lat="42.81858664160252" lon="-3.328612505166636"><ele>674.6666666666667</ele><time>2026-04-13T15:29:33Z</time></trkpt><trkpt lat="42.818577955006255" lon="-3.328403667651938"><ele>679.0</ele><time>2026-04-13T15:29:34Z</time></trkpt><trkpt lat="42.81857369060641" lon="-3.3281805171092778"><ele>682.3333333333334</ele><time>2026-04-13T15:29:35Z</time></trkpt><trkpt lat="42.81857348034473" lon="-3.3279605132685917"><ele>685.6666666666666</ele><time>2026-04-13T15:29:36Z</time></trkpt><trkpt lat="42.81856318538067" lon="-3.3277310028176053"><ele>689.0</ele><time>2026-04-13T15:29:37Z</time></trkpt><trkpt lat="42.81855073354007" lon="-3.327536836657825"><ele>689.0</ele><time>2026-04-13T15:29:38Z</time></trkpt><trkpt lat="42.81852850548387" lon="-3.3273662777855906"><ele>689.0</ele><time>2026-04-13T15:29:39Z</time></trkpt><trkpt lat="42.81849983900733" lon="-3.327181013034554"><ele>689.0</ele><time>2026-04-13T15:29:40Z</time></trkpt><trkpt lat="42.81848060003432" lon="-3.3269870711403406"><ele>689.0</ele><time>2026-04-13T15:29:41Z</time></trkpt><trkpt lat="42.818478680093676" lon="-3.3267997930566735"><ele>688.0</ele><time>2026-04-13T15:29:42Z</time></trkpt><trkpt lat="42.81847783109778" lon="-3.326622904286562"><ele>687.0</ele><time>2026-04-13T15:29:43Z</time></trkpt><trkpt lat="42.81846312035144" lon="-3.3264612379139282"><ele>686.0</ele><time>2026-04-13T15:29:44Z</time></trkpt><trkpt lat="42.818420137511886" lon="-3.3262978709090922"><ele>685.0</ele><time>2026-04-13T15:29:45Z</time></trkpt><trkpt lat="42.81837182958265" lon="-3.326125808609188"><ele>685.0</ele><time>2026-04-13T15:29:46Z</time></trkpt><trkpt lat="42.818328960090184" lon="-3.3259488827898678"><ele>685.0</ele><time>2026-04-13T15:29:47Z</time></trkpt><trkpt lat="42.81829108095121" lon="-3.3257606462656057"><ele>685.0</ele><time>2026-04-13T15:29:48Z</time></trkpt><trkpt lat="42.81825286054354" lon="-3.3255871070662617"><ele>685.0</ele><time>2026-04-13T15:29:49Z</time></trkpt><trkpt lat="42.81821439975351" lon="-3.3254468998396414"><ele>687.5</ele><time>2026-04-13T15:29:50Z</time></trkpt><trkpt lat="42.818164979991366" lon="-3.325295106524356"><ele>690.0</ele><time>2026-04-13T15:29:51Z</time></trkpt><trkpt lat="42.81809708648265" lon="-3.325142905401535"><ele>692.5</ele><time>2026-04-13T15:29:52Z</time></trkpt><trkpt lat="42.81800981732904" lon="-3.324967831816492"><ele>695.0</ele><time>2026-04-13T15:29:53Z</time></trkpt><trkpt lat="42.81792416415496" lon="-3.3247916584473285"><ele>699.3333333333333</ele><time>2026-04-13T15:29:54Z</time></trkpt><trkpt lat="42.817854246453734" lon="-3.324616027123464"><ele>703.6666666666666</ele><time>2026-04-13T15:29:55Z</time></trkpt><trkpt lat="42.81779324744112" lon="-3.3244219569368743"><ele>708.0</ele><time>2026-04-13T15:29:56Z</time></trkpt><trkpt lat="42.817743310476416" lon="-3.324230808429931"><ele>708.0</ele><time>2026-04-13T15:29:57Z</time></trkpt><trkpt lat="42.817699686306064" lon="-3.324039311458591"><ele>708.0</ele><time>2026-04-13T15:29:58Z</time></trkpt><trkpt lat="42.817658282648324" lon="-3.3238712724000816"><ele>708.0</ele><time>2026-04-13T15:29:59Z</time></trkpt><trkpt lat="42.81761564605191" lon="-3.3237302535928333"><ele>708.0</ele><time>2026-04-13T15:30:00Z</time></trkpt><trkpt lat="42.81756352049215" lon="-3.3236004475668715"><ele>709.25</ele><time>2026-04-13T15:30:01Z</time></trkpt><trkpt lat="42.817497177858336" lon="-3.3234576532044597"><ele>710.5</ele><time>2026-04-13T15:30:02Z</time></trkpt><trkpt lat="42.81742454620979" lon="-3.3232874808815347"><ele>711.75</ele><time>2026-04-13T15:30:03Z</time></trkpt><trkpt lat="42.81734441145162" lon="-3.3231018374779517"><ele>713.0</ele><time>2026-04-13T15:30:04Z</time></trkpt><trkpt lat="42.81725774225581" lon="-3.322918416433969"><ele>713.0</ele><time>2026-04-13T15:30:05Z</time></trkpt><trkpt lat="42.81717786681122" lon="-3.3227523677278668"><ele>713.0</ele><time>2026-04-13T15:30:06Z</time></trkpt><trkpt lat="42.81708403733638" lon="-3.322594716428803"><ele>713.0</ele><time>2026-04-13T15:30:07Z</time></trkpt><trkpt lat="42.816973002566776" lon="-3.3224291601902656"><ele>713.0</ele><time>2026-04-13T15:30:08Z</time></trkpt><trkpt lat="42.816875558978744" lon="-3.32228443997819"><ele>713.0</ele><time>2026-04-13T15:30:09Z</time></trkpt><trkpt lat="42.81678112578504" lon="-3.3221594202224645"><ele>713.0</ele><time>2026-04-13T15:30:10Z</time></trkpt><trkpt lat="42.816668315580664" lon="-3.322014545152719"><ele>713.0</ele><time>2026-04-13T15:30:11Z</time></trkpt><trkpt lat="42.816556854165185" lon="-3.321893234615763"><ele>714.4</ele><time>2026-04-13T15:30:12Z</time></trkpt><trkpt lat="42.81647142416176" lon="-3.3217847334134425"><ele>715.8</ele><time>2026-04-13T15:30:13Z</time></trkpt><trkpt lat="42.816412599954525" lon="-3.321679922965177"><ele>717.2</ele><time>2026-04-13T15:30:14Z</time></trkpt><trkpt lat="42.816363157685615" lon="-3.321559493111013"><ele>718.6</ele><time>2026-04-13T15:30:15Z</time></trkpt><trkpt lat="42.81631962001649" lon="-3.321416753702097"><ele>720.0</ele><time>2026-04-13T15:30:16Z</time></trkpt><trkpt lat="42.81628775975915" lon="-3.321266480173913"><ele>723.25</ele><time>2026-04-13T15:30:17Z</time></trkpt><trkpt lat="42.8162608239802" lon="-3.321104699967962"><ele>726.5</ele><time>2026-04-13T15:30:18Z</time></trkpt><trkpt lat="42.816226089282104" lon="-3.3208984301380946"><ele>729.75</ele><time>2026-04-13T15:30:19Z</time></trkpt><trkpt lat="42.816194408547304" lon="-3.3206695416001457"><ele>733.0</ele><time>2026-04-13T15:30:20Z</time></trkpt><trkpt lat="42.81616460891222" lon="-3.3204466398916064"><ele>734.2</ele><time>2026-04-13T15:30:21Z</time></trkpt><trkpt lat="42.816132283304036" lon="-3.3202625935152237"><ele>735.4</ele><time>2026-04-13T15:30:22Z</time></trkpt><trkpt lat="42.81610423015356" lon="-3.3201205215738594"><ele>736.6</ele><time>2026-04-13T15:30:23Z</time></trkpt><trkpt lat="42.81609278273456" lon="-3.3200201082418137"><ele>737.8000000000001</ele><time>2026-04-13T15:30:24Z</time></trkpt><trkpt lat="42.81613843219186" lon="-3.3199131830545707"><ele>739.0</ele><time>2026-04-13T15:30:26Z</time></trkpt><trkpt lat="42.816206672321606" lon="-3.319747754436563"><ele>739.75</ele><time>2026-04-13T15:30:28Z</time></trkpt><trkpt lat="42.81624787082259" lon="-3.319629237078981"><ele>740.5</ele><time>2026-04-13T15:30:29Z</time></trkpt><trkpt lat="42.816303335320306" lon="-3.3194865696392677"><ele>741.25</ele><time>2026-04-13T15:30:30Z</time></trkpt><trkpt lat="42.81635838091897" lon="-3.319343085619875"><ele>742.0</ele><time>2026-04-13T15:30:31Z</time></trkpt><trkpt lat="42.81642220017822" lon="-3.31917462178023"><ele>742.0</ele><time>2026-04-13T15:30:32Z</time></trkpt><trkpt lat="42.81648941677042" lon="-3.319010963551686"><ele>742.0</ele><time>2026-04-13T15:30:33Z</time></trkpt><trkpt lat="42.81655547808473" lon="-3.318841211909439"><ele>742.0</ele><time>2026-04-13T15:30:34Z</time></trkpt><trkpt lat="42.81660373538583" lon="-3.3186936916011898"><ele>742.0</ele><time>2026-04-13T15:30:35Z</time></trkpt><trkpt lat="42.81664732628243" lon="-3.31854379363027"><ele>742.6</ele><time>2026-04-13T15:30:36Z</time></trkpt><trkpt lat="42.81668353433264" lon="-3.318410897197648"><ele>743.2</ele><time>2026-04-13T15:30:37Z</time></trkpt><trkpt lat="42.816715459125284" lon="-3.318282209707203"><ele>743.8</ele><time>2026-04-13T15:30:38Z</time></trkpt><trkpt lat="42.81674197924543" lon="-3.3181769310192517"><ele>744.4</ele><time>2026-04-13T15:30:39Z</time></trkpt><trkpt lat="42.816789931329026" lon="-3.318094581780431"><ele>745.0</ele><time>2026-04-13T15:30:40Z</time></trkpt><trkpt lat="42.81686248573952" lon="-3.318008640958102"><ele>745.2</ele><time>2026-04-13T15:30:41Z</time></trkpt><trkpt lat="42.816944189710824" lon="-3.317920156003798"><ele>745.4</ele><time>2026-04-13T15:30:42Z</time></trkpt><trkpt lat="42.81701246130153" lon="-3.31786225383329"><ele>745.5999999999999</ele><time>2026-04-13T15:30:43Z</time></trkpt><trkpt lat="42.81708675124925" lon="-3.317820638036844"><ele>745.8</ele><time>2026-04-13T15:30:45Z</time></trkpt><trkpt lat="42.81718489384494" lon="-3.317790487630162"><ele>746.0</ele><time>2026-04-13T15:30:47Z</time></trkpt><trkpt lat="42.81730456436576" lon="-3.3177835305305274"><ele>746.0</ele><time>2026-04-13T15:30:49Z</time></trkpt><trkpt lat="42.817368165457204" lon="-3.3177764376318466"><ele>746.0</ele><time>2026-04-13T15:30:50Z</time></trkpt><trkpt lat="42.81745628103154" lon="-3.3177563725320702"><ele>746.0</ele><time>2026-04-13T15:30:51Z</time></trkpt><trkpt lat="42.81757621572616" lon="-3.3177153989797605"><ele>746.0</ele><time>2026-04-13T15:30:52Z</time></trkpt><trkpt lat="42.81768964392422" lon="-3.3176673507569236"><ele>746.0</ele><time>2026-04-13T15:30:53Z</time></trkpt><trkpt lat="42.81777172193255" lon="-3.317634582602205"><ele>744.5999999999999</ele><time>2026-04-13T15:30:54Z</time></trkpt><trkpt lat="42.81785798401615" lon="-3.317601297526852"><ele>743.2</ele><time>2026-04-13T15:30:55Z</time></trkpt><trkpt lat="42.81795718936856" lon="-3.317567799454062"><ele>741.8</ele><time>2026-04-13T15:30:56Z</time></trkpt><trkpt lat="42.818059232039026" lon="-3.317536119928951"><ele>740.4000000000001</ele><time>2026-04-13T15:30:57Z</time></trkpt><trkpt lat="42.8181795251553" lon="-3.3175027496669194"><ele>739.0</ele><time>2026-04-13T15:30:58Z</time></trkpt><trkpt lat="42.81829410936077" lon="-3.317468361166882"><ele>739.0</ele><time>2026-04-13T15:30:59Z</time></trkpt><trkpt lat="42.81838317842393" lon="-3.3174330322771417"><ele>739.0</ele><time>2026-04-13T15:31:00Z</time></trkpt><trkpt lat="42.81846491996333" lon="-3.3173992627059836"><ele>739.0</ele><time>2026-04-13T15:31:01Z</time></trkpt><trkpt lat="42.818555294598" lon="-3.3173623954042126"><ele>739.0</ele><time>2026-04-13T15:31:02Z</time></trkpt><trkpt lat="42.81865849740104" lon="-3.3173403024561816"><ele>739.0</ele><time>2026-04-13T15:31:03Z</time></trkpt><trkpt lat="42.81875629183496" lon="-3.317332252268612"><ele>738.0</ele><time>2026-04-13T15:31:04Z</time></trkpt><trkpt lat="42.81885067775218" lon="-3.3173183475748966"><ele>737.0</ele><time>2026-04-13T15:31:05Z</time></trkpt><trkpt lat="42.81893541115665" lon="-3.317301309393828"><ele>736.0</ele><time>2026-04-13T15:31:06Z</time></trkpt><trkpt lat="42.81902626712693" lon="-3.317290870436982"><ele>735.0</ele><time>2026-04-13T15:31:07Z</time></trkpt><trkpt lat="42.81910345841088" lon="-3.317291151370343"><ele>734.0</ele><time>2026-04-13T15:31:08Z</time></trkpt><trkpt lat="42.81917181671052" lon="-3.317268901872451"><ele>733.0</ele><time>2026-04-13T15:31:09Z</time></trkpt><trkpt lat="42.819240908638506" lon="-3.3172072991078307"><ele>733.0</ele><time>2026-04-13T15:31:10Z</time></trkpt><trkpt lat="42.81931048628698" lon="-3.317102763761463"><ele>733.0</ele><time>2026-04-13T15:31:11Z</time></trkpt><trkpt lat="42.81937370857139" lon="-3.3170036846716653"><ele>733.0</ele><time>2026-04-13T15:31:12Z</time></trkpt><trkpt lat="42.819410494763744" lon="-3.3169328847548023"><ele>733.0</ele><time>2026-04-13T15:31:13Z</time></trkpt><trkpt lat="42.81944733677001" lon="-3.316786111450631"><ele>733.0</ele><time>2026-04-13T15:31:15Z</time></trkpt><trkpt lat="42.819466527582364" lon="-3.316702556575059"><ele>733.0</ele><time>2026-04-13T15:31:16Z</time></trkpt><trkpt lat="42.81950317633784" lon="-3.316605039264485"><ele>731.5</ele><time>2026-04-13T15:31:17Z</time></trkpt><trkpt lat="42.819561746191916" lon="-3.316509865891045"><ele>730.0</ele><time>2026-04-13T15:31:18Z</time></trkpt><trkpt lat="42.81961791400349" lon="-3.3164367846640888"><ele>728.5</ele><time>2026-04-13T15:31:19Z</time></trkpt><trkpt lat="42.819684056757424" lon="-3.316376248666642"><ele>727.0</ele><time>2026-04-13T15:31:21Z</time></trkpt><trkpt lat="42.81973909577039" lon="-3.3162667813841584"><ele>725.5</ele><time>2026-04-13T15:31:24Z</time></trkpt><trkpt lat="42.81978080171277" lon="-3.3161622460472375"><ele>724.0</ele><time>2026-04-13T15:31:26Z</time></trkpt><trkpt lat="42.819808751344155" lon="-3.3160531731024534"><ele>723.5</ele><time>2026-04-13T15:31:28Z</time></trkpt><trkpt lat="42.819836008935084" lon="-3.3159468354426833"><ele>723.0</ele><time>2026-04-13T15:31:30Z</time></trkpt><trkpt lat="42.81986360867808" lon="-3.315844528922134"><ele>722.5</ele><time>2026-04-13T15:31:32Z</time></trkpt><trkpt lat="42.819894601670484" lon="-3.315737831095839"><ele>722.0</ele><time>2026-04-13T15:31:34Z</time></trkpt><trkpt lat="42.81992467206055" lon="-3.315627452018237"><ele>721.5</ele><time>2026-04-13T15:31:36Z</time></trkpt><trkpt lat="42.819948648995066" lon="-3.315516284206025"><ele>721.0</ele><time>2026-04-13T15:31:38Z</time></trkpt><trkpt lat="42.819961193557546" lon="-3.3153913666175496"><ele>720.5999999999999</ele><time>2026-04-13T15:31:40Z</time></trkpt><trkpt lat="42.81996771552085" lon="-3.3152703596571564"><ele>720.2</ele><time>2026-04-13T15:31:41Z</time></trkpt><trkpt lat="42.819977728279746" lon="-3.315101010719389"><ele>719.8</ele><time>2026-04-13T15:31:42Z</time></trkpt><trkpt lat="42.819981373223634" lon="-3.314983009098839"><ele>719.4000000000001</ele><time>2026-04-13T15:31:43Z</time></trkpt><trkpt lat="42.819971828915584" lon="-3.314862876867428"><ele>719.0</ele><time>2026-04-13T15:31:45Z</time></trkpt><trkpt lat="42.81993974892421" lon="-3.314699572205721"><ele>719.0</ele><time>2026-04-13T15:31:47Z</time></trkpt><trkpt lat="42.81988099166458" lon="-3.31458490604056"><ele>719.0</ele><time>2026-04-13T15:31:49Z</time></trkpt><trkpt lat="42.819857633490294" lon="-3.3145048283012897"><ele>719.0</ele><time>2026-04-13T15:31:51Z</time></trkpt><trkpt lat="42.81985826361191" lon="-3.314397747201396"><ele>719.0</ele><time>2026-04-13T15:31:53Z</time></trkpt><trkpt lat="42.819856139509305" lon="-3.314272083565115"><ele>719.0</ele><time>2026-04-13T15:31:55Z</time></trkpt><trkpt lat="42.81991230932683" lon="-3.3141403725076835"><ele>719.0</ele><time>2026-04-13T15:31:57Z</time></trkpt><trkpt lat="42.819970500735025" lon="-3.3140880841982128"><ele>719.0</ele><time>2026-04-13T15:31:58Z</time></trkpt><trkpt lat="42.82003567518999" lon="-3.314044671032282"><ele>719.0</ele><time>2026-04-13T15:31:59Z</time></trkpt><trkpt lat="42.820108567738004" lon="-3.314004627309377"><ele>719.0</ele><time>2026-04-13T15:32:00Z</time></trkpt><trkpt lat="42.820175275399656" lon="-3.313979732392265"><ele>719.0</ele><time>2026-04-13T15:32:01Z</time></trkpt><trkpt lat="42.820271990847246" lon="-3.313958740030699"><ele>719.0</ele><time>2026-04-13T15:32:02Z</time></trkpt><trkpt lat="42.82038189267563" lon="-3.313934234234708"><ele>719.0</ele><time>2026-04-13T15:32:03Z</time></trkpt><trkpt lat="42.820502901027744" lon="-3.313891283731118"><ele>720.5</ele><time>2026-04-13T15:32:04Z</time></trkpt><trkpt lat="42.82062299972628" lon="-3.313818304657294"><ele>722.0</ele><time>2026-04-13T15:32:05Z</time></trkpt><trkpt lat="42.8207492534993" lon="-3.313745723535487"><ele>723.5</ele><time>2026-04-13T15:32:06Z</time></trkpt><trkpt lat="42.82085850314101" lon="-3.3136877225070247"><ele>725.0</ele><time>2026-04-13T15:32:07Z</time></trkpt><trkpt lat="42.820946419576586" lon="-3.3136459571447605"><ele>724.6</ele><time>2026-04-13T15:32:08Z</time></trkpt><trkpt lat="42.821033777354806" lon="-3.313603449814217"><ele>724.2</ele><time>2026-04-13T15:32:09Z</time></trkpt><trkpt lat="42.821120769571756" lon="-3.313551855360342"><ele>723.8</ele><time>2026-04-13T15:32:10Z</time></trkpt><trkpt lat="42.82122409031887" lon="-3.31346849208899"><ele>723.4</ele><time>2026-04-13T15:32:11Z</time></trkpt><trkpt lat="42.821316471752084" lon="-3.3133571287671817"><ele>723.0</ele><time>2026-04-13T15:32:12Z</time></trkpt><trkpt lat="42.82139575574675" lon="-3.3132456674214934"><ele>723.0</ele><time>2026-04-13T15:32:13Z</time></trkpt><trkpt lat="42.82145847217443" lon="-3.313140756583376"><ele>723.0</ele><time>2026-04-13T15:32:14Z</time></trkpt><trkpt lat="42.821504848195076" lon="-3.313034418638864"><ele>723.0</ele><time>2026-04-13T15:32:15Z</time></trkpt><trkpt lat="42.82154766454786" lon="-3.3129091424629835"><ele>723.0</ele><time>2026-04-13T15:32:16Z</time></trkpt><trkpt lat="42.82157885861528" lon="-3.3127799100913116"><ele>723.0</ele><time>2026-04-13T15:32:17Z</time></trkpt><trkpt lat="42.82160211854512" lon="-3.3126488782274004"><ele>724.0</ele><time>2026-04-13T15:32:18Z</time></trkpt><trkpt lat="42.82162285804906" lon="-3.3125196111902073"><ele>725.0</ele><time>2026-04-13T15:32:19Z</time></trkpt><trkpt lat="42.821636211611875" lon="-3.3124030996407767"><ele>726.0</ele><time>2026-04-13T15:32:20Z</time></trkpt><trkpt lat="42.82166509635728" lon="-3.3122866316710033"><ele>727.0</ele><time>2026-04-13T15:32:21Z</time></trkpt><trkpt lat="42.82172330145629" lon="-3.312125580499883"><ele>728.0</ele><time>2026-04-13T15:32:22Z</time></trkpt><trkpt lat="42.821796493799965" lon="-3.3119496200023333"><ele>726.5</ele><time>2026-04-13T15:32:23Z</time></trkpt><trkpt lat="42.82184691737678" lon="-3.3117906385341147"><ele>725.0</ele><time>2026-04-13T15:32:24Z</time></trkpt><trkpt lat="42.82187796546708" lon="-3.3116547979328343"><ele>723.5</ele><time>2026-04-13T15:32:25Z</time></trkpt><trkpt lat="42.82191347335225" lon="-3.31152900144592"><ele>722.0</ele><time>2026-04-13T15:32:26Z</time></trkpt><trkpt lat="42.82196651443997" lon="-3.3113745608755334"><ele>722.0</ele><time>2026-04-13T15:32:27Z</time></trkpt><trkpt lat="42.82202612044915" lon="-3.3112238775912672"><ele>722.0</ele><time>2026-04-13T15:32:28Z</time></trkpt><trkpt lat="42.8220876537716" lon="-3.311097254342508"><ele>722.0</ele><time>2026-04-13T15:32:29Z</time></trkpt><trkpt lat="42.8221445583786" lon="-3.310970934439456"><ele>722.0</ele><time>2026-04-13T15:32:30Z</time></trkpt><trkpt lat="42.82219351199593" lon="-3.310826969314644"><ele>722.0</ele><time>2026-04-13T15:32:31Z</time></trkpt><trkpt lat="42.82224510171328" lon="-3.3106619699799666"><ele>722.0</ele><time>2026-04-13T15:32:32Z</time></trkpt><trkpt lat="42.822293781378065" lon="-3.310498322987231"><ele>722.0</ele><time>2026-04-13T15:32:33Z</time></trkpt><trkpt lat="42.822338614389096" lon="-3.3103600750724547"><ele>722.0</ele><time>2026-04-13T15:32:34Z</time></trkpt><trkpt lat="42.82237476030992" lon="-3.3102642277798022"><ele>722.0</ele><time>2026-04-13T15:32:35Z</time></trkpt><trkpt lat="42.822417656350616" lon="-3.310179215111958"><ele>722.0</ele><time>2026-04-13T15:32:36Z</time></trkpt><trkpt lat="42.82246278509984" lon="-3.310099725175929"><ele>722.0</ele><time>2026-04-13T15:32:37Z</time></trkpt><trkpt lat="42.82250774710531" lon="-3.3100056885309748"><ele>722.0</ele><time>2026-04-13T15:32:38Z</time></trkpt><trkpt lat="42.82253130032595" lon="-3.3099214275348605"><ele>722.0</ele><time>2026-04-13T15:32:39Z</time></trkpt><trkpt lat="42.82255433003131" lon="-3.3098288758159926"><ele>722.0</ele><time>2026-04-13T15:32:40Z</time></trkpt><trkpt lat="42.82257472662912" lon="-3.3097306171160366"><ele>722.0</ele><time>2026-04-13T15:32:41Z</time></trkpt><trkpt lat="42.82259126025089" lon="-3.3096397348797386"><ele>722.0</ele><time>2026-04-13T15:32:42Z</time></trkpt><trkpt lat="42.8225997318318" lon="-3.309481744059793"><ele>722.0</ele><time>2026-04-13T15:32:44Z</time></trkpt><trkpt lat="42.8226265419586" lon="-3.3093824150583746"><ele>722.0</ele><time>2026-04-13T15:32:45Z</time></trkpt><trkpt lat="42.82265472071565" lon="-3.309270713938352"><ele>722.0</ele><time>2026-04-13T15:32:46Z</time></trkpt><trkpt lat="42.82268591572161" lon="-3.3091756640148073"><ele>722.0</ele><time>2026-04-13T15:32:47Z</time></trkpt><trkpt lat="42.822721788224676" lon="-3.3090740169023354"><ele>722.0</ele><time>2026-04-13T15:32:48Z</time></trkpt><trkpt lat="42.82276653177353" lon="-3.308975475634617"><ele>722.0</ele><time>2026-04-13T15:32:49Z</time></trkpt><trkpt lat="42.82282685950149" lon="-3.3089250909997134"><ele>722.0</ele><time>2026-04-13T15:32:50Z</time></trkpt><trkpt lat="42.82291887887505" lon="-3.3088861831743106"><ele>722.0</ele><time>2026-04-13T15:32:51Z</time></trkpt><trkpt lat="42.823025968086675" lon="-3.308833895046097"><ele>722.0</ele><time>2026-04-13T15:32:52Z</time></trkpt><trkpt lat="42.82314074735463" lon="-3.3087485254809894"><ele>722.0</ele><time>2026-04-13T15:32:53Z</time></trkpt><trkpt lat="42.823240836265995" lon="-3.3086665927457153"><ele>720.8</ele><time>2026-04-13T15:32:54Z</time></trkpt><trkpt lat="42.8233407441903" lon="-3.3085946520162492"><ele>719.6</ele><time>2026-04-13T15:32:55Z</time></trkpt><trkpt lat="42.823428713463926" lon="-3.3085272199240454"><ele>718.4</ele><time>2026-04-13T15:32:56Z</time></trkpt><trkpt lat="42.82351489834775" lon="-3.3084497411528084"><ele>717.1999999999999</ele><time>2026-04-13T15:32:57Z</time></trkpt><trkpt lat="42.82359798127037" lon="-3.3083652009027538"><ele>716.0</ele><time>2026-04-13T15:32:58Z</time></trkpt><trkpt lat="42.82366807455082" lon="-3.308289156064028"><ele>714.5999999999999</ele><time>2026-04-13T15:32:59Z</time></trkpt><trkpt lat="42.82373186201404" lon="-3.3082140175726704"><ele>713.2</ele><time>2026-04-13T15:33:00Z</time></trkpt><trkpt lat="42.823840804012036" lon="-3.3081033418190815"><ele>711.8</ele><time>2026-04-13T15:33:02Z</time></trkpt><trkpt lat="42.82392120830976" lon="-3.3080343452209005"><ele>710.4000000000001</ele><time>2026-04-13T15:33:03Z</time></trkpt><trkpt lat="42.82401045178934" lon="-3.3079658336187685"><ele>709.0</ele><time>2026-04-13T15:33:04Z</time></trkpt><trkpt lat="42.82408394667639" lon="-3.3079030417216595"><ele>708.3333333333334</ele><time>2026-04-13T15:33:05Z</time></trkpt><trkpt lat="42.82414418688548" lon="-3.307830763933378"><ele>707.6666666666667</ele><time>2026-04-13T15:33:06Z</time></trkpt><trkpt lat="42.82421025834082" lon="-3.307749541319764"><ele>707.0</ele><time>2026-04-13T15:33:07Z</time></trkpt><trkpt lat="42.8242609284133" lon="-3.3076688608201397"><ele>706.3333333333334</ele><time>2026-04-13T15:33:08Z</time></trkpt><trkpt lat="42.82431866394022" lon="-3.3075939695745813"><ele>705.6666666666666</ele><time>2026-04-13T15:33:09Z</time></trkpt><trkpt lat="42.82438433513689" lon="-3.3075243909412833"><ele>705.0</ele><time>2026-04-13T15:33:10Z</time></trkpt><trkpt lat="42.82446512750255" lon="-3.3074616709948716"><ele>703.6</ele><time>2026-04-13T15:33:11Z</time></trkpt><trkpt lat="42.82456019020584" lon="-3.30741459061559"><ele>702.2</ele><time>2026-04-13T15:33:12Z</time></trkpt><trkpt lat="42.824661127464495" lon="-3.307390449732241"><ele>700.8</ele><time>2026-04-13T15:33:13Z</time></trkpt><trkpt lat="42.82475644294823" lon="-3.307400280065051"><ele>699.4</ele><time>2026-04-13T15:33:14Z</time></trkpt><trkpt lat="42.8248529295355" lon="-3.307424917277427"><ele>698.0</ele><time>2026-04-13T15:33:15Z</time></trkpt><trkpt lat="42.824935345781974" lon="-3.307453239426087"><ele>698.0</ele><time>2026-04-13T15:33:16Z</time></trkpt><trkpt lat="42.825011904335135" lon="-3.307501559117208"><ele>698.0</ele><time>2026-04-13T15:33:17Z</time></trkpt><trkpt lat="42.825091539240596" lon="-3.307570031147961"><ele>698.0</ele><time>2026-04-13T15:33:18Z</time></trkpt><trkpt lat="42.825178913846365" lon="-3.3076554942105063"><ele>698.0</ele><time>2026-04-13T15:33:19Z</time></trkpt><trkpt lat="42.825260403321806" lon="-3.3077146029097095"><ele>698.0</ele><time>2026-04-13T15:33:20Z</time></trkpt><trkpt lat="42.82536224424738" lon="-3.307747171755561"><ele>696.8</ele><time>2026-04-13T15:33:21Z</time></trkpt><trkpt lat="42.825469301869816" lon="-3.307770617018959"><ele>695.5999999999999</ele><time>2026-04-13T15:33:22Z</time></trkpt><trkpt lat="42.82558676250254" lon="-3.3078112902966375"><ele>694.4000000000001</ele><time>2026-04-13T15:33:23Z</time></trkpt><trkpt lat="42.825687938982" lon="-3.307836923733435"><ele>693.2</ele><time>2026-04-13T15:33:24Z</time></trkpt><trkpt lat="42.82578866732192" lon="-3.307861571850873"><ele>692.0</ele><time>2026-04-13T15:33:25Z</time></trkpt><trkpt lat="42.825884018754955" lon="-3.307906883868598"><ele>691.25</ele><time>2026-04-13T15:33:26Z</time></trkpt><trkpt lat="42.82599216386561" lon="-3.3079512665587183"><ele>690.5</ele><time>2026-04-13T15:33:27Z</time></trkpt><trkpt lat="42.82612183340474" lon="-3.3079697486322575"><ele>689.75</ele><time>2026-04-13T15:33:28Z</time></trkpt><trkpt lat="42.82626872330258" lon="-3.3079733574539043"><ele>689.0</ele><time>2026-04-13T15:33:29Z</time></trkpt><trkpt lat="42.82638890027485" lon="-3.3079536326819716"><ele>689.0</ele><time>2026-04-13T15:33:30Z</time></trkpt><trkpt lat="42.826487384908106" lon="-3.307945286667267"><ele>689.0</ele><time>2026-04-13T15:33:31Z</time></trkpt><trkpt lat="42.826582403067064" lon="-3.3079332755902624"><ele>689.0</ele><time>2026-04-13T15:33:32Z</time></trkpt><trkpt lat="42.82666717807964" lon="-3.3079263406456643"><ele>689.0</ele><time>2026-04-13T15:33:33Z</time></trkpt><trkpt lat="42.82676983049624" lon="-3.3079269451380124"><ele>689.0</ele><time>2026-04-13T15:33:34Z</time></trkpt><trkpt lat="42.8268933999735" lon="-3.3079435776414057"><ele>687.75</ele><time>2026-04-13T15:33:35Z</time></trkpt><trkpt lat="42.827009131225275" lon="-3.307966886156594"><ele>686.5</ele><time>2026-04-13T15:33:36Z</time></trkpt><trkpt lat="42.827123918137666" lon="-3.307986471261811"><ele>685.25</ele><time>2026-04-13T15:33:37Z</time></trkpt><trkpt lat="42.827243942737724" lon="-3.3079968018165617"><ele>684.0</ele><time>2026-04-13T15:33:38Z</time></trkpt><trkpt lat="42.82734806262989" lon="-3.307991613439032"><ele>684.0</ele><time>2026-04-13T15:33:39Z</time></trkpt><trkpt lat="42.82743659007443" lon="-3.307988871368762"><ele>684.0</ele><time>2026-04-13T15:33:40Z</time></trkpt><trkpt lat="42.827537566621224" lon="-3.3080000958528752"><ele>684.0</ele><time>2026-04-13T15:33:41Z</time></trkpt><trkpt lat="42.82765215850714" lon="-3.3080292056755285"><ele>684.0</ele><time>2026-04-13T15:33:42Z</time></trkpt><trkpt lat="42.827781571203296" lon="-3.308072025303038"><ele>684.0</ele><time>2026-04-13T15:33:43Z</time></trkpt><trkpt lat="42.82790179438859" lon="-3.3081165428937034"><ele>682.8000000000001</ele><time>2026-04-13T15:33:44Z</time></trkpt><trkpt lat="42.82801524336953" lon="-3.3081440326240052"><ele>681.6</ele><time>2026-04-13T15:33:45Z</time></trkpt><trkpt lat="42.828123020980605" lon="-3.308158353950376"><ele>680.4</ele><time>2026-04-13T15:33:46Z</time></trkpt><trkpt lat="42.82822723437336" lon="-3.3081670320133068"><ele>679.2</ele><time>2026-04-13T15:33:47Z</time></trkpt><trkpt lat="42.82832518606108" lon="-3.308172157362463"><ele>678.0</ele><time>2026-04-13T15:33:48Z</time></trkpt><trkpt lat="42.82840379839119" lon="-3.308178688132838"><ele>678.0</ele><time>2026-04-13T15:33:49Z</time></trkpt><trkpt lat="42.82847308240955" lon="-3.3081999676209786"><ele>678.0</ele><time>2026-04-13T15:33:50Z</time></trkpt><trkpt lat="42.828559784463785" lon="-3.308248444990361"><ele>678.0</ele><time>2026-04-13T15:33:51Z</time></trkpt><trkpt lat="42.828618957916596" lon="-3.308303456041524"><ele>678.0</ele><time>2026-04-13T15:33:52Z</time></trkpt><trkpt lat="42.82869417936026" lon="-3.3083537164381407"><ele>678.0</ele><time>2026-04-13T15:33:53Z</time></trkpt><trkpt lat="42.82876745598874" lon="-3.308390444151758"><ele>678.0</ele><time>2026-04-13T15:33:54Z</time></trkpt><trkpt lat="42.82884188703323" lon="-3.308384751813726"><ele>677.2</ele><time>2026-04-13T15:33:55Z</time></trkpt><trkpt lat="42.828941825691174" lon="-3.3083415078714458"><ele>676.4</ele><time>2026-04-13T15:33:56Z</time></trkpt><trkpt lat="42.82903933010903" lon="-3.308285912114455"><ele>675.6</ele><time>2026-04-13T15:33:57Z</time></trkpt><trkpt lat="42.82912824272413" lon="-3.308247912627439"><ele>674.8000000000001</ele><time>2026-04-13T15:33:58Z</time></trkpt><trkpt lat="42.82921006406663" lon="-3.3082381584153966"><ele>674.0</ele><time>2026-04-13T15:33:59Z</time></trkpt><trkpt lat="42.829294026219834" lon="-3.3082555322056804"><ele>672.6</ele><time>2026-04-13T15:34:00Z</time></trkpt><trkpt lat="42.8293775061854" lon="-3.308283954355471"><ele>671.2</ele><time>2026-04-13T15:34:01Z</time></trkpt><trkpt lat="42.82949542440641" lon="-3.3083171408193306"><ele>669.8000000000001</ele><time>2026-04-13T15:34:02Z</time></trkpt><trkpt lat="42.82960685197524" lon="-3.3083515162295933"><ele>668.4000000000001</ele><time>2026-04-13T15:34:03Z</time></trkpt><trkpt lat="42.829728328658064" lon="-3.3083946530441026"><ele>667.0</ele><time>2026-04-13T15:34:04Z</time></trkpt><trkpt lat="42.829849165538825" lon="-3.308440477303898"><ele>667.0</ele><time>2026-04-13T15:34:05Z</time></trkpt><trkpt lat="42.82998130189211" lon="-3.308506999603083"><ele>667.0</ele><time>2026-04-13T15:34:06Z</time></trkpt><trkpt lat="42.830114362359566" lon="-3.308542361201919"><ele>667.0</ele><time>2026-04-13T15:34:07Z</time></trkpt><trkpt lat="42.83026173225065" lon="-3.3085896082676585"><ele>667.0</ele><time>2026-04-13T15:34:08Z</time></trkpt><trkpt lat="42.83038518737354" lon="-3.3086213732713663"><ele>665.5</ele><time>2026-04-13T15:34:09Z</time></trkpt><trkpt lat="42.83050848617997" lon="-3.308654320724756"><ele>664.0</ele><time>2026-04-13T15:34:10Z</time></trkpt><trkpt lat="42.83062653892625" lon="-3.308701903695717"><ele>662.5</ele><time>2026-04-13T15:34:11Z</time></trkpt><trkpt lat="42.83075070097072" lon="-3.308745383055863"><ele>661.0</ele><time>2026-04-13T15:34:12Z</time></trkpt><trkpt lat="42.830881056489204" lon="-3.3087944778471994"><ele>660.1999999999999</ele><time>2026-04-13T15:34:13Z</time></trkpt><trkpt lat="42.83101661842802" lon="-3.3088328939872853"><ele>659.4</ele><time>2026-04-13T15:34:14Z</time></trkpt><trkpt lat="42.83113042087439" lon="-3.308860999573094"><ele>658.6</ele><time>2026-04-13T15:34:15Z</time></trkpt><trkpt lat="42.83123089325688" lon="-3.3088965190619155"><ele>657.8</ele><time>2026-04-13T15:34:16Z</time></trkpt><trkpt lat="42.831317871765435" lon="-3.308929883350147"><ele>657.0</ele><time>2026-04-13T15:34:17Z</time></trkpt><trkpt lat="42.83140376399224" lon="-3.308969275598189"><ele>656.8333333333334</ele><time>2026-04-13T15:34:18Z</time></trkpt><trkpt lat="42.83148668219489" lon="-3.309005343648137"><ele>656.6666666666666</ele><time>2026-04-13T15:34:19Z</time></trkpt><trkpt lat="42.83155649366202" lon="-3.309043927179694"><ele>656.5</ele><time>2026-04-13T15:34:20Z</time></trkpt><trkpt lat="42.83163011596092" lon="-3.3090968738733126"><ele>656.3333333333333</ele><time>2026-04-13T15:34:21Z</time></trkpt><trkpt lat="42.8316928814518" lon="-3.3091573526761087"><ele>656.1666666666666</ele><time>2026-04-13T15:34:22Z</time></trkpt><trkpt lat="42.83176191506759" lon="-3.3092352945278116"><ele>656.0</ele><time>2026-04-13T15:34:23Z</time></trkpt><trkpt lat="42.831848458427146" lon="-3.3093369124106933"><ele>655.4</ele><time>2026-04-13T15:34:24Z</time></trkpt><trkpt lat="42.83192407154009" lon="-3.309424813512946"><ele>654.8</ele><time>2026-04-13T15:34:25Z</time></trkpt><trkpt lat="42.832017223280886" lon="-3.3095184597898575"><ele>654.1999999999999</ele><time>2026-04-13T15:34:26Z</time></trkpt><trkpt lat="42.83210215486029" lon="-3.3096021103191133"><ele>653.5999999999999</ele><time>2026-04-13T15:34:27Z</time></trkpt><trkpt lat="42.83218289934786" lon="-3.3096881894799504"><ele>653.0</ele><time>2026-04-13T15:34:28Z</time></trkpt><trkpt lat="42.83228363675612" lon="-3.3097988388413264"><ele>653.0</ele><time>2026-04-13T15:34:29Z</time></trkpt><trkpt lat="42.83240354828575" lon="-3.309927101902168"><ele>653.0</ele><time>2026-04-13T15:34:30Z</time></trkpt><trkpt lat="42.83250797134244" lon="-3.3100412630962386"><ele>653.0</ele><time>2026-04-13T15:34:31Z</time></trkpt><trkpt lat="42.83259248270714" lon="-3.3101299979969894"><ele>653.0</ele><time>2026-04-13T15:34:32Z</time></trkpt><trkpt lat="42.832668386660465" lon="-3.310202895178892"><ele>652.0</ele><time>2026-04-13T15:34:33Z</time></trkpt><trkpt lat="42.83274067344014" lon="-3.3102672325261144"><ele>651.0</ele><time>2026-04-13T15:34:34Z</time></trkpt><trkpt lat="42.8328210307577" lon="-3.3103293186424674"><ele>650.0</ele><time>2026-04-13T15:34:35Z</time></trkpt><trkpt lat="42.83291038056209" lon="-3.310372319700365"><ele>649.0</ele><time>2026-04-13T15:34:36Z</time></trkpt><trkpt lat="42.8330086949849" lon="-3.3103918958047998"><ele>648.0</ele><time>2026-04-13T15:34:37Z</time></trkpt><trkpt lat="42.83311679376171" lon="-3.3103864649120425"><ele>648.0</ele><time>2026-04-13T15:34:38Z</time></trkpt><trkpt lat="42.83324198899744" lon="-3.3103861804479853"><ele>648.0</ele><time>2026-04-13T15:34:39Z</time></trkpt><trkpt lat="42.83336501820493" lon="-3.310395355467173"><ele>648.0</ele><time>2026-04-13T15:34:40Z</time></trkpt><trkpt lat="42.83346865318755" lon="-3.3104038503232953"><ele>648.0</ele><time>2026-04-13T15:34:41Z</time></trkpt><trkpt lat="42.83357212548685" lon="-3.310412399717886"><ele>646.8</ele><time>2026-04-13T15:34:42Z</time></trkpt><trkpt lat="42.833670051083175" lon="-3.3104177389153575"><ele>645.5999999999999</ele><time>2026-04-13T15:34:43Z</time></trkpt><trkpt lat="42.833752437548696" lon="-3.310426293463861"><ele>644.4000000000001</ele><time>2026-04-13T15:34:44Z</time></trkpt><trkpt lat="42.8338433568635" lon="-3.3104425695195743"><ele>643.2</ele><time>2026-04-13T15:34:45Z</time></trkpt><trkpt lat="42.83394633378091" lon="-3.310466411823467"><ele>642.0</ele><time>2026-04-13T15:34:46Z</time></trkpt><trkpt lat="42.83405334863152" lon="-3.3104985792451607"><ele>642.0</ele><time>2026-04-13T15:34:47Z</time></trkpt><trkpt lat="42.83416200350903" lon="-3.3105376860912212"><ele>642.0</ele><time>2026-04-13T15:34:48Z</time></trkpt><trkpt lat="42.834286430764266" lon="-3.3106018037829306"><ele>642.0</ele><time>2026-04-13T15:34:49Z</time></trkpt><trkpt lat="42.83441958946154" lon="-3.3106920408977727"><ele>642.0</ele><time>2026-04-13T15:34:50Z</time></trkpt><trkpt lat="42.83455698729114" lon="-3.310795573816715"><ele>642.6666666666666</ele><time>2026-04-13T15:34:51Z</time></trkpt><trkpt lat="42.834709895295674" lon="-3.3109124993668644"><ele>643.3333333333333</ele><time>2026-04-13T15:34:52Z</time></trkpt><trkpt lat="42.83485599905566" lon="-3.3110149809980918"><ele>644.0</ele><time>2026-04-13T15:34:53Z</time></trkpt><trkpt lat="42.83501049244249" lon="-3.311122733751003"><ele>644.0</ele><time>2026-04-13T15:34:54Z</time></trkpt><trkpt lat="42.83515564124237" lon="-3.3112375315081706"><ele>644.0</ele><time>2026-04-13T15:34:55Z</time></trkpt><trkpt lat="42.83528512315351" lon="-3.311340567312669"><ele>644.0</ele><time>2026-04-13T15:34:56Z</time></trkpt><trkpt lat="42.83541627760855" lon="-3.3114417273948242"><ele>642.6666666666666</ele><time>2026-04-13T15:34:57Z</time></trkpt><trkpt lat="42.83555086517818" lon="-3.311541858683072"><ele>641.3333333333334</ele><time>2026-04-13T15:34:58Z</time></trkpt><trkpt lat="42.83568997562914" lon="-3.311641941966222"><ele>640.0</ele><time>2026-04-13T15:34:59Z</time></trkpt><trkpt lat="42.835825087722576" lon="-3.3117435176181607"><ele>640.0</ele><time>2026-04-13T15:35:00Z</time></trkpt><trkpt lat="42.835968499987075" lon="-3.3118545276636193"><ele>640.0</ele><time>2026-04-13T15:35:01Z</time></trkpt><trkpt lat="42.83610310310675" lon="-3.311958196579836"><ele>640.0</ele><time>2026-04-13T15:35:02Z</time></trkpt><trkpt lat="42.836242226534765" lon="-3.312060736455816"><ele>640.3333333333334</ele><time>2026-04-13T15:35:03Z</time></trkpt><trkpt lat="42.836380806306714" lon="-3.3121660033178824"><ele>640.6666666666666</ele><time>2026-04-13T15:35:04Z</time></trkpt><trkpt lat="42.836519450806094" lon="-3.3122722026188014"><ele>641.0</ele><time>2026-04-13T15:35:05Z</time></trkpt><trkpt lat="42.836661182475765" lon="-3.3123794400454485"><ele>637.3333333333333</ele><time>2026-04-13T15:35:06Z</time></trkpt><trkpt lat="42.83681311855648" lon="-3.312485335400852"><ele>633.6666666666666</ele><time>2026-04-13T15:35:07Z</time></trkpt><trkpt lat="42.83695061755122" lon="-3.312578892967944"><ele>630.0</ele><time>2026-04-13T15:35:08Z</time></trkpt><trkpt lat="42.83707960039872" lon="-3.312664991897002"><ele>630.0</ele><time>2026-04-13T15:35:09Z</time></trkpt><trkpt lat="42.837222105934565" lon="-3.3127471184694883"><ele>630.0</ele><time>2026-04-13T15:35:10Z</time></trkpt><trkpt lat="42.837367864811526" lon="-3.3128173952983975"><ele>630.0</ele><time>2026-04-13T15:35:11Z</time></trkpt><trkpt lat="42.837499809502674" lon="-3.3128748807208237"><ele>630.0</ele><time>2026-04-13T15:35:12Z</time></trkpt><trkpt lat="42.83765457555577" lon="-3.312943620289059"><ele>630.25</ele><time>2026-04-13T15:35:13Z</time></trkpt><trkpt lat="42.837791985141436" lon="-3.313012404263612"><ele>630.5</ele><time>2026-04-13T15:35:14Z</time></trkpt><trkpt lat="42.83792195737141" lon="-3.313074790919623"><ele>630.75</ele><time>2026-04-13T15:35:15Z</time></trkpt><trkpt lat="42.838055802726586" lon="-3.31312998716218"><ele>631.0</ele><time>2026-04-13T15:35:16Z</time></trkpt><trkpt lat="42.83819795768995" lon="-3.3131935394698666"><ele>626.6666666666667</ele><time>2026-04-13T15:35:17Z</time></trkpt><trkpt lat="42.83834482387621" lon="-3.313268441303169"><ele>622.3333333333334</ele><time>2026-04-13T15:35:18Z</time></trkpt><trkpt lat="42.838495443705945" lon="-3.3133300187881263"><ele>618.0</ele><time>2026-04-13T15:35:19Z</time></trkpt><trkpt lat="42.83863454229867" lon="-3.313387840981493"><ele>618.0</ele><time>2026-04-13T15:35:20Z</time></trkpt><trkpt lat="42.83875963618586" lon="-3.31343905653209"><ele>618.0</ele><time>2026-04-13T15:35:21Z</time></trkpt><trkpt lat="42.83890629046704" lon="-3.313514327470134"><ele>618.0</ele><time>2026-04-13T15:35:22Z</time></trkpt><trkpt lat="42.839068697536" lon="-3.3135968082705816"><ele>618.0</ele><time>2026-04-13T15:35:23Z</time></trkpt><trkpt lat="42.839259244571565" lon="-3.3136888788608103"><ele>618.0</ele><time>2026-04-13T15:35:24Z</time></trkpt><trkpt lat="42.83944751585312" lon="-3.313769836000515"><ele>618.0</ele><time>2026-04-13T15:35:25Z</time></trkpt><trkpt lat="42.83961971487739" lon="-3.3138405165573532"><ele>616.0</ele><time>2026-04-13T15:35:26Z</time></trkpt><trkpt lat="42.839779056632295" lon="-3.3139255450092815"><ele>614.0</ele><time>2026-04-13T15:35:27Z</time></trkpt><trkpt lat="42.83993738592114" lon="-3.3139959534181274"><ele>612.0</ele><time>2026-04-13T15:35:28Z</time></trkpt><trkpt lat="42.84007215808194" lon="-3.3140657090201247"><ele>609.75</ele><time>2026-04-13T15:35:29Z</time></trkpt><trkpt lat="42.840192506562275" lon="-3.314126816571729"><ele>607.5</ele><time>2026-04-13T15:35:30Z</time></trkpt><trkpt lat="42.8403038870742" lon="-3.3141794090473775"><ele>605.25</ele><time>2026-04-13T15:35:31Z</time></trkpt><trkpt lat="42.84042683416255" lon="-3.314238967549548"><ele>603.0</ele><time>2026-04-13T15:35:32Z</time></trkpt><trkpt lat="42.84055131541593" lon="-3.314299481017426"><ele>603.0</ele><time>2026-04-13T15:35:33Z</time></trkpt><trkpt lat="42.84071375403868" lon="-3.314373328211676"><ele>603.0</ele><time>2026-04-13T15:35:34Z</time></trkpt><trkpt lat="42.84091597978587" lon="-3.3144394827762778"><ele>603.0</ele><time>2026-04-13T15:35:35Z</time></trkpt><trkpt lat="42.84111937006054" lon="-3.314495893578558"><ele>601.3333333333334</ele><time>2026-04-13T15:35:36Z</time></trkpt><trkpt lat="42.841324453352385" lon="-3.314543390541685"><ele>599.6666666666667</ele><time>2026-04-13T15:35:37Z</time></trkpt><trkpt lat="42.84150276817885" lon="-3.314588079090851"><ele>598.0</ele><time>2026-04-13T15:35:38Z</time></trkpt><trkpt lat="42.841649015847786" lon="-3.3146196102963583"><ele>598.0</ele><time>2026-04-13T15:35:39Z</time></trkpt><trkpt lat="42.841762666719525" lon="-3.3146373016606843"><ele>598.0</ele><time>2026-04-13T15:35:40Z</time></trkpt><trkpt lat="42.84186204591074" lon="-3.314642378959983"><ele>598.0</ele><time>2026-04-13T15:35:41Z</time></trkpt><trkpt lat="42.841970034106055" lon="-3.3146173789499978"><ele>598.0</ele><time>2026-04-13T15:35:42Z</time></trkpt><trkpt lat="42.84210054052359" lon="-3.3145462957107887"><ele>597.0</ele><time>2026-04-13T15:35:43Z</time></trkpt><trkpt lat="42.84225858243701" lon="-3.3144567288118"><ele>596.0</ele><time>2026-04-13T15:35:44Z</time></trkpt><trkpt lat="42.842403358311" lon="-3.314381081888938"><ele>595.0</ele><time>2026-04-13T15:35:45Z</time></trkpt><trkpt lat="42.84252128095507" lon="-3.3143224143110244"><ele>594.0</ele><time>2026-04-13T15:35:46Z</time></trkpt><trkpt lat="42.842634122511875" lon="-3.314269997242909"><ele>593.0</ele><time>2026-04-13T15:35:47Z</time></trkpt><trkpt lat="42.84272731167544" lon="-3.3142277592813247"><ele>592.0</ele><time>2026-04-13T15:35:48Z</time></trkpt><trkpt lat="42.84280513132768" lon="-3.3142028760381073"><ele>591.0</ele><time>2026-04-13T15:35:49Z</time></trkpt><trkpt lat="42.842906204765484" lon="-3.3141895613594867"><ele>590.0</ele><time>2026-04-13T15:35:50Z</time></trkpt><trkpt lat="42.843031160634816" lon="-3.3141961375210034"><ele>590.0</ele><time>2026-04-13T15:35:51Z</time></trkpt><trkpt lat="42.84317032293032" lon="-3.314209648072813"><ele>590.0</ele><time>2026-04-13T15:35:52Z</time></trkpt><trkpt lat="42.843323112056375" lon="-3.3142231411668863"><ele>590.0</ele><time>2026-04-13T15:35:53Z</time></trkpt><trkpt lat="42.84347052433463" lon="-3.3142335945246844"><ele>590.0</ele><time>2026-04-13T15:35:54Z</time></trkpt><trkpt lat="42.8436268404645" lon="-3.314240110617626"><ele>589.25</ele><time>2026-04-13T15:35:55Z</time></trkpt><trkpt lat="42.843786743269014" lon="-3.3142471574542993"><ele>588.5</ele><time>2026-04-13T15:35:56Z</time></trkpt><trkpt lat="42.84392955192022" lon="-3.3142561156451835"><ele>587.75</ele><time>2026-04-13T15:35:57Z</time></trkpt><trkpt lat="42.84405203557321" lon="-3.3142652083490676"><ele>587.0</ele><time>2026-04-13T15:35:58Z</time></trkpt><trkpt lat="42.84416380052086" lon="-3.314270729809063"><ele>587.0</ele><time>2026-04-13T15:35:59Z</time></trkpt><trkpt lat="42.84426006808125" lon="-3.3142717012943774"><ele>587.0</ele><time>2026-04-13T15:36:00Z</time></trkpt><trkpt lat="42.844343553115394" lon="-3.314275540840549"><ele>587.0</ele><time>2026-04-13T15:36:01Z</time></trkpt><trkpt lat="42.84442095138434" lon="-3.314282091279272"><ele>587.0</ele><time>2026-04-13T15:36:02Z</time></trkpt><trkpt lat="42.84448525205212" lon="-3.3142874058295324"><ele>587.0</ele><time>2026-04-13T15:36:03Z</time></trkpt><trkpt lat="42.84459567573383" lon="-3.3142975976037086"><ele>587.0</ele><time>2026-04-13T15:36:05Z</time></trkpt><trkpt lat="42.84467116313989" lon="-3.314284050975682"><ele>588.0</ele><time>2026-04-13T15:36:07Z</time></trkpt><trkpt lat="42.844731620856955" lon="-3.3142112508289054"><ele>589.0</ele><time>2026-04-13T15:36:09Z</time></trkpt><trkpt lat="42.844773826470394" lon="-3.3141324642561005"><ele>590.0</ele><time>2026-04-13T15:36:10Z</time></trkpt><trkpt lat="42.84482000538979" lon="-3.3140152728825583"><ele>591.0</ele><time>2026-04-13T15:36:11Z</time></trkpt><trkpt lat="42.84487141439065" lon="-3.313877846486483"><ele>592.0</ele><time>2026-04-13T15:36:12Z</time></trkpt><trkpt lat="42.84492723808691" lon="-3.313743001601524"><ele>592.0</ele><time>2026-04-13T15:36:13Z</time></trkpt><trkpt lat="42.84499282394083" lon="-3.3135981690362915"><ele>592.0</ele><time>2026-04-13T15:36:14Z</time></trkpt><trkpt lat="42.84506430303507" lon="-3.3134483665594443"><ele>592.0</ele><time>2026-04-13T15:36:15Z</time></trkpt><trkpt lat="42.845134435028" lon="-3.313310973232323"><ele>592.0</ele><time>2026-04-13T15:36:16Z</time></trkpt><trkpt lat="42.845216829645786" lon="-3.3131727052600994"><ele>593.0</ele><time>2026-04-13T15:36:17Z</time></trkpt><trkpt lat="42.84530813807575" lon="-3.3130444773080425"><ele>594.0</ele><time>2026-04-13T15:36:18Z</time></trkpt><trkpt lat="42.84542596275154" lon="-3.3129167064323233"><ele>595.0</ele><time>2026-04-13T15:36:19Z</time></trkpt><trkpt lat="42.84556127684991" lon="-3.3128131236496996"><ele>596.0</ele><time>2026-04-13T15:36:20Z</time></trkpt><trkpt lat="42.845709478019145" lon="-3.312706124379343"><ele>596.0</ele><time>2026-04-13T15:36:21Z</time></trkpt><trkpt lat="42.845862036573656" lon="-3.3125969105873025"><ele>596.0</ele><time>2026-04-13T15:36:22Z</time></trkpt><trkpt lat="42.84600847391819" lon="-3.3124892497449006"><ele>596.0</ele><time>2026-04-13T15:36:23Z</time></trkpt><trkpt lat="42.846165797087075" lon="-3.312378147214477"><ele>598.3333333333333</ele><time>2026-04-13T15:36:24Z</time></trkpt><trkpt lat="42.8463283042134" lon="-3.3122573537503133"><ele>600.6666666666666</ele><time>2026-04-13T15:36:25Z</time></trkpt><trkpt lat="42.8464942526271" lon="-3.312136102195526"><ele>603.0</ele><time>2026-04-13T15:36:26Z</time></trkpt><trkpt lat="42.8466660483162" lon="-3.3119953869325554"><ele>603.3333333333334</ele><time>2026-04-13T15:36:27Z</time></trkpt><trkpt lat="42.846845348414185" lon="-3.3118658860874834"><ele>603.6666666666667</ele><time>2026-04-13T15:36:28Z</time></trkpt><trkpt lat="42.84702189521451" lon="-3.311734630730894"><ele>604.0</ele><time>2026-04-13T15:36:29Z</time></trkpt><trkpt lat="42.84718383612786" lon="-3.311619647350055"><ele>604.0</ele><time>2026-04-13T15:36:30Z</time></trkpt><trkpt lat="42.847349065637616" lon="-3.3115061989072467"><ele>604.0</ele><time>2026-04-13T15:36:31Z</time></trkpt><trkpt lat="42.84750638572916" lon="-3.3113797367672704"><ele>604.0</ele><time>2026-04-13T15:36:32Z</time></trkpt><trkpt lat="42.84764823317232" lon="-3.3112688143404014"><ele>604.5</ele><time>2026-04-13T15:36:33Z</time></trkpt><trkpt lat="42.84775610820865" lon="-3.311165872154647"><ele>605.0</ele><time>2026-04-13T15:36:34Z</time></trkpt><trkpt lat="42.84785834021308" lon="-3.311048650180212"><ele>605.5</ele><time>2026-04-13T15:36:35Z</time></trkpt><trkpt lat="42.8479495356491" lon="-3.310905782985674"><ele>606.0</ele><time>2026-04-13T15:36:36Z</time></trkpt><trkpt lat="42.84803042355807" lon="-3.3107383114588846"><ele>605.75</ele><time>2026-04-13T15:36:37Z</time></trkpt><trkpt lat="42.84810827122089" lon="-3.310559848579605"><ele>605.5</ele><time>2026-04-13T15:36:38Z</time></trkpt><trkpt lat="42.84817769487428" lon="-3.310400289688359"><ele>605.25</ele><time>2026-04-13T15:36:39Z</time></trkpt><trkpt lat="42.84822680286423" lon="-3.3102955384013306"><ele>605.0</ele><time>2026-04-13T15:36:40Z</time></trkpt><trkpt lat="42.84826686841057" lon="-3.310216757622731"><ele>605.0</ele><time>2026-04-13T15:36:41Z</time></trkpt><trkpt lat="42.84832179939366" lon="-3.310112295112995"><ele>605.0</ele><time>2026-04-13T15:36:43Z</time></trkpt><trkpt lat="42.848404298788736" lon="-3.3100769953778375"><ele>605.0</ele><time>2026-04-13T15:36:45Z</time></trkpt><trkpt lat="42.848491115416095" lon="-3.3101704960398917"><ele>605.0</ele><time>2026-04-13T15:36:47Z</time></trkpt><trkpt lat="42.84853432263347" lon="-3.3102396536774648"><ele>605.0</ele><time>2026-04-13T15:36:48Z</time></trkpt><trkpt lat="42.84858310734197" lon="-3.3103325044623473"><ele>605.0</ele><time>2026-04-13T15:36:49Z</time></trkpt><trkpt lat="42.84864546745766" lon="-3.3104250070497776"><ele>605.75</ele><time>2026-04-13T15:36:50Z</time></trkpt><trkpt lat="42.84873394696039" lon="-3.31052065479966"><ele>606.5</ele><time>2026-04-13T15:36:51Z</time></trkpt><trkpt lat="42.84882658168904" lon="-3.310626345585559"><ele>607.25</ele><time>2026-04-13T15:36:52Z</time></trkpt><trkpt lat="42.84893499963098" lon="-3.3107562956305734"><ele>608.0</ele><time>2026-04-13T15:36:53Z</time></trkpt><trkpt lat="42.84905362437205" lon="-3.3108901093959715"><ele>608.0</ele><time>2026-04-13T15:36:54Z</time></trkpt><trkpt lat="42.849176768027824" lon="-3.3110193666006795"><ele>608.0</ele><time>2026-04-13T15:36:55Z</time></trkpt><trkpt lat="42.84930153291564" lon="-3.311157461014856"><ele>608.0</ele><time>2026-04-13T15:36:56Z</time></trkpt><trkpt lat="42.84943374976583" lon="-3.311299969818798"><ele>607.6666666666666</ele><time>2026-04-13T15:36:57Z</time></trkpt><trkpt lat="42.84957361806596" lon="-3.3114526395874178"><ele>607.3333333333334</ele><time>2026-04-13T15:36:58Z</time></trkpt><trkpt lat="42.84971409214321" lon="-3.3116055992362425"><ele>607.0</ele><time>2026-04-13T15:36:59Z</time></trkpt><trkpt lat="42.8498578388907" lon="-3.311753762797016"><ele>607.0</ele><time>2026-04-13T15:37:00Z</time></trkpt><trkpt lat="42.85000176441698" lon="-3.311920099151133"><ele>607.0</ele><time>2026-04-13T15:37:01Z</time></trkpt><trkpt lat="42.850143362992426" lon="-3.312088605381364"><ele>607.0</ele><time>2026-04-13T15:37:02Z</time></trkpt><trkpt lat="42.85029883813263" lon="-3.3122571293312957"><ele>607.6666666666667</ele><time>2026-04-13T15:37:03Z</time></trkpt><trkpt lat="42.85046724940786" lon="-3.312435008784053"><ele>608.3333333333334</ele><time>2026-04-13T15:37:04Z</time></trkpt><trkpt lat="42.850627984812256" lon="-3.3126105802349795"><ele>609.0</ele><time>2026-04-13T15:37:05Z</time></trkpt><trkpt lat="42.850784887440746" lon="-3.312782946446679"><ele>609.0</ele><time>2026-04-13T15:37:06Z</time></trkpt><trkpt lat="42.85094961900831" lon="-3.312957848780685"><ele>609.0</ele><time>2026-04-13T15:37:07Z</time></trkpt><trkpt lat="42.85111416134098" lon="-3.313133980882427"><ele>609.0</ele><time>2026-04-13T15:37:08Z</time></trkpt><trkpt lat="42.85127979712449" lon="-3.3133128207461056"><ele>610.3333333333334</ele><time>2026-04-13T15:37:09Z</time></trkpt><trkpt lat="42.851446994794934" lon="-3.313486810414003"><ele>611.6666666666667</ele><time>2026-04-13T15:37:10Z</time></trkpt><trkpt lat="42.851616809126384" lon="-3.313665526644058"><ele>613.0</ele><time>2026-04-13T15:37:11Z</time></trkpt><trkpt lat="42.8517780856427" lon="-3.3138424684357126"><ele>615.0</ele><time>2026-04-13T15:37:12Z</time></trkpt><trkpt lat="42.85194130605008" lon="-3.314016315126335"><ele>617.0</ele><time>2026-04-13T15:37:13Z</time></trkpt><trkpt lat="42.85210470882225" lon="-3.314183268083044"><ele>619.0</ele><time>2026-04-13T15:37:14Z</time></trkpt><trkpt lat="42.85226686378757" lon="-3.3143479034252086"><ele>619.0</ele><time>2026-04-13T15:37:15Z</time></trkpt><trkpt lat="42.852426099580576" lon="-3.3145177103978796"><ele>619.0</ele><time>2026-04-13T15:37:16Z</time></trkpt><trkpt lat="42.85258434511582" lon="-3.3146937479945873"><ele>619.0</ele><time>2026-04-13T15:37:17Z</time></trkpt><trkpt lat="42.85274977416774" lon="-3.314873133319739"><ele>619.6666666666667</ele><time>2026-04-13T15:37:18Z</time></trkpt><trkpt lat="42.85291741296388" lon="-3.3150480710702968"><ele>620.3333333333334</ele><time>2026-04-13T15:37:19Z</time></trkpt><trkpt lat="42.853085215866464" lon="-3.3152232627240683"><ele>621.0</ele><time>2026-04-13T15:37:20Z</time></trkpt><trkpt lat="42.85323355239439" lon="-3.3153841508435415"><ele>621.0</ele><time>2026-04-13T15:37:21Z</time></trkpt><trkpt lat="42.853369613333754" lon="-3.3155314240309557"><ele>621.0</ele><time>2026-04-13T15:37:22Z</time></trkpt><trkpt lat="42.853482686464254" lon="-3.3156582509612087"><ele>621.0</ele><time>2026-04-13T15:37:23Z</time></trkpt><trkpt lat="42.8536352687068" lon="-3.3158191550605483"><ele>621.0</ele><time>2026-04-13T15:37:24Z</time></trkpt><trkpt lat="42.853786429386794" lon="-3.315981480322095"><ele>621.0</ele><time>2026-04-13T15:37:25Z</time></trkpt><trkpt lat="42.85394403221628" lon="-3.3161488040497744"><ele>621.0</ele><time>2026-04-13T15:37:26Z</time></trkpt><trkpt lat="42.85410563040261" lon="-3.316317638399531"><ele>620.3333333333334</ele><time>2026-04-13T15:37:27Z</time></trkpt><trkpt lat="42.854266882224024" lon="-3.3164922219960467"><ele>619.6666666666667</ele><time>2026-04-13T15:37:28Z</time></trkpt><trkpt lat="42.8544272867815" lon="-3.3166692879744812"><ele>619.0</ele><time>2026-04-13T15:37:29Z</time></trkpt><trkpt lat="42.854589757951" lon="-3.3168476052021028"><ele>620.0</ele><time>2026-04-13T15:37:30Z</time></trkpt><trkpt lat="42.85475154944252" lon="-3.3170157245319825"><ele>621.0</ele><time>2026-04-13T15:37:31Z</time></trkpt><trkpt lat="42.85491199221859" lon="-3.3171765825600468"><ele>622.0</ele><time>2026-04-13T15:37:32Z</time></trkpt><trkpt lat="42.85506141833415" lon="-3.317336868940118"><ele>624.3333333333334</ele><time>2026-04-13T15:37:33Z</time></trkpt><trkpt lat="42.855202499708774" lon="-3.317495374831674"><ele>626.6666666666666</ele><time>2026-04-13T15:37:34Z</time></trkpt><trkpt lat="42.85534417074201" lon="-3.317657745164744"><ele>629.0</ele><time>2026-04-13T15:37:35Z</time></trkpt><trkpt lat="42.855488453660215" lon="-3.317815941164005"><ele>629.0</ele><time>2026-04-13T15:37:36Z</time></trkpt><trkpt lat="42.85563738403937" lon="-3.317973835442719"><ele>629.0</ele><time>2026-04-13T15:37:37Z</time></trkpt><trkpt lat="42.85578787213389" lon="-3.318136234902638"><ele>629.0</ele><time>2026-04-13T15:37:38Z</time></trkpt><trkpt lat="42.855939978370934" lon="-3.318302888787415"><ele>628.5</ele><time>2026-04-13T15:37:39Z</time></trkpt><trkpt lat="42.856074535971146" lon="-3.3184456426162394"><ele>628.0</ele><time>2026-04-13T15:37:40Z</time></trkpt><trkpt lat="42.85619762671462" lon="-3.318574273692024"><ele>627.5</ele><time>2026-04-13T15:37:41Z</time></trkpt><trkpt lat="42.85629971103315" lon="-3.318663932403577"><ele>627.0</ele><time>2026-04-13T15:37:42Z</time></trkpt><trkpt lat="42.85640843468259" lon="-3.31873043590052"><ele>627.0</ele><time>2026-04-13T15:37:43Z</time></trkpt><trkpt lat="42.85653785972151" lon="-3.318781900610993"><ele>627.0</ele><time>2026-04-13T15:37:44Z</time></trkpt><trkpt lat="42.856689901850295" lon="-3.3188295341223437"><ele>627.0</ele><time>2026-04-13T15:37:45Z</time></trkpt><trkpt lat="42.856844179310556" lon="-3.3188842303837256"><ele>625.25</ele><time>2026-04-13T15:37:46Z</time></trkpt><trkpt lat="42.85698940209294" lon="-3.3189401598025374"><ele>623.5</ele><time>2026-04-13T15:37:47Z</time></trkpt><trkpt lat="42.85712273256971" lon="-3.318989890833205"><ele>621.75</ele><time>2026-04-13T15:37:48Z</time></trkpt><trkpt lat="42.85724740224182" lon="-3.3190357667375854"><ele>620.0</ele><time>2026-04-13T15:37:49Z</time></trkpt><trkpt lat="42.85736057116295" lon="-3.3190842607247273"><ele>620.0</ele><time>2026-04-13T15:37:50Z</time></trkpt><trkpt lat="42.85747763085575" lon="-3.3191348665625933"><ele>620.0</ele><time>2026-04-13T15:37:51Z</time></trkpt><trkpt lat="42.857610609332475" lon="-3.3191901718231684"><ele>620.0</ele><time>2026-04-13T15:37:52Z</time></trkpt><trkpt lat="42.85776833470144" lon="-3.319251676622952"><ele>620.0</ele><time>2026-04-13T15:37:53Z</time></trkpt><trkpt lat="42.857912459671404" lon="-3.3193064148772367"><ele>617.75</ele><time>2026-04-13T15:37:54Z</time></trkpt><trkpt lat="42.85803882949295" lon="-3.3193520708277475"><ele>615.5</ele><time>2026-04-13T15:37:55Z</time></trkpt><trkpt lat="42.85816528844796" lon="-3.31939902378039"><ele>613.25</ele><time>2026-04-13T15:37:56Z</time></trkpt><trkpt lat="42.85830136130765" lon="-3.319453945315815"><ele>611.0</ele><time>2026-04-13T15:37:57Z</time></trkpt><trkpt lat="42.85842469946137" lon="-3.319500865120631"><ele>610.75</ele><time>2026-04-13T15:37:58Z</time></trkpt><trkpt lat="42.85854511252741" lon="-3.3195529499255394"><ele>610.5</ele><time>2026-04-13T15:37:59Z</time></trkpt><trkpt lat="42.8586805775645" lon="-3.3196105535024123"><ele>610.25</ele><time>2026-04-13T15:38:00Z</time></trkpt><trkpt lat="42.858811278927774" lon="-3.3196659136835884"><ele>610.0</ele><time>2026-04-13T15:38:01Z</time></trkpt><trkpt lat="42.858914978612766" lon="-3.31970594805406"><ele>609.8</ele><time>2026-04-13T15:38:02Z</time></trkpt><trkpt lat="42.858992101046375" lon="-3.319738828809311"><ele>609.6</ele><time>2026-04-13T15:38:03Z</time></trkpt><trkpt lat="42.85905025677743" lon="-3.3197843366933544"><ele>609.4</ele><time>2026-04-13T15:38:04Z</time></trkpt><trkpt lat="42.85910661509138" lon="-3.319876912170071"><ele>609.2</ele><time>2026-04-13T15:38:05Z</time></trkpt><trkpt lat="42.85915854520384" lon="-3.320015944475564"><ele>609.0</ele><time>2026-04-13T15:38:06Z</time></trkpt><trkpt lat="42.85919871827265" lon="-3.320178556967961"><ele>609.0</ele><time>2026-04-13T15:38:07Z</time></trkpt><trkpt lat="42.85921132143591" lon="-3.320364537130357"><ele>609.0</ele><time>2026-04-13T15:38:08Z</time></trkpt><trkpt lat="42.859199590664865" lon="-3.3205771592162017"><ele>609.0</ele><time>2026-04-13T15:38:09Z</time></trkpt><trkpt lat="42.859177248581645" lon="-3.320813560045567"><ele>609.25</ele><time>2026-04-13T15:38:10Z</time></trkpt><trkpt lat="42.85915623847094" lon="-3.3210377620206457"><ele>609.5</ele><time>2026-04-13T15:38:11Z</time></trkpt><trkpt lat="42.85914265806231" lon="-3.321215143908477"><ele>609.75</ele><time>2026-04-13T15:38:12Z</time></trkpt><trkpt lat="42.85912578087494" lon="-3.321371246741418"><ele>610.0</ele><time>2026-04-13T15:38:13Z</time></trkpt><trkpt lat="42.85911081127357" lon="-3.32152048600214"><ele>611.0</ele><time>2026-04-13T15:38:14Z</time></trkpt><trkpt lat="42.85910289967749" lon="-3.3216622606772854"><ele>612.0</ele><time>2026-04-13T15:38:15Z</time></trkpt><trkpt lat="42.85909180175432" lon="-3.3218162465365"><ele>613.0</ele><time>2026-04-13T15:38:16Z</time></trkpt><trkpt lat="42.85908156935537" lon="-3.3219930414968633"><ele>614.0</ele><time>2026-04-13T15:38:17Z</time></trkpt><trkpt lat="42.859066049450014" lon="-3.3221775248161376"><ele>614.5</ele><time>2026-04-13T15:38:18Z</time></trkpt><trkpt lat="42.85906075823158" lon="-3.322336015111535"><ele>615.0</ele><time>2026-04-13T15:38:19Z</time></trkpt><trkpt lat="42.8590779364019" lon="-3.3224968468849725"><ele>615.5</ele><time>2026-04-13T15:38:20Z</time></trkpt><trkpt lat="42.85912800520338" lon="-3.322684159553708"><ele>616.0</ele><time>2026-04-13T15:38:21Z</time></trkpt><trkpt lat="42.8591816784079" lon="-3.3228507170707227"><ele>616.0</ele><time>2026-04-13T15:38:22Z</time></trkpt><trkpt lat="42.859229639080276" lon="-3.3229583616028977"><ele>616.0</ele><time>2026-04-13T15:38:23Z</time></trkpt><trkpt lat="42.85928386940873" lon="-3.323051155631335"><ele>616.0</ele><time>2026-04-13T15:38:24Z</time></trkpt><trkpt lat="42.85935270898946" lon="-3.323131663216736"><ele>616.0</ele><time>2026-04-13T15:38:25Z</time></trkpt><trkpt lat="42.85943890150995" lon="-3.323197225912609"><ele>616.0</ele><time>2026-04-13T15:38:26Z</time></trkpt><trkpt lat="42.85953747022193" lon="-3.323258967184157"><ele>615.8</ele><time>2026-04-13T15:38:27Z</time></trkpt><trkpt lat="42.85961766765377" lon="-3.3233213491908598"><ele>615.6</ele><time>2026-04-13T15:38:28Z</time></trkpt><trkpt lat="42.85967519713934" lon="-3.3233881457638397"><ele>615.4</ele><time>2026-04-13T15:38:29Z</time></trkpt><trkpt lat="42.85971370458608" lon="-3.3235344167720253"><ele>615.2</ele><time>2026-04-13T15:38:31Z</time></trkpt><trkpt lat="42.85970676481688" lon="-3.323620393426817"><ele>615.0</ele><time>2026-04-13T15:38:32Z</time></trkpt><trkpt lat="42.85965682908933" lon="-3.3237711124151943"><ele>615.0</ele><time>2026-04-13T15:38:34Z</time></trkpt><trkpt lat="42.8595652532711" lon="-3.32381166473205"><ele>615.0</ele><time>2026-04-13T15:38:36Z</time></trkpt><trkpt lat="42.85946250406955" lon="-3.323782787516425"><ele>615.0</ele><time>2026-04-13T15:38:38Z</time></trkpt><trkpt lat="42.85935697939381" lon="-3.3238127404738016"><ele>615.0</ele><time>2026-04-13T15:38:40Z</time></trkpt><trkpt lat="42.8592612594611" lon="-3.323887961039921"><ele>615.0</ele><time>2026-04-13T15:38:42Z</time></trkpt><trkpt lat="42.859157026242656" lon="-3.323933675611132"><ele>613.5</ele><time>2026-04-13T15:38:44Z</time></trkpt><trkpt lat="42.85905047313165" lon="-3.323960221738168"><ele>612.0</ele><time>2026-04-13T15:38:46Z</time></trkpt><trkpt lat="42.85894778448932" lon="-3.323983019993723"><ele>610.5</ele><time>2026-04-13T15:38:48Z</time></trkpt><trkpt lat="42.8588834845095" lon="-3.323996471275449"><ele>609.0</ele><time>2026-04-13T15:38:49Z</time></trkpt><trkpt lat="42.8588185307303" lon="-3.324019953087661"><ele>607.5</ele><time>2026-04-13T15:38:50Z</time></trkpt><trkpt lat="42.85875653830412" lon="-3.3240574699066174"><ele>606.0</ele><time>2026-04-13T15:38:51Z</time></trkpt><trkpt lat="42.85866782853977" lon="-3.324154563043082"><ele>606.0</ele><time>2026-04-13T15:38:53Z</time></trkpt><trkpt lat="42.858606117504856" lon="-3.3242730342287437"><ele>606.0</ele><time>2026-04-13T15:38:55Z</time></trkpt><trkpt lat="42.85856544876277" lon="-3.324378310608219"><ele>606.0</ele><time>2026-04-13T15:38:57Z</time></trkpt><trkpt lat="42.85851143347437" lon="-3.3244226705162374"><ele>606.0</ele><time>2026-04-13T15:39:08Z</time></trkpt><trkpt lat="42.85855662313875" lon="-3.3243295990010355"><ele>606.0</ele><time>2026-04-13T15:39:38Z</time></trkpt><trkpt lat="42.85863180921707" lon="-3.3242162395594326"><ele>606.0</ele><time>2026-04-13T15:39:39Z</time></trkpt><trkpt lat="42.85870953765897" lon="-3.324124938177803"><ele>606.0</ele><time>2026-04-13T15:39:40Z</time></trkpt><trkpt lat="42.85877826072222" lon="-3.324046672053991"><ele>606.0</ele><time>2026-04-13T15:39:41Z</time></trkpt><trkpt lat="42.85885127704785" lon="-3.323997268920634"><ele>606.0</ele><time>2026-04-13T15:39:42Z</time></trkpt><trkpt lat="42.85893543747392" lon="-3.323963150353246"><ele>606.0</ele><time>2026-04-13T15:39:43Z</time></trkpt><trkpt lat="42.859019252592155" lon="-3.323949253670148"><ele>606.0</ele><time>2026-04-13T15:39:44Z</time></trkpt><trkpt lat="42.85910688614876" lon="-3.3239308008516564"><ele>606.0</ele><time>2026-04-13T15:39:45Z</time></trkpt><trkpt lat="42.8592054700047" lon="-3.323909062611142"><ele>606.0</ele><time>2026-04-13T15:39:46Z</time></trkpt><trkpt lat="42.859293147711824" lon="-3.323883057002339"><ele>606.0</ele><time>2026-04-13T15:39:47Z</time></trkpt><trkpt lat="42.85936215082241" lon="-3.3238411048597207"><ele>606.0</ele><time>2026-04-13T15:39:48Z</time></trkpt><trkpt lat="42.85942590686229" lon="-3.3237942506074294"><ele>606.0</ele><time>2026-04-13T15:39:49Z</time></trkpt><trkpt lat="42.85950315326423" lon="-3.323778687622344"><ele>606.0</ele><time>2026-04-13T15:39:50Z</time></trkpt><trkpt lat="42.85957959909848" lon="-3.3237734334948468"><ele>607.8</ele><time>2026-04-13T15:39:51Z</time></trkpt><trkpt lat="42.8596730162432" lon="-3.3237452574599295"><ele>609.6</ele><time>2026-04-13T15:39:53Z</time></trkpt><trkpt lat="42.859733983530454" lon="-3.3236975464594236"><ele>611.4</ele><time>2026-04-13T15:39:55Z</time></trkpt><trkpt lat="42.85980370361077" lon="-3.323663466292159"><ele>613.2</ele><time>2026-04-13T15:39:56Z</time></trkpt><trkpt lat="42.85991496733712" lon="-3.3236012144906333"><ele>615.0</ele><time>2026-04-13T15:39:57Z</time></trkpt><trkpt lat="42.860006885199525" lon="-3.323546110940914"><ele>615.0</ele><time>2026-04-13T15:39:58Z</time></trkpt><trkpt lat="42.86007074317848" lon="-3.323502960697182"><ele>615.0</ele><time>2026-04-13T15:39:59Z</time></trkpt><trkpt lat="42.860142771675925" lon="-3.323458015921707"><ele>615.0</ele><time>2026-04-13T15:40:00Z</time></trkpt><trkpt lat="42.860231503882424" lon="-3.3234027958164387"><ele>615.0</ele><time>2026-04-13T15:40:01Z</time></trkpt><trkpt lat="42.86029937645326" lon="-3.3233489021563796"><ele>615.0</ele><time>2026-04-13T15:40:02Z</time></trkpt><trkpt lat="42.86041003193764" lon="-3.3232726930032004"><ele>615.0</ele><time>2026-04-13T15:40:04Z</time></trkpt><trkpt lat="42.86047201229582" lon="-3.323256868348527"><ele>615.0</ele><time>2026-04-13T15:40:05Z</time></trkpt><trkpt lat="42.860534881547984" lon="-3.3232776817606258"><ele>615.0</ele><time>2026-04-13T15:40:06Z</time></trkpt><trkpt lat="42.860605001529244" lon="-3.3233295047971665"><ele>615.0</ele><time>2026-04-13T15:40:07Z</time></trkpt><trkpt lat="42.86068097592864" lon="-3.3234193034912867"><ele>615.0</ele><time>2026-04-13T15:40:08Z</time></trkpt><trkpt lat="42.86075247875446" lon="-3.323560472384971"><ele>615.0</ele><time>2026-04-13T15:40:09Z</time></trkpt><trkpt lat="42.860849151779334" lon="-3.323683703613133"><ele>615.25</ele><time>2026-04-13T15:40:10Z</time></trkpt><trkpt lat="42.86096769156583" lon="-3.3237954560361045"><ele>615.5</ele><time>2026-04-13T15:40:11Z</time></trkpt><trkpt lat="42.86107255006578" lon="-3.323894412756864"><ele>615.75</ele><time>2026-04-13T15:40:12Z</time></trkpt><trkpt lat="42.86113499934358" lon="-3.3239893413971604"><ele>616.0</ele><time>2026-04-13T15:40:13Z</time></trkpt><trkpt lat="42.861202208650866" lon="-3.3241424345038078"><ele>616.0</ele><time>2026-04-13T15:40:14Z</time></trkpt><trkpt lat="42.86126535991946" lon="-3.3243226291206547"><ele>616.0</ele><time>2026-04-13T15:40:15Z</time></trkpt><trkpt lat="42.86133850684155" lon="-3.324436872293221"><ele>616.0</ele><time>2026-04-13T15:40:16Z</time></trkpt><trkpt lat="42.86141939938319" lon="-3.324515922775797"><ele>616.0</ele><time>2026-04-13T15:40:17Z</time></trkpt><trkpt lat="42.861506773516595" lon="-3.3245761853433784"><ele>616.0</ele><time>2026-04-13T15:40:18Z</time></trkpt><trkpt lat="42.861600209304484" lon="-3.3246291212926598"><ele>616.0</ele><time>2026-04-13T15:40:19Z</time></trkpt><trkpt lat="42.86167584653347" lon="-3.3246449770939823"><ele>616.0</ele><time>2026-04-13T15:40:20Z</time></trkpt><trkpt lat="42.86178297812365" lon="-3.324649001584425"><ele>616.0</ele><time>2026-04-13T15:40:21Z</time></trkpt><trkpt lat="42.861886468908835" lon="-3.3246445229412847"><ele>616.0</ele><time>2026-04-13T15:40:22Z</time></trkpt><trkpt lat="42.86197819428666" lon="-3.3246590639871556"><ele>616.0</ele><time>2026-04-13T15:40:23Z</time></trkpt><trkpt lat="42.862072001421" lon="-3.324720142864023"><ele>616.0</ele><time>2026-04-13T15:40:24Z</time></trkpt><trkpt lat="42.862140672227895" lon="-3.32482896537216"><ele>616.0</ele><time>2026-04-13T15:40:25Z</time></trkpt><trkpt lat="42.86221456227759" lon="-3.324951145833955"><ele>616.0</ele><time>2026-04-13T15:40:26Z</time></trkpt><trkpt lat="42.86227823499312" lon="-3.3250445356325766"><ele>616.0</ele><time>2026-04-13T15:40:27Z</time></trkpt><trkpt lat="42.86232847064821" lon="-3.3251078888305328"><ele>616.0</ele><time>2026-04-13T15:40:28Z</time></trkpt><trkpt lat="42.862411397569275" lon="-3.3251827705251884"><ele>616.0</ele><time>2026-04-13T15:40:29Z</time></trkpt><trkpt lat="42.8624918955553" lon="-3.325226588321904"><ele>616.0</ele><time>2026-04-13T15:40:30Z</time></trkpt><trkpt lat="42.862607827780664" lon="-3.32526472199194"><ele>616.0</ele><time>2026-04-13T15:40:31Z</time></trkpt><trkpt lat="42.862728296879794" lon="-3.3253012803754003"><ele>616.0</ele><time>2026-04-13T15:40:32Z</time></trkpt><trkpt lat="42.86284563854601" lon="-3.3253364545645687"><ele>616.0</ele><time>2026-04-13T15:40:33Z</time></trkpt><trkpt lat="42.86295682965635" lon="-3.325363397254813"><ele>616.0</ele><time>2026-04-13T15:40:34Z</time></trkpt><trkpt lat="42.86306848885604" lon="-3.3253892180427256"><ele>616.0</ele><time>2026-04-13T15:40:35Z</time></trkpt><trkpt lat="42.86315635676054" lon="-3.3253936520080827"><ele>616.0</ele><time>2026-04-13T15:40:36Z</time></trkpt><trkpt lat="42.86323890646144" lon="-3.3253869752656198"><ele>616.0</ele><time>2026-04-13T15:40:37Z</time></trkpt><trkpt lat="42.86331956007354" lon="-3.3253677700459368"><ele>616.0</ele><time>2026-04-13T15:40:38Z</time></trkpt><trkpt lat="42.863393368326015" lon="-3.325375970956584"><ele>616.0</ele><time>2026-04-13T15:40:39Z</time></trkpt><trkpt lat="42.86346644914917" lon="-3.325411514577204"><ele>616.0</ele><time>2026-04-13T15:40:40Z</time></trkpt><trkpt lat="42.863556921803315" lon="-3.325470183456417"><ele>616.0</ele><time>2026-04-13T15:40:41Z</time></trkpt><trkpt lat="42.863645686274715" lon="-3.325524665081334"><ele>616.0</ele><time>2026-04-13T15:40:42Z</time></trkpt><trkpt lat="42.86373267173598" lon="-3.3255646463407222"><ele>616.0</ele><time>2026-04-13T15:40:43Z</time></trkpt><trkpt lat="42.863816066091246" lon="-3.3255997008310416"><ele>616.0</ele><time>2026-04-13T15:40:43.999Z</time></trkpt><trkpt lat="42.863950147427936" lon="-3.325643066132459"><ele>616.0</ele><time>2026-04-13T15:40:44.999Z</time></trkpt><trkpt lat="42.86405861993986" lon="-3.325689101580951"><ele>616.0</ele><time>2026-04-13T15:40:45.999Z</time></trkpt><trkpt lat="42.86418358619429" lon="-3.3257226289114468"><ele>616.0</ele><time>2026-04-13T15:40:47Z</time></trkpt><trkpt lat="42.86429856659824" lon="-3.3257374275499982"><ele>616.0</ele><time>2026-04-13T15:40:48Z</time></trkpt><trkpt lat="42.8644123757131" lon="-3.32571903603042"><ele>616.0</ele><time>2026-04-13T15:40:49Z</time></trkpt><trkpt lat="42.86453328913758" lon="-3.3256864670310735"><ele>616.0</ele><time>2026-04-13T15:40:50Z</time></trkpt><trkpt lat="42.864654333459164" lon="-3.3256592536185603"><ele>616.0</ele><time>2026-04-13T15:40:51Z</time></trkpt><trkpt lat="42.86475149922099" lon="-3.325640991133498"><ele>616.0</ele><time>2026-04-13T15:40:52Z</time></trkpt><trkpt lat="42.864829186488215" lon="-3.3256323800787513"><ele>616.0</ele><time>2026-04-13T15:40:53Z</time></trkpt><trkpt lat="42.864898093939615" lon="-3.3256372776827283"><ele>616.0</ele><time>2026-04-13T15:40:54Z</time></trkpt><trkpt lat="42.8649765901916" lon="-3.325636638492533"><ele>616.0</ele><time>2026-04-13T15:40:55Z</time></trkpt><trkpt lat="42.86506799274678" lon="-3.3256271617840674"><ele>616.0</ele><time>2026-04-13T15:40:56Z</time></trkpt><trkpt lat="42.86516850274182" lon="-3.325615944061544"><ele>616.0</ele><time>2026-04-13T15:40:57Z</time></trkpt><trkpt lat="42.86526968546404" lon="-3.325610091058239"><ele>616.3333333333334</ele><time>2026-04-13T15:40:58Z</time></trkpt><trkpt lat="42.865356832809795" lon="-3.325606068326471"><ele>616.6666666666667</ele><time>2026-04-13T15:40:59Z</time></trkpt><trkpt lat="42.865435809630696" lon="-3.325610929700613"><ele>617.0</ele><time>2026-04-13T15:41:00Z</time></trkpt><trkpt lat="42.86551247445602" lon="-3.325625511628165"><ele>617.3333333333334</ele><time>2026-04-13T15:41:01Z</time></trkpt><trkpt lat="42.86557611619588" lon="-3.325642576359766"><ele>617.6666666666666</ele><time>2026-04-13T15:41:02Z</time></trkpt><trkpt lat="42.86564115290079" lon="-3.32566808988419"><ele>618.0</ele><time>2026-04-13T15:41:03Z</time></trkpt><trkpt lat="42.86571356378645" lon="-3.325695744535808"><ele>618.0</ele><time>2026-04-13T15:41:04Z</time></trkpt><trkpt lat="42.86578844567759" lon="-3.32573568816191"><ele>618.0</ele><time>2026-04-13T15:41:05Z</time></trkpt><trkpt lat="42.865875596399356" lon="-3.3257870017694144"><ele>618.0</ele><time>2026-04-13T15:41:06Z</time></trkpt><trkpt lat="42.86598915266921" lon="-3.3258302744826422"><ele>618.0</ele><time>2026-04-13T15:41:07Z</time></trkpt><trkpt lat="42.866113790360686" lon="-3.3258422306926456"><ele>618.0</ele><time>2026-04-13T15:41:08Z</time></trkpt><trkpt lat="42.86623462976215" lon="-3.3258571892693696"><ele>618.0</ele><time>2026-04-13T15:41:09Z</time></trkpt><trkpt lat="42.866362339861844" lon="-3.3258890455134114"><ele>618.0</ele><time>2026-04-13T15:41:10Z</time></trkpt><trkpt lat="42.866470046451354" lon="-3.325914106285888"><ele>618.0</ele><time>2026-04-13T15:41:11Z</time></trkpt><trkpt lat="42.86657556070459" lon="-3.325932359671766"><ele>618.0</ele><time>2026-04-13T15:41:12Z</time></trkpt><trkpt lat="42.86668288004263" lon="-3.325949425600244"><ele>618.0</ele><time>2026-04-13T15:41:13Z</time></trkpt><trkpt lat="42.86677555072915" lon="-3.3259626754495946"><ele>618.0</ele><time>2026-04-13T15:41:14Z</time></trkpt><trkpt lat="42.86684953128763" lon="-3.325977542771997"><ele>618.0</ele><time>2026-04-13T15:41:15Z</time></trkpt><trkpt lat="42.86691641272509" lon="-3.3259858299483334"><ele>618.0</ele><time>2026-04-13T15:41:16Z</time></trkpt><trkpt lat="42.86699275477543" lon="-3.3259874341647166"><ele>618.0</ele><time>2026-04-13T15:41:17Z</time></trkpt><trkpt lat="42.867063606927246" lon="-3.325982184912318"><ele>618.0</ele><time>2026-04-13T15:41:18Z</time></trkpt><trkpt lat="42.8671366223841" lon="-3.3259712814597004"><ele>617.4</ele><time>2026-04-13T15:41:19Z</time></trkpt><trkpt lat="42.86722261051332" lon="-3.325949616471633"><ele>616.8</ele><time>2026-04-13T15:41:20Z</time></trkpt><trkpt lat="42.86729880897278" lon="-3.325927019404953"><ele>616.2</ele><time>2026-04-13T15:41:21Z</time></trkpt><trkpt lat="42.86737741707331" lon="-3.3258985226664075"><ele>615.6</ele><time>2026-04-13T15:41:22Z</time></trkpt><trkpt lat="42.867468294625624" lon="-3.3258740937176254"><ele>615.0</ele><time>2026-04-13T15:41:24Z</time></trkpt><trkpt lat="42.86757835034409" lon="-3.3259150523464793"><ele>614.1666666666666</ele><time>2026-04-13T15:41:26Z</time></trkpt><trkpt lat="42.867690763938285" lon="-3.3259470532922646"><ele>613.3333333333334</ele><time>2026-04-13T15:41:28Z</time></trkpt><trkpt lat="42.86777960203281" lon="-3.3259566233210345"><ele>612.5</ele><time>2026-04-13T15:41:29Z</time></trkpt><trkpt lat="42.867861867471994" lon="-3.3259915340602553"><ele>611.6666666666667</ele><time>2026-04-13T15:41:30Z</time></trkpt><trkpt lat="42.867927592672245" lon="-3.32603969081593"><ele>610.8333333333334</ele><time>2026-04-13T15:41:31Z</time></trkpt><trkpt lat="42.86798244145229" lon="-3.326096821753053"><ele>610.0</ele><time>2026-04-13T15:41:32Z</time></trkpt><trkpt lat="42.86806317743392" lon="-3.3262483511699688"><ele>610.0</ele><time>2026-04-13T15:41:34Z</time></trkpt><trkpt lat="42.86811871569194" lon="-3.326351671507824"><ele>610.0</ele><time>2026-04-13T15:41:35Z</time></trkpt><trkpt lat="42.86817399048744" lon="-3.326444762117402"><ele>610.0</ele><time>2026-04-13T15:41:36Z</time></trkpt><trkpt lat="42.868228046117366" lon="-3.3265005523489632"><ele>610.0</ele><time>2026-04-13T15:41:37Z</time></trkpt><trkpt lat="42.868336058241226" lon="-3.3265390787608933"><ele>610.0</ele><time>2026-04-13T15:41:39Z</time></trkpt><trkpt lat="42.86841412289497" lon="-3.3265177676461097"><ele>610.0</ele><time>2026-04-13T15:41:41Z</time></trkpt><trkpt lat="42.86849443142633" lon="-3.326460989458601"><ele>611.8</ele><time>2026-04-13T15:41:43Z</time></trkpt><trkpt lat="42.8686144739675" lon="-3.3264970685230892"><ele>613.6</ele><time>2026-04-13T15:41:45Z</time></trkpt><trkpt lat="42.86869505078943" lon="-3.3265391853216046"><ele>615.4</ele><time>2026-04-13T15:41:46Z</time></trkpt><trkpt lat="42.868760085436186" lon="-3.326607323580253"><ele>617.2</ele><time>2026-04-13T15:41:47Z</time></trkpt><trkpt lat="42.86880323893575" lon="-3.3267124234996595"><ele>619.0</ele><time>2026-04-13T15:41:48Z</time></trkpt><trkpt lat="42.86884242438552" lon="-3.326830815248655"><ele>619.0</ele><time>2026-04-13T15:41:49Z</time></trkpt><trkpt lat="42.868879303977785" lon="-3.326929803562952"><ele>619.0</ele><time>2026-04-13T15:41:50Z</time></trkpt><trkpt lat="42.8689236493094" lon="-3.3270153876194146"><ele>619.0</ele><time>2026-04-13T15:41:51Z</time></trkpt><trkpt lat="42.86896923100385" lon="-3.3271216251896063"><ele>619.0</ele><time>2026-04-13T15:41:52Z</time></trkpt><trkpt lat="42.869000701179964" lon="-3.3272193135376433"><ele>619.0</ele><time>2026-04-13T15:41:53Z</time></trkpt><trkpt lat="42.869023429272005" lon="-3.327306875334856"><ele>619.0</ele><time>2026-04-13T15:41:54Z</time></trkpt><trkpt lat="42.86904131603488" lon="-3.327398185375034"><ele>617.2</ele><time>2026-04-13T15:41:55Z</time></trkpt><trkpt lat="42.86907429768585" lon="-3.327560874096802"><ele>615.4</ele><time>2026-04-13T15:41:57Z</time></trkpt><trkpt lat="42.869090574691796" lon="-3.327666508066586"><ele>613.6</ele><time>2026-04-13T15:41:58Z</time></trkpt><trkpt lat="42.86911904482798" lon="-3.3277886553918283"><ele>611.8</ele><time>2026-04-13T15:41:59Z</time></trkpt><trkpt lat="42.86915723308831" lon="-3.327954742212571"><ele>610.0</ele><time>2026-04-13T15:42:00Z</time></trkpt><trkpt lat="42.86920456468304" lon="-3.3281254902111956"><ele>608.8</ele><time>2026-04-13T15:42:01Z</time></trkpt><trkpt lat="42.869238347746794" lon="-3.328283665737027"><ele>607.6</ele><time>2026-04-13T15:42:02Z</time></trkpt><trkpt lat="42.86924323711876" lon="-3.3284084967009804"><ele>606.4</ele><time>2026-04-13T15:42:03Z</time></trkpt><trkpt lat="42.86923433807594" lon="-3.328555466158581"><ele>605.2</ele><time>2026-04-13T15:42:04Z</time></trkpt><trkpt lat="42.86922597313977" lon="-3.3287186196517866"><ele>604.0</ele><time>2026-04-13T15:42:05Z</time></trkpt><trkpt lat="42.86923795979362" lon="-3.3288406428871498"><ele>603.8</ele><time>2026-04-13T15:42:06Z</time></trkpt><trkpt lat="42.869273891171446" lon="-3.328968370692019"><ele>603.5999999999999</ele><time>2026-04-13T15:42:07Z</time></trkpt><trkpt lat="42.86932344265935" lon="-3.3291102932231667"><ele>603.4</ele><time>2026-04-13T15:42:08Z</time></trkpt><trkpt lat="42.86937532827156" lon="-3.329238650206743"><ele>603.1999999999999</ele><time>2026-04-13T15:42:09Z</time></trkpt><trkpt lat="42.86941107084417" lon="-3.3293519274097023"><ele>603.0</ele><time>2026-04-13T15:42:10Z</time></trkpt><trkpt lat="42.86945676643906" lon="-3.3294555578855967"><ele>603.8</ele><time>2026-04-13T15:42:11Z</time></trkpt><trkpt lat="42.86951479851985" lon="-3.3295453944274396"><ele>604.5999999999999</ele><time>2026-04-13T15:42:12Z</time></trkpt><trkpt lat="42.86957665123761" lon="-3.3296204481670295"><ele>605.4000000000001</ele><time>2026-04-13T15:42:13Z</time></trkpt><trkpt lat="42.869642735418765" lon="-3.3297021873440844"><ele>606.2</ele><time>2026-04-13T15:42:14Z</time></trkpt><trkpt lat="42.86971402744476" lon="-3.3297974028907"><ele>607.0</ele><time>2026-04-13T15:42:15Z</time></trkpt><trkpt lat="42.8697795020325" lon="-3.3299013069612653"><ele>607.0</ele><time>2026-04-13T15:42:16Z</time></trkpt><trkpt lat="42.86985321417261" lon="-3.3300269016056414"><ele>607.0</ele><time>2026-04-13T15:42:17Z</time></trkpt><trkpt lat="42.869919330950836" lon="-3.3301341672993745"><ele>607.0</ele><time>2026-04-13T15:42:18Z</time></trkpt><trkpt lat="42.869987323766345" lon="-3.330233354778303"><ele>607.0</ele><time>2026-04-13T15:42:19Z</time></trkpt><trkpt lat="42.870063711921546" lon="-3.330315788755162"><ele>607.0</ele><time>2026-04-13T15:42:20Z</time></trkpt><trkpt lat="42.87015315100434" lon="-3.330392680474185"><ele>607.25</ele><time>2026-04-13T15:42:21Z</time></trkpt><trkpt lat="42.87025828602852" lon="-3.330475326144123"><ele>607.5</ele><time>2026-04-13T15:42:22Z</time></trkpt><trkpt lat="42.87037425303925" lon="-3.330560876178604"><ele>607.75</ele><time>2026-04-13T15:42:23Z</time></trkpt><trkpt lat="42.87047895507403" lon="-3.3306236282672796"><ele>608.0</ele><time>2026-04-13T15:42:24Z</time></trkpt><trkpt lat="42.8705852346307" lon="-3.330677996184668"><ele>607.25</ele><time>2026-04-13T15:42:25Z</time></trkpt><trkpt lat="42.87069138217543" lon="-3.330730206454637"><ele>606.5</ele><time>2026-04-13T15:42:26Z</time></trkpt><trkpt lat="42.87080048964674" lon="-3.330788501405838"><ele>605.75</ele><time>2026-04-13T15:42:27Z</time></trkpt><trkpt lat="42.87092242645799" lon="-3.330867233671675"><ele>605.0</ele><time>2026-04-13T15:42:28Z</time></trkpt><trkpt lat="42.871054697924826" lon="-3.330979584711151"><ele>605.0</ele><time>2026-04-13T15:42:29Z</time></trkpt><trkpt lat="42.87116715476601" lon="-3.331091836279863"><ele>605.0</ele><time>2026-04-13T15:42:30Z</time></trkpt><trkpt lat="42.87127338232524" lon="-3.3311850861248935"><ele>605.0</ele><time>2026-04-13T15:42:31Z</time></trkpt><trkpt lat="42.87138038004585" lon="-3.3312672124001943"><ele>605.0</ele><time>2026-04-13T15:42:32Z</time></trkpt><trkpt lat="42.87149936274978" lon="-3.3313507681518097"><ele>603.5</ele><time>2026-04-13T15:42:33Z</time></trkpt><trkpt lat="42.87162202459638" lon="-3.331427406773624"><ele>602.0</ele><time>2026-04-13T15:42:34Z</time></trkpt><trkpt lat="42.871749966591885" lon="-3.331500596340391"><ele>600.5</ele><time>2026-04-13T15:42:35Z</time></trkpt><trkpt lat="42.87185652788782" lon="-3.331560167574811"><ele>599.0</ele><time>2026-04-13T15:42:36Z</time></trkpt><trkpt lat="42.87195122133305" lon="-3.3316209407167934"><ele>598.0</ele><time>2026-04-13T15:42:37Z</time></trkpt><trkpt lat="42.87203603021034" lon="-3.3316706028475562"><ele>597.0</ele><time>2026-04-13T15:42:38Z</time></trkpt><trkpt lat="42.872114231300564" lon="-3.3317060931660714"><ele>596.0</ele><time>2026-04-13T15:42:39Z</time></trkpt><trkpt lat="42.872191996024" lon="-3.3317206912416157"><ele>595.0</ele><time>2026-04-13T15:42:39.999Z</time></trkpt><trkpt lat="42.87227054770675" lon="-3.3317201873939433"><ele>594.0</ele><time>2026-04-13T15:42:40.999Z</time></trkpt><trkpt lat="42.872334402314564" lon="-3.3316950372680334"><ele>593.0</ele><time>2026-04-13T15:42:41.999Z</time></trkpt><trkpt lat="42.872391989281994" lon="-3.331645073333298"><ele>593.0</ele><time>2026-04-13T15:42:42.999Z</time></trkpt><trkpt lat="42.87243401958592" lon="-3.3315586178849736"><ele>593.0</ele><time>2026-04-13T15:42:43.999Z</time></trkpt><trkpt lat="42.872460974209375" lon="-3.331461170129276"><ele>593.0</ele><time>2026-04-13T15:42:44.999Z</time></trkpt><trkpt lat="42.87249037208598" lon="-3.3313724645417238"><ele>593.0</ele><time>2026-04-13T15:42:45.999Z</time></trkpt><trkpt lat="42.87256204858025" lon="-3.3312412644413314"><ele>593.0</ele><time>2026-04-13T15:42:47.999Z</time></trkpt><trkpt lat="42.87270272883435" lon="-3.331164037989485"><ele>592.25</ele><time>2026-04-13T15:42:49.999Z</time></trkpt><trkpt lat="42.87280697318153" lon="-3.331133992431905"><ele>591.5</ele><time>2026-04-13T15:42:50.999Z</time></trkpt><trkpt lat="42.8729146316039" lon="-3.331097003266726"><ele>590.75</ele><time>2026-04-13T15:42:51.999Z</time></trkpt><trkpt lat="42.87305034541449" lon="-3.331082157167186"><ele>590.0</ele><time>2026-04-13T15:42:53Z</time></trkpt><trkpt lat="42.873168772932715" lon="-3.3310667361812416"><ele>590.0</ele><time>2026-04-13T15:42:54Z</time></trkpt><trkpt lat="42.8732784312592" lon="-3.331058362784802"><ele>590.0</ele><time>2026-04-13T15:42:55Z</time></trkpt><trkpt lat="42.87337487507865" lon="-3.3310636670063936"><ele>590.0</ele><time>2026-04-13T15:42:56Z</time></trkpt><trkpt lat="42.87346359772078" lon="-3.3310717043089295"><ele>590.0</ele><time>2026-04-13T15:42:57Z</time></trkpt><trkpt lat="42.87357243776871" lon="-3.3310753019726302"><ele>590.0</ele><time>2026-04-13T15:42:58Z</time></trkpt><trkpt lat="42.87367486474514" lon="-3.331073707783322"><ele>588.4</ele><time>2026-04-13T15:42:59Z</time></trkpt><trkpt lat="42.87376587468061" lon="-3.331060133517297"><ele>586.8</ele><time>2026-04-13T15:43:00Z</time></trkpt><trkpt lat="42.87384236753164" lon="-3.331027076418671"><ele>585.2</ele><time>2026-04-13T15:43:01Z</time></trkpt><trkpt lat="42.87393230413342" lon="-3.3309841701254337"><ele>583.6</ele><time>2026-04-13T15:43:02Z</time></trkpt><trkpt lat="42.87401992288805" lon="-3.330925983727204"><ele>582.0</ele><time>2026-04-13T15:43:03Z</time></trkpt><trkpt lat="42.8740989083122" lon="-3.3308398584193655"><ele>582.0</ele><time>2026-04-13T15:43:04Z</time></trkpt><trkpt lat="42.87417819388278" lon="-3.3307260866669472"><ele>582.0</ele><time>2026-04-13T15:43:05Z</time></trkpt><trkpt lat="42.87428531497979" lon="-3.3305907494933673"><ele>582.0</ele><time>2026-04-13T15:43:06Z</time></trkpt><trkpt lat="42.87439784020323" lon="-3.330466471687452"><ele>582.0</ele><time>2026-04-13T15:43:07Z</time></trkpt><trkpt lat="42.87452375920455" lon="-3.3303510326537977"><ele>582.6666666666666</ele><time>2026-04-13T15:43:08Z</time></trkpt><trkpt lat="42.8746689260648" lon="-3.3302363902024505"><ele>583.3333333333333</ele><time>2026-04-13T15:43:09Z</time></trkpt><trkpt lat="42.87481174567996" lon="-3.3301341769032002"><ele>584.0</ele><time>2026-04-13T15:43:10Z</time></trkpt><trkpt lat="42.87495087740732" lon="-3.330040853254642"><ele>584.0</ele><time>2026-04-13T15:43:11Z</time></trkpt><trkpt lat="42.87506819231713" lon="-3.329961411455331"><ele>584.0</ele><time>2026-04-13T15:43:12Z</time></trkpt><trkpt lat="42.87519065173303" lon="-3.3298974735623323"><ele>584.0</ele><time>2026-04-13T15:43:13Z</time></trkpt><trkpt lat="42.87531804084722" lon="-3.329831231610956"><ele>584.0</ele><time>2026-04-13T15:43:14Z</time></trkpt><trkpt lat="42.87542305995635" lon="-3.3297615745688076"><ele>585.25</ele><time>2026-04-13T15:43:15Z</time></trkpt><trkpt lat="42.875507258686966" lon="-3.3296750239252373"><ele>586.5</ele><time>2026-04-13T15:43:16Z</time></trkpt><trkpt lat="42.87559244826686" lon="-3.329591249905868"><ele>587.75</ele><time>2026-04-13T15:43:17Z</time></trkpt><trkpt lat="42.87569407646642" lon="-3.329501133900978"><ele>589.0</ele><time>2026-04-13T15:43:18Z</time></trkpt><trkpt lat="42.87582250032028" lon="-3.3294051582003097"><ele>589.0</ele><time>2026-04-13T15:43:19Z</time></trkpt><trkpt lat="42.875936468530945" lon="-3.3293238020211997"><ele>589.0</ele><time>2026-04-13T15:43:20Z</time></trkpt><trkpt lat="42.87602717375124" lon="-3.3292532553205096"><ele>589.0</ele><time>2026-04-13T15:43:21Z</time></trkpt><trkpt lat="42.8760849251968" lon="-3.3291793602927213"><ele>589.0</ele><time>2026-04-13T15:43:22Z</time></trkpt><trkpt lat="42.876140347360085" lon="-3.329075741151343"><ele>589.0</ele><time>2026-04-13T15:43:23Z</time></trkpt><trkpt lat="42.87620451543423" lon="-3.32895243920974"><ele>588.75</ele><time>2026-04-13T15:43:24Z</time></trkpt><trkpt lat="42.87629868072329" lon="-3.328816016880833"><ele>588.5</ele><time>2026-04-13T15:43:25Z</time></trkpt><trkpt lat="42.87639694404426" lon="-3.328666083372408"><ele>588.25</ele><time>2026-04-13T15:43:26Z</time></trkpt><trkpt lat="42.87650986546489" lon="-3.3285032062506863"><ele>588.0</ele><time>2026-04-13T15:43:27Z</time></trkpt><trkpt lat="42.87664591979593" lon="-3.328320534835442"><ele>588.0</ele><time>2026-04-13T15:43:28Z</time></trkpt><trkpt lat="42.876763937383586" lon="-3.328153142742438"><ele>588.0</ele><time>2026-04-13T15:43:29Z</time></trkpt><trkpt lat="42.876857880907394" lon="-3.327996207774959"><ele>588.0</ele><time>2026-04-13T15:43:30Z</time></trkpt><trkpt lat="42.87695083933284" lon="-3.3278283708067242"><ele>586.75</ele><time>2026-04-13T15:43:31Z</time></trkpt><trkpt lat="42.877039809181625" lon="-3.3276579212293225"><ele>585.5</ele><time>2026-04-13T15:43:32Z</time></trkpt><trkpt lat="42.87711522790352" lon="-3.3275118967085726"><ele>584.25</ele><time>2026-04-13T15:43:33Z</time></trkpt><trkpt lat="42.87719205470949" lon="-3.3273667660256234"><ele>583.0</ele><time>2026-04-13T15:43:34Z</time></trkpt><trkpt lat="42.87728447150971" lon="-3.327220295478335"><ele>588.3333333333334</ele><time>2026-04-13T15:43:35Z</time></trkpt><trkpt lat="42.877372588198945" lon="-3.327045578732503"><ele>593.6666666666666</ele><time>2026-04-13T15:43:36Z</time></trkpt><trkpt lat="42.877464402205234" lon="-3.3268402727198354"><ele>599.0</ele><time>2026-04-13T15:43:37Z</time></trkpt><trkpt lat="42.87752984174382" lon="-3.3266966781161895"><ele>599.0</ele><time>2026-04-13T15:43:38Z</time></trkpt><trkpt lat="42.877592953118004" lon="-3.326564430998516"><ele>599.0</ele><time>2026-04-13T15:43:39Z</time></trkpt><trkpt lat="42.877643201006464" lon="-3.326443987261537"><ele>599.0</ele><time>2026-04-13T15:43:40Z</time></trkpt><trkpt lat="42.87768126104719" lon="-3.3263268809286113"><ele>599.0</ele><time>2026-04-13T15:43:41Z</time></trkpt><trkpt lat="42.87771398626246" lon="-3.3262092759456863"><ele>599.0</ele><time>2026-04-13T15:43:42Z</time></trkpt><trkpt lat="42.87775045991273" lon="-3.3260886790088056"><ele>598.1666666666666</ele><time>2026-04-13T15:43:43Z</time></trkpt><trkpt lat="42.87778815943753" lon="-3.32598322269415"><ele>597.3333333333333</ele><time>2026-04-13T15:43:44Z</time></trkpt><trkpt lat="42.8778329170362" lon="-3.3258921581520537"><ele>596.5</ele><time>2026-04-13T15:43:45Z</time></trkpt><trkpt lat="42.87787697629387" lon="-3.325823068090074"><ele>595.6666666666666</ele><time>2026-04-13T15:43:46Z</time></trkpt><trkpt lat="42.87794444528586" lon="-3.3257161811927505"><ele>594.8333333333334</ele><time>2026-04-13T15:43:48Z</time></trkpt><trkpt lat="42.87797861379972" lon="-3.3256401626365895"><ele>594.0</ele><time>2026-04-13T15:43:50Z</time></trkpt><trkpt lat="42.87801628792824" lon="-3.325559994682154"><ele>592.0</ele><time>2026-04-13T15:43:54Z</time></trkpt><trkpt lat="42.8779830214821" lon="-3.3256854011449355"><ele>590.0</ele><time>2026-04-13T15:44:21Z</time></trkpt><trkpt lat="42.87792660517308" lon="-3.3257657817095327"><ele>588.0</ele><time>2026-04-13T15:44:22Z</time></trkpt><trkpt lat="42.8778612962549" lon="-3.3258730841259476"><ele>586.0</ele><time>2026-04-13T15:44:22.999Z</time></trkpt><trkpt lat="42.87780030450968" lon="-3.3259884981122307"><ele>584.0</ele><time>2026-04-13T15:44:23.999Z</time></trkpt><trkpt lat="42.877756292304866" lon="-3.326088427859247"><ele>584.0</ele><time>2026-04-13T15:44:24.999Z</time></trkpt><trkpt lat="42.87771273486216" lon="-3.326199560879506"><ele>584.0</ele><time>2026-04-13T15:44:25.999Z</time></trkpt><trkpt lat="42.87766524091593" lon="-3.3263372836598535"><ele>584.0</ele><time>2026-04-13T15:44:26.999Z</time></trkpt><trkpt lat="42.87760977111725" lon="-3.3264991260089376"><ele>584.0</ele><time>2026-04-13T15:44:27.999Z</time></trkpt><trkpt lat="42.877557167836855" lon="-3.326649030659685"><ele>583.8</ele><time>2026-04-13T15:44:28.999Z</time></trkpt><trkpt lat="42.877494968157585" lon="-3.3267822018590474"><ele>583.5999999999999</ele><time>2026-04-13T15:44:29.999Z</time></trkpt><trkpt lat="42.87743342310279" lon="-3.326908287513787"><ele>583.4</ele><time>2026-04-13T15:44:30.999Z</time></trkpt><trkpt lat="42.87737787698526" lon="-3.3270225959246047"><ele>583.1999999999999</ele><time>2026-04-13T15:44:31.999Z</time></trkpt><trkpt lat="42.87732102179695" lon="-3.327147592724654"><ele>583.0</ele><time>2026-04-13T15:44:32.999Z</time></trkpt><trkpt lat="42.87725325137224" lon="-3.3272777290205"><ele>583.0</ele><time>2026-04-13T15:44:33.999Z</time></trkpt><trkpt lat="42.87717843896889" lon="-3.3274189807606227"><ele>583.0</ele><time>2026-04-13T15:44:34.999Z</time></trkpt><trkpt lat="42.87710703005836" lon="-3.327541343144018"><ele>583.0</ele><time>2026-04-13T15:44:35.999Z</time></trkpt><trkpt lat="42.87704870104235" lon="-3.327636259598146"><ele>583.0</ele><time>2026-04-13T15:44:36.999Z</time></trkpt><trkpt lat="42.87700269877162" lon="-3.3277276282090256"><ele>583.0</ele><time>2026-04-13T15:44:37.999Z</time></trkpt><trkpt lat="42.8769461570948" lon="-3.3278266644458965"><ele>583.0</ele><time>2026-04-13T15:44:38.999Z</time></trkpt><trkpt lat="42.87687315069402" lon="-3.327956598612081"><ele>583.0</ele><time>2026-04-13T15:44:39.999Z</time></trkpt><trkpt lat="42.87678638965517" lon="-3.328108644193472"><ele>583.0</ele><time>2026-04-13T15:44:40.999Z</time></trkpt><trkpt lat="42.87668076603072" lon="-3.3282796273705957"><ele>583.0</ele><time>2026-04-13T15:44:41.999Z</time></trkpt><trkpt lat="42.87657478899769" lon="-3.328432794391967"><ele>583.75</ele><time>2026-04-13T15:44:42.999Z</time></trkpt><trkpt lat="42.87645635888446" lon="-3.3285906828796485"><ele>584.5</ele><time>2026-04-13T15:44:43.999Z</time></trkpt><trkpt lat="42.8763599491519" lon="-3.3287238379675266"><ele>585.25</ele><time>2026-04-13T15:44:44.999Z</time></trkpt><trkpt lat="42.87628142502265" lon="-3.3288407192084666"><ele>586.0</ele><time>2026-04-13T15:44:45.999Z</time></trkpt><trkpt lat="42.876211555458006" lon="-3.328960289256483"><ele>586.0</ele><time>2026-04-13T15:44:46.999Z</time></trkpt><trkpt lat="42.87613688311468" lon="-3.3290810271039466"><ele>586.0</ele><time>2026-04-13T15:44:47.999Z</time></trkpt><trkpt lat="42.87605652869942" lon="-3.329196291715708"><ele>586.0</ele><time>2026-04-13T15:44:48.999Z</time></trkpt><trkpt lat="42.875999002633925" lon="-3.3292785772648226"><ele>586.0</ele><time>2026-04-13T15:44:49.999Z</time></trkpt><trkpt lat="42.87593233898576" lon="-3.329346165167822"><ele>586.0</ele><time>2026-04-13T15:44:50.999Z</time></trkpt><trkpt lat="42.87585112870811" lon="-3.329414189003479"><ele>586.5</ele><time>2026-04-13T15:44:51.999Z</time></trkpt><trkpt lat="42.875766266039626" lon="-3.3294834123073813"><ele>587.0</ele><time>2026-04-13T15:44:52.999Z</time></trkpt><trkpt lat="42.875704356672976" lon="-3.32952751359853"><ele>587.5</ele><time>2026-04-13T15:44:53.999Z</time></trkpt><trkpt lat="42.8756180645021" lon="-3.3295954585124843"><ele>588.0</ele><time>2026-04-13T15:44:55.999Z</time></trkpt><trkpt lat="42.87555736401706" lon="-3.329640535459107"><ele>588.5</ele><time>2026-04-13T15:44:56.999Z</time></trkpt><trkpt lat="42.875500147405226" lon="-3.3296907968827916"><ele>589.0</ele><time>2026-04-13T15:44:58Z</time></trkpt><trkpt lat="42.875424724633575" lon="-3.329758870712484"><ele>588.1666666666667</ele><time>2026-04-13T15:44:59Z</time></trkpt><trkpt lat="42.87535160894407" lon="-3.3298186222867128"><ele>587.3333333333334</ele><time>2026-04-13T15:45:00Z</time></trkpt><trkpt lat="42.87529116199929" lon="-3.3298715218412456"><ele>586.5</ele><time>2026-04-13T15:45:01Z</time></trkpt><trkpt lat="42.87517432986853" lon="-3.3299419794724177"><ele>585.6666666666666</ele><time>2026-04-13T15:45:03Z</time></trkpt><trkpt lat="42.87508991601451" lon="-3.3299797797221182"><ele>584.8333333333333</ele><time>2026-04-13T15:45:04Z</time></trkpt><trkpt lat="42.87501985172125" lon="-3.3300177469718615"><ele>584.0</ele><time>2026-04-13T15:45:05Z</time></trkpt><trkpt lat="42.87493676526459" lon="-3.330061268407567"><ele>584.0</ele><time>2026-04-13T15:45:06Z</time></trkpt><trkpt lat="42.87485087488944" lon="-3.3301185116132284"><ele>584.0</ele><time>2026-04-13T15:45:07Z</time></trkpt><trkpt lat="42.87476801170195" lon="-3.3301833800399954"><ele>584.0</ele><time>2026-04-13T15:45:08Z</time></trkpt><trkpt lat="42.87468298519996" lon="-3.330246973881982"><ele>584.0</ele><time>2026-04-13T15:45:09Z</time></trkpt><trkpt lat="42.87457583484078" lon="-3.3303259951492383"><ele>584.0</ele><time>2026-04-13T15:45:10Z</time></trkpt><trkpt lat="42.87446032367251" lon="-3.33041893404926"><ele>584.0</ele><time>2026-04-13T15:45:11Z</time></trkpt><trkpt lat="42.87435016181474" lon="-3.3305282457144774"><ele>584.0</ele><time>2026-04-13T15:45:12Z</time></trkpt><trkpt lat="42.87426752174242" lon="-3.3306209530290607"><ele>584.0</ele><time>2026-04-13T15:45:13Z</time></trkpt><trkpt lat="42.87420053349704" lon="-3.3307059029616064"><ele>584.0</ele><time>2026-04-13T15:45:14Z</time></trkpt><trkpt lat="42.87414194077562" lon="-3.330779920175545"><ele>584.0</ele><time>2026-04-13T15:45:15Z</time></trkpt><trkpt lat="42.874083193590856" lon="-3.3308556048309645"><ele>583.6666666666666</ele><time>2026-04-13T15:45:17Z</time></trkpt><trkpt lat="42.874015094101786" lon="-3.330932734399868"><ele>583.3333333333333</ele><time>2026-04-13T15:45:26Z</time></trkpt><trkpt lat="42.87395475282657" lon="-3.330977012649597"><ele>583.0</ele><time>2026-04-13T15:45:27Z</time></trkpt><trkpt lat="42.87385233451236" lon="-3.3310398101148677"><ele>582.6666666666666</ele><time>2026-04-13T15:45:29Z</time></trkpt><trkpt lat="42.87378905177262" lon="-3.331063991523924"><ele>582.3333333333334</ele><time>2026-04-13T15:45:31Z</time></trkpt><trkpt lat="42.87380768829614" lon="-3.3311557199332937"><ele>582.0</ele><time>2026-04-13T15:45:33Z</time></trkpt><trkpt lat="42.87386946404446" lon="-3.331209371861393"><ele>582.0</ele><time>2026-04-13T15:45:36Z</time></trkpt><trkpt lat="42.87379749703864" lon="-3.3311430709024616"><ele>582.0</ele><time>2026-04-13T15:49:53Z</time></trkpt><trkpt lat="42.87382384312075" lon="-3.331019281963205"><ele>582.0</ele><time>2026-04-13T15:49:56Z</time></trkpt><trkpt lat="42.87394570463358" lon="-3.3309792634515865"><ele>582.0</ele><time>2026-04-13T15:49:58Z</time></trkpt><trkpt lat="42.87404883626104" lon="-3.3308936615437066"><ele>582.0</ele><time>2026-04-13T15:50:00Z</time></trkpt><trkpt lat="42.87411485680311" lon="-3.330822341166156"><ele>582.0</ele><time>2026-04-13T15:50:01Z</time></trkpt><trkpt lat="42.87416744297267" lon="-3.33074493129179"><ele>582.0</ele><time>2026-04-13T15:50:02Z</time></trkpt><trkpt lat="42.87422839745242" lon="-3.3306508476670165"><ele>582.0</ele><time>2026-04-13T15:50:03Z</time></trkpt><trkpt lat="42.87431096341818" lon="-3.330553990343634"><ele>582.0</ele><time>2026-04-13T15:50:04Z</time></trkpt><trkpt lat="42.87440413816001" lon="-3.33045922974529"><ele>582.0</ele><time>2026-04-13T15:50:05Z</time></trkpt><trkpt lat="42.874510696287864" lon="-3.330361573930671"><ele>582.5</ele><time>2026-04-13T15:50:06Z</time></trkpt><trkpt lat="42.87462199472712" lon="-3.3302754018391933"><ele>583.0</ele><time>2026-04-13T15:50:07Z</time></trkpt><trkpt lat="42.87472416616335" lon="-3.3301998589070116"><ele>583.5</ele><time>2026-04-13T15:50:08Z</time></trkpt><trkpt lat="42.87481882716492" lon="-3.330132247572358"><ele>584.0</ele><time>2026-04-13T15:50:09Z</time></trkpt><trkpt lat="42.87491882251226" lon="-3.3300551755533476"><ele>584.0</ele><time>2026-04-13T15:50:10Z</time></trkpt><trkpt lat="42.87501139158376" lon="-3.3299861678990146"><ele>584.0</ele><time>2026-04-13T15:50:11Z</time></trkpt><trkpt lat="42.875109353416946" lon="-3.3299268587146624"><ele>584.0</ele><time>2026-04-13T15:50:12Z</time></trkpt><trkpt lat="42.875215170206936" lon="-3.3298787031688537"><ele>584.0</ele><time>2026-04-13T15:50:13Z</time></trkpt><trkpt lat="42.87532081564213" lon="-3.3298270221861683"><ele>584.0</ele><time>2026-04-13T15:50:14Z</time></trkpt><trkpt lat="42.87542009136769" lon="-3.329752941685448"><ele>585.0</ele><time>2026-04-13T15:50:15Z</time></trkpt><trkpt lat="42.875497940478645" lon="-3.329677657056051"><ele>586.0</ele><time>2026-04-13T15:50:16Z</time></trkpt><trkpt lat="42.87557472274415" lon="-3.329599262665538"><ele>587.0</ele><time>2026-04-13T15:50:17Z</time></trkpt><trkpt lat="42.875668197583" lon="-3.3295238329886914"><ele>588.0</ele><time>2026-04-13T15:50:18Z</time></trkpt><trkpt lat="42.87577554796097" lon="-3.329451005247386"><ele>589.0</ele><time>2026-04-13T15:50:19Z</time></trkpt><trkpt lat="42.8758679863253" lon="-3.3293725281803375"><ele>588.5</ele><time>2026-04-13T15:50:19.999Z</time></trkpt><trkpt lat="42.87595188803904" lon="-3.3293177071960915"><ele>588.0</ele><time>2026-04-13T15:50:20.999Z</time></trkpt><trkpt lat="42.876014931374165" lon="-3.3292567662302304"><ele>587.5</ele><time>2026-04-13T15:50:21.999Z</time></trkpt><trkpt lat="42.87607630704349" lon="-3.3291763025950107"><ele>587.0</ele><time>2026-04-13T15:50:22.999Z</time></trkpt><trkpt lat="42.87612598030343" lon="-3.3290884034134045"><ele>586.5</ele><time>2026-04-13T15:50:23.999Z</time></trkpt><trkpt lat="42.87616387690748" lon="-3.329014572439464"><ele>586.0</ele><time>2026-04-13T15:50:24.999Z</time></trkpt><trkpt lat="42.876229220227685" lon="-3.328906894610621"><ele>586.4</ele><time>2026-04-13T15:50:25.999Z</time></trkpt><trkpt lat="42.87630185183416" lon="-3.3287953193196285"><ele>586.8</ele><time>2026-04-13T15:50:26.999Z</time></trkpt><trkpt lat="42.876372429958224" lon="-3.3287017384205373"><ele>587.1999999999999</ele><time>2026-04-13T15:50:27.999Z</time></trkpt><trkpt lat="42.87645055410953" lon="-3.328603374275511"><ele>587.6</ele><time>2026-04-13T15:50:28.999Z</time></trkpt><trkpt lat="42.87652785577568" lon="-3.3284952191117916"><ele>588.0</ele><time>2026-04-13T15:50:29.999Z</time></trkpt><trkpt lat="42.87660631106022" lon="-3.328382604095979"><ele>588.0</ele><time>2026-04-13T15:50:30.999Z</time></trkpt><trkpt lat="42.87668913957201" lon="-3.328262902427017"><ele>588.0</ele><time>2026-04-13T15:50:31.999Z</time></trkpt><trkpt lat="42.87677674012167" lon="-3.3281324050189136"><ele>588.0</ele><time>2026-04-13T15:50:32.999Z</time></trkpt><trkpt lat="42.87687168357599" lon="-3.3279805553937454"><ele>588.0</ele><time>2026-04-13T15:50:33.999Z</time></trkpt><trkpt lat="42.876959324599504" lon="-3.3278181462279792"><ele>587.0</ele><time>2026-04-13T15:50:34.999Z</time></trkpt><trkpt lat="42.8770248460671" lon="-3.3276722273812696"><ele>586.0</ele><time>2026-04-13T15:50:35.999Z</time></trkpt><trkpt lat="42.87708133888345" lon="-3.327563239731266"><ele>585.0</ele><time>2026-04-13T15:50:36.999Z</time></trkpt><trkpt lat="42.87713031636966" lon="-3.3274749811725792"><ele>584.0</ele><time>2026-04-13T15:50:37.999Z</time></trkpt><trkpt lat="42.87717257925679" lon="-3.327402652796318"><ele>583.0</ele><time>2026-04-13T15:50:38.999Z</time></trkpt><trkpt lat="42.877262348866296" lon="-3.327267039997801"><ele>585.6666666666667</ele><time>2026-04-13T15:50:40.999Z</time></trkpt><trkpt lat="42.87729892429497" lon="-3.327186910090423"><ele>588.3333333333334</ele><time>2026-04-13T15:50:41.999Z</time></trkpt><trkpt lat="42.87733662201725" lon="-3.327098281598346"><ele>591.0</ele><time>2026-04-13T15:50:42.999Z</time></trkpt><trkpt lat="42.87737993961492" lon="-3.3270075017413583"><ele>593.6666666666666</ele><time>2026-04-13T15:50:43.999Z</time></trkpt><trkpt lat="42.87742202178502" lon="-3.326917900715636"><ele>596.3333333333333</ele><time>2026-04-13T15:50:44.999Z</time></trkpt><trkpt lat="42.8774664345559" lon="-3.3268201026076687"><ele>599.0</ele><time>2026-04-13T15:50:45.999Z</time></trkpt><trkpt lat="42.87751480209665" lon="-3.326725985720741"><ele>599.0</ele><time>2026-04-13T15:50:46.999Z</time></trkpt><trkpt lat="42.87756217343859" lon="-3.326626674012074"><ele>599.0</ele><time>2026-04-13T15:50:47.999Z</time></trkpt><trkpt lat="42.877606614462174" lon="-3.3265126797697344"><ele>599.0</ele><time>2026-04-13T15:50:48.999Z</time></trkpt><trkpt lat="42.87765319728433" lon="-3.3264017964343204"><ele>599.0</ele><time>2026-04-13T15:50:49.999Z</time></trkpt><trkpt lat="42.87769289379812" lon="-3.3262779492089214"><ele>599.0</ele><time>2026-04-13T15:50:50.999Z</time></trkpt><trkpt lat="42.877731474153" lon="-3.326157558994356"><ele>596.0</ele><time>2026-04-13T15:50:51.999Z</time></trkpt><trkpt lat="42.877770832128256" lon="-3.3260406190444116"><ele>593.0</ele><time>2026-04-13T15:50:52.999Z</time></trkpt><trkpt lat="42.87781476728321" lon="-3.325931865767821"><ele>590.0</ele><time>2026-04-13T15:50:53.999Z</time></trkpt><trkpt lat="42.87787197263253" lon="-3.3258304377322894"><ele>587.0</ele><time>2026-04-13T15:50:54.999Z</time></trkpt><trkpt lat="42.87792991614629" lon="-3.3257396206745384"><ele>584.0</ele><time>2026-04-13T15:50:55.999Z</time></trkpt><trkpt lat="42.87798387125316" lon="-3.3256492936289637"><ele>585.4285714285714</ele><time>2026-04-13T15:50:56.999Z</time></trkpt><trkpt lat="42.87802877044859" lon="-3.3255620745742984"><ele>586.8571428571429</ele><time>2026-04-13T15:50:57.999Z</time></trkpt><trkpt lat="42.878066005170986" lon="-3.325491121817962"><ele>588.2857142857143</ele><time>2026-04-13T15:50:58.999Z</time></trkpt><trkpt lat="42.87811021460791" lon="-3.325420569913704"><ele>589.7142857142858</ele><time>2026-04-13T15:50:59.999Z</time></trkpt><trkpt lat="42.8781553988243" lon="-3.325359924718325"><ele>591.1428571428572</ele><time>2026-04-13T15:51:00.999Z</time></trkpt><trkpt lat="42.87820872831828" lon="-3.3253046896591614"><ele>592.5714285714286</ele><time>2026-04-13T15:51:01.999Z</time></trkpt><trkpt lat="42.878265534088584" lon="-3.325246541187201"><ele>594.0</ele><time>2026-04-13T15:51:02.999Z</time></trkpt><trkpt lat="42.87833156931129" lon="-3.3251746345238065"><ele>594.0</ele><time>2026-04-13T15:51:03.999Z</time></trkpt><trkpt lat="42.8783901272466" lon="-3.325085224921012"><ele>594.0</ele><time>2026-04-13T15:51:04.999Z</time></trkpt><trkpt lat="42.87845496432534" lon="-3.3249591610524267"><ele>594.0</ele><time>2026-04-13T15:51:05.999Z</time></trkpt><trkpt lat="42.87851187507764" lon="-3.3248419893387706"><ele>594.0</ele><time>2026-04-13T15:51:06.999Z</time></trkpt><trkpt lat="42.87857473987276" lon="-3.3247290832374254"><ele>594.0</ele><time>2026-04-13T15:51:07.999Z</time></trkpt><trkpt lat="42.878640589304" lon="-3.3246263462132157"><ele>592.6</ele><time>2026-04-13T15:51:08.999Z</time></trkpt><trkpt lat="42.878714603928714" lon="-3.324537961544028"><ele>591.2</ele><time>2026-04-13T15:51:09.999Z</time></trkpt><trkpt lat="42.87880415073459" lon="-3.324478431491666"><ele>589.8000000000001</ele><time>2026-04-13T15:51:10.999Z</time></trkpt><trkpt lat="42.87891715279327" lon="-3.3244464533785583"><ele>588.4</ele><time>2026-04-13T15:51:11.999Z</time></trkpt><trkpt lat="42.87904983614425" lon="-3.32443375377963"><ele>587.0</ele><time>2026-04-13T15:51:12.999Z</time></trkpt><trkpt lat="42.879191647218164" lon="-3.324442395342158"><ele>586.25</ele><time>2026-04-13T15:51:13.999Z</time></trkpt><trkpt lat="42.879343380334284" lon="-3.3244552366445212"><ele>585.5</ele><time>2026-04-13T15:51:14.999Z</time></trkpt><trkpt lat="42.879467185958845" lon="-3.3244502049042213"><ele>584.75</ele><time>2026-04-13T15:51:16Z</time></trkpt><trkpt lat="42.879581323604526" lon="-3.324423990023945"><ele>584.0</ele><time>2026-04-13T15:51:17Z</time></trkpt><trkpt lat="42.879696911707164" lon="-3.324377586623503"><ele>584.0</ele><time>2026-04-13T15:51:18Z</time></trkpt><trkpt lat="42.87980596219015" lon="-3.3243279981380067"><ele>584.0</ele><time>2026-04-13T15:51:19Z</time></trkpt><trkpt lat="42.87991859891329" lon="-3.3242716038410753"><ele>584.0</ele><time>2026-04-13T15:51:20Z</time></trkpt><trkpt lat="42.88002814013698" lon="-3.324210862563007"><ele>584.0</ele><time>2026-04-13T15:51:21Z</time></trkpt><trkpt lat="42.88014191858328" lon="-3.324145286997936"><ele>584.0</ele><time>2026-04-13T15:51:22Z</time></trkpt><trkpt lat="42.88025965670072" lon="-3.3240668686934813"><ele>584.0</ele><time>2026-04-13T15:51:23Z</time></trkpt><trkpt lat="42.88035756991846" lon="-3.323995492625939"><ele>584.0</ele><time>2026-04-13T15:51:24Z</time></trkpt><trkpt lat="42.88043889638563" lon="-3.3239432990201188"><ele>584.0</ele><time>2026-04-13T15:51:25Z</time></trkpt><trkpt lat="42.880515791458805" lon="-3.3239028644053437"><ele>584.0</ele><time>2026-04-13T15:51:26Z</time></trkpt><trkpt lat="42.880581386220605" lon="-3.323867938317502"><ele>585.1666666666666</ele><time>2026-04-13T15:51:27Z</time></trkpt><trkpt lat="42.88064113317068" lon="-3.323820108003009"><ele>586.3333333333333</ele><time>2026-04-13T15:51:28Z</time></trkpt><trkpt lat="42.88069885767095" lon="-3.323763388991255"><ele>587.5</ele><time>2026-04-13T15:51:29Z</time></trkpt><trkpt lat="42.88080765673745" lon="-3.3236866024812506"><ele>588.6666666666666</ele><time>2026-04-13T15:51:31Z</time></trkpt><trkpt lat="42.880869601450684" lon="-3.323662549373636"><ele>589.8333333333334</ele><time>2026-04-13T15:51:32Z</time></trkpt><trkpt lat="42.880984566576586" lon="-3.323642112964474"><ele>591.0</ele><time>2026-04-13T15:51:34Z</time></trkpt><trkpt lat="42.881080396567235" lon="-3.3236573151925333"><ele>591.0</ele><time>2026-04-13T15:51:36Z</time></trkpt><trkpt lat="42.88114414313199" lon="-3.323665569928943"><ele>591.0</ele><time>2026-04-13T15:51:38Z</time></trkpt><trkpt lat="42.881220904126636" lon="-3.3236643647768678"><ele>591.0</ele><time>2026-04-13T15:51:41Z</time></trkpt><trkpt lat="42.881318839568735" lon="-3.3236871615119625"><ele>591.0</ele><time>2026-04-13T15:51:43Z</time></trkpt><trkpt lat="42.88138131029859" lon="-3.323699185279698"><ele>591.0</ele><time>2026-04-13T15:51:44Z</time></trkpt><trkpt lat="42.881450542860705" lon="-3.3237167165934376"><ele>591.0</ele><time>2026-04-13T15:51:45Z</time></trkpt><trkpt lat="42.88155331708952" lon="-3.323742100739855"><ele>591.0</ele><time>2026-04-13T15:51:47Z</time></trkpt><trkpt lat="42.88163033496315" lon="-3.3237909141167115"><ele>591.0</ele><time>2026-04-13T15:51:49Z</time></trkpt><trkpt lat="42.881748994543265" lon="-3.3238678958573895"><ele>591.0</ele><time>2026-04-13T15:51:51Z</time></trkpt><trkpt lat="42.8818469497426" lon="-3.3239382306029133"><ele>591.0</ele><time>2026-04-13T15:51:53Z</time></trkpt><trkpt lat="42.88194628057661" lon="-3.3240267798842096"><ele>591.0</ele><time>2026-04-13T15:51:55Z</time></trkpt><trkpt lat="42.88201077813542" lon="-3.3241038437636505"><ele>590.1666666666666</ele><time>2026-04-13T15:51:57Z</time></trkpt><trkpt lat="42.88203238403583" lon="-3.3241853543865854"><ele>589.3333333333334</ele><time>2026-04-13T15:51:59Z</time></trkpt><trkpt lat="42.88214284818708" lon="-3.3242447181099934"><ele>588.5</ele><time>2026-04-13T15:52:01Z</time></trkpt><trkpt lat="42.882201067597215" lon="-3.3243126366652613"><ele>587.6666666666667</ele><time>2026-04-13T15:52:03Z</time></trkpt><trkpt lat="42.88228569546577" lon="-3.3243496439909177"><ele>586.8333333333334</ele><time>2026-04-13T15:52:05Z</time></trkpt><trkpt lat="42.88237599556902" lon="-3.324367223876779"><ele>586.0</ele><time>2026-04-13T15:52:07Z</time></trkpt><trkpt lat="42.8824977959932" lon="-3.3243637076290757"><ele>586.0</ele><time>2026-04-13T15:52:08.999Z</time></trkpt><trkpt lat="42.88256933294112" lon="-3.3243466248288174"><ele>586.0</ele><time>2026-04-13T15:52:09.999Z</time></trkpt><trkpt lat="42.88264192282423" lon="-3.3243053662551207"><ele>586.0</ele><time>2026-04-13T15:52:10.999Z</time></trkpt><trkpt lat="42.88270867118715" lon="-3.3242750311641966"><ele>586.0</ele><time>2026-04-13T15:52:11.999Z</time></trkpt><trkpt lat="42.882778147910244" lon="-3.324238688453767"><ele>586.0</ele><time>2026-04-13T15:52:12.999Z</time></trkpt><trkpt lat="42.88286022564818" lon="-3.32419534935254"><ele>586.0</ele><time>2026-04-13T15:52:13.999Z</time></trkpt><trkpt lat="42.882948217707415" lon="-3.324145583387791"><ele>586.0</ele><time>2026-04-13T15:52:14.999Z</time></trkpt><trkpt lat="42.88301339837983" lon="-3.324103810935966"><ele>586.0</ele><time>2026-04-13T15:52:15.999Z</time></trkpt><trkpt lat="42.88311129112228" lon="-3.3240566667597466"><ele>586.0</ele><time>2026-04-13T15:52:17.999Z</time></trkpt><trkpt lat="42.883180138021096" lon="-3.3240714617788605"><ele>586.0</ele><time>2026-04-13T15:52:19.999Z</time></trkpt><trkpt lat="42.88323332748025" lon="-3.3241699704684304"><ele>586.0</ele><time>2026-04-13T15:52:21.999Z</time></trkpt><trkpt lat="42.883265093698725" lon="-3.3242940161625696"><ele>586.0</ele><time>2026-04-13T15:52:23.999Z</time></trkpt><trkpt lat="42.88331614399206" lon="-3.32440873652733"><ele>586.0</ele><time>2026-04-13T15:52:25.999Z</time></trkpt><trkpt lat="42.88337685474776" lon="-3.3245240311322735"><ele>586.0</ele><time>2026-04-13T15:52:27.999Z</time></trkpt><trkpt lat="42.883428986628445" lon="-3.3246254794167616"><ele>586.0</ele><time>2026-04-13T15:52:30.999Z</time></trkpt><trkpt lat="42.883440204491606" lon="-3.3247266860474647"><ele>586.0</ele><time>2026-04-13T15:52:49.999Z</time></trkpt><trkpt lat="42.88338688111118" lon="-3.3247887739782858"><ele>586.0</ele><time>2026-04-13T15:52:50.999Z</time></trkpt><trkpt lat="42.88329666839395" lon="-3.3248400172298003"><ele>586.0</ele><time>2026-04-13T15:52:51.999Z</time></trkpt><trkpt lat="42.88319570794617" lon="-3.324899171690846"><ele>590.5</ele><time>2026-04-13T15:52:52.999Z</time></trkpt><trkpt lat="42.883082418940276" lon="-3.324972445260292"><ele>595.0</ele><time>2026-04-13T15:52:53.999Z</time></trkpt><trkpt lat="42.8829627506777" lon="-3.3250660477710388"><ele>599.5</ele><time>2026-04-13T15:52:54.999Z</time></trkpt><trkpt lat="42.88282847792146" lon="-3.3251723047974107"><ele>604.0</ele><time>2026-04-13T15:52:55.999Z</time></trkpt><trkpt lat="42.882683796613726" lon="-3.325258620054046"><ele>597.6666666666667</ele><time>2026-04-13T15:52:56.999Z</time></trkpt><trkpt lat="42.88254111033628" lon="-3.325310617282432"><ele>591.3333333333334</ele><time>2026-04-13T15:52:57.999Z</time></trkpt><trkpt lat="42.88238450874308" lon="-3.325353740615728"><ele>585.0</ele><time>2026-04-13T15:52:58.999Z</time></trkpt><trkpt lat="42.88222599048606" lon="-3.325405361934843"><ele>585.0</ele><time>2026-04-13T15:52:59.999Z</time></trkpt><trkpt lat="42.88207730518359" lon="-3.3254780181189267"><ele>585.0</ele><time>2026-04-13T15:53:00.999Z</time></trkpt><trkpt lat="42.88191257799723" lon="-3.325543149430439"><ele>585.0</ele><time>2026-04-13T15:53:01.999Z</time></trkpt><trkpt lat="42.88174617431731" lon="-3.3256177861845124"><ele>588.3333333333334</ele><time>2026-04-13T15:53:02.999Z</time></trkpt><trkpt lat="42.88158662201152" lon="-3.325671815633705"><ele>591.6666666666667</ele><time>2026-04-13T15:53:03.999Z</time></trkpt><trkpt lat="42.88142152352479" lon="-3.3257061480298367"><ele>595.0</ele><time>2026-04-13T15:53:04.999Z</time></trkpt><trkpt lat="42.881248351719705" lon="-3.3257031142577174"><ele>595.0</ele><time>2026-04-13T15:53:05.999Z</time></trkpt><trkpt lat="42.88106679925785" lon="-3.325676259884173"><ele>595.0</ele><time>2026-04-13T15:53:06.999Z</time></trkpt><trkpt lat="42.88088329297261" lon="-3.3256506674664075"><ele>595.0</ele><time>2026-04-13T15:53:07.999Z</time></trkpt><trkpt lat="42.88069958072937" lon="-3.325649506959556"><ele>597.6666666666667</ele><time>2026-04-13T15:53:08.999Z</time></trkpt><trkpt lat="42.880513820497754" lon="-3.325671032783575"><ele>600.3333333333334</ele><time>2026-04-13T15:53:09.999Z</time></trkpt><trkpt lat="42.88032511915541" lon="-3.325701394312474"><ele>603.0</ele><time>2026-04-13T15:53:10.999Z</time></trkpt><trkpt lat="42.88012529948174" lon="-3.3257361332389235"><ele>599.6666666666666</ele><time>2026-04-13T15:53:11.999Z</time></trkpt><trkpt lat="42.87992967232999" lon="-3.32577567025281"><ele>596.3333333333333</ele><time>2026-04-13T15:53:12.999Z</time></trkpt><trkpt lat="42.87975499893794" lon="-3.3258275908386907"><ele>593.0</ele><time>2026-04-13T15:53:13.999Z</time></trkpt><trkpt lat="42.87960187962452" lon="-3.325905190110642"><ele>593.0</ele><time>2026-04-13T15:53:14.999Z</time></trkpt><trkpt lat="42.87944811766264" lon="-3.3260056457185394"><ele>593.0</ele><time>2026-04-13T15:53:15.999Z</time></trkpt><trkpt lat="42.87928304289016" lon="-3.3261222540089075"><ele>593.0</ele><time>2026-04-13T15:53:16.999Z</time></trkpt><trkpt lat="42.879112749448325" lon="-3.3262646404484357"><ele>593.6666666666666</ele><time>2026-04-13T15:53:17.999Z</time></trkpt><trkpt lat="42.878955839668684" lon="-3.3264359956828535"><ele>594.3333333333334</ele><time>2026-04-13T15:53:18.999Z</time></trkpt><trkpt lat="42.878808450109005" lon="-3.326616611406968"><ele>595.0</ele><time>2026-04-13T15:53:19.999Z</time></trkpt><trkpt lat="42.87865936430089" lon="-3.3268096644690885"><ele>595.0</ele><time>2026-04-13T15:53:20.999Z</time></trkpt><trkpt lat="42.87850379655758" lon="-3.327011925929993"><ele>595.0</ele><time>2026-04-13T15:53:22Z</time></trkpt><trkpt lat="42.8783441708429" lon="-3.32721518305992"><ele>595.0</ele><time>2026-04-13T15:53:23Z</time></trkpt><trkpt lat="42.878181053600514" lon="-3.3274242856985823"><ele>590.5</ele><time>2026-04-13T15:53:24Z</time></trkpt><trkpt lat="42.87801574038706" lon="-3.3276367679237673"><ele>586.0</ele><time>2026-04-13T15:53:25Z</time></trkpt><trkpt lat="42.87784914810315" lon="-3.3278472262488115"><ele>586.0</ele><time>2026-04-13T15:53:26Z</time></trkpt><trkpt lat="42.877691591516104" lon="-3.3280421970152445"><ele>586.0</ele><time>2026-04-13T15:53:27Z</time></trkpt><trkpt lat="42.877549588791794" lon="-3.328221156583677"><ele>586.0</ele><time>2026-04-13T15:53:28Z</time></trkpt><trkpt lat="42.87741982038023" lon="-3.3283898403194816"><ele>586.0</ele><time>2026-04-13T15:53:29Z</time></trkpt><trkpt lat="42.877305846842766" lon="-3.3285422985135713"><ele>586.0</ele><time>2026-04-13T15:53:30Z</time></trkpt><trkpt lat="42.8771902068516" lon="-3.328685775035989"><ele>586.0</ele><time>2026-04-13T15:53:31Z</time></trkpt><trkpt lat="42.877083636925605" lon="-3.3288120206597838"><ele>586.0</ele><time>2026-04-13T15:53:32Z</time></trkpt><trkpt lat="42.87697365431302" lon="-3.328929927033545"><ele>586.0</ele><time>2026-04-13T15:53:33Z</time></trkpt><trkpt lat="42.876847966528096" lon="-3.3290397911652376"><ele>586.0</ele><time>2026-04-13T15:53:33.999Z</time></trkpt><trkpt lat="42.876709539087784" lon="-3.329133091512838"><ele>586.0</ele><time>2026-04-13T15:53:34.999Z</time></trkpt><trkpt lat="42.876572447732094" lon="-3.329224274518721"><ele>586.0</ele><time>2026-04-13T15:53:35.999Z</time></trkpt><trkpt lat="42.876444545034" lon="-3.329353042866561"><ele>586.0</ele><time>2026-04-13T15:53:36.999Z</time></trkpt><trkpt lat="42.87632878726007" lon="-3.3295122530218664"><ele>586.0</ele><time>2026-04-13T15:53:37.999Z</time></trkpt><trkpt lat="42.87622098172794" lon="-3.329683761996127"><ele>584.75</ele><time>2026-04-13T15:53:38.999Z</time></trkpt><trkpt lat="42.876124545183075" lon="-3.329842478317564"><ele>583.5</ele><time>2026-04-13T15:53:39.999Z</time></trkpt><trkpt lat="42.87604659386661" lon="-3.329987090697637"><ele>582.25</ele><time>2026-04-13T15:53:40.999Z</time></trkpt><trkpt lat="42.875985335368334" lon="-3.330114801008024"><ele>581.0</ele><time>2026-04-13T15:53:41.999Z</time></trkpt><trkpt lat="42.87593230140916" lon="-3.3302141221162285"><ele>581.0</ele><time>2026-04-13T15:53:42.999Z</time></trkpt><trkpt lat="42.875887278037204" lon="-3.330284034973375"><ele>581.0</ele><time>2026-04-13T15:53:43.999Z</time></trkpt><trkpt lat="42.875859403338175" lon="-3.330398074330828"><ele>581.0</ele><time>2026-04-13T15:53:45.999Z</time></trkpt><trkpt lat="42.875893814773804" lon="-3.330471090401771"><ele>581.0</ele><time>2026-04-13T15:53:46.999Z</time></trkpt><trkpt lat="42.87594837090204" lon="-3.3305305165483317"><ele>581.0</ele><time>2026-04-13T15:53:47.999Z</time></trkpt><trkpt lat="42.87600523129621" lon="-3.3305839566016"><ele>581.0</ele><time>2026-04-13T15:53:48.999Z</time></trkpt><trkpt lat="42.87606436661571" lon="-3.3306526015975115"><ele>581.0</ele><time>2026-04-13T15:53:49.999Z</time></trkpt><trkpt lat="42.87612691402444" lon="-3.330732891883831"><ele>583.1666666666666</ele><time>2026-04-13T15:53:50.999Z</time></trkpt><trkpt lat="42.87619100419225" lon="-3.3308241054607137"><ele>585.3333333333333</ele><time>2026-04-13T15:53:51.999Z</time></trkpt><trkpt lat="42.87624812582133" lon="-3.3309005820208766"><ele>587.5</ele><time>2026-04-13T15:53:52.999Z</time></trkpt><trkpt lat="42.876298987707806" lon="-3.3309652416574"><ele>589.6666666666666</ele><time>2026-04-13T15:53:53.999Z</time></trkpt><trkpt lat="42.87634796334749" lon="-3.331037064161057"><ele>591.8333333333334</ele><time>2026-04-13T15:53:54.999Z</time></trkpt><trkpt lat="42.87639784455571" lon="-3.3311093264881513"><ele>594.0</ele><time>2026-04-13T15:53:55.999Z</time></trkpt><trkpt lat="42.87645058672782" lon="-3.3311838747298026"><ele>594.0</ele><time>2026-04-13T15:53:56.999Z</time></trkpt><trkpt lat="42.87651393376385" lon="-3.331267648439455"><ele>594.0</ele><time>2026-04-13T15:53:57.999Z</time></trkpt><trkpt lat="42.87658609766288" lon="-3.3313567398054005"><ele>594.0</ele><time>2026-04-13T15:53:58.999Z</time></trkpt><trkpt lat="42.87666437226773" lon="-3.3314546073929896"><ele>594.0</ele><time>2026-04-13T15:53:59.999Z</time></trkpt><trkpt lat="42.876747229230475" lon="-3.331568084432731"><ele>594.0</ele><time>2026-04-13T15:54:00.999Z</time></trkpt><trkpt lat="42.87683851111796" lon="-3.331693710566373"><ele>594.5</ele><time>2026-04-13T15:54:01.999Z</time></trkpt><trkpt lat="42.87693513608478" lon="-3.331824197584743"><ele>595.0</ele><time>2026-04-13T15:54:02.999Z</time></trkpt><trkpt lat="42.877035546658085" lon="-3.3319572113829796"><ele>595.5</ele><time>2026-04-13T15:54:03.999Z</time></trkpt><trkpt lat="42.877141641029304" lon="-3.3321052492565837"><ele>596.0</ele><time>2026-04-13T15:54:04.999Z</time></trkpt><trkpt lat="42.877262479373165" lon="-3.3322640044730534"><ele>596.0</ele><time>2026-04-13T15:54:05.999Z</time></trkpt><trkpt lat="42.877387852009214" lon="-3.332426297212322"><ele>596.0</ele><time>2026-04-13T15:54:06.999Z</time></trkpt><trkpt lat="42.877506788264355" lon="-3.332587144898128"><ele>596.0</ele><time>2026-04-13T15:54:07.999Z</time></trkpt><trkpt lat="42.87762066288524" lon="-3.3327458334522295"><ele>598.3333333333333</ele><time>2026-04-13T15:54:08.999Z</time></trkpt><trkpt lat="42.87773558348954" lon="-3.332895931129807"><ele>600.6666666666666</ele><time>2026-04-13T15:54:09.999Z</time></trkpt><trkpt lat="42.877852232473714" lon="-3.3330498087481133"><ele>603.0</ele><time>2026-04-13T15:54:10.999Z</time></trkpt><trkpt lat="42.877976265104714" lon="-3.3332182332223192"><ele>603.0</ele><time>2026-04-13T15:54:11.999Z</time></trkpt><trkpt lat="42.878094462500364" lon="-3.3333726651998004"><ele>603.0</ele><time>2026-04-13T15:54:12.999Z</time></trkpt><trkpt lat="42.87819521197483" lon="-3.3335065473656114"><ele>603.0</ele><time>2026-04-13T15:54:13.999Z</time></trkpt><trkpt lat="42.878283180471065" lon="-3.3336624640090617"><ele>603.0</ele><time>2026-04-13T15:54:14.999Z</time></trkpt><trkpt lat="42.87835115869822" lon="-3.3338528403185013"><ele>602.6666666666666</ele><time>2026-04-13T15:54:15.999Z</time></trkpt><trkpt lat="42.8784023992193" lon="-3.3340645911985876"><ele>602.3333333333333</ele><time>2026-04-13T15:54:16.999Z</time></trkpt><trkpt lat="42.8784488022233" lon="-3.3342880770108327"><ele>602.0</ele><time>2026-04-13T15:54:17.999Z</time></trkpt><trkpt lat="42.87848762474207" lon="-3.3344833117979973"><ele>604.5</ele><time>2026-04-13T15:54:18.999Z</time></trkpt><trkpt lat="42.87852710360278" lon="-3.334646652638851"><ele>607.0</ele><time>2026-04-13T15:54:19.999Z</time></trkpt><trkpt lat="42.878582528770124" lon="-3.3347980606408147"><ele>609.5</ele><time>2026-04-13T15:54:20.999Z</time></trkpt><trkpt lat="42.87865930400113" lon="-3.3349489846180713"><ele>612.0</ele><time>2026-04-13T15:54:21.999Z</time></trkpt><trkpt lat="42.878763096433325" lon="-3.3350861499646487"><ele>612.0</ele><time>2026-04-13T15:54:22.999Z</time></trkpt><trkpt lat="42.87888328078274" lon="-3.335218430194223"><ele>612.0</ele><time>2026-04-13T15:54:23.999Z</time></trkpt><trkpt lat="42.87900866994499" lon="-3.3353693887110594"><ele>612.0</ele><time>2026-04-13T15:54:24.999Z</time></trkpt><trkpt lat="42.87911340326178" lon="-3.335553671473068"><ele>611.3333333333334</ele><time>2026-04-13T15:54:25.999Z</time></trkpt><trkpt lat="42.87919675054075" lon="-3.335753786689012"><ele>610.6666666666667</ele><time>2026-04-13T15:54:26.999Z</time></trkpt><trkpt lat="42.87928616029774" lon="-3.3359610662984185"><ele>610.0</ele><time>2026-04-13T15:54:27.999Z</time></trkpt><trkpt lat="42.879381841903914" lon="-3.336164761788628"><ele>611.0</ele><time>2026-04-13T15:54:28.999Z</time></trkpt><trkpt lat="42.879471731695105" lon="-3.3363417338770223"><ele>612.0</ele><time>2026-04-13T15:54:29.999Z</time></trkpt><trkpt lat="42.879563055909465" lon="-3.3364955648430312"><ele>613.0</ele><time>2026-04-13T15:54:30.999Z</time></trkpt><trkpt lat="42.8796751076304" lon="-3.336644611222474"><ele>613.0</ele><time>2026-04-13T15:54:31.999Z</time></trkpt><trkpt lat="42.87980075758532" lon="-3.3367636441899284"><ele>613.0</ele><time>2026-04-13T15:54:32.999Z</time></trkpt><trkpt lat="42.87991989463735" lon="-3.3368428743345127"><ele>613.0</ele><time>2026-04-13T15:54:33.999Z</time></trkpt><trkpt lat="42.88001923909228" lon="-3.336917091724828"><ele>613.0</ele><time>2026-04-13T15:54:34.999Z</time></trkpt><trkpt lat="42.880102844265394" lon="-3.3370290172089803"><ele>614.6666666666667</ele><time>2026-04-13T15:54:35.999Z</time></trkpt><trkpt lat="42.880183556612906" lon="-3.3371872425111766"><ele>616.3333333333334</ele><time>2026-04-13T15:54:36.999Z</time></trkpt><trkpt lat="42.88026727092586" lon="-3.3373678914784253"><ele>618.0</ele><time>2026-04-13T15:54:37.999Z</time></trkpt><trkpt lat="42.88034568584032" lon="-3.3375721466363246"><ele>618.0</ele><time>2026-04-13T15:54:38.999Z</time></trkpt><trkpt lat="42.8804276169979" lon="-3.337784093868488"><ele>618.0</ele><time>2026-04-13T15:54:39.999Z</time></trkpt><trkpt lat="42.88051510668453" lon="-3.3380067033069074"><ele>618.0</ele><time>2026-04-13T15:54:40.999Z</time></trkpt><trkpt lat="42.8806110553453" lon="-3.33823261574741"><ele>618.0</ele><time>2026-04-13T15:54:41.999Z</time></trkpt><trkpt lat="42.88071130514713" lon="-3.3384621055939965"><ele>618.0</ele><time>2026-04-13T15:54:42.999Z</time></trkpt><trkpt lat="42.88081201446656" lon="-3.338704042802438"><ele>618.0</ele><time>2026-04-13T15:54:43.999Z</time></trkpt><trkpt lat="42.88091954706473" lon="-3.338964409943673"><ele>620.0</ele><time>2026-04-13T15:54:44.999Z</time></trkpt><trkpt lat="42.88102809642093" lon="-3.339226502453891"><ele>622.0</ele><time>2026-04-13T15:54:45.999Z</time></trkpt><trkpt lat="42.88113471975636" lon="-3.3394683747022493"><ele>624.0</ele><time>2026-04-13T15:54:46.999Z</time></trkpt><trkpt lat="42.881237700138186" lon="-3.339723325957743"><ele>624.0</ele><time>2026-04-13T15:54:47.999Z</time></trkpt><trkpt lat="42.88133709215149" lon="-3.3399729523002124"><ele>624.0</ele><time>2026-04-13T15:54:48.999Z</time></trkpt><trkpt lat="42.88144252005647" lon="-3.3402043653066285"><ele>624.0</ele><time>2026-04-13T15:54:49.999Z</time></trkpt><trkpt lat="42.88154162741368" lon="-3.340439469246285"><ele>622.6666666666666</ele><time>2026-04-13T15:54:50.999Z</time></trkpt><trkpt lat="42.88163732998093" lon="-3.34068280557404"><ele>621.3333333333333</ele><time>2026-04-13T15:54:51.999Z</time></trkpt><trkpt lat="42.88173599673258" lon="-3.340927399246027"><ele>620.0</ele><time>2026-04-13T15:54:52.999Z</time></trkpt><trkpt lat="42.88183707521111" lon="-3.341159712678437"><ele>622.6666666666666</ele><time>2026-04-13T15:54:53.999Z</time></trkpt><trkpt lat="42.88193383098403" lon="-3.34137273396793"><ele>625.3333333333334</ele><time>2026-04-13T15:54:54.999Z</time></trkpt><trkpt lat="42.88201358657223" lon="-3.341553347203833"><ele>628.0</ele><time>2026-04-13T15:54:55.999Z</time></trkpt><trkpt lat="42.882089797992094" lon="-3.341724836389061"><ele>628.0</ele><time>2026-04-13T15:54:56.999Z</time></trkpt><trkpt lat="42.88218155810694" lon="-3.3418773382028455"><ele>628.0</ele><time>2026-04-13T15:54:57.999Z</time></trkpt><trkpt lat="42.88230930298484" lon="-3.3420519397647084"><ele>628.0</ele><time>2026-04-13T15:54:58.999Z</time></trkpt><trkpt lat="42.88243786336818" lon="-3.3422030898026067"><ele>630.0</ele><time>2026-04-13T15:54:59.999Z</time></trkpt><trkpt lat="42.882559501643925" lon="-3.342345667643218"><ele>632.0</ele><time>2026-04-13T15:55:00.999Z</time></trkpt><trkpt lat="42.882695402228606" lon="-3.342497598457867"><ele>634.0</ele><time>2026-04-13T15:55:01.999Z</time></trkpt><trkpt lat="42.88281698481052" lon="-3.3426325000229458"><ele>634.0</ele><time>2026-04-13T15:55:02.999Z</time></trkpt><trkpt lat="42.88293714412879" lon="-3.3427666267274923"><ele>634.0</ele><time>2026-04-13T15:55:03.999Z</time></trkpt><trkpt lat="42.883041456461946" lon="-3.3428857852393588"><ele>634.0</ele><time>2026-04-13T15:55:04.999Z</time></trkpt><trkpt lat="42.88316108905653" lon="-3.342993638742158"><ele>634.0</ele><time>2026-04-13T15:55:05.999Z</time></trkpt><trkpt lat="42.88329753701475" lon="-3.3431020418433395"><ele>633.25</ele><time>2026-04-13T15:55:06.999Z</time></trkpt><trkpt lat="42.88343268863087" lon="-3.3431827107610954"><ele>632.5</ele><time>2026-04-13T15:55:07.999Z</time></trkpt><trkpt lat="42.88355809439835" lon="-3.3432477746650484"><ele>631.75</ele><time>2026-04-13T15:55:08.999Z</time></trkpt><trkpt lat="42.8836906900665" lon="-3.343322175740902"><ele>631.0</ele><time>2026-04-13T15:55:09.999Z</time></trkpt><trkpt lat="42.883837868326516" lon="-3.343397407991273"><ele>631.0</ele><time>2026-04-13T15:55:10.999Z</time></trkpt><trkpt lat="42.88398596642709" lon="-3.343460513285815"><ele>631.0</ele><time>2026-04-13T15:55:11.999Z</time></trkpt><trkpt lat="42.884142081907704" lon="-3.3435096507908444"><ele>631.0</ele><time>2026-04-13T15:55:12.999Z</time></trkpt><trkpt lat="42.88432160248523" lon="-3.34354990786913"><ele>635.0</ele><time>2026-04-13T15:55:13.999Z</time></trkpt><trkpt lat="42.884471787553814" lon="-3.343595223782277"><ele>639.0</ele><time>2026-04-13T15:55:14.999Z</time></trkpt><trkpt lat="42.88459565378583" lon="-3.3436341764661033"><ele>643.0</ele><time>2026-04-13T15:55:15.999Z</time></trkpt><trkpt lat="42.884721322307776" lon="-3.343709841409708"><ele>647.0</ele><time>2026-04-13T15:55:16.999Z</time></trkpt><trkpt lat="42.884841783413314" lon="-3.34381580937917"><ele>648.6666666666666</ele><time>2026-04-13T15:55:17.999Z</time></trkpt><trkpt lat="42.88496123070474" lon="-3.3439420505357833"><ele>650.3333333333334</ele><time>2026-04-13T15:55:18.999Z</time></trkpt><trkpt lat="42.885081743288325" lon="-3.3440782010053036"><ele>652.0</ele><time>2026-04-13T15:55:19.999Z</time></trkpt><trkpt lat="42.88520364800838" lon="-3.3442429690567566"><ele>652.0</ele><time>2026-04-13T15:55:20.999Z</time></trkpt><trkpt lat="42.88530725745011" lon="-3.3444122290740936"><ele>652.0</ele><time>2026-04-13T15:55:21.999Z</time></trkpt><trkpt lat="42.88540435838617" lon="-3.3445978241219443"><ele>652.0</ele><time>2026-04-13T15:55:22.999Z</time></trkpt><trkpt lat="42.885500972659294" lon="-3.3447939717691932"><ele>646.0</ele><time>2026-04-13T15:55:23.999Z</time></trkpt><trkpt lat="42.885605301595454" lon="-3.344989798050318"><ele>640.0</ele><time>2026-04-13T15:55:24.999Z</time></trkpt><trkpt lat="42.88572480936627" lon="-3.345198024904428"><ele>634.0</ele><time>2026-04-13T15:55:25.999Z</time></trkpt><trkpt lat="42.88584339542518" lon="-3.345425573981412"><ele>640.0</ele><time>2026-04-13T15:55:26.999Z</time></trkpt><trkpt lat="42.88597042308294" lon="-3.345661090034998"><ele>646.0</ele><time>2026-04-13T15:55:27.999Z</time></trkpt><trkpt lat="42.886096625848275" lon="-3.345891849830386"><ele>652.0</ele><time>2026-04-13T15:55:28.999Z</time></trkpt><trkpt lat="42.88622330202433" lon="-3.346121941854846"><ele>652.0</ele><time>2026-04-13T15:55:29.999Z</time></trkpt><trkpt lat="42.88634059558942" lon="-3.346334132505128"><ele>652.0</ele><time>2026-04-13T15:55:30.999Z</time></trkpt><trkpt lat="42.88643746789496" lon="-3.3465059951463747"><ele>652.0</ele><time>2026-04-13T15:55:31.999Z</time></trkpt><trkpt lat="42.88651146144486" lon="-3.3466294204862557"><ele>650.5</ele><time>2026-04-13T15:55:32.999Z</time></trkpt><trkpt lat="42.8865653775737" lon="-3.3467256544158532"><ele>649.0</ele><time>2026-04-13T15:55:33.999Z</time></trkpt><trkpt lat="42.88661283724517" lon="-3.3468111691468594"><ele>647.5</ele><time>2026-04-13T15:55:34.999Z</time></trkpt><trkpt lat="42.886648153719136" lon="-3.3468859114088296"><ele>646.0</ele><time>2026-04-13T15:55:35.999Z</time></trkpt><trkpt lat="42.88670004638327" lon="-3.3469652349341668"><ele>644.5</ele><time>2026-04-13T15:55:37.999Z</time></trkpt><trkpt lat="42.886770973650194" lon="-3.3470303853426486"><ele>643.0</ele><time>2026-04-13T15:55:40.999Z</time></trkpt><trkpt lat="42.88683105317057" lon="-3.3470674952771375"><ele>644.0</ele><time>2026-04-13T15:55:42.999Z</time></trkpt><trkpt lat="42.88691242018627" lon="-3.3471127597018686"><ele>645.0</ele><time>2026-04-13T15:55:44.999Z</time></trkpt><trkpt lat="42.88697645073993" lon="-3.3471461928349604"><ele>646.0</ele><time>2026-04-13T15:55:45.999Z</time></trkpt><trkpt lat="42.88705347684804" lon="-3.347177676060678"><ele>647.0</ele><time>2026-04-13T15:55:46.999Z</time></trkpt><trkpt lat="42.88714900287382" lon="-3.347201358437086"><ele>648.0</ele><time>2026-04-13T15:55:47.999Z</time></trkpt><trkpt lat="42.88724422990069" lon="-3.3472243875106975"><ele>649.0</ele><time>2026-04-13T15:55:48.999Z</time></trkpt><trkpt lat="42.88734584725346" lon="-3.347249419826604"><ele>649.0</ele><time>2026-04-13T15:55:49.999Z</time></trkpt><trkpt lat="42.88745975821746" lon="-3.347271643290038"><ele>649.0</ele><time>2026-04-13T15:55:50.999Z</time></trkpt><trkpt lat="42.88758351706369" lon="-3.347288705079077"><ele>649.0</ele><time>2026-04-13T15:55:51.999Z</time></trkpt><trkpt lat="42.887711379305074" lon="-3.347310540045891"><ele>649.0</ele><time>2026-04-13T15:55:52.999Z</time></trkpt><trkpt lat="42.887851176014316" lon="-3.347334720956066"><ele>649.75</ele><time>2026-04-13T15:55:53.999Z</time></trkpt><trkpt lat="42.8879982974534" lon="-3.3473628836385694"><ele>650.5</ele><time>2026-04-13T15:55:54.999Z</time></trkpt><trkpt lat="42.888125147656545" lon="-3.3473917046610113"><ele>651.25</ele><time>2026-04-13T15:55:55.999Z</time></trkpt><trkpt lat="42.88825269566039" lon="-3.3474281088268567"><ele>652.0</ele><time>2026-04-13T15:55:56.999Z</time></trkpt><trkpt lat="42.888393733212155" lon="-3.34747588570797"><ele>654.3333333333334</ele><time>2026-04-13T15:55:57.999Z</time></trkpt><trkpt lat="42.888538897465686" lon="-3.3475311055207855"><ele>656.6666666666666</ele><time>2026-04-13T15:55:58.999Z</time></trkpt><trkpt lat="42.888686453689246" lon="-3.3475921756937876"><ele>659.0</ele><time>2026-04-13T15:55:59.999Z</time></trkpt><trkpt lat="42.88883352789481" lon="-3.347650645540053"><ele>659.0</ele><time>2026-04-13T15:56:00.999Z</time></trkpt><trkpt lat="42.88898405229603" lon="-3.3477068557072007"><ele>659.0</ele><time>2026-04-13T15:56:01.999Z</time></trkpt><trkpt lat="42.8891465344315" lon="-3.34775024124056"><ele>659.0</ele><time>2026-04-13T15:56:02.999Z</time></trkpt><trkpt lat="42.889318803809026" lon="-3.3477942926704616"><ele>662.3333333333333</ele><time>2026-04-13T15:56:03.999Z</time></trkpt><trkpt lat="42.88950262561356" lon="-3.3478450047381463"><ele>665.6666666666666</ele><time>2026-04-13T15:56:04.999Z</time></trkpt><trkpt lat="42.88968077861614" lon="-3.3478960175002794"><ele>669.0</ele><time>2026-04-13T15:56:05.999Z</time></trkpt><trkpt lat="42.88983132134047" lon="-3.347942087505687"><ele>669.0</ele><time>2026-04-13T15:56:06.999Z</time></trkpt><trkpt lat="42.88996355588992" lon="-3.347985022629716"><ele>669.0</ele><time>2026-04-13T15:56:07.999Z</time></trkpt><trkpt lat="42.89009192683803" lon="-3.348020219848629"><ele>669.0</ele><time>2026-04-13T15:56:08.999Z</time></trkpt><trkpt lat="42.89022886151867" lon="-3.3480525154456426"><ele>669.0</ele><time>2026-04-13T15:56:09.999Z</time></trkpt><trkpt lat="42.89037829784205" lon="-3.3480872611476142"><ele>667.5</ele><time>2026-04-13T15:56:10.999Z</time></trkpt><trkpt lat="42.89053119776231" lon="-3.3481072472634463"><ele>666.0</ele><time>2026-04-13T15:56:11.999Z</time></trkpt><trkpt lat="42.89066091485763" lon="-3.348127729198671"><ele>664.5</ele><time>2026-04-13T15:56:12.999Z</time></trkpt><trkpt lat="42.8907685006102" lon="-3.348141997936161"><ele>663.0</ele><time>2026-04-13T15:56:13.999Z</time></trkpt><trkpt lat="42.890862576733305" lon="-3.3481475677808814"><ele>663.1666666666666</ele><time>2026-04-13T15:56:14.999Z</time></trkpt><trkpt lat="42.890940231387184" lon="-3.34815112151598"><ele>663.3333333333334</ele><time>2026-04-13T15:56:15.999Z</time></trkpt><trkpt lat="42.89101976858195" lon="-3.3481420443781276"><ele>663.5</ele><time>2026-04-13T15:56:16.999Z</time></trkpt><trkpt lat="42.89110590517805" lon="-3.3481425438466417"><ele>663.6666666666667</ele><time>2026-04-13T15:56:17.999Z</time></trkpt><trkpt lat="42.89120544302854" lon="-3.348136959051296"><ele>663.8333333333334</ele><time>2026-04-13T15:56:18.999Z</time></trkpt><trkpt lat="42.89131113814738" lon="-3.3481356648847727"><ele>664.0</ele><time>2026-04-13T15:56:19.999Z</time></trkpt><trkpt lat="42.89143092396654" lon="-3.3481222711546317"><ele>664.0</ele><time>2026-04-13T15:56:20.999Z</time></trkpt><trkpt lat="42.89153589029905" lon="-3.348109667393258"><ele>664.0</ele><time>2026-04-13T15:56:21.999Z</time></trkpt><trkpt lat="42.89161760171262" lon="-3.3481137568334196"><ele>664.0</ele><time>2026-04-13T15:56:22.999Z</time></trkpt><trkpt lat="42.891718941839684" lon="-3.3482259665264924"><ele>664.0</ele><time>2026-04-13T15:56:24.999Z</time></trkpt><trkpt lat="42.891742788576174" lon="-3.3483285372428595"><ele>664.0</ele><time>2026-04-13T15:56:25.999Z</time></trkpt><trkpt lat="42.89175243593843" lon="-3.3484500574693885"><ele>665.6</ele><time>2026-04-13T15:56:26.999Z</time></trkpt><trkpt lat="42.89176790817257" lon="-3.3485847467065173"><ele>667.2</ele><time>2026-04-13T15:56:27.999Z</time></trkpt><trkpt lat="42.89178570328157" lon="-3.3487261312322927"><ele>668.8000000000001</ele><time>2026-04-13T15:56:28.999Z</time></trkpt><trkpt lat="42.89180477990712" lon="-3.348876479687376"><ele>670.4000000000001</ele><time>2026-04-13T15:56:29.999Z</time></trkpt><trkpt lat="42.89183636314228" lon="-3.349031439247739"><ele>672.0</ele><time>2026-04-13T15:56:30.999Z</time></trkpt><trkpt lat="42.891883620221435" lon="-3.3491840869062766"><ele>674.75</ele><time>2026-04-13T15:56:31.999Z</time></trkpt><trkpt lat="42.891939503072194" lon="-3.3493403769132235"><ele>677.5</ele><time>2026-04-13T15:56:32.999Z</time></trkpt><trkpt lat="42.89200565822856" lon="-3.349510697751613"><ele>680.25</ele><time>2026-04-13T15:56:33.999Z</time></trkpt><trkpt lat="42.89207244562474" lon="-3.349693655979115"><ele>683.0</ele><time>2026-04-13T15:56:34.999Z</time></trkpt><trkpt lat="42.892140506143875" lon="-3.3498901784364716"><ele>684.0</ele><time>2026-04-13T15:56:35.999Z</time></trkpt><trkpt lat="42.89220511872732" lon="-3.3500861700870077"><ele>685.0</ele><time>2026-04-13T15:56:36.999Z</time></trkpt><trkpt lat="42.892269558717054" lon="-3.35029335180201"><ele>686.0</ele><time>2026-04-13T15:56:37.999Z</time></trkpt><trkpt lat="42.89234226760778" lon="-3.3505055840447837"><ele>687.3333333333333</ele><time>2026-04-13T15:56:38.999Z</time></trkpt><trkpt lat="42.89241867932017" lon="-3.350710845880968"><ele>688.6666666666666</ele><time>2026-04-13T15:56:39.999Z</time></trkpt><trkpt lat="42.89250663130539" lon="-3.350920570654385"><ele>690.0</ele><time>2026-04-13T15:56:40.999Z</time></trkpt><trkpt lat="42.892602452794264" lon="-3.351128756885782"><ele>694.3333333333334</ele><time>2026-04-13T15:56:41.999Z</time></trkpt><trkpt lat="42.89270119544418" lon="-3.3513279128660285"><ele>698.6666666666667</ele><time>2026-04-13T15:56:42.999Z</time></trkpt><trkpt lat="42.892797462303925" lon="-3.3515380655065092"><ele>703.0</ele><time>2026-04-13T15:56:43.999Z</time></trkpt><trkpt lat="42.892896654981215" lon="-3.351744468124725"><ele>703.0</ele><time>2026-04-13T15:56:44.999Z</time></trkpt><trkpt lat="42.8929907505977" lon="-3.3519619191842334"><ele>703.0</ele><time>2026-04-13T15:56:45.999Z</time></trkpt><trkpt lat="42.89309947754142" lon="-3.3522104224153804"><ele>703.0</ele><time>2026-04-13T15:56:46.999Z</time></trkpt><trkpt lat="42.89319949311928" lon="-3.3524612962382876"><ele>702.0</ele><time>2026-04-13T15:56:47.999Z</time></trkpt><trkpt lat="42.89327453200958" lon="-3.3526741142311085"><ele>701.0</ele><time>2026-04-13T15:56:48.999Z</time></trkpt><trkpt lat="42.893343498249585" lon="-3.3528603399591113"><ele>700.0</ele><time>2026-04-13T15:56:49.999Z</time></trkpt><trkpt lat="42.89341346053095" lon="-3.353054751149989"><ele>704.6666666666667</ele><time>2026-04-13T15:56:50.999Z</time></trkpt><trkpt lat="42.89348786844217" lon="-3.3532720614403964"><ele>709.3333333333334</ele><time>2026-04-13T15:56:51.999Z</time></trkpt><trkpt lat="42.893557737458984" lon="-3.35349267975811"><ele>714.0</ele><time>2026-04-13T15:56:52.999Z</time></trkpt><trkpt lat="42.893624751268064" lon="-3.3537189654271105"><ele>714.75</ele><time>2026-04-13T15:56:53.999Z</time></trkpt><trkpt lat="42.89368329676009" lon="-3.3539242593575467"><ele>715.5</ele><time>2026-04-13T15:56:54.999Z</time></trkpt><trkpt lat="42.89372954242875" lon="-3.3540957593979583"><ele>716.25</ele><time>2026-04-13T15:56:55.999Z</time></trkpt><trkpt lat="42.893769628769945" lon="-3.3542431323430706"><ele>717.0</ele><time>2026-04-13T15:56:56.999Z</time></trkpt><trkpt lat="42.89380204692633" lon="-3.354373534136152"><ele>717.0</ele><time>2026-04-13T15:56:57.999Z</time></trkpt><trkpt lat="42.89382662674791" lon="-3.354480668815708"><ele>717.0</ele><time>2026-04-13T15:56:58.999Z</time></trkpt><trkpt lat="42.89386215256946" lon="-3.3545691619201428"><ele>717.0</ele><time>2026-04-13T15:56:59.999Z</time></trkpt><trkpt lat="42.89392362872928" lon="-3.354636094725876"><ele>717.0</ele><time>2026-04-13T15:57:00.999Z</time></trkpt><trkpt lat="42.89400524417235" lon="-3.3546627217392175"><ele>717.0</ele><time>2026-04-13T15:57:01.999Z</time></trkpt><trkpt lat="42.894094048549874" lon="-3.3546438961241707"><ele>717.0</ele><time>2026-04-13T15:57:02.999Z</time></trkpt><trkpt lat="42.89417880894525" lon="-3.3545687753204323"><ele>717.0</ele><time>2026-04-13T15:57:03.999Z</time></trkpt><trkpt lat="42.894233384746435" lon="-3.354451457902884"><ele>717.0</ele><time>2026-04-13T15:57:04.999Z</time></trkpt><trkpt lat="42.894251327808945" lon="-3.35431162388965"><ele>717.0</ele><time>2026-04-13T15:57:05.999Z</time></trkpt><trkpt lat="42.89426324950531" lon="-3.3541377142620954"><ele>717.0</ele><time>2026-04-13T15:57:06.999Z</time></trkpt><trkpt lat="42.89427946741196" lon="-3.3539548952745215"><ele>725.5</ele><time>2026-04-13T15:57:07.999Z</time></trkpt><trkpt lat="42.89430455681604" lon="-3.3537588330701444"><ele>734.0</ele><time>2026-04-13T15:57:08.999Z</time></trkpt><trkpt lat="42.89433193224078" lon="-3.3535506958458514"><ele>742.5</ele><time>2026-04-13T15:57:09.999Z</time></trkpt><trkpt lat="42.894363214520794" lon="-3.3533530640764426"><ele>751.0</ele><time>2026-04-13T15:57:10.999Z</time></trkpt><trkpt lat="42.89440271905202" lon="-3.353159456760663"><ele>751.0</ele><time>2026-04-13T15:57:11.999Z</time></trkpt><trkpt lat="42.89439122201771" lon="-3.3530141574700005"><ele>751.0</ele><time>2026-04-13T15:57:12.999Z</time></trkpt><trkpt lat="42.8943479260247" lon="-3.3528624354011383"><ele>751.0</ele><time>2026-04-13T15:57:13.999Z</time></trkpt><trkpt lat="42.894271321121764" lon="-3.3527167335715755"><ele>751.0</ele><time>2026-04-13T15:57:14.999Z</time></trkpt><trkpt lat="42.89421431927782" lon="-3.352578365282482"><ele>751.0</ele><time>2026-04-13T15:57:15.999Z</time></trkpt><trkpt lat="42.89421459675422" lon="-3.3524561345833677"><ele>751.0</ele><time>2026-04-13T15:57:16.999Z</time></trkpt><trkpt lat="42.89425853911452" lon="-3.3523230511702535"><ele>751.0</ele><time>2026-04-13T15:57:17.999Z</time></trkpt><trkpt lat="42.89431571717827" lon="-3.352165631033164"><ele>751.0</ele><time>2026-04-13T15:57:18.999Z</time></trkpt><trkpt lat="42.89435627993263" lon="-3.3519927879640776"><ele>752.25</ele><time>2026-04-13T15:57:19.999Z</time></trkpt><trkpt lat="42.89435573834324" lon="-3.3518238034955057"><ele>753.5</ele><time>2026-04-13T15:57:20.999Z</time></trkpt><trkpt lat="42.89430998438146" lon="-3.3516605238276735"><ele>754.75</ele><time>2026-04-13T15:57:21.999Z</time></trkpt><trkpt lat="42.89422972913407" lon="-3.351501357954657"><ele>756.0</ele><time>2026-04-13T15:57:22.999Z</time></trkpt><trkpt lat="42.89414148265815" lon="-3.3513231273892408"><ele>750.0</ele><time>2026-04-13T15:57:23.999Z</time></trkpt><trkpt lat="42.89406422480365" lon="-3.351125310695255"><ele>744.0</ele><time>2026-04-13T15:57:24.999Z</time></trkpt><trkpt lat="42.89399335620916" lon="-3.350922789225765"><ele>738.0</ele><time>2026-04-13T15:57:25.999Z</time></trkpt><trkpt lat="42.89393433233383" lon="-3.3507671624933897"><ele>738.0</ele><time>2026-04-13T15:57:26.999Z</time></trkpt><trkpt lat="42.893891899451305" lon="-3.3506471279510985"><ele>738.0</ele><time>2026-04-13T15:57:27.999Z</time></trkpt><trkpt lat="42.89388055949169" lon="-3.350547248100241"><ele>738.0</ele><time>2026-04-13T15:57:28.999Z</time></trkpt><trkpt lat="42.89389628208573" lon="-3.3504441946859442"><ele>738.0</ele><time>2026-04-13T15:57:29.999Z</time></trkpt><trkpt lat="42.89393691053123" lon="-3.350368784589073"><ele>738.0</ele><time>2026-04-13T15:57:30.999Z</time></trkpt><trkpt lat="42.894005660063726" lon="-3.3503015116448527"><ele>738.0</ele><time>2026-04-13T15:57:31.999Z</time></trkpt><trkpt lat="42.89408232825576" lon="-3.3502543933461606"><ele>737.8571428571429</ele><time>2026-04-13T15:57:32.999Z</time></trkpt><trkpt lat="42.894158266487146" lon="-3.35022359904262"><ele>737.7142857142857</ele><time>2026-04-13T15:57:33.999Z</time></trkpt><trkpt lat="42.89422703199338" lon="-3.350210960436903"><ele>737.5714285714287</ele><time>2026-04-13T15:57:34.999Z</time></trkpt><trkpt lat="42.89429257387314" lon="-3.3502249544288056"><ele>737.4285714285714</ele><time>2026-04-13T15:57:35.999Z</time></trkpt><trkpt lat="42.894341394410866" lon="-3.350283090839777"><ele>737.2857142857143</ele><time>2026-04-13T15:57:36.999Z</time></trkpt><trkpt lat="42.89436854953287" lon="-3.3503747656663774"><ele>737.1428571428572</ele><time>2026-04-13T15:57:37.999Z</time></trkpt><trkpt lat="42.8943805090223" lon="-3.3504808700662334"><ele>737.0</ele><time>2026-04-13T15:57:38.999Z</time></trkpt><trkpt lat="42.89440882215629" lon="-3.3505957399225865"><ele>740.0</ele><time>2026-04-13T15:57:39.999Z</time></trkpt><trkpt lat="42.894468224192245" lon="-3.350678322834616"><ele>743.0</ele><time>2026-04-13T15:57:40.999Z</time></trkpt><trkpt lat="42.89455124169186" lon="-3.3507122471939543"><ele>746.0</ele><time>2026-04-13T15:57:41.999Z</time></trkpt><trkpt lat="42.89464415427834" lon="-3.350732996857601"><ele>749.0</ele><time>2026-04-13T15:57:42.999Z</time></trkpt><trkpt lat="42.89476356555805" lon="-3.350755547135138"><ele>752.0</ele><time>2026-04-13T15:57:43.999Z</time></trkpt><trkpt lat="42.8949032841662" lon="-3.3507751812888067"><ele>752.0</ele><time>2026-04-13T15:57:44.999Z</time></trkpt><trkpt lat="42.89505559564959" lon="-3.350803827780097"><ele>752.0</ele><time>2026-04-13T15:57:45.999Z</time></trkpt><trkpt lat="42.89521335434462" lon="-3.3508415316441296"><ele>752.0</ele><time>2026-04-13T15:57:46.999Z</time></trkpt><trkpt lat="42.89537219230614" lon="-3.3508893590586575"><ele>752.75</ele><time>2026-04-13T15:57:47.999Z</time></trkpt><trkpt lat="42.895530499794226" lon="-3.3509545847024462"><ele>753.5</ele><time>2026-04-13T15:57:48.999Z</time></trkpt><trkpt lat="42.89566877536008" lon="-3.3510245704094674"><ele>754.25</ele><time>2026-04-13T15:57:49.999Z</time></trkpt><trkpt lat="42.8957692298658" lon="-3.3510783010411718"><ele>755.0</ele><time>2026-04-13T15:57:50.999Z</time></trkpt><trkpt lat="42.89584736617779" lon="-3.351106290716458"><ele>755.0</ele><time>2026-04-13T15:57:51.999Z</time></trkpt><trkpt lat="42.89593743060151" lon="-3.351120798704807"><ele>755.0</ele><time>2026-04-13T15:57:53.999Z</time></trkpt><trkpt lat="42.89596123782197" lon="-3.351224756837872"><ele>755.0</ele><time>2026-04-13T15:57:56.999Z</time></trkpt><trkpt lat="42.89590004567851" lon="-3.3512712528039383"><ele>755.0</ele><time>2026-04-13T15:57:58.999Z</time></trkpt><trkpt lat="42.89579908626207" lon="-3.3513051860787324"><ele>755.0</ele><time>2026-04-13T15:58:00.999Z</time></trkpt><trkpt lat="42.89573607249969" lon="-3.3513878722548087"><ele>755.0</ele><time>2026-04-13T15:58:02.999Z</time></trkpt><trkpt lat="42.89571504227392" lon="-3.351515580620703"><ele>757.0</ele><time>2026-04-13T15:58:04.999Z</time></trkpt><trkpt lat="42.89569926308207" lon="-3.35160416856717"><ele>759.0</ele><time>2026-04-13T15:58:05.999Z</time></trkpt><trkpt lat="42.89568510297916" lon="-3.351690840285753"><ele>761.0</ele><time>2026-04-13T15:58:06.999Z</time></trkpt><trkpt lat="42.89566883658976" lon="-3.3517925681656835"><ele>763.0</ele><time>2026-04-13T15:58:07.999Z</time></trkpt><trkpt lat="42.89564743759519" lon="-3.3519045493731303"><ele>765.0</ele><time>2026-04-13T15:58:08.999Z</time></trkpt><trkpt lat="42.89563318371433" lon="-3.3520170066695334"><ele>767.0</ele><time>2026-04-13T15:58:09.999Z</time></trkpt><trkpt lat="42.895638955055055" lon="-3.3521123066659184"><ele>769.0</ele><time>2026-04-13T15:58:10.999Z</time></trkpt><trkpt lat="42.8956604567958" lon="-3.3522062917120747"><ele>770.2</ele><time>2026-04-13T15:58:11.999Z</time></trkpt><trkpt lat="42.89569198112999" lon="-3.352306634805183"><ele>771.4000000000001</ele><time>2026-04-13T15:58:12.999Z</time></trkpt><trkpt lat="42.89571996120508" lon="-3.352423705616143"><ele>772.6</ele><time>2026-04-13T15:58:13.999Z</time></trkpt><trkpt lat="42.895745288815725" lon="-3.3525405265519814"><ele>773.8</ele><time>2026-04-13T15:58:14.999Z</time></trkpt><trkpt lat="42.89576643928355" lon="-3.352675221778911"><ele>775.0</ele><time>2026-04-13T15:58:15.999Z</time></trkpt><trkpt lat="42.895778893018864" lon="-3.352833938472572"><ele>775.0</ele><time>2026-04-13T15:58:16.999Z</time></trkpt><trkpt lat="42.89576834048644" lon="-3.3529918521121993"><ele>775.0</ele><time>2026-04-13T15:58:17.999Z</time></trkpt><trkpt lat="42.89573153492885" lon="-3.3531460188073896"><ele>775.0</ele><time>2026-04-13T15:58:18.999Z</time></trkpt><trkpt lat="42.89567931908249" lon="-3.353304928211655"><ele>775.0</ele><time>2026-04-13T15:58:19.999Z</time></trkpt><trkpt lat="42.895624261970454" lon="-3.353486436241193"><ele>776.6</ele><time>2026-04-13T15:58:20.999Z</time></trkpt><trkpt lat="42.89557209824791" lon="-3.3536573736105177"><ele>778.2</ele><time>2026-04-13T15:58:21.999Z</time></trkpt><trkpt lat="42.895532292877704" lon="-3.353799634851834"><ele>779.8</ele><time>2026-04-13T15:58:22.999Z</time></trkpt><trkpt lat="42.89549847541298" lon="-3.353924811797937"><ele>781.4</ele><time>2026-04-13T15:58:23.999Z</time></trkpt><trkpt lat="42.895463810192645" lon="-3.3540554017621496"><ele>783.0</ele><time>2026-04-13T15:58:24.999Z</time></trkpt><trkpt lat="42.895452936257854" lon="-3.3541915361736963"><ele>785.5</ele><time>2026-04-13T15:58:25.999Z</time></trkpt><trkpt lat="42.89547036389691" lon="-3.354347171459921"><ele>788.0</ele><time>2026-04-13T15:58:26.999Z</time></trkpt><trkpt lat="42.89551418852045" lon="-3.354512897272159"><ele>790.5</ele><time>2026-04-13T15:58:27.999Z</time></trkpt><trkpt lat="42.89558096998634" lon="-3.354690009331988"><ele>793.0</ele><time>2026-04-13T15:58:28.999Z</time></trkpt><trkpt lat="42.89565546645989" lon="-3.354873812881179"><ele>793.0</ele><time>2026-04-13T15:58:29.999Z</time></trkpt><trkpt lat="42.895711805717355" lon="-3.3550314503742853"><ele>793.0</ele><time>2026-04-13T15:58:30.999Z</time></trkpt><trkpt lat="42.895740559890555" lon="-3.3551617875354847"><ele>793.0</ele><time>2026-04-13T15:58:31.999Z</time></trkpt><trkpt lat="42.89575857653163" lon="-3.3553168680077636"><ele>793.0</ele><time>2026-04-13T15:58:32.999Z</time></trkpt><trkpt lat="42.89576892769758" lon="-3.355492835215634"><ele>791.0</ele><time>2026-04-13T15:58:33.999Z</time></trkpt><trkpt lat="42.89578438413178" lon="-3.3556581590019903"><ele>789.0</ele><time>2026-04-13T15:58:34.999Z</time></trkpt><trkpt lat="42.89581774446536" lon="-3.3557927923075694"><ele>787.0</ele><time>2026-04-13T15:58:35.999Z</time></trkpt><trkpt lat="42.895877348512045" lon="-3.3559353491731687"><ele>785.0</ele><time>2026-04-13T15:58:36.999Z</time></trkpt><trkpt lat="42.89595411788437" lon="-3.356107505231521"><ele>795.3333333333334</ele><time>2026-04-13T15:58:37.999Z</time></trkpt><trkpt lat="42.89603658500283" lon="-3.3562910713221448"><ele>805.6666666666667</ele><time>2026-04-13T15:58:38.999Z</time></trkpt><trkpt lat="42.8961088818288" lon="-3.356479741735919"><ele>816.0</ele><time>2026-04-13T15:58:39.999Z</time></trkpt><trkpt lat="42.89616328831874" lon="-3.3566497755767446"><ele>816.0</ele><time>2026-04-13T15:58:40.999Z</time></trkpt><trkpt lat="42.8962125261974" lon="-3.356786634990316"><ele>816.0</ele><time>2026-04-13T15:58:41.999Z</time></trkpt><trkpt lat="42.89624409045665" lon="-3.3568961379417424"><ele>816.0</ele><time>2026-04-13T15:58:42.999Z</time></trkpt><trkpt lat="42.89627765852672" lon="-3.357006587333783"><ele>816.0</ele><time>2026-04-13T15:58:43.999Z</time></trkpt><trkpt lat="42.896316881377324" lon="-3.357121388802798"><ele>816.0</ele><time>2026-04-13T15:58:44.999Z</time></trkpt><trkpt lat="42.89636125437609" lon="-3.357227742529705"><ele>813.25</ele><time>2026-04-13T15:58:45.999Z</time></trkpt><trkpt lat="42.896435690840086" lon="-3.3573576792769555"><ele>810.5</ele><time>2026-04-13T15:58:46.999Z</time></trkpt><trkpt lat="42.89653607983618" lon="-3.3575014177816005"><ele>807.75</ele><time>2026-04-13T15:58:47.999Z</time></trkpt><trkpt lat="42.89663754717683" lon="-3.3576453800255406"><ele>805.0</ele><time>2026-04-13T15:58:48.999Z</time></trkpt><trkpt lat="42.896716611246816" lon="-3.357777864144846"><ele>809.3333333333333</ele><time>2026-04-13T15:58:49.999Z</time></trkpt><trkpt lat="42.896775434925864" lon="-3.357890840071618"><ele>813.6666666666666</ele><time>2026-04-13T15:58:50.999Z</time></trkpt><trkpt lat="42.89682903649373" lon="-3.357993571276"><ele>818.0</ele><time>2026-04-13T15:58:51.999Z</time></trkpt><trkpt lat="42.89687673915392" lon="-3.3580944879356136"><ele>822.3333333333333</ele><time>2026-04-13T15:58:52.999Z</time></trkpt><trkpt lat="42.89690533773429" lon="-3.358196682256715"><ele>826.6666666666666</ele><time>2026-04-13T15:58:53.999Z</time></trkpt><trkpt lat="42.89690026022806" lon="-3.3583091238723477"><ele>831.0</ele><time>2026-04-13T15:58:54.999Z</time></trkpt><trkpt lat="42.8968743023369" lon="-3.358415366904784"><ele>831.0</ele><time>2026-04-13T15:58:55.999Z</time></trkpt><trkpt lat="42.89682438722477" lon="-3.35852863925361"><ele>831.0</ele><time>2026-04-13T15:58:56.999Z</time></trkpt><trkpt lat="42.896754228781035" lon="-3.3586591440582407"><ele>831.0</ele><time>2026-04-13T15:58:57.999Z</time></trkpt><trkpt lat="42.896678827724756" lon="-3.3588148527816504"><ele>831.0</ele><time>2026-04-13T15:58:58.999Z</time></trkpt><trkpt lat="42.89660282412152" lon="-3.3589828442850695"><ele>827.0</ele><time>2026-04-13T15:58:59.999Z</time></trkpt><trkpt lat="42.896526362717" lon="-3.3591581796073373"><ele>823.0</ele><time>2026-04-13T15:59:00.999Z</time></trkpt><trkpt lat="42.89645458408172" lon="-3.3593252302120713"><ele>819.0</ele><time>2026-04-13T15:59:01.999Z</time></trkpt><trkpt lat="42.89638429076009" lon="-3.359490103281917"><ele>815.0</ele><time>2026-04-13T15:59:02.999Z</time></trkpt><trkpt lat="42.89632548468018" lon="-3.359620645468866"><ele>815.0</ele><time>2026-04-13T15:59:03.999Z</time></trkpt><trkpt lat="42.89626950623635" lon="-3.3597417318067873"><ele>815.0</ele><time>2026-04-13T15:59:04.999Z</time></trkpt><trkpt lat="42.89621359318144" lon="-3.359838296707556"><ele>815.0</ele><time>2026-04-13T15:59:05.999Z</time></trkpt><trkpt lat="42.89612933388513" lon="-3.3599381235903043"><ele>815.0</ele><time>2026-04-13T15:59:06.999Z</time></trkpt><trkpt lat="42.89601707392084" lon="-3.360010063622336"><ele>815.0</ele><time>2026-04-13T15:59:07.999Z</time></trkpt><trkpt lat="42.895882510640426" lon="-3.360063477489306"><ele>815.0</ele><time>2026-04-13T15:59:08.999Z</time></trkpt><trkpt lat="42.89574171526947" lon="-3.3601287567322555"><ele>815.0</ele><time>2026-04-13T15:59:09.999Z</time></trkpt><trkpt lat="42.89558354759621" lon="-3.3602148752626384"><ele>815.0</ele><time>2026-04-13T15:59:10.999Z</time></trkpt><trkpt lat="42.89542604922237" lon="-3.360295988481397"><ele>815.0</ele><time>2026-04-13T15:59:11.999Z</time></trkpt><trkpt lat="42.895290685552794" lon="-3.360369641033339"><ele>815.0</ele><time>2026-04-13T15:59:12.999Z</time></trkpt><trkpt lat="42.89514800111754" lon="-3.360451315106883"><ele>815.0</ele><time>2026-04-13T15:59:13.999Z</time></trkpt><trkpt lat="42.89500982393777" lon="-3.3605175366398456"><ele>815.0</ele><time>2026-04-13T15:59:14.999Z</time></trkpt><trkpt lat="42.89490006739376" lon="-3.36055689488071"><ele>814.6</ele><time>2026-04-13T15:59:15.999Z</time></trkpt><trkpt lat="42.89480270964916" lon="-3.3605697344650203"><ele>814.2</ele><time>2026-04-13T15:59:16.999Z</time></trkpt><trkpt lat="42.89470213940142" lon="-3.360567918877723"><ele>813.8</ele><time>2026-04-13T15:59:17.999Z</time></trkpt><trkpt lat="42.894599467839704" lon="-3.3605555884901044"><ele>813.4</ele><time>2026-04-13T15:59:18.999Z</time></trkpt><trkpt lat="42.894471810651844" lon="-3.3605341249146665"><ele>813.0</ele><time>2026-04-13T15:59:19.999Z</time></trkpt><trkpt lat="42.894352739754304" lon="-3.3605042509712573"><ele>813.0</ele><time>2026-04-13T15:59:20.999Z</time></trkpt><trkpt lat="42.89427224682797" lon="-3.3604791248187595"><ele>813.0</ele><time>2026-04-13T15:59:21.999Z</time></trkpt><trkpt lat="42.89416041062713" lon="-3.3605014557942248"><ele>813.0</ele><time>2026-04-13T15:59:23.999Z</time></trkpt><trkpt lat="42.89409998380044" lon="-3.3605370072863945"><ele>813.0</ele><time>2026-04-13T15:59:24.999Z</time></trkpt><trkpt lat="42.894031286567156" lon="-3.360599041698239"><ele>813.0</ele><time>2026-04-13T15:59:25.999Z</time></trkpt><trkpt lat="42.893959499540735" lon="-3.3606803344624265"><ele>813.0</ele><time>2026-04-13T15:59:26.999Z</time></trkpt><trkpt lat="42.89390002923297" lon="-3.3607950404891334"><ele>818.5</ele><time>2026-04-13T15:59:27.999Z</time></trkpt><trkpt lat="42.89382086171161" lon="-3.3609429578143195"><ele>824.0</ele><time>2026-04-13T15:59:28.999Z</time></trkpt><trkpt lat="42.89375263429991" lon="-3.361072463727865"><ele>829.5</ele><time>2026-04-13T15:59:29.999Z</time></trkpt><trkpt lat="42.89369248491593" lon="-3.361198487322036"><ele>835.0</ele><time>2026-04-13T15:59:30.999Z</time></trkpt><trkpt lat="42.893652088903956" lon="-3.361336992900422"><ele>834.2</ele><time>2026-04-13T15:59:31.999Z</time></trkpt><trkpt lat="42.893621393331976" lon="-3.361460691981328"><ele>833.4</ele><time>2026-04-13T15:59:32.999Z</time></trkpt><trkpt lat="42.89356924793177" lon="-3.3615795090705727"><ele>832.5999999999999</ele><time>2026-04-13T15:59:33.999Z</time></trkpt><trkpt lat="42.89348194453947" lon="-3.36168284971767"><ele>831.8</ele><time>2026-04-13T15:59:34.999Z</time></trkpt><trkpt lat="42.89337551428869" lon="-3.36178846347613"><ele>831.0</ele><time>2026-04-13T15:59:35.999Z</time></trkpt><trkpt lat="42.893262245515636" lon="-3.361893061019992"><ele>831.0</ele><time>2026-04-13T15:59:36.999Z</time></trkpt><trkpt lat="42.893146317489766" lon="-3.362003784803161"><ele>831.0</ele><time>2026-04-13T15:59:37.999Z</time></trkpt><trkpt lat="42.89303622036904" lon="-3.362090254172671"><ele>831.0</ele><time>2026-04-13T15:59:39Z</time></trkpt><trkpt lat="42.892918912909536" lon="-3.362167094968735"><ele>831.0</ele><time>2026-04-13T15:59:40Z</time></trkpt><trkpt lat="42.89278986355542" lon="-3.3622331240729433"><ele>832.0</ele><time>2026-04-13T15:59:41Z</time></trkpt><trkpt lat="42.892667866340354" lon="-3.3622970040750215"><ele>833.0</ele><time>2026-04-13T15:59:42Z</time></trkpt><trkpt lat="42.892565928821874" lon="-3.362351716594484"><ele>834.0</ele><time>2026-04-13T15:59:43.001Z</time></trkpt><trkpt lat="42.89249146610443" lon="-3.362393754165845"><ele>835.0</ele><time>2026-04-13T15:59:44.001Z</time></trkpt><trkpt lat="42.89242949285158" lon="-3.3624491741529487"><ele>836.0</ele><time>2026-04-13T15:59:45.001Z</time></trkpt><trkpt lat="42.89236609642925" lon="-3.3625444093679615"><ele>836.0</ele><time>2026-04-13T15:59:46.001Z</time></trkpt><trkpt lat="42.89233003497173" lon="-3.3626653896220007"><ele>836.0</ele><time>2026-04-13T15:59:47.001Z</time></trkpt><trkpt lat="42.89231677877878" lon="-3.3628051721011456"><ele>836.0</ele><time>2026-04-13T15:59:48.001Z</time></trkpt><trkpt lat="42.89230755712722" lon="-3.362973763551103"><ele>836.0</ele><time>2026-04-13T15:59:49.001Z</time></trkpt><trkpt lat="42.89229731229093" lon="-3.363152044033888"><ele>837.0</ele><time>2026-04-13T15:59:50.001Z</time></trkpt><trkpt lat="42.89228425329252" lon="-3.3633537719740905"><ele>838.0</ele><time>2026-04-13T15:59:51.001Z</time></trkpt><trkpt lat="42.89227424982434" lon="-3.363566597928908"><ele>839.0</ele><time>2026-04-13T15:59:52.001Z</time></trkpt><trkpt lat="42.89227322609704" lon="-3.3638024984915065"><ele>839.0</ele><time>2026-04-13T15:59:53.001Z</time></trkpt><trkpt lat="42.892279230538286" lon="-3.3640482530433777"><ele>839.0</ele><time>2026-04-13T15:59:54.001Z</time></trkpt><trkpt lat="42.89229396188822" lon="-3.3642767832806806"><ele>839.0</ele><time>2026-04-13T15:59:55.001Z</time></trkpt><trkpt lat="42.892306154024695" lon="-3.3644647840852246"><ele>839.0000000000001</ele><time>2026-04-13T15:59:56.001Z</time></trkpt><trkpt lat="42.89232003837123" lon="-3.3646170900254466"><ele>839.0</ele><time>2026-04-13T15:59:57.001Z</time></trkpt><trkpt lat="42.89233210282241" lon="-3.3647275271617025"><ele>839.0</ele><time>2026-04-13T15:59:58Z</time></trkpt><trkpt lat="42.89234788548585" lon="-3.364819486420736"><ele>839.0</ele><time>2026-04-13T16:00:00Z</time></trkpt><trkpt lat="42.892427344888944" lon="-3.3648434443270134"><ele>839.0000000000001</ele><time>2026-04-13T16:00:03Z</time></trkpt><trkpt lat="42.8924771708537" lon="-3.364945536465976"><ele>839.0</ele><time>2026-04-13T16:00:06Z</time></trkpt><trkpt lat="42.89248694272348" lon="-3.3650500124696396"><ele>839.0000000000001</ele><time>2026-04-13T16:00:08Z</time></trkpt><trkpt lat="42.892531155832785" lon="-3.3651194688056876"><ele>839.0</ele><time>2026-04-13T16:00:10Z</time></trkpt><trkpt lat="42.892605433448786" lon="-3.3651337411723663"><ele>839.0</ele><time>2026-04-13T16:00:26Z</time></trkpt><trkpt lat="42.89266281142724" lon="-3.36506459722983"><ele>839.0</ele><time>2026-04-13T16:00:28Z</time></trkpt><trkpt lat="42.892656163172816" lon="-3.3649251352601537"><ele>839.0000000000001</ele><time>2026-04-13T16:00:30Z</time></trkpt><trkpt lat="42.89259801669999" lon="-3.3647807538091343"><ele>839.0</ele><time>2026-04-13T16:00:32Z</time></trkpt><trkpt lat="42.89256609231319" lon="-3.3646674120216793"><ele>839.0000000000001</ele><time>2026-04-13T16:00:34Z</time></trkpt><trkpt lat="42.892585931278504" lon="-3.3645787587783347"><ele>839.0</ele><time>2026-04-13T16:00:36Z</time></trkpt><trkpt lat="42.89265004625597" lon="-3.3645162122718624"><ele>839.0</ele><time>2026-04-13T16:00:38Z</time></trkpt><trkpt lat="42.89272776722343" lon="-3.364441414959626"><ele>839.0</ele><time>2026-04-13T16:00:40Z</time></trkpt><trkpt lat="42.892782852087585" lon="-3.364382500795826"><ele>839.0000000000001</ele><time>2026-04-13T16:00:41Z</time></trkpt><trkpt lat="42.892844855315616" lon="-3.36431344139113"><ele>839.0</ele><time>2026-04-13T16:00:42Z</time></trkpt><trkpt lat="42.89292877497439" lon="-3.3642355661569217"><ele>838.5000000000001</ele><time>2026-04-13T16:00:44Z</time></trkpt><trkpt lat="42.89300775126205" lon="-3.3641768408931108"><ele>838.0</ele><time>2026-04-13T16:00:46Z</time></trkpt><trkpt lat="42.89306554192749" lon="-3.3641094306822463"><ele>837.5</ele><time>2026-04-13T16:00:48Z</time></trkpt><trkpt lat="42.893102056368164" lon="-3.3640283293327804"><ele>837.0</ele><time>2026-04-13T16:02:11Z</time></trkpt><trkpt lat="42.8931645602145" lon="-3.3639604264319867"><ele>836.5000000000001</ele><time>2026-04-13T16:08:16Z</time></trkpt><trkpt lat="42.89322877776851" lon="-3.363857518166444"><ele>836.0</ele><time>2026-04-13T16:08:18Z</time></trkpt><trkpt lat="42.89328135404015" lon="-3.3637162441490838"><ele>836.4</ele><time>2026-04-13T16:08:20Z</time></trkpt><trkpt lat="42.89332827485757" lon="-3.3635277789202576"><ele>836.8</ele><time>2026-04-13T16:08:22Z</time></trkpt><trkpt lat="42.89336763660102" lon="-3.3633905287685377"><ele>837.1999999999999</ele><time>2026-04-13T16:08:23Z</time></trkpt><trkpt lat="42.89341116065852" lon="-3.3632963496479413"><ele>837.5999999999999</ele><time>2026-04-13T16:08:24Z</time></trkpt><trkpt lat="42.8934693207296" lon="-3.363234399032836"><ele>838.0</ele><time>2026-04-13T16:08:25Z</time></trkpt><trkpt lat="42.89356917856114" lon="-3.3631489180215"><ele>838.0</ele><time>2026-04-13T16:08:26Z</time></trkpt><trkpt lat="42.89366560504369" lon="-3.3630654152998884"><ele>838.0</ele><time>2026-04-13T16:08:27Z</time></trkpt><trkpt lat="42.8937415815201" lon="-3.362992367819762"><ele>838.0</ele><time>2026-04-13T16:08:28Z</time></trkpt><trkpt lat="42.89380750274276" lon="-3.3629282965349407"><ele>838.0</ele><time>2026-04-13T16:08:30Z</time></trkpt><trkpt lat="42.89388940471467" lon="-3.3628687971511844"><ele>838.0</ele><time>2026-04-13T16:08:51Z</time></trkpt><trkpt lat="42.893953363645515" lon="-3.3628032661279015"><ele>838.8333333333333</ele><time>2026-04-13T16:08:53Z</time></trkpt><trkpt lat="42.894031971569554" lon="-3.3627227021241635"><ele>839.6666666666666</ele><time>2026-04-13T16:08:55Z</time></trkpt><trkpt lat="42.894141108699245" lon="-3.3626276259694743"><ele>840.5</ele><time>2026-04-13T16:08:57Z</time></trkpt><trkpt lat="42.89420222046145" lon="-3.3625657902137993"><ele>841.3333333333333</ele><time>2026-04-13T16:08:58Z</time></trkpt><trkpt lat="42.89425914641432" lon="-3.362509249562098"><ele>842.1666666666666</ele><time>2026-04-13T16:08:59Z</time></trkpt><trkpt lat="42.89431335177599" lon="-3.362459983903049"><ele>843.0</ele><time>2026-04-13T16:09:00Z</time></trkpt><trkpt lat="42.89437969660063" lon="-3.3624035810729764"><ele>843.0</ele><time>2026-04-13T16:09:01Z</time></trkpt><trkpt lat="42.89445404243289" lon="-3.3623349474626147"><ele>843.0</ele><time>2026-04-13T16:09:02Z</time></trkpt><trkpt lat="42.894519941521835" lon="-3.362291718256713"><ele>843.0</ele><time>2026-04-13T16:09:03Z</time></trkpt><trkpt lat="42.894589224473165" lon="-3.362241255200141"><ele>843.0</ele><time>2026-04-13T16:09:04Z</time></trkpt><trkpt lat="42.89466860172251" lon="-3.3621689102800385"><ele>843.0</ele><time>2026-04-13T16:09:05Z</time></trkpt><trkpt lat="42.89473597976575" lon="-3.3621102088123878"><ele>843.0</ele><time>2026-04-13T16:09:06Z</time></trkpt><trkpt lat="42.89480041679797" lon="-3.362049320892885"><ele>843.0</ele><time>2026-04-13T16:09:07Z</time></trkpt><trkpt lat="42.89487249652661" lon="-3.3619899188872786"><ele>843.0</ele><time>2026-04-13T16:09:08Z</time></trkpt><trkpt lat="42.89493309634676" lon="-3.361936955783339"><ele>843.0</ele><time>2026-04-13T16:09:09Z</time></trkpt><trkpt lat="42.895004737692695" lon="-3.361891634406715"><ele>843.0</ele><time>2026-04-13T16:09:10Z</time></trkpt><trkpt lat="42.89509564778858" lon="-3.361847845334351"><ele>843.0</ele><time>2026-04-13T16:09:11Z</time></trkpt><trkpt lat="42.89518899349619" lon="-3.361801484266676"><ele>843.0</ele><time>2026-04-13T16:09:12Z</time></trkpt><trkpt lat="42.895278642174425" lon="-3.361753527154684"><ele>843.2</ele><time>2026-04-13T16:09:13Z</time></trkpt><trkpt lat="42.89537225983952" lon="-3.3616984756717474"><ele>843.4</ele><time>2026-04-13T16:09:14Z</time></trkpt><trkpt lat="42.895465773315856" lon="-3.3616495558190755"><ele>843.6</ele><time>2026-04-13T16:09:15Z</time></trkpt><trkpt lat="42.89555814342585" lon="-3.3615986154532194"><ele>843.8000000000001</ele><time>2026-04-13T16:09:16Z</time></trkpt><trkpt lat="42.89564963545792" lon="-3.3615424915802614"><ele>844.0</ele><time>2026-04-13T16:09:17Z</time></trkpt><trkpt lat="42.895745891520626" lon="-3.361488715764378"><ele>844.0</ele><time>2026-04-13T16:09:18Z</time></trkpt><trkpt lat="42.89585627332355" lon="-3.361430912535474"><ele>844.0</ele><time>2026-04-13T16:09:19Z</time></trkpt><trkpt lat="42.895968826627076" lon="-3.361373506187946"><ele>844.0</ele><time>2026-04-13T16:09:20Z</time></trkpt><trkpt lat="42.89607740820357" lon="-3.3613215351648855"><ele>844.0</ele><time>2026-04-13T16:09:21Z</time></trkpt><trkpt lat="42.896181555823645" lon="-3.361265368668046"><ele>842.75</ele><time>2026-04-13T16:09:22Z</time></trkpt><trkpt lat="42.896286355249124" lon="-3.361201296689651"><ele>841.5</ele><time>2026-04-13T16:09:23Z</time></trkpt><trkpt lat="42.89639931589079" lon="-3.361147366616941"><ele>840.25</ele><time>2026-04-13T16:09:24Z</time></trkpt><trkpt lat="42.89651318607326" lon="-3.361088810943545"><ele>839.0</ele><time>2026-04-13T16:09:25Z</time></trkpt><trkpt lat="42.89662886826769" lon="-3.3610281191931954"><ele>839.0</ele><time>2026-04-13T16:09:26Z</time></trkpt><trkpt lat="42.89673855607956" lon="-3.3609713847719305"><ele>839.0</ele><time>2026-04-13T16:09:27Z</time></trkpt><trkpt lat="42.89685733394044" lon="-3.3609055098608325"><ele>839.0</ele><time>2026-04-13T16:09:28Z</time></trkpt><trkpt lat="42.89697164746865" lon="-3.3608383835809104"><ele>839.0</ele><time>2026-04-13T16:09:29Z</time></trkpt><trkpt lat="42.897080021820116" lon="-3.36075510625137"><ele>839.0</ele><time>2026-04-13T16:09:30Z</time></trkpt><trkpt lat="42.8971929757557" lon="-3.3606850236639216"><ele>839.0</ele><time>2026-04-13T16:09:31Z</time></trkpt><trkpt lat="42.897284995749956" lon="-3.360622963664437"><ele>839.0</ele><time>2026-04-13T16:09:32Z</time></trkpt><trkpt lat="42.897359772309905" lon="-3.3605621558769836"><ele>839.0</ele><time>2026-04-13T16:09:33Z</time></trkpt><trkpt lat="42.89742678277231" lon="-3.360483158474687"><ele>839.0</ele><time>2026-04-13T16:09:34Z</time></trkpt><trkpt lat="42.89749516652978" lon="-3.360378145680415"><ele>839.0</ele><time>2026-04-13T16:09:36Z</time></trkpt><trkpt lat="42.89758150894544" lon="-3.3602591938241364"><ele>839.0</ele><time>2026-04-13T16:09:38Z</time></trkpt><trkpt lat="42.89765620401386" lon="-3.3601596649278695"><ele>839.0</ele><time>2026-04-13T16:09:39Z</time></trkpt><trkpt lat="42.89773661042339" lon="-3.3600521126281393"><ele>839.0</ele><time>2026-04-13T16:09:40Z</time></trkpt><trkpt lat="42.897802487336314" lon="-3.3599508655256156"><ele>839.0</ele><time>2026-04-13T16:09:41Z</time></trkpt><trkpt lat="42.89786893562523" lon="-3.359862730457807"><ele>838.8333333333334</ele><time>2026-04-13T16:09:42Z</time></trkpt><trkpt lat="42.897942539444436" lon="-3.3597676341203044"><ele>838.6666666666667</ele><time>2026-04-13T16:09:43Z</time></trkpt><trkpt lat="42.89800398610566" lon="-3.359677465440376"><ele>838.5</ele><time>2026-04-13T16:09:44Z</time></trkpt><trkpt lat="42.898063119002686" lon="-3.359594070635361"><ele>838.3333333333333</ele><time>2026-04-13T16:09:45Z</time></trkpt><trkpt lat="42.898125104376774" lon="-3.359534209486476"><ele>838.1666666666666</ele><time>2026-04-13T16:09:46Z</time></trkpt><trkpt lat="42.89820400912353" lon="-3.3594761724504094"><ele>838.0</ele><time>2026-04-13T16:09:47Z</time></trkpt><trkpt lat="42.89829090357037" lon="-3.3594154238794594"><ele>840.8</ele><time>2026-04-13T16:09:48Z</time></trkpt><trkpt lat="42.89838637659928" lon="-3.3593636319515308"><ele>843.5999999999999</ele><time>2026-04-13T16:09:49Z</time></trkpt><trkpt lat="42.898490130255055" lon="-3.3593194827257618"><ele>846.4000000000001</ele><time>2026-04-13T16:09:50Z</time></trkpt><trkpt lat="42.898600968795385" lon="-3.3592776739419685"><ele>849.2</ele><time>2026-04-13T16:09:51Z</time></trkpt><trkpt lat="42.89870910811066" lon="-3.359228682741992"><ele>852.0</ele><time>2026-04-13T16:09:52Z</time></trkpt><trkpt lat="42.898818092878265" lon="-3.359185745102842"><ele>852.0</ele><time>2026-04-13T16:09:53Z</time></trkpt><trkpt lat="42.89891956711906" lon="-3.359140544211787"><ele>852.0</ele><time>2026-04-13T16:09:54Z</time></trkpt><trkpt lat="42.899015502560864" lon="-3.3591096531918065"><ele>852.0</ele><time>2026-04-13T16:09:55Z</time></trkpt><trkpt lat="42.89912487882068" lon="-3.359080613771455"><ele>852.0</ele><time>2026-04-13T16:09:56Z</time></trkpt><trkpt lat="42.89920504405374" lon="-3.359056887471457"><ele>852.0</ele><time>2026-04-13T16:09:57Z</time></trkpt><trkpt lat="42.89927529766125" lon="-3.3590478151264884"><ele>853.2</ele><time>2026-04-13T16:09:58Z</time></trkpt><trkpt lat="42.89935684525115" lon="-3.3590442441318866"><ele>854.4000000000001</ele><time>2026-04-13T16:09:59Z</time></trkpt><trkpt lat="42.89948721839464" lon="-3.359019560281179"><ele>855.5999999999999</ele><time>2026-04-13T16:10:00Z</time></trkpt><trkpt lat="42.89960594012267" lon="-3.359004128894818"><ele>856.8</ele><time>2026-04-13T16:10:01Z</time></trkpt><trkpt lat="42.89971115314745" lon="-3.35900295227474"><ele>858.0</ele><time>2026-04-13T16:10:02Z</time></trkpt><trkpt lat="42.89978831218476" lon="-3.3590191791905557"><ele>858.0</ele><time>2026-04-13T16:10:03Z</time></trkpt><trkpt lat="42.89986584472122" lon="-3.3590520304002163"><ele>858.0</ele><time>2026-04-13T16:10:04Z</time></trkpt><trkpt lat="42.8999348244816" lon="-3.3591029761943236"><ele>858.0</ele><time>2026-04-13T16:10:05Z</time></trkpt><trkpt lat="42.90000985285975" lon="-3.3591822942903797"><ele>858.0</ele><time>2026-04-13T16:10:06Z</time></trkpt><trkpt lat="42.90008165489814" lon="-3.3592818378964293"><ele>858.0</ele><time>2026-04-13T16:10:07Z</time></trkpt><trkpt lat="42.90012753220272" lon="-3.3593716939792304"><ele>858.0</ele><time>2026-04-13T16:10:08Z</time></trkpt><trkpt lat="42.900191678645065" lon="-3.3594344353567887"><ele>858.8</ele><time>2026-04-13T16:10:09Z</time></trkpt><trkpt lat="42.900257010104276" lon="-3.3594496097208952"><ele>859.5999999999999</ele><time>2026-04-13T16:10:10Z</time></trkpt><trkpt lat="42.9003523578662" lon="-3.35947789196065"><ele>860.4000000000001</ele><time>2026-04-13T16:10:11Z</time></trkpt><trkpt lat="42.900451396972095" lon="-3.3595054668468083"><ele>861.2</ele><time>2026-04-13T16:10:12Z</time></trkpt><trkpt lat="42.900552633245" lon="-3.3595133157509074"><ele>862.0</ele><time>2026-04-13T16:10:13Z</time></trkpt><trkpt lat="42.90065172934351" lon="-3.3595170889303447"><ele>862.0</ele><time>2026-04-13T16:10:14Z</time></trkpt><trkpt lat="42.900770774846414" lon="-3.359508102021818"><ele>862.0</ele><time>2026-04-13T16:10:15Z</time></trkpt><trkpt lat="42.90089512044708" lon="-3.3594995105758456"><ele>862.0</ele><time>2026-04-13T16:10:16Z</time></trkpt><trkpt lat="42.90100067884171" lon="-3.359487826396305"><ele>862.0</ele><time>2026-04-13T16:10:17Z</time></trkpt><trkpt lat="42.9010887022562" lon="-3.359478096794892"><ele>862.0</ele><time>2026-04-13T16:10:18Z</time></trkpt><trkpt lat="42.901190011344404" lon="-3.3594696292219552"><ele>863.25</ele><time>2026-04-13T16:10:19Z</time></trkpt><trkpt lat="42.90129654637144" lon="-3.359456901810196"><ele>864.5</ele><time>2026-04-13T16:10:20Z</time></trkpt><trkpt lat="42.90142177786925" lon="-3.3594412874276065"><ele>865.75</ele><time>2026-04-13T16:10:21Z</time></trkpt><trkpt lat="42.901541778684" lon="-3.359422960863906"><ele>867.0</ele><time>2026-04-13T16:10:22Z</time></trkpt><trkpt lat="42.90164683771623" lon="-3.3594046584853685"><ele>867.0</ele><time>2026-04-13T16:10:23Z</time></trkpt><trkpt lat="42.90173310308813" lon="-3.3594057489653713"><ele>867.0</ele><time>2026-04-13T16:10:24Z</time></trkpt><trkpt lat="42.901813831495105" lon="-3.359414467850124"><ele>867.0</ele><time>2026-04-13T16:10:25Z</time></trkpt><trkpt lat="42.9019111800515" lon="-3.3594415637134403"><ele>867.0</ele><time>2026-04-13T16:10:26Z</time></trkpt><trkpt lat="42.90202445111067" lon="-3.3594706840619115"><ele>867.0</ele><time>2026-04-13T16:10:27Z</time></trkpt><trkpt lat="42.90214271823922" lon="-3.3595066270494724"><ele>869.75</ele><time>2026-04-13T16:10:28Z</time></trkpt><trkpt lat="42.90227591268632" lon="-3.35954038928219"><ele>872.5</ele><time>2026-04-13T16:10:29Z</time></trkpt><trkpt lat="42.90241675379161" lon="-3.3595632497742365"><ele>875.25</ele><time>2026-04-13T16:10:30Z</time></trkpt><trkpt lat="42.90255858129753" lon="-3.3595971111199874"><ele>878.0</ele><time>2026-04-13T16:10:31Z</time></trkpt><trkpt lat="42.90268650044937" lon="-3.3596362920336524"><ele>878.75</ele><time>2026-04-13T16:10:32Z</time></trkpt><trkpt lat="42.90281868721394" lon="-3.3596897892765987"><ele>879.5</ele><time>2026-04-13T16:10:33Z</time></trkpt><trkpt lat="42.902944474850294" lon="-3.3597428682582096"><ele>880.25</ele><time>2026-04-13T16:10:34Z</time></trkpt><trkpt lat="42.90307014481687" lon="-3.359787646947189"><ele>881.0</ele><time>2026-04-13T16:10:35Z</time></trkpt><trkpt lat="42.90320066865046" lon="-3.3598194144349147"><ele>881.4</ele><time>2026-04-13T16:10:36Z</time></trkpt><trkpt lat="42.903320780993106" lon="-3.3598407902483935"><ele>881.8</ele><time>2026-04-13T16:10:37Z</time></trkpt><trkpt lat="42.90341723368025" lon="-3.3598522085661275"><ele>882.1999999999999</ele><time>2026-04-13T16:10:38Z</time></trkpt><trkpt lat="42.903510128024585" lon="-3.359859357281071"><ele>882.5999999999999</ele><time>2026-04-13T16:10:39Z</time></trkpt><trkpt lat="42.90361073922906" lon="-3.359855058921887"><ele>883.0</ele><time>2026-04-13T16:10:40Z</time></trkpt><trkpt lat="42.9037090985697" lon="-3.359846292558577"><ele>884.25</ele><time>2026-04-13T16:10:41Z</time></trkpt><trkpt lat="42.90382909592216" lon="-3.3598364703803387"><ele>885.5</ele><time>2026-04-13T16:10:42Z</time></trkpt><trkpt lat="42.90394840685144" lon="-3.359822385435983"><ele>886.75</ele><time>2026-04-13T16:10:43Z</time></trkpt><trkpt lat="42.90407538528849" lon="-3.3598103855048556"><ele>888.0</ele><time>2026-04-13T16:10:44Z</time></trkpt><trkpt lat="42.90417576460697" lon="-3.359810446742998"><ele>887.3333333333334</ele><time>2026-04-13T16:10:45Z</time></trkpt><trkpt lat="42.9042605567909" lon="-3.359814995580287"><ele>886.6666666666667</ele><time>2026-04-13T16:10:46Z</time></trkpt><trkpt lat="42.90434214454746" lon="-3.3598352798463376"><ele>886.0</ele><time>2026-04-13T16:10:47Z</time></trkpt><trkpt lat="42.904430246445315" lon="-3.359875570482634"><ele>885.3333333333334</ele><time>2026-04-13T16:10:48Z</time></trkpt><trkpt lat="42.90451091465148" lon="-3.3599194354876945"><ele>884.6666666666667</ele><time>2026-04-13T16:10:49Z</time></trkpt><trkpt lat="42.90458754700796" lon="-3.359957924842099"><ele>884.0</ele><time>2026-04-13T16:10:50Z</time></trkpt><trkpt lat="42.9046627374029" lon="-3.359981146708324"><ele>884.0</ele><time>2026-04-13T16:10:51Z</time></trkpt><trkpt lat="42.90473766192616" lon="-3.3600013032387994"><ele>884.0000000000001</ele><time>2026-04-13T16:10:52Z</time></trkpt><trkpt lat="42.904801221286306" lon="-3.3600218274683367"><ele>884.0000000000001</ele><time>2026-04-13T16:10:53Z</time></trkpt><trkpt lat="42.904922950692445" lon="-3.3600426481815204"><ele>884.0</ele><time>2026-04-13T16:10:55Z</time></trkpt><trkpt lat="42.90500881271034" lon="-3.360078161724988"><ele>884.0</ele><time>2026-04-13T16:10:56Z</time></trkpt><trkpt lat="42.90512403752077" lon="-3.3601153476606704"><ele>884.2</ele><time>2026-04-13T16:10:57Z</time></trkpt><trkpt lat="42.905239627489124" lon="-3.360153359376622"><ele>884.4000000000001</ele><time>2026-04-13T16:10:58Z</time></trkpt><trkpt lat="42.905345936078234" lon="-3.360181382381751"><ele>884.6</ele><time>2026-04-13T16:10:59Z</time></trkpt><trkpt lat="42.90544450575932" lon="-3.360188370686419"><ele>884.8</ele><time>2026-04-13T16:11:00Z</time></trkpt><trkpt lat="42.905540669108184" lon="-3.360166261575401"><ele>885.0</ele><time>2026-04-13T16:11:01Z</time></trkpt><trkpt lat="42.90563262037651" lon="-3.360119851487999"><ele>885.0</ele><time>2026-04-13T16:11:02Z</time></trkpt><trkpt lat="42.9057427670977" lon="-3.360064799098558"><ele>885.0</ele><time>2026-04-13T16:11:03Z</time></trkpt><trkpt lat="42.9058644226739" lon="-3.3600123723937285"><ele>885.0</ele><time>2026-04-13T16:11:04Z</time></trkpt><trkpt lat="42.906002171614176" lon="-3.35995739141027"><ele>885.0</ele><time>2026-04-13T16:11:05Z</time></trkpt><trkpt lat="42.90612572763401" lon="-3.359895739801646"><ele>886.0</ele><time>2026-04-13T16:11:06Z</time></trkpt><trkpt lat="42.90626800682678" lon="-3.359832414358627"><ele>887.0</ele><time>2026-04-13T16:11:07Z</time></trkpt><trkpt lat="42.9063796745155" lon="-3.359789061698892"><ele>888.0</ele><time>2026-04-13T16:11:08Z</time></trkpt><trkpt lat="42.9064800014575" lon="-3.359754827525839"><ele>889.0</ele><time>2026-04-13T16:11:09Z</time></trkpt><trkpt lat="42.906574122927516" lon="-3.359710100889407"><ele>888.75</ele><time>2026-04-13T16:11:10Z</time></trkpt><trkpt lat="42.906673088430985" lon="-3.3596378932871565"><ele>888.5</ele><time>2026-04-13T16:11:11Z</time></trkpt><trkpt lat="42.90677826076901" lon="-3.3595535760621758"><ele>888.25</ele><time>2026-04-13T16:11:12Z</time></trkpt><trkpt lat="42.9069031394149" lon="-3.359493058284644"><ele>888.0</ele><time>2026-04-13T16:11:13Z</time></trkpt><trkpt lat="42.9070415676059" lon="-3.3594272058925037"><ele>889.3333333333333</ele><time>2026-04-13T16:11:14Z</time></trkpt><trkpt lat="42.90718063862185" lon="-3.3593474345955348"><ele>890.6666666666666</ele><time>2026-04-13T16:11:15Z</time></trkpt><trkpt lat="42.90733971509311" lon="-3.35925124181813"><ele>892.0</ele><time>2026-04-13T16:11:16Z</time></trkpt><trkpt lat="42.907477145381" lon="-3.3591708425591023"><ele>892.75</ele><time>2026-04-13T16:11:17Z</time></trkpt><trkpt lat="42.90761529978939" lon="-3.3590841608376354"><ele>893.5</ele><time>2026-04-13T16:11:18Z</time></trkpt><trkpt lat="42.90773925972017" lon="-3.3589912957462817"><ele>894.25</ele><time>2026-04-13T16:11:19Z</time></trkpt><trkpt lat="42.907846804528624" lon="-3.3588800597184756"><ele>895.0</ele><time>2026-04-13T16:11:20Z</time></trkpt><trkpt lat="42.90794338480464" lon="-3.3587584804929396"><ele>895.0</ele><time>2026-04-13T16:11:21Z</time></trkpt><trkpt lat="42.908041636741764" lon="-3.3586418386043664"><ele>895.0</ele><time>2026-04-13T16:11:22Z</time></trkpt><trkpt lat="42.90814895996447" lon="-3.3585453429640912"><ele>895.0</ele><time>2026-04-13T16:11:23Z</time></trkpt><trkpt lat="42.90826837515699" lon="-3.35846462316248"><ele>895.0</ele><time>2026-04-13T16:11:24Z</time></trkpt><trkpt lat="42.90837704440675" lon="-3.3583781837108657"><ele>895.5</ele><time>2026-04-13T16:11:25Z</time></trkpt><trkpt lat="42.908472315406975" lon="-3.358325444984401"><ele>896.0</ele><time>2026-04-13T16:11:26Z</time></trkpt><trkpt lat="42.90857289522813" lon="-3.3582628731501525"><ele>896.5</ele><time>2026-04-13T16:11:27Z</time></trkpt><trkpt lat="42.90868703232221" lon="-3.3582207656328613"><ele>897.0</ele><time>2026-04-13T16:11:28Z</time></trkpt><trkpt lat="42.90880678189584" lon="-3.3581836066175352"><ele>897.0</ele><time>2026-04-13T16:11:29Z</time></trkpt><trkpt lat="42.90891089777847" lon="-3.358143875198696"><ele>897.0</ele><time>2026-04-13T16:11:30Z</time></trkpt><trkpt lat="42.90901460250307" lon="-3.3581004361079443"><ele>897.0</ele><time>2026-04-13T16:11:31Z</time></trkpt><trkpt lat="42.90912779952045" lon="-3.3580540729298853"><ele>897.0</ele><time>2026-04-13T16:11:32Z</time></trkpt><trkpt lat="42.90923006440213" lon="-3.35801666407769"><ele>897.0</ele><time>2026-04-13T16:11:33Z</time></trkpt><trkpt lat="42.90932392440843" lon="-3.358000753571691"><ele>897.0</ele><time>2026-04-13T16:11:34Z</time></trkpt><trkpt lat="42.9094266745803" lon="-3.3579975721882755"><ele>897.0</ele><time>2026-04-13T16:11:35Z</time></trkpt><trkpt lat="42.90954546625006" lon="-3.3579899598812073"><ele>897.0</ele><time>2026-04-13T16:11:36Z</time></trkpt><trkpt lat="42.909646579715705" lon="-3.3579539767251565"><ele>897.0</ele><time>2026-04-13T16:11:37Z</time></trkpt><trkpt lat="42.90976540366761" lon="-3.3578713980549377"><ele>897.0</ele><time>2026-04-13T16:11:38Z</time></trkpt><trkpt lat="42.909891396847854" lon="-3.3577834604637684"><ele>897.0</ele><time>2026-04-13T16:11:39Z</time></trkpt><trkpt lat="42.91003635697709" lon="-3.357685292549832"><ele>897.0</ele><time>2026-04-13T16:11:40Z</time></trkpt><trkpt lat="42.910198747291105" lon="-3.357572112383865"><ele>898.25</ele><time>2026-04-13T16:11:41Z</time></trkpt><trkpt lat="42.91035447809833" lon="-3.3574611534175975"><ele>899.5</ele><time>2026-04-13T16:11:42Z</time></trkpt><trkpt lat="42.910454677582386" lon="-3.357368483027315"><ele>900.75</ele><time>2026-04-13T16:11:43Z</time></trkpt><trkpt lat="42.91053106701071" lon="-3.3573004983050128"><ele>902.0</ele><time>2026-04-13T16:11:44Z</time></trkpt><trkpt lat="42.91059847867899" lon="-3.3572304761447946"><ele>901.3333333333334</ele><time>2026-04-13T16:11:45Z</time></trkpt><trkpt lat="42.91066629428198" lon="-3.3571501701641466"><ele>900.6666666666667</ele><time>2026-04-13T16:11:46Z</time></trkpt><trkpt lat="42.91072142745135" lon="-3.3570660111271873"><ele>900.0</ele><time>2026-04-13T16:11:47Z</time></trkpt><trkpt lat="42.91076803927337" lon="-3.356970108179948"><ele>899.3333333333333</ele><time>2026-04-13T16:11:48Z</time></trkpt><trkpt lat="42.910806959163054" lon="-3.356866056108182"><ele>898.6666666666666</ele><time>2026-04-13T16:11:49Z</time></trkpt><trkpt lat="42.910839169571766" lon="-3.356771756443684"><ele>898.0</ele><time>2026-04-13T16:11:50Z</time></trkpt><trkpt lat="42.91086752723014" lon="-3.3566918907785985"><ele>897.9999999999999</ele><time>2026-04-13T16:11:51Z</time></trkpt><trkpt lat="42.910883036332564" lon="-3.3565996668082794"><ele>898.0</ele><time>2026-04-13T16:11:54Z</time></trkpt><trkpt lat="42.91095081152476" lon="-3.356538737294006"><ele>898.0</ele><time>2026-04-13T16:12:12Z</time></trkpt><trkpt lat="42.911033748276445" lon="-3.356558212796621"><ele>898.0</ele><time>2026-04-13T16:12:14Z</time></trkpt><trkpt lat="42.91114135105781" lon="-3.3565286675641928"><ele>897.9999999999999</ele><time>2026-04-13T16:12:16Z</time></trkpt><trkpt lat="42.91119181248182" lon="-3.356464164265027"><ele>898.0</ele><time>2026-04-13T16:12:17Z</time></trkpt><trkpt lat="42.91122136097262" lon="-3.3563765566688595"><ele>898.0</ele><time>2026-04-13T16:12:18Z</time></trkpt><trkpt lat="42.91127055042789" lon="-3.356294220652789"><ele>897.9999999999999</ele><time>2026-04-13T16:12:19Z</time></trkpt><trkpt lat="42.911320072888195" lon="-3.356208080137856"><ele>898.0</ele><time>2026-04-13T16:12:20Z</time></trkpt><trkpt lat="42.91137482328991" lon="-3.35613566877026"><ele>898.0</ele><time>2026-04-13T16:12:21Z</time></trkpt><trkpt lat="42.91143855146169" lon="-3.356101207812588"><ele>897.9999999999999</ele><time>2026-04-13T16:12:22Z</time></trkpt><trkpt lat="42.91149733705903" lon="-3.3560587557402766"><ele>898.0</ele><time>2026-04-13T16:12:23Z</time></trkpt><trkpt lat="42.91157363446438" lon="-3.356042176973881"><ele>898.0</ele><time>2026-04-13T16:12:24Z</time></trkpt><trkpt lat="42.91166361942852" lon="-3.3560516612187956"><ele>897.4</ele><time>2026-04-13T16:12:25Z</time></trkpt><trkpt lat="42.911769310277144" lon="-3.356072531444941"><ele>896.8</ele><time>2026-04-13T16:12:26Z</time></trkpt><trkpt lat="42.911868865767865" lon="-3.3560874158707255"><ele>896.2</ele><time>2026-04-13T16:12:27Z</time></trkpt><trkpt lat="42.911964383163" lon="-3.3560759572127252"><ele>895.6</ele><time>2026-04-13T16:12:28Z</time></trkpt><trkpt lat="42.91206591856001" lon="-3.356035914715999"><ele>895.0</ele><time>2026-04-13T16:12:29Z</time></trkpt><trkpt lat="42.912173887989454" lon="-3.355980243206215"><ele>895.0</ele><time>2026-04-13T16:12:30Z</time></trkpt><trkpt lat="42.91229349604346" lon="-3.3559260520461742"><ele>895.0</ele><time>2026-04-13T16:12:31Z</time></trkpt><trkpt lat="42.912400529558624" lon="-3.3558842381717895"><ele>895.0</ele><time>2026-04-13T16:12:32Z</time></trkpt><trkpt lat="42.91247151024449" lon="-3.355855598591952"><ele>895.0</ele><time>2026-04-13T16:12:33Z</time></trkpt><trkpt lat="42.912571005562384" lon="-3.355839937115839"><ele>895.0</ele><time>2026-04-13T16:12:35Z</time></trkpt><trkpt lat="42.912649319812985" lon="-3.3558765175098753"><ele>895.0</ele><time>2026-04-13T16:12:37Z</time></trkpt><trkpt lat="42.91267796740083" lon="-3.3560106791948314"><ele>895.0</ele><time>2026-04-13T16:12:39Z</time></trkpt><trkpt lat="42.91263316033464" lon="-3.3561301975519284"><ele>895.0</ele><time>2026-04-13T16:12:40Z</time></trkpt><trkpt lat="42.91256843077987" lon="-3.356197060759171"><ele>895.0</ele><time>2026-04-13T16:12:41Z</time></trkpt><trkpt lat="42.91246751434746" lon="-3.3562035163618207"><ele>895.0</ele><time>2026-04-13T16:12:42Z</time></trkpt><trkpt lat="42.91236288255006" lon="-3.3562248887678034"><ele>895.0</ele><time>2026-04-13T16:12:43Z</time></trkpt><trkpt lat="42.91226818391129" lon="-3.3562873547360583"><ele>895.0</ele><time>2026-04-13T16:12:44Z</time></trkpt><trkpt lat="42.912189817763064" lon="-3.3563238471783468"><ele>895.0</ele><time>2026-04-13T16:12:45Z</time></trkpt><trkpt lat="42.91212101325035" lon="-3.3563569800593926"><ele>895.0</ele><time>2026-04-13T16:12:46Z</time></trkpt><trkpt lat="42.9120589827794" lon="-3.356400367102067"><ele>895.0</ele><time>2026-04-13T16:12:47Z</time></trkpt><trkpt lat="42.91196424898521" lon="-3.35655011885285"><ele>893.25</ele><time>2026-04-13T16:12:49Z</time></trkpt><trkpt lat="42.91189393698485" lon="-3.356685487291498"><ele>891.5</ele><time>2026-04-13T16:12:50Z</time></trkpt><trkpt lat="42.9118198839078" lon="-3.356819338638928"><ele>889.75</ele><time>2026-04-13T16:12:51Z</time></trkpt><trkpt lat="42.911776037665305" lon="-3.3569599185222496"><ele>888.0</ele><time>2026-04-13T16:12:52Z</time></trkpt><trkpt lat="42.911730966663306" lon="-3.3570944106423086"><ele>886.2</ele><time>2026-04-13T16:12:53Z</time></trkpt><trkpt lat="42.91167907088899" lon="-3.3572247110466695"><ele>884.4</ele><time>2026-04-13T16:12:54Z</time></trkpt><trkpt lat="42.91163456081088" lon="-3.3573422231439527"><ele>882.6000000000001</ele><time>2026-04-13T16:12:55Z</time></trkpt><trkpt lat="42.91159781691343" lon="-3.357451058404193"><ele>880.8000000000001</ele><time>2026-04-13T16:12:56Z</time></trkpt><trkpt lat="42.91158020877981" lon="-3.357574909733704"><ele>879.0</ele><time>2026-04-13T16:12:57Z</time></trkpt><trkpt lat="42.911582866029455" lon="-3.357717967729746"><ele>879.0</ele><time>2026-04-13T16:12:58Z</time></trkpt><trkpt lat="42.911609051091965" lon="-3.3578619958940292"><ele>879.0000000000001</ele><time>2026-04-13T16:12:59Z</time></trkpt><trkpt lat="42.91164053612727" lon="-3.35800585739437"><ele>879.0000000000001</ele><time>2026-04-13T16:13:00Z</time></trkpt><trkpt lat="42.911668432978146" lon="-3.3581401490031006"><ele>879.0</ele><time>2026-04-13T16:13:01Z</time></trkpt><trkpt lat="42.911691727038956" lon="-3.3582715734342994"><ele>879.0</ele><time>2026-04-13T16:13:02Z</time></trkpt><trkpt lat="42.911707411744985" lon="-3.3583929850263066"><ele>878.1666666666666</ele><time>2026-04-13T16:13:03Z</time></trkpt><trkpt lat="42.91172767817773" lon="-3.3585054557335696"><ele>877.3333333333333</ele><time>2026-04-13T16:13:04Z</time></trkpt><trkpt lat="42.91174625877548" lon="-3.358610502420597"><ele>876.5</ele><time>2026-04-13T16:13:05Z</time></trkpt><trkpt lat="42.911765004671096" lon="-3.3587403069724195"><ele>875.6666666666666</ele><time>2026-04-13T16:13:06Z</time></trkpt><trkpt lat="42.91179112425981" lon="-3.358865222240338"><ele>874.8333333333333</ele><time>2026-04-13T16:13:07Z</time></trkpt><trkpt lat="42.91181223601058" lon="-3.358971917558889"><ele>874.0</ele><time>2026-04-13T16:13:08Z</time></trkpt><trkpt lat="42.91183210454471" lon="-3.3590647962009634"><ele>872.6</ele><time>2026-04-13T16:13:09Z</time></trkpt><trkpt lat="42.91184592979626" lon="-3.359223807151426"><ele>871.2</ele><time>2026-04-13T16:13:11Z</time></trkpt><trkpt lat="42.91178951425143" lon="-3.359362350397271"><ele>869.8000000000001</ele><time>2026-04-13T16:13:13Z</time></trkpt><trkpt lat="42.91172678599007" lon="-3.359430710388997"><ele>868.4000000000001</ele><time>2026-04-13T16:13:14Z</time></trkpt><trkpt lat="42.91164935912614" lon="-3.3595093368277182"><ele>867.0</ele><time>2026-04-13T16:13:15Z</time></trkpt><trkpt lat="42.91158213436777" lon="-3.3595823854782476"><ele>867.0</ele><time>2026-04-13T16:13:16Z</time></trkpt><trkpt lat="42.91153530090129" lon="-3.3596480280454823"><ele>867.0</ele><time>2026-04-13T16:13:17Z</time></trkpt><trkpt lat="42.911510923019044" lon="-3.359778735907684"><ele>867.0</ele><time>2026-04-13T16:13:19Z</time></trkpt><trkpt lat="42.911582978564276" lon="-3.35989857117741"><ele>867.0</ele><time>2026-04-13T16:13:21Z</time></trkpt><trkpt lat="42.91166127897713" lon="-3.3599285190955905"><ele>867.0</ele><time>2026-04-13T16:13:22Z</time></trkpt><trkpt lat="42.91176200112781" lon="-3.3599310461682403"><ele>862.4000000000001</ele><time>2026-04-13T16:13:23Z</time></trkpt><trkpt lat="42.91185903302246" lon="-3.359909389078723"><ele>857.8000000000001</ele><time>2026-04-13T16:13:24Z</time></trkpt><trkpt lat="42.91192614287723" lon="-3.3598994374774027"><ele>853.2</ele><time>2026-04-13T16:13:25Z</time></trkpt><trkpt lat="42.91203166385642" lon="-3.3599340898400594"><ele>848.6</ele><time>2026-04-13T16:13:27Z</time></trkpt><trkpt lat="42.91209774566447" lon="-3.360006980829529"><ele>844.0</ele><time>2026-04-13T16:13:28Z</time></trkpt><trkpt lat="42.91215854017423" lon="-3.360103992767402"><ele>844.0</ele><time>2026-04-13T16:13:29Z</time></trkpt><trkpt lat="42.91221759835706" lon="-3.360210119847574"><ele>844.0</ele><time>2026-04-13T16:13:30Z</time></trkpt><trkpt lat="42.9122925372836" lon="-3.360329247113206"><ele>844.0</ele><time>2026-04-13T16:13:31Z</time></trkpt><trkpt lat="42.912375705201754" lon="-3.360445467463794"><ele>844.0</ele><time>2026-04-13T16:13:32Z</time></trkpt><trkpt lat="42.9124583310017" lon="-3.3605666194603545"><ele>845.2</ele><time>2026-04-13T16:13:33Z</time></trkpt><trkpt lat="42.91253502269552" lon="-3.360681245200518"><ele>846.4000000000001</ele><time>2026-04-13T16:13:34Z</time></trkpt><trkpt lat="42.91261752635292" lon="-3.360774433548452"><ele>847.6</ele><time>2026-04-13T16:13:35Z</time></trkpt><trkpt lat="42.91270554724794" lon="-3.360853969776138"><ele>848.8</ele><time>2026-04-13T16:13:36Z</time></trkpt><trkpt lat="42.91279198663037" lon="-3.3609199788460398"><ele>850.0</ele><time>2026-04-13T16:13:37Z</time></trkpt><trkpt lat="42.91287575039891" lon="-3.3609849536637126"><ele>846.6</ele><time>2026-04-13T16:13:38Z</time></trkpt><trkpt lat="42.91296007751773" lon="-3.361049839547745"><ele>843.2</ele><time>2026-04-13T16:13:39Z</time></trkpt><trkpt lat="42.91304175014521" lon="-3.361116963895604"><ele>839.8</ele><time>2026-04-13T16:13:40Z</time></trkpt><trkpt lat="42.913117362489764" lon="-3.36116487677845"><ele>836.4</ele><time>2026-04-13T16:13:41Z</time></trkpt><trkpt lat="42.91319193689863" lon="-3.3612442338758526"><ele>833.0</ele><time>2026-04-13T16:13:42Z</time></trkpt><trkpt lat="42.9132469607864" lon="-3.361328102487645"><ele>833.2</ele><time>2026-04-13T16:13:43Z</time></trkpt><trkpt lat="42.91331287084539" lon="-3.36142471483118"><ele>833.4</ele><time>2026-04-13T16:13:44Z</time></trkpt><trkpt lat="42.91338740369361" lon="-3.3615114295377997"><ele>833.6</ele><time>2026-04-13T16:13:45Z</time></trkpt><trkpt lat="42.91343506006429" lon="-3.3616054953454726"><ele>833.8000000000001</ele><time>2026-04-13T16:13:46Z</time></trkpt><trkpt lat="42.9134948548843" lon="-3.361720892133492"><ele>834.0</ele><time>2026-04-13T16:13:47Z</time></trkpt><trkpt lat="42.913550168003525" lon="-3.3618572558859032"><ele>831.25</ele><time>2026-04-13T16:13:48Z</time></trkpt><trkpt lat="42.91360150109617" lon="-3.3620267910305106"><ele>828.5</ele><time>2026-04-13T16:13:49Z</time></trkpt><trkpt lat="42.91365265331279" lon="-3.362225221939541"><ele>825.75</ele><time>2026-04-13T16:13:50Z</time></trkpt><trkpt lat="42.913699826489896" lon="-3.3623952467791796"><ele>823.0</ele><time>2026-04-13T16:13:51Z</time></trkpt><trkpt lat="42.91374807999471" lon="-3.3625431542271764"><ele>821.25</ele><time>2026-04-13T16:13:52Z</time></trkpt><trkpt lat="42.913801433658854" lon="-3.3626814794900737"><ele>819.5</ele><time>2026-04-13T16:13:53Z</time></trkpt><trkpt lat="42.913874440967994" lon="-3.3628199670302705"><ele>817.75</ele><time>2026-04-13T16:13:54Z</time></trkpt><trkpt lat="42.913948876859244" lon="-3.362964074575391"><ele>816.0</ele><time>2026-04-13T16:13:55Z</time></trkpt><trkpt lat="42.9140136575402" lon="-3.3631219186324586"><ele>816.0</ele><time>2026-04-13T16:13:56Z</time></trkpt><trkpt lat="42.91408645404386" lon="-3.3632669096680248"><ele>816.0</ele><time>2026-04-13T16:13:57Z</time></trkpt><trkpt lat="42.91414215756724" lon="-3.363401885718107"><ele>816.0</ele><time>2026-04-13T16:13:58Z</time></trkpt><trkpt lat="42.91419720836507" lon="-3.363528080662343"><ele>816.0</ele><time>2026-04-13T16:13:59Z</time></trkpt><trkpt lat="42.91424968639521" lon="-3.3636476656452268"><ele>814.6666666666666</ele><time>2026-04-13T16:14:00Z</time></trkpt><trkpt lat="42.91429537725056" lon="-3.36375766863498"><ele>813.3333333333333</ele><time>2026-04-13T16:14:01Z</time></trkpt><trkpt lat="42.9143403970719" lon="-3.3638624812773"><ele>812.0</ele><time>2026-04-13T16:14:02Z</time></trkpt><trkpt lat="42.91438322438647" lon="-3.3639656576580816"><ele>810.6666666666666</ele><time>2026-04-13T16:14:03Z</time></trkpt><trkpt lat="42.914425645988516" lon="-3.3640698740632002"><ele>809.3333333333333</ele><time>2026-04-13T16:14:04Z</time></trkpt><trkpt lat="42.91448352190686" lon="-3.3641565614742075"><ele>808.0</ele><time>2026-04-13T16:14:05Z</time></trkpt><trkpt lat="42.914502315797336" lon="-3.3642495809521953"><ele>807.25</ele><time>2026-04-13T16:14:06Z</time></trkpt><trkpt lat="42.91453274630678" lon="-3.3643996404282235"><ele>806.5</ele><time>2026-04-13T16:14:08Z</time></trkpt><trkpt lat="42.91452059485347" lon="-3.364568469430588"><ele>805.75</ele><time>2026-04-13T16:14:10Z</time></trkpt><trkpt lat="42.914531217592966" lon="-3.3647318950385836"><ele>805.0</ele><time>2026-04-13T16:14:12Z</time></trkpt><trkpt lat="42.91462970460618" lon="-3.3647793532871937"><ele>805.0</ele><time>2026-04-13T16:14:14Z</time></trkpt><trkpt lat="42.914719690345144" lon="-3.3647428924410354"><ele>805.0</ele><time>2026-04-13T16:14:16Z</time></trkpt><trkpt lat="42.91479893954316" lon="-3.364647099046286"><ele>805.0</ele><time>2026-04-13T16:14:18Z</time></trkpt><trkpt lat="42.91487107583082" lon="-3.364577393407462"><ele>805.0</ele><time>2026-04-13T16:14:20Z</time></trkpt><trkpt lat="42.9149520248792" lon="-3.3645581320685416"><ele>805.0</ele><time>2026-04-13T16:14:22Z</time></trkpt><trkpt lat="42.91505999620536" lon="-3.364607936010199"><ele>805.4</ele><time>2026-04-13T16:14:24Z</time></trkpt><trkpt lat="42.91514612983444" lon="-3.3646694913204813"><ele>805.8</ele><time>2026-04-13T16:14:26Z</time></trkpt><trkpt lat="42.91522712491645" lon="-3.3647166727621496"><ele>806.2</ele><time>2026-04-13T16:14:28Z</time></trkpt><trkpt lat="42.91530034289429" lon="-3.364764249599518"><ele>806.6</ele><time>2026-04-13T16:14:45Z</time></trkpt><trkpt lat="42.915422248383535" lon="-3.364880986111406"><ele>807.0</ele><time>2026-04-13T16:14:47Z</time></trkpt><trkpt lat="42.91550468143795" lon="-3.3649592139771927"><ele>805.5</ele><time>2026-04-13T16:14:48Z</time></trkpt><trkpt lat="42.91559569827169" lon="-3.365050942726351"><ele>804.0</ele><time>2026-04-13T16:14:49Z</time></trkpt><trkpt lat="42.91569043981805" lon="-3.3651603533671475"><ele>802.5</ele><time>2026-04-13T16:14:50Z</time></trkpt><trkpt lat="42.9157974142138" lon="-3.365281120406379"><ele>801.0</ele><time>2026-04-13T16:14:51Z</time></trkpt><trkpt lat="42.91591781819051" lon="-3.365421984016368"><ele>797.3333333333333</ele><time>2026-04-13T16:14:52Z</time></trkpt><trkpt lat="42.91603999793039" lon="-3.365558196229574"><ele>793.6666666666666</ele><time>2026-04-13T16:14:53Z</time></trkpt><trkpt lat="42.91615674622175" lon="-3.3656877525836055"><ele>790.0</ele><time>2026-04-13T16:14:54Z</time></trkpt><trkpt lat="42.916267190115946" lon="-3.3658092416466823"><ele>790.0</ele><time>2026-04-13T16:14:55Z</time></trkpt><trkpt lat="42.91637635069302" lon="-3.365929991559056"><ele>790.0</ele><time>2026-04-13T16:14:56Z</time></trkpt><trkpt lat="42.91647036797588" lon="-3.3660370985522854"><ele>790.0</ele><time>2026-04-13T16:14:57Z</time></trkpt><trkpt lat="42.916542968728436" lon="-3.366126795570994"><ele>790.0</ele><time>2026-04-13T16:14:58Z</time></trkpt><trkpt lat="42.916620302715955" lon="-3.3662212159456586"><ele>790.0</ele><time>2026-04-13T16:14:59Z</time></trkpt><trkpt lat="42.91670392384119" lon="-3.3663464766409685"><ele>790.0</ele><time>2026-04-13T16:15:00Z</time></trkpt><trkpt lat="42.916794028527" lon="-3.366511229399816"><ele>790.0</ele><time>2026-04-13T16:15:01Z</time></trkpt><trkpt lat="42.916898449692994" lon="-3.3667053890949674"><ele>789.3333333333333</ele><time>2026-04-13T16:15:02Z</time></trkpt><trkpt lat="42.91700469575688" lon="-3.366881812334252"><ele>788.6666666666667</ele><time>2026-04-13T16:15:03Z</time></trkpt><trkpt lat="42.91709967906711" lon="-3.3670434164317795"><ele>788.0</ele><time>2026-04-13T16:15:04Z</time></trkpt><trkpt lat="42.91717826935509" lon="-3.3671941926997495"><ele>786.5</ele><time>2026-04-13T16:15:05Z</time></trkpt><trkpt lat="42.91726070709576" lon="-3.3673492284041457"><ele>785.0</ele><time>2026-04-13T16:15:06Z</time></trkpt><trkpt lat="42.91735068586791" lon="-3.367506559121897"><ele>783.5</ele><time>2026-04-13T16:15:07Z</time></trkpt><trkpt lat="42.91744840442224" lon="-3.3676653935024596"><ele>782.0</ele><time>2026-04-13T16:15:08Z</time></trkpt><trkpt lat="42.9175464642136" lon="-3.367808216783892"><ele>781.25</ele><time>2026-04-13T16:15:09Z</time></trkpt><trkpt lat="42.91764235387454" lon="-3.3679355512908495"><ele>780.5</ele><time>2026-04-13T16:15:10Z</time></trkpt><trkpt lat="42.917728178343715" lon="-3.3680392980500478"><ele>779.75</ele><time>2026-04-13T16:15:11Z</time></trkpt><trkpt lat="42.917803009861004" lon="-3.368126145507706"><ele>779.0</ele><time>2026-04-13T16:15:12Z</time></trkpt><trkpt lat="42.91788116472901" lon="-3.3682235669275626"><ele>779.0</ele><time>2026-04-13T16:15:13Z</time></trkpt><trkpt lat="42.91795087172915" lon="-3.3683530467834397"><ele>779.0</ele><time>2026-04-13T16:15:14Z</time></trkpt><trkpt lat="42.91800148290036" lon="-3.368488059683292"><ele>779.0</ele><time>2026-04-13T16:15:15Z</time></trkpt><trkpt lat="42.918048327292475" lon="-3.368660371076822"><ele>779.0</ele><time>2026-04-13T16:15:16Z</time></trkpt><trkpt lat="42.918111787177594" lon="-3.3688646368093615"><ele>777.3333333333334</ele><time>2026-04-13T16:15:17Z</time></trkpt><trkpt lat="42.918182992016554" lon="-3.3690709327099593"><ele>775.6666666666667</ele><time>2026-04-13T16:15:18Z</time></trkpt><trkpt lat="42.91825297609485" lon="-3.3692794850049643"><ele>774.0</ele><time>2026-04-13T16:15:19Z</time></trkpt><trkpt lat="42.918317344540974" lon="-3.3694748286912173"><ele>774.0</ele><time>2026-04-13T16:15:20Z</time></trkpt><trkpt lat="42.918371346301754" lon="-3.3696438277794445"><ele>774.0</ele><time>2026-04-13T16:15:21Z</time></trkpt><trkpt lat="42.91841366125467" lon="-3.3697774345134115"><ele>774.0</ele><time>2026-04-13T16:15:22Z</time></trkpt><trkpt lat="42.91846560933431" lon="-3.3698958964743024"><ele>774.0</ele><time>2026-04-13T16:15:23Z</time></trkpt><trkpt lat="42.918529328638144" lon="-3.3700211457493556"><ele>773.5</ele><time>2026-04-13T16:15:24Z</time></trkpt><trkpt lat="42.91860566640194" lon="-3.3701607692564437"><ele>773.0</ele><time>2026-04-13T16:15:25Z</time></trkpt><trkpt lat="42.91869358587706" lon="-3.3703110335999007"><ele>772.5</ele><time>2026-04-13T16:15:26Z</time></trkpt><trkpt lat="42.9187861042758" lon="-3.3704747668129755"><ele>772.0</ele><time>2026-04-13T16:15:27Z</time></trkpt><trkpt lat="42.91888041639883" lon="-3.370626872225697"><ele>770.0</ele><time>2026-04-13T16:15:28Z</time></trkpt><trkpt lat="42.91898306289728" lon="-3.370758001461639"><ele>768.0</ele><time>2026-04-13T16:15:29Z</time></trkpt><trkpt lat="42.91906876534082" lon="-3.370925825825994"><ele>766.0</ele><time>2026-04-13T16:15:30Z</time></trkpt><trkpt lat="42.91917886760247" lon="-3.3710987422728413"><ele>766.75</ele><time>2026-04-13T16:15:31Z</time></trkpt><trkpt lat="42.91927058195616" lon="-3.3712411465168515"><ele>767.5</ele><time>2026-04-13T16:15:32Z</time></trkpt><trkpt lat="42.91935511335774" lon="-3.3713805904159853"><ele>768.25</ele><time>2026-04-13T16:15:33Z</time></trkpt><trkpt lat="42.91943094427301" lon="-3.3715109753604104"><ele>769.0</ele><time>2026-04-13T16:15:34Z</time></trkpt><trkpt lat="42.919500889103375" lon="-3.371641203048256"><ele>769.0</ele><time>2026-04-13T16:15:35Z</time></trkpt><trkpt lat="42.91957671260417" lon="-3.3717992747716066"><ele>769.0</ele><time>2026-04-13T16:15:36Z</time></trkpt><trkpt lat="42.919645769355355" lon="-3.371980949643453"><ele>769.0</ele><time>2026-04-13T16:15:37Z</time></trkpt><trkpt lat="42.919703378853804" lon="-3.3721703507381835"><ele>769.0</ele><time>2026-04-13T16:15:38Z</time></trkpt><trkpt lat="42.919751699415954" lon="-3.3723759483948026"><ele>767.0</ele><time>2026-04-13T16:15:39Z</time></trkpt><trkpt lat="42.91980659380415" lon="-3.3725972924359486"><ele>765.0</ele><time>2026-04-13T16:15:40Z</time></trkpt><trkpt lat="42.91987569879168" lon="-3.3728033124549555"><ele>763.0</ele><time>2026-04-13T16:15:41Z</time></trkpt><trkpt lat="42.91992926007704" lon="-3.37297946650924"><ele>762.0</ele><time>2026-04-13T16:15:42Z</time></trkpt><trkpt lat="42.91999081550492" lon="-3.3731704037322445"><ele>761.0</ele><time>2026-04-13T16:15:43Z</time></trkpt><trkpt lat="42.92005127698101" lon="-3.3733566583775954"><ele>760.0</ele><time>2026-04-13T16:15:44Z</time></trkpt><trkpt lat="42.92011837227239" lon="-3.37356254412657"><ele>760.0</ele><time>2026-04-13T16:15:45Z</time></trkpt><trkpt lat="42.92019472501246" lon="-3.373745643529738"><ele>760.0</ele><time>2026-04-13T16:15:46Z</time></trkpt><trkpt lat="42.920253870495344" lon="-3.373912757862981"><ele>760.0</ele><time>2026-04-13T16:15:47Z</time></trkpt><trkpt lat="42.9203167248017" lon="-3.3740540611026724"><ele>760.0</ele><time>2026-04-13T16:15:48Z</time></trkpt><trkpt lat="42.92035649051742" lon="-3.3742005557858303"><ele>760.0</ele><time>2026-04-13T16:15:49Z</time></trkpt><trkpt lat="42.92039111747963" lon="-3.374359385803736"><ele>760.0</ele><time>2026-04-13T16:15:50Z</time></trkpt><trkpt lat="42.92041901310288" lon="-3.37452764981535"><ele>760.0</ele><time>2026-04-13T16:15:51Z</time></trkpt><trkpt lat="42.92043919452636" lon="-3.374677539789395"><ele>760.0</ele><time>2026-04-13T16:15:52Z</time></trkpt><trkpt lat="42.920465182585744" lon="-3.374832591848244"><ele>758.5</ele><time>2026-04-13T16:15:53Z</time></trkpt><trkpt lat="42.92050970173291" lon="-3.3749834635424345"><ele>757.0</ele><time>2026-04-13T16:15:54Z</time></trkpt><trkpt lat="42.920581517805225" lon="-3.3751292393854913"><ele>755.5</ele><time>2026-04-13T16:15:55Z</time></trkpt><trkpt lat="42.92066099098674" lon="-3.3752904094766705"><ele>754.0</ele><time>2026-04-13T16:15:56Z</time></trkpt><trkpt lat="42.920735224138106" lon="-3.375425056280531"><ele>753.0</ele><time>2026-04-13T16:15:57Z</time></trkpt><trkpt lat="42.920780170170566" lon="-3.3755333746207388"><ele>752.0</ele><time>2026-04-13T16:15:58Z</time></trkpt><trkpt lat="42.92080920902024" lon="-3.375612282380103"><ele>751.0</ele><time>2026-04-13T16:15:59Z</time></trkpt><trkpt lat="42.92083514068796" lon="-3.3756960039350257"><ele>750.0</ele><time>2026-04-13T16:16:00Z</time></trkpt><trkpt lat="42.92084579667408" lon="-3.3758097518826493"><ele>749.0</ele><time>2026-04-13T16:16:01Z</time></trkpt><trkpt lat="42.920842491755664" lon="-3.375923104328028"><ele>748.0</ele><time>2026-04-13T16:16:02Z</time></trkpt><trkpt lat="42.92083049483697" lon="-3.376043693055736"><ele>748.0</ele><time>2026-04-13T16:16:03Z</time></trkpt><trkpt lat="42.92081526987704" lon="-3.376171312753613"><ele>748.0</ele><time>2026-04-13T16:16:04Z</time></trkpt><trkpt lat="42.920797261989456" lon="-3.3763010428856015"><ele>748.0</ele><time>2026-04-13T16:16:05Z</time></trkpt><trkpt lat="42.92078161776458" lon="-3.376402181214796"><ele>748.0</ele><time>2026-04-13T16:16:06Z</time></trkpt><trkpt lat="42.920770432470995" lon="-3.376492583886025"><ele>748.0</ele><time>2026-04-13T16:16:07Z</time></trkpt><trkpt lat="42.92074688758316" lon="-3.3766164089433164"><ele>748.0</ele><time>2026-04-13T16:16:09Z</time></trkpt><trkpt lat="42.92074266839584" lon="-3.3767042933537716"><ele>747.0</ele><time>2026-04-13T16:16:23Z</time></trkpt><trkpt lat="42.920767627331394" lon="-3.3768134219144157"><ele>746.0</ele><time>2026-04-13T16:16:25Z</time></trkpt><trkpt lat="42.92081645496573" lon="-3.3768718667352404"><ele>745.0</ele><time>2026-04-13T16:16:26Z</time></trkpt><trkpt lat="42.92088086411869" lon="-3.376923770076654"><ele>744.0</ele><time>2026-04-13T16:16:27Z</time></trkpt><trkpt lat="42.92095839033529" lon="-3.376962796890237"><ele>743.0</ele><time>2026-04-13T16:16:28Z</time></trkpt><trkpt lat="42.92104323207281" lon="-3.3769794948409406"><ele>742.0</ele><time>2026-04-13T16:16:29Z</time></trkpt><trkpt lat="42.92113346440672" lon="-3.3769913957388344"><ele>742.0</ele><time>2026-04-13T16:16:30Z</time></trkpt><trkpt lat="42.9212313755691" lon="-3.3770011018671076"><ele>742.0</ele><time>2026-04-13T16:16:31Z</time></trkpt><trkpt lat="42.92134109226282" lon="-3.377025450346568"><ele>742.0</ele><time>2026-04-13T16:16:32Z</time></trkpt><trkpt lat="42.921455348339016" lon="-3.3770501266366555"><ele>742.0</ele><time>2026-04-13T16:16:33Z</time></trkpt><trkpt lat="42.92159215690366" lon="-3.377064786571822"><ele>740.6666666666667</ele><time>2026-04-13T16:16:34Z</time></trkpt><trkpt lat="42.92175447975634" lon="-3.377064599153549"><ele>739.3333333333334</ele><time>2026-04-13T16:16:35Z</time></trkpt><trkpt lat="42.92191948339329" lon="-3.377049024892618"><ele>738.0</ele><time>2026-04-13T16:16:36Z</time></trkpt><trkpt lat="42.922076675578914" lon="-3.377031515436625"><ele>738.0</ele><time>2026-04-13T16:16:37Z</time></trkpt><trkpt lat="42.92223898422079" lon="-3.377012013374107"><ele>738.0</ele><time>2026-04-13T16:16:38Z</time></trkpt><trkpt lat="42.922394570961885" lon="-3.376989540574898"><ele>738.0</ele><time>2026-04-13T16:16:39Z</time></trkpt><trkpt lat="42.92253924320555" lon="-3.3769732933761967"><ele>737.5</ele><time>2026-04-13T16:16:40Z</time></trkpt><trkpt lat="42.92268436544137" lon="-3.3769600410257548"><ele>737.0</ele><time>2026-04-13T16:16:41Z</time></trkpt><trkpt lat="42.92282699933218" lon="-3.3769538199005655"><ele>736.5</ele><time>2026-04-13T16:16:42Z</time></trkpt><trkpt lat="42.92297512365908" lon="-3.3769615436892413"><ele>736.0</ele><time>2026-04-13T16:16:43Z</time></trkpt><trkpt lat="42.92313974826734" lon="-3.3769790462166904"><ele>736.0</ele><time>2026-04-13T16:16:44Z</time></trkpt><trkpt lat="42.92329623152417" lon="-3.3769896233020322"><ele>736.0</ele><time>2026-04-13T16:16:45Z</time></trkpt><trkpt lat="42.923453676194725" lon="-3.3769832435781475"><ele>736.0</ele><time>2026-04-13T16:16:46Z</time></trkpt><trkpt lat="42.92360362872841" lon="-3.3769838315726615"><ele>736.0</ele><time>2026-04-13T16:16:47Z</time></trkpt><trkpt lat="42.92373855373427" lon="-3.3769898281669244"><ele>736.0</ele><time>2026-04-13T16:16:48Z</time></trkpt><trkpt lat="42.923883710672435" lon="-3.376990524878993"><ele>736.0</ele><time>2026-04-13T16:16:49Z</time></trkpt><trkpt lat="42.924020992568444" lon="-3.3769986844322557"><ele>736.0</ele><time>2026-04-13T16:16:50Z</time></trkpt><trkpt lat="42.9241423137199" lon="-3.377005350593085"><ele>735.25</ele><time>2026-04-13T16:16:51Z</time></trkpt><trkpt lat="42.924258798440135" lon="-3.37701767757859"><ele>734.5</ele><time>2026-04-13T16:16:52Z</time></trkpt><trkpt lat="42.92437968253182" lon="-3.3770246256398515"><ele>733.75</ele><time>2026-04-13T16:16:53Z</time></trkpt><trkpt lat="42.924490002102644" lon="-3.3770268612012746"><ele>733.0</ele><time>2026-04-13T16:16:54Z</time></trkpt><trkpt lat="42.92459764862995" lon="-3.3770391088177503"><ele>733.0</ele><time>2026-04-13T16:16:55Z</time></trkpt><trkpt lat="42.924703278673555" lon="-3.377070213047313"><ele>733.0</ele><time>2026-04-13T16:16:56Z</time></trkpt><trkpt lat="42.924819034067305" lon="-3.3771197955181105"><ele>733.0</ele><time>2026-04-13T16:16:57Z</time></trkpt><trkpt lat="42.92491028417973" lon="-3.3771767527965495"><ele>733.0</ele><time>2026-04-13T16:16:58Z</time></trkpt><trkpt lat="42.924992612611746" lon="-3.377217840089596"><ele>733.0</ele><time>2026-04-13T16:16:59Z</time></trkpt><trkpt lat="42.92505909294624" lon="-3.3772291295576515"><ele>731.5999999999999</ele><time>2026-04-13T16:17:00Z</time></trkpt><trkpt lat="42.92512337843759" lon="-3.3771957825037373"><ele>730.1999999999999</ele><time>2026-04-13T16:17:01Z</time></trkpt><trkpt lat="42.9251964334816" lon="-3.37710087981087"><ele>728.8</ele><time>2026-04-13T16:17:02Z</time></trkpt><trkpt lat="42.925266781372855" lon="-3.376974198843102"><ele>727.4</ele><time>2026-04-13T16:17:03Z</time></trkpt><trkpt lat="42.92533340106871" lon="-3.3768273075013493"><ele>726.0</ele><time>2026-04-13T16:17:04Z</time></trkpt><trkpt lat="42.925413332262416" lon="-3.3766934809108538"><ele>726.0</ele><time>2026-04-13T16:17:05Z</time></trkpt><trkpt lat="42.92551235913954" lon="-3.3765755466486134"><ele>726.0</ele><time>2026-04-13T16:17:06Z</time></trkpt><trkpt lat="42.925627852473355" lon="-3.3764666257067653"><ele>726.0</ele><time>2026-04-13T16:17:07Z</time></trkpt><trkpt lat="42.925751309767634" lon="-3.376356778447333"><ele>726.0</ele><time>2026-04-13T16:17:08Z</time></trkpt><trkpt lat="42.92586944770261" lon="-3.376239911316051"><ele>724.0</ele><time>2026-04-13T16:17:09Z</time></trkpt><trkpt lat="42.92596679160949" lon="-3.37612104799989"><ele>722.0</ele><time>2026-04-13T16:17:10Z</time></trkpt><trkpt lat="42.92606615931863" lon="-3.3759710758673918"><ele>720.0</ele><time>2026-04-13T16:17:11Z</time></trkpt><trkpt lat="42.926164983177614" lon="-3.375806920958924"><ele>718.0</ele><time>2026-04-13T16:17:12Z</time></trkpt><trkpt lat="42.926264929283555" lon="-3.3756432733475417"><ele>718.25</ele><time>2026-04-13T16:17:13Z</time></trkpt><trkpt lat="42.92636160941573" lon="-3.375499893942048"><ele>718.5</ele><time>2026-04-13T16:17:14Z</time></trkpt><trkpt lat="42.92645429206163" lon="-3.375369160895046"><ele>718.75</ele><time>2026-04-13T16:17:15Z</time></trkpt><trkpt lat="42.926551233531534" lon="-3.3752244807691487"><ele>719.0</ele><time>2026-04-13T16:17:16Z</time></trkpt><trkpt lat="42.926639575161126" lon="-3.3750943062075676"><ele>719.0</ele><time>2026-04-13T16:17:17Z</time></trkpt><trkpt lat="42.926716225218556" lon="-3.374986528644941"><ele>719.0</ele><time>2026-04-13T16:17:18Z</time></trkpt><trkpt lat="42.92678741982578" lon="-3.374892831330356"><ele>719.0</ele><time>2026-04-13T16:17:19Z</time></trkpt><trkpt lat="42.92686688639615" lon="-3.374791435396094"><ele>719.0</ele><time>2026-04-13T16:17:20Z</time></trkpt><trkpt lat="42.92695561053372" lon="-3.374698694374023"><ele>719.0</ele><time>2026-04-13T16:17:21Z</time></trkpt><trkpt lat="42.92706730177062" lon="-3.374608586236557"><ele>718.5</ele><time>2026-04-13T16:17:22Z</time></trkpt><trkpt lat="42.9271826263059" lon="-3.3745119075155476"><ele>718.0</ele><time>2026-04-13T16:17:23Z</time></trkpt><trkpt lat="42.92729061311068" lon="-3.3744049764784587"><ele>717.5</ele><time>2026-04-13T16:17:24Z</time></trkpt><trkpt lat="42.927391006763735" lon="-3.3743089692053463"><ele>717.0</ele><time>2026-04-13T16:17:25Z</time></trkpt><trkpt lat="42.92750771740323" lon="-3.374202783040736"><ele>717.5</ele><time>2026-04-13T16:17:26Z</time></trkpt><trkpt lat="42.92763545603063" lon="-3.374083133662859"><ele>718.0</ele><time>2026-04-13T16:17:27Z</time></trkpt><trkpt lat="42.92774355787287" lon="-3.373976808419461"><ele>718.5</ele><time>2026-04-13T16:17:28Z</time></trkpt><trkpt lat="42.927856196944674" lon="-3.3738763559430955"><ele>719.0</ele><time>2026-04-13T16:17:29Z</time></trkpt><trkpt lat="42.92796080597691" lon="-3.373773299414262"><ele>719.0</ele><time>2026-04-13T16:17:30Z</time></trkpt><trkpt lat="42.928080098491534" lon="-3.373661645759097"><ele>719.0</ele><time>2026-04-13T16:17:31Z</time></trkpt><trkpt lat="42.92821594353226" lon="-3.373536879955274"><ele>719.0</ele><time>2026-04-13T16:17:32Z</time></trkpt><trkpt lat="42.92831473838579" lon="-3.373426681518276"><ele>719.0</ele><time>2026-04-13T16:17:33Z</time></trkpt><trkpt lat="42.92840877492991" lon="-3.373353929662159"><ele>718.3333333333333</ele><time>2026-04-13T16:17:34Z</time></trkpt><trkpt lat="42.92847776826197" lon="-3.373285916462088"><ele>717.6666666666666</ele><time>2026-04-13T16:17:35Z</time></trkpt><trkpt lat="42.92853785732122" lon="-3.3732186765956405"><ele>717.0</ele><time>2026-04-13T16:17:36Z</time></trkpt><trkpt lat="42.928589037778906" lon="-3.373119316759793"><ele>716.3333333333334</ele><time>2026-04-13T16:17:37Z</time></trkpt><trkpt lat="42.92864682579483" lon="-3.372992058060757"><ele>715.6666666666667</ele><time>2026-04-13T16:17:38Z</time></trkpt><trkpt lat="42.92868324746228" lon="-3.372891751167668"><ele>715.0</ele><time>2026-04-13T16:17:39Z</time></trkpt><trkpt lat="42.92872832348522" lon="-3.372792453846708"><ele>715.0</ele><time>2026-04-13T16:17:40Z</time></trkpt><trkpt lat="42.92879610819252" lon="-3.3727085327172097"><ele>715.0</ele><time>2026-04-13T16:17:41Z</time></trkpt><trkpt lat="42.928891819703196" lon="-3.372636764880818"><ele>715.0</ele><time>2026-04-13T16:17:42Z</time></trkpt><trkpt lat="42.92900245041682" lon="-3.3725879331496538"><ele>715.0</ele><time>2026-04-13T16:17:43Z</time></trkpt><trkpt lat="42.929128845401166" lon="-3.3725469494946587"><ele>715.0</ele><time>2026-04-13T16:17:44Z</time></trkpt><trkpt lat="42.92928932123287" lon="-3.372492903844465"><ele>714.6666666666667</ele><time>2026-04-13T16:17:45Z</time></trkpt><trkpt lat="42.92945426981358" lon="-3.3724360743804414"><ele>714.3333333333334</ele><time>2026-04-13T16:17:46Z</time></trkpt><trkpt lat="42.92962184899877" lon="-3.372388787314879"><ele>714.0</ele><time>2026-04-13T16:17:47Z</time></trkpt><trkpt lat="42.929789380849385" lon="-3.37233325308889"><ele>714.0</ele><time>2026-04-13T16:17:48Z</time></trkpt><trkpt lat="42.929940779234855" lon="-3.3722764064381967"><ele>714.0</ele><time>2026-04-13T16:17:49Z</time></trkpt><trkpt lat="42.93009358314091" lon="-3.372226376730976"><ele>714.0</ele><time>2026-04-13T16:17:50Z</time></trkpt><trkpt lat="42.93025676120594" lon="-3.372176533719583"><ele>714.0</ele><time>2026-04-13T16:17:51Z</time></trkpt><trkpt lat="42.93040861317349" lon="-3.3721223857699285"><ele>714.0</ele><time>2026-04-13T16:17:52Z</time></trkpt><trkpt lat="42.9305422907254" lon="-3.3720594114431357"><ele>714.0</ele><time>2026-04-13T16:17:53Z</time></trkpt><trkpt lat="42.93066383454449" lon="-3.372003578193453"><ele>714.0</ele><time>2026-04-13T16:17:54Z</time></trkpt><trkpt lat="42.93080150310219" lon="-3.371958031520442"><ele>713.3333333333334</ele><time>2026-04-13T16:17:55Z</time></trkpt><trkpt lat="42.930945292020816" lon="-3.3719208885775314"><ele>712.6666666666667</ele><time>2026-04-13T16:17:56Z</time></trkpt><trkpt lat="42.931108913466716" lon="-3.3718729651303967"><ele>712.0</ele><time>2026-04-13T16:17:57Z</time></trkpt><trkpt lat="42.93126204427789" lon="-3.371810661598371"><ele>712.0</ele><time>2026-04-13T16:17:58Z</time></trkpt><trkpt lat="42.931400065984825" lon="-3.371734000959181"><ele>712.0</ele><time>2026-04-13T16:17:59Z</time></trkpt><trkpt lat="42.931517384478745" lon="-3.371669957839263"><ele>712.0</ele><time>2026-04-13T16:18:00Z</time></trkpt><trkpt lat="42.93162889862167" lon="-3.3716145681866974"><ele>712.0</ele><time>2026-04-13T16:18:01Z</time></trkpt><trkpt lat="42.931730220751" lon="-3.37155951740008"><ele>712.0</ele><time>2026-04-13T16:18:02Z</time></trkpt><trkpt lat="42.93182467759507" lon="-3.3715167771439707"><ele>712.0</ele><time>2026-04-13T16:18:03Z</time></trkpt><trkpt lat="42.93193949004888" lon="-3.3715098169865048"><ele>712.0</ele><time>2026-04-13T16:18:04Z</time></trkpt><trkpt lat="42.932076692224804" lon="-3.371540875998279"><ele>712.0</ele><time>2026-04-13T16:18:05Z</time></trkpt><trkpt lat="42.932245167338664" lon="-3.3715675608913087"><ele>712.0</ele><time>2026-04-13T16:18:06Z</time></trkpt><trkpt lat="42.93243753371282" lon="-3.3715837773236856"><ele>712.0</ele><time>2026-04-13T16:18:07Z</time></trkpt><trkpt lat="42.93259923174042" lon="-3.3716007769712326"><ele>712.0</ele><time>2026-04-13T16:18:08Z</time></trkpt><trkpt lat="42.93274201829784" lon="-3.371608314744023"><ele>711.6666666666667</ele><time>2026-04-13T16:18:09Z</time></trkpt><trkpt lat="42.9328928310714" lon="-3.3716141586876534"><ele>711.3333333333334</ele><time>2026-04-13T16:18:10Z</time></trkpt><trkpt lat="42.93304762392101" lon="-3.371605096551387"><ele>711.0</ele><time>2026-04-13T16:18:11Z</time></trkpt><trkpt lat="42.93319582878728" lon="-3.371596994939401"><ele>711.0</ele><time>2026-04-13T16:18:12Z</time></trkpt><trkpt lat="42.933338491947985" lon="-3.371586813753782"><ele>711.0</ele><time>2026-04-13T16:18:13Z</time></trkpt><trkpt lat="42.93347999222491" lon="-3.3715711277409484"><ele>711.0</ele><time>2026-04-13T16:18:14Z</time></trkpt><trkpt lat="42.93359498666598" lon="-3.371546641175021"><ele>711.0</ele><time>2026-04-13T16:18:15Z</time></trkpt><trkpt lat="42.93370514712316" lon="-3.371522486171769"><ele>710.5</ele><time>2026-04-13T16:18:16Z</time></trkpt><trkpt lat="42.933829599010835" lon="-3.371488815913475"><ele>710.0</ele><time>2026-04-13T16:18:17Z</time></trkpt><trkpt lat="42.93394623867685" lon="-3.3714478053985526"><ele>709.5</ele><time>2026-04-13T16:18:18Z</time></trkpt><trkpt lat="42.9340467782665" lon="-3.3713619860164936"><ele>709.0</ele><time>2026-04-13T16:18:19Z</time></trkpt><trkpt lat="42.93415845938932" lon="-3.3712770078385055"><ele>710.6666666666667</ele><time>2026-04-13T16:18:20Z</time></trkpt><trkpt lat="42.93428347423489" lon="-3.371180576390814"><ele>712.3333333333334</ele><time>2026-04-13T16:18:21Z</time></trkpt><trkpt lat="42.93442568196137" lon="-3.371053949094038"><ele>714.0</ele><time>2026-04-13T16:18:22Z</time></trkpt><trkpt lat="42.934569002586045" lon="-3.3709383495347813"><ele>714.0</ele><time>2026-04-13T16:18:23Z</time></trkpt><trkpt lat="42.93468300331034" lon="-3.37085144885796"><ele>714.0</ele><time>2026-04-13T16:18:24Z</time></trkpt><trkpt lat="42.934780073345436" lon="-3.37076968250178"><ele>714.0</ele><time>2026-04-13T16:18:25Z</time></trkpt><trkpt lat="42.93486071438816" lon="-3.3706994344668595"><ele>714.0</ele><time>2026-04-13T16:18:26Z</time></trkpt><trkpt lat="42.934934833506844" lon="-3.3706354254864386"><ele>714.0</ele><time>2026-04-13T16:18:27Z</time></trkpt><trkpt lat="42.93502035556538" lon="-3.3705682545255593"><ele>713.6666666666666</ele><time>2026-04-13T16:18:28Z</time></trkpt><trkpt lat="42.935113164366385" lon="-3.3704882448468"><ele>713.3333333333334</ele><time>2026-04-13T16:18:29Z</time></trkpt><trkpt lat="42.93517877524186" lon="-3.3704193099792312"><ele>713.0</ele><time>2026-04-13T16:18:30Z</time></trkpt><trkpt lat="42.935241428275965" lon="-3.370349908921175"><ele>712.6666666666667</ele><time>2026-04-13T16:18:31Z</time></trkpt><trkpt lat="42.935301708358445" lon="-3.3702896886674587"><ele>712.3333333333334</ele><time>2026-04-13T16:18:32Z</time></trkpt><trkpt lat="42.93535887395613" lon="-3.370236196808354"><ele>712.0</ele><time>2026-04-13T16:18:33Z</time></trkpt><trkpt lat="42.93541364929766" lon="-3.3701888767109716"><ele>712.0</ele><time>2026-04-13T16:18:34Z</time></trkpt><trkpt lat="42.935496883032414" lon="-3.37011127288159"><ele>712.0</ele><time>2026-04-13T16:18:36Z</time></trkpt><trkpt lat="42.9355431321467" lon="-3.3700455496031574"><ele>712.0</ele><time>2026-04-13T16:18:39Z</time></trkpt><trkpt lat="42.9356175772676" lon="-3.3700125740365454"><ele>712.0</ele><time>2026-04-13T16:18:41Z</time></trkpt><trkpt lat="42.93568048166009" lon="-3.3700072358205615"><ele>712.0</ele><time>2026-04-13T16:18:42Z</time></trkpt><trkpt lat="42.93576102018844" lon="-3.3700010139009584"><ele>712.0</ele><time>2026-04-13T16:18:43Z</time></trkpt><trkpt lat="42.93584926577503" lon="-3.3699981363637774"><ele>711.0</ele><time>2026-04-13T16:18:44Z</time></trkpt><trkpt lat="42.935953227232346" lon="-3.3699931097022473"><ele>710.0</ele><time>2026-04-13T16:18:45Z</time></trkpt><trkpt lat="42.93606051289937" lon="-3.3699810690040093"><ele>709.0</ele><time>2026-04-13T16:18:46Z</time></trkpt><trkpt lat="42.936176636484625" lon="-3.3699714895404362"><ele>708.0</ele><time>2026-04-13T16:18:47Z</time></trkpt><trkpt lat="42.936296088495865" lon="-3.3699650415742415"><ele>707.0</ele><time>2026-04-13T16:18:48Z</time></trkpt><trkpt lat="42.936426260859115" lon="-3.3699657802429757"><ele>707.0</ele><time>2026-04-13T16:18:49Z</time></trkpt><trkpt lat="42.936555288554516" lon="-3.369942296546542"><ele>707.0</ele><time>2026-04-13T16:18:50Z</time></trkpt><trkpt lat="42.93668462050962" lon="-3.3699341379242247"><ele>707.0</ele><time>2026-04-13T16:18:51Z</time></trkpt><trkpt lat="42.936811857911884" lon="-3.3699261114317585"><ele>707.0</ele><time>2026-04-13T16:18:52Z</time></trkpt><trkpt lat="42.937010514573196" lon="-3.3699274041566203"><ele>705.0</ele><time>2026-04-13T16:18:53Z</time></trkpt><trkpt lat="42.9371525848232" lon="-3.3699185670450857"><ele>703.0</ele><time>2026-04-13T16:18:54Z</time></trkpt><trkpt lat="42.93729493067609" lon="-3.3699114324404986"><ele>701.0</ele><time>2026-04-13T16:18:55Z</time></trkpt><trkpt lat="42.937442640178915" lon="-3.3699013512785925"><ele>699.0</ele><time>2026-04-13T16:18:56Z</time></trkpt><trkpt lat="42.93758892003884" lon="-3.3698839632233164"><ele>698.75</ele><time>2026-04-13T16:18:57Z</time></trkpt><trkpt lat="42.937729522797106" lon="-3.3698730242983386"><ele>698.5</ele><time>2026-04-13T16:18:58Z</time></trkpt><trkpt lat="42.93787237726518" lon="-3.3698674783350473"><ele>698.25</ele><time>2026-04-13T16:18:59Z</time></trkpt><trkpt lat="42.93800538767942" lon="-3.3698620408439384"><ele>698.0</ele><time>2026-04-13T16:19:00Z</time></trkpt><trkpt lat="42.93814153668459" lon="-3.3698554928003963"><ele>698.0</ele><time>2026-04-13T16:19:01Z</time></trkpt><trkpt lat="42.93826658615282" lon="-3.3698507164353484"><ele>698.0</ele><time>2026-04-13T16:19:02Z</time></trkpt><trkpt lat="42.938390372437105" lon="-3.36983725039698"><ele>698.0</ele><time>2026-04-13T16:19:03Z</time></trkpt><trkpt lat="42.93852492033268" lon="-3.36983658896209"><ele>698.0</ele><time>2026-04-13T16:19:04Z</time></trkpt><trkpt lat="42.93866711130135" lon="-3.3698244781689506"><ele>698.2</ele><time>2026-04-13T16:19:05Z</time></trkpt><trkpt lat="42.93879519167429" lon="-3.369786136340784"><ele>698.4</ele><time>2026-04-13T16:19:06Z</time></trkpt><trkpt lat="42.9389076921877" lon="-3.369766707603678"><ele>698.6</ele><time>2026-04-13T16:19:07Z</time></trkpt><trkpt lat="42.939006306515026" lon="-3.3697268802578377"><ele>698.8000000000001</ele><time>2026-04-13T16:19:08Z</time></trkpt><trkpt lat="42.93910211675521" lon="-3.3696945161086127"><ele>699.0</ele><time>2026-04-13T16:19:09Z</time></trkpt><trkpt lat="42.93919493327321" lon="-3.369663305296976"><ele>697.8000000000001</ele><time>2026-04-13T16:19:10Z</time></trkpt><trkpt lat="42.93926322061696" lon="-3.3696348178848856"><ele>696.6</ele><time>2026-04-13T16:19:11Z</time></trkpt><trkpt lat="42.939369267878526" lon="-3.369603827495477"><ele>695.4</ele><time>2026-04-13T16:19:13Z</time></trkpt><trkpt lat="42.93944658148835" lon="-3.369611675216171"><ele>694.2</ele><time>2026-04-13T16:19:17Z</time></trkpt><trkpt lat="42.93941342341205" lon="-3.369808288022584"><ele>693.0</ele><time>2026-04-13T16:19:19Z</time></trkpt><trkpt lat="42.93938250777226" lon="-3.369915578308774"><ele>693.0</ele><time>2026-04-13T16:19:20Z</time></trkpt><trkpt lat="42.9393424342672" lon="-3.370043310744722"><ele>693.0</ele><time>2026-04-13T16:19:21Z</time></trkpt><trkpt lat="42.93929551858275" lon="-3.370192852347873"><ele>693.0</ele><time>2026-04-13T16:19:22Z</time></trkpt><trkpt lat="42.93925068399052" lon="-3.370358390675834"><ele>693.0</ele><time>2026-04-13T16:19:23Z</time></trkpt><trkpt lat="42.93921164540803" lon="-3.370540711661334"><ele>693.0</ele><time>2026-04-13T16:19:24Z</time></trkpt><trkpt lat="42.93918024974865" lon="-3.3707214231185962"><ele>693.0</ele><time>2026-04-13T16:19:25Z</time></trkpt><trkpt lat="42.939158540978475" lon="-3.370914526678744"><ele>693.0</ele><time>2026-04-13T16:19:26Z</time></trkpt><trkpt lat="42.939153051123235" lon="-3.3711287187637824"><ele>693.0</ele><time>2026-04-13T16:19:27Z</time></trkpt><trkpt lat="42.93914973172854" lon="-3.3713697395666924"><ele>692.3333333333334</ele><time>2026-04-13T16:19:28Z</time></trkpt><trkpt lat="42.93912878968093" lon="-3.371623364669868"><ele>691.6666666666667</ele><time>2026-04-13T16:19:29Z</time></trkpt><trkpt lat="42.93912789394208" lon="-3.3718857854325752"><ele>691.0</ele><time>2026-04-13T16:19:30Z</time></trkpt><trkpt lat="42.93911769612343" lon="-3.372147652756633"><ele>692.0</ele><time>2026-04-13T16:19:31Z</time></trkpt><trkpt lat="42.939129779207185" lon="-3.3724067144186756"><ele>693.0</ele><time>2026-04-13T16:19:32Z</time></trkpt><trkpt lat="42.93913052751326" lon="-3.3726453876543325"><ele>694.0</ele><time>2026-04-13T16:19:33Z</time></trkpt><trkpt lat="42.93911084019606" lon="-3.3728570640993825"><ele>695.3333333333334</ele><time>2026-04-13T16:19:34Z</time></trkpt><trkpt lat="42.939096448589794" lon="-3.3730439204218623"><ele>696.6666666666666</ele><time>2026-04-13T16:19:35Z</time></trkpt><trkpt lat="42.9390525968778" lon="-3.37323914161475"><ele>698.0</ele><time>2026-04-13T16:19:36Z</time></trkpt><trkpt lat="42.938921117415596" lon="-3.373675634870971"><ele>699.0</ele><time>2026-04-13T16:19:38Z</time></trkpt><trkpt lat="42.93885323281919" lon="-3.373900109709584"><ele>700.0</ele><time>2026-04-13T16:19:39Z</time></trkpt><trkpt lat="42.93877793498833" lon="-3.374098231226804"><ele>701.0</ele><time>2026-04-13T16:19:40Z</time></trkpt><trkpt lat="42.93873641279002" lon="-3.3742813734731256"><ele>701.0</ele><time>2026-04-13T16:19:41Z</time></trkpt><trkpt lat="42.93872790969266" lon="-3.37448249628174"><ele>701.0</ele><time>2026-04-13T16:19:42Z</time></trkpt><trkpt lat="42.938736801536855" lon="-3.3746981259708217"><ele>701.0</ele><time>2026-04-13T16:19:43Z</time></trkpt><trkpt lat="42.93875861070621" lon="-3.3749363929799965"><ele>702.0</ele><time>2026-04-13T16:19:44Z</time></trkpt><trkpt lat="42.93878423700479" lon="-3.3751833453442313"><ele>703.0</ele><time>2026-04-13T16:19:45Z</time></trkpt><trkpt lat="42.93881126139362" lon="-3.3754356450205494"><ele>704.0</ele><time>2026-04-13T16:19:46Z</time></trkpt><trkpt lat="42.938836512869514" lon="-3.375696267817185"><ele>704.6666666666666</ele><time>2026-04-13T16:19:47Z</time></trkpt><trkpt lat="42.93885239183837" lon="-3.375960790659286"><ele>705.3333333333334</ele><time>2026-04-13T16:19:48Z</time></trkpt><trkpt lat="42.93888980880519" lon="-3.3762406579084296"><ele>706.0</ele><time>2026-04-13T16:19:49Z</time></trkpt><trkpt lat="42.93895163576638" lon="-3.3765415726998955"><ele>707.0</ele><time>2026-04-13T16:19:50Z</time></trkpt><trkpt lat="42.93900020168316" lon="-3.376809810995886"><ele>708.0</ele><time>2026-04-13T16:19:51Z</time></trkpt><trkpt lat="42.93906073349288" lon="-3.377118430527297"><ele>709.0</ele><time>2026-04-13T16:19:52Z</time></trkpt><trkpt lat="42.939104561716285" lon="-3.3773530387942623"><ele>709.1666666666667</ele><time>2026-04-13T16:19:53Z</time></trkpt><trkpt lat="42.93912011401805" lon="-3.3775245745425697"><ele>709.3333333333334</ele><time>2026-04-13T16:19:54Z</time></trkpt><trkpt lat="42.939138391218584" lon="-3.377650385416107"><ele>709.5</ele><time>2026-04-13T16:19:55Z</time></trkpt><trkpt lat="42.93915787597481" lon="-3.377741050250156"><ele>709.6666666666666</ele><time>2026-04-13T16:19:56Z</time></trkpt><trkpt lat="42.939188210467876" lon="-3.377831724405061"><ele>709.8333333333333</ele><time>2026-04-13T16:20:00Z</time></trkpt><trkpt lat="42.939210124923875" lon="-3.377918380043166"><ele>710.0</ele><time>2026-04-13T16:20:03Z</time></trkpt><trkpt lat="42.939327300935574" lon="-3.377891871170576"><ele>710.0</ele><time>2026-04-13T16:20:04Z</time></trkpt><trkpt lat="42.939400281782916" lon="-3.3778980172248496"><ele>710.0</ele><time>2026-04-13T16:20:05Z</time></trkpt><trkpt lat="42.939490194554004" lon="-3.3779077973867486"><ele>710.0</ele><time>2026-04-13T16:20:06Z</time></trkpt><trkpt lat="42.9395965104132" lon="-3.377920164463449"><ele>710.0</ele><time>2026-04-13T16:20:07Z</time></trkpt><trkpt lat="42.9397213347847" lon="-3.377950122342456"><ele>710.0</ele><time>2026-04-13T16:20:08Z</time></trkpt><trkpt lat="42.93985622209089" lon="-3.37796425410445"><ele>710.0</ele><time>2026-04-13T16:20:09Z</time></trkpt><trkpt lat="42.940000212766186" lon="-3.3779770383331154"><ele>710.0</ele><time>2026-04-13T16:20:10Z</time></trkpt><trkpt lat="42.94014815422742" lon="-3.37798954252853"><ele>710.0</ele><time>2026-04-13T16:20:11Z</time></trkpt><trkpt lat="42.94030293449702" lon="-3.3780037271599483"><ele>710.0</ele><time>2026-04-13T16:20:12Z</time></trkpt><trkpt lat="42.94044648883595" lon="-3.3780159723349263"><ele>709.25</ele><time>2026-04-13T16:20:13Z</time></trkpt><trkpt lat="42.94056978267494" lon="-3.378034434779075"><ele>708.5</ele><time>2026-04-13T16:20:14Z</time></trkpt><trkpt lat="42.94069790963483" lon="-3.3780253072217774"><ele>707.75</ele><time>2026-04-13T16:20:15Z</time></trkpt><trkpt lat="42.94084496098277" lon="-3.378039533820756"><ele>707.0</ele><time>2026-04-13T16:20:16Z</time></trkpt><trkpt lat="42.94101311561575" lon="-3.378055802075888"><ele>706.0</ele><time>2026-04-13T16:20:17Z</time></trkpt><trkpt lat="42.94116835271706" lon="-3.3780717615546823"><ele>705.0</ele><time>2026-04-13T16:20:18Z</time></trkpt><trkpt lat="42.9413088918742" lon="-3.3780870822849907"><ele>704.0</ele><time>2026-04-13T16:20:19Z</time></trkpt><trkpt lat="42.94145874313195" lon="-3.378101667424722"><ele>703.0</ele><time>2026-04-13T16:20:20Z</time></trkpt><trkpt lat="42.94161839432864" lon="-3.3781144047052014"><ele>701.0</ele><time>2026-04-13T16:20:21Z</time></trkpt><trkpt lat="42.94177956623248" lon="-3.378127263310496"><ele>699.0</ele><time>2026-04-13T16:20:22Z</time></trkpt><trkpt lat="42.94193439129199" lon="-3.378163950422468"><ele>697.0</ele><time>2026-04-13T16:20:23Z</time></trkpt><trkpt lat="42.94207572359329" lon="-3.3781722136759678"><ele>697.0</ele><time>2026-04-13T16:20:24Z</time></trkpt><trkpt lat="42.942225151541855" lon="-3.37819024635657"><ele>697.0</ele><time>2026-04-13T16:20:25Z</time></trkpt><trkpt lat="42.94238328338131" lon="-3.378184163514315"><ele>697.0</ele><time>2026-04-13T16:20:26Z</time></trkpt><trkpt lat="42.942512351326286" lon="-3.3782183029212667"><ele>697.0</ele><time>2026-04-13T16:20:27Z</time></trkpt><trkpt lat="42.942656169365826" lon="-3.3782099645458783"><ele>697.0</ele><time>2026-04-13T16:20:28Z</time></trkpt><trkpt lat="42.94279541899543" lon="-3.378223130422966"><ele>697.0</ele><time>2026-04-13T16:20:29Z</time></trkpt><trkpt lat="42.9429265142318" lon="-3.378235034059184"><ele>697.0</ele><time>2026-04-13T16:20:30Z</time></trkpt><trkpt lat="42.94305937923591" lon="-3.378245475007257"><ele>697.0</ele><time>2026-04-13T16:20:31Z</time></trkpt><trkpt lat="42.94319069097018" lon="-3.3782554973489467"><ele>697.0</ele><time>2026-04-13T16:20:32Z</time></trkpt><trkpt lat="42.943320355700635" lon="-3.3782843896497456"><ele>697.0</ele><time>2026-04-13T16:20:33Z</time></trkpt><trkpt lat="42.94342174023743" lon="-3.37829117427045"><ele>697.0</ele><time>2026-04-13T16:20:34Z</time></trkpt><trkpt lat="42.94351518379669" lon="-3.378315146954181"><ele>697.0</ele><time>2026-04-13T16:20:35Z</time></trkpt><trkpt lat="42.94362245872646" lon="-3.378355388362188"><ele>697.0</ele><time>2026-04-13T16:20:36Z</time></trkpt><trkpt lat="42.943744008886746" lon="-3.378408328655514"><ele>697.0</ele><time>2026-04-13T16:20:37Z</time></trkpt><trkpt lat="42.94390044859351" lon="-3.3784568471559884"><ele>697.0</ele><time>2026-04-13T16:20:38Z</time></trkpt><trkpt lat="42.944044280751946" lon="-3.3785019559708283"><ele>697.0</ele><time>2026-04-13T16:20:39Z</time></trkpt><trkpt lat="42.944158990587546" lon="-3.378539711995831"><ele>697.0</ele><time>2026-04-13T16:20:40Z</time></trkpt><trkpt lat="42.944252447478945" lon="-3.3785785407142237"><ele>696.8</ele><time>2026-04-13T16:20:41Z</time></trkpt><trkpt lat="42.94434699124528" lon="-3.3786284045430874"><ele>696.6</ele><time>2026-04-13T16:20:42Z</time></trkpt><trkpt lat="42.94444849540485" lon="-3.3786980279078707"><ele>696.4</ele><time>2026-04-13T16:20:43Z</time></trkpt><trkpt lat="42.94454292415526" lon="-3.3787740617782096"><ele>696.1999999999999</ele><time>2026-04-13T16:20:44Z</time></trkpt><trkpt lat="42.94462211586464" lon="-3.3788472641186647"><ele>696.0</ele><time>2026-04-13T16:20:45Z</time></trkpt><trkpt lat="42.94468329967246" lon="-3.3789099542481593"><ele>696.0</ele><time>2026-04-13T16:20:46Z</time></trkpt><trkpt lat="42.94474777273059" lon="-3.378985192954908"><ele>696.0</ele><time>2026-04-13T16:20:47Z</time></trkpt><trkpt lat="42.94480773664118" lon="-3.379067361966384"><ele>696.0</ele><time>2026-04-13T16:20:48Z</time></trkpt><trkpt lat="42.94487587213387" lon="-3.3791227534748005"><ele>696.0</ele><time>2026-04-13T16:20:49Z</time></trkpt><trkpt lat="42.9449558049476" lon="-3.3791820017651566"><ele>696.0</ele><time>2026-04-13T16:20:50Z</time></trkpt><trkpt lat="42.945034758592456" lon="-3.3792244375004175"><ele>696.0</ele><time>2026-04-13T16:20:51Z</time></trkpt><trkpt lat="42.945110150151365" lon="-3.3792313712093147"><ele>694.8</ele><time>2026-04-13T16:20:52Z</time></trkpt><trkpt lat="42.945207096232885" lon="-3.3792186987673976"><ele>693.5999999999999</ele><time>2026-04-13T16:20:53Z</time></trkpt><trkpt lat="42.94531193188869" lon="-3.3792176409956465"><ele>692.4</ele><time>2026-04-13T16:20:54Z</time></trkpt><trkpt lat="42.94543054395427" lon="-3.379186278445823"><ele>691.2</ele><time>2026-04-13T16:20:55Z</time></trkpt><trkpt lat="42.945549237213534" lon="-3.3791525630036876"><ele>690.0</ele><time>2026-04-13T16:20:56Z</time></trkpt><trkpt lat="42.94568284435429" lon="-3.379114068584625"><ele>690.0</ele><time>2026-04-13T16:20:57Z</time></trkpt><trkpt lat="42.94581772683888" lon="-3.3790689925152773"><ele>690.0</ele><time>2026-04-13T16:20:58Z</time></trkpt><trkpt lat="42.94595201447274" lon="-3.3790166700156083"><ele>690.0</ele><time>2026-04-13T16:20:59Z</time></trkpt><trkpt lat="42.94608395663133" lon="-3.3789646176249475"><ele>690.0</ele><time>2026-04-13T16:21:00Z</time></trkpt><trkpt lat="42.94622414562283" lon="-3.3789066970521477"><ele>689.0</ele><time>2026-04-13T16:21:01Z</time></trkpt><trkpt lat="42.94636602505587" lon="-3.378851938219328"><ele>688.0</ele><time>2026-04-13T16:21:02Z</time></trkpt><trkpt lat="42.94650621332579" lon="-3.378768253518326"><ele>687.0</ele><time>2026-04-13T16:21:03Z</time></trkpt><trkpt lat="42.946651328042684" lon="-3.3787047079012282"><ele>684.6666666666666</ele><time>2026-04-13T16:21:04Z</time></trkpt><trkpt lat="42.94680312113613" lon="-3.3786431712541716"><ele>682.3333333333333</ele><time>2026-04-13T16:21:05Z</time></trkpt><trkpt lat="42.946979117498365" lon="-3.3785728324571154"><ele>680.0</ele><time>2026-04-13T16:21:06Z</time></trkpt><trkpt lat="42.94714309335654" lon="-3.378507297777131"><ele>680.0</ele><time>2026-04-13T16:21:07Z</time></trkpt><trkpt lat="42.947279207390736" lon="-3.3784516995043044"><ele>680.0</ele><time>2026-04-13T16:21:08Z</time></trkpt><trkpt lat="42.947409218568865" lon="-3.378397654967183"><ele>680.0</ele><time>2026-04-13T16:21:09Z</time></trkpt><trkpt lat="42.9475326587654" lon="-3.378346341931214"><ele>680.0</ele><time>2026-04-13T16:21:10Z</time></trkpt><trkpt lat="42.947677367796445" lon="-3.378286187622485"><ele>679.5</ele><time>2026-04-13T16:21:11Z</time></trkpt><trkpt lat="42.947819129980715" lon="-3.378227435104187"><ele>679.0</ele><time>2026-04-13T16:21:12Z</time></trkpt><trkpt lat="42.94795369141321" lon="-3.378176697970082"><ele>678.5</ele><time>2026-04-13T16:21:13Z</time></trkpt><trkpt lat="42.94808296928103" lon="-3.3781660240124713"><ele>678.0</ele><time>2026-04-13T16:21:14Z</time></trkpt><trkpt lat="42.94822116436307" lon="-3.3781476698255064"><ele>678.3333333333334</ele><time>2026-04-13T16:21:15Z</time></trkpt><trkpt lat="42.94838412472604" lon="-3.378137232127553"><ele>678.6666666666667</ele><time>2026-04-13T16:21:16Z</time></trkpt><trkpt lat="42.94858682331225" lon="-3.3781501308917297"><ele>679.0</ele><time>2026-04-13T16:21:17Z</time></trkpt><trkpt lat="42.94878521584853" lon="-3.3781614564248117"><ele>679.0</ele><time>2026-04-13T16:21:18Z</time></trkpt><trkpt lat="42.94897905032893" lon="-3.3781709267058875"><ele>679.0</ele><time>2026-04-13T16:21:19Z</time></trkpt><trkpt lat="42.949165939192" lon="-3.3781810184942813"><ele>679.0</ele><time>2026-04-13T16:21:20Z</time></trkpt><trkpt lat="42.949334029154976" lon="-3.378192149684257"><ele>678.0</ele><time>2026-04-13T16:21:21Z</time></trkpt><trkpt lat="42.94949003374263" lon="-3.3782024805624893"><ele>677.0</ele><time>2026-04-13T16:21:22Z</time></trkpt><trkpt lat="42.94964620817917" lon="-3.3782332339424643"><ele>676.0</ele><time>2026-04-13T16:21:23Z</time></trkpt><trkpt lat="42.94982288826137" lon="-3.378240328194874"><ele>676.0</ele><time>2026-04-13T16:21:24Z</time></trkpt><trkpt lat="42.950003086403214" lon="-3.3782526905662897"><ele>676.0</ele><time>2026-04-13T16:21:25Z</time></trkpt><trkpt lat="42.95017957414006" lon="-3.3782636175910867"><ele>676.0</ele><time>2026-04-13T16:21:26Z</time></trkpt><trkpt lat="42.95036143195265" lon="-3.378271816192126"><ele>675.0</ele><time>2026-04-13T16:21:27Z</time></trkpt><trkpt lat="42.95054430428932" lon="-3.3782799796549123"><ele>674.0</ele><time>2026-04-13T16:21:28Z</time></trkpt><trkpt lat="42.95071919566664" lon="-3.3782861057069633"><ele>673.0</ele><time>2026-04-13T16:21:29Z</time></trkpt><trkpt lat="42.950900624968824" lon="-3.378292476754668"><ele>673.0</ele><time>2026-04-13T16:21:30Z</time></trkpt><trkpt lat="42.951071738027714" lon="-3.378305214409766"><ele>673.0</ele><time>2026-04-13T16:21:31Z</time></trkpt><trkpt lat="42.951261444660624" lon="-3.3783212976432253"><ele>673.0</ele><time>2026-04-13T16:21:32Z</time></trkpt><trkpt lat="42.95145837523464" lon="-3.378333107374344"><ele>673.0</ele><time>2026-04-13T16:21:33Z</time></trkpt><trkpt lat="42.951660001534364" lon="-3.3783406998028727"><ele>673.0</ele><time>2026-04-13T16:21:34Z</time></trkpt><trkpt lat="42.95185172856387" lon="-3.378349972454697"><ele>673.0</ele><time>2026-04-13T16:21:35Z</time></trkpt><trkpt lat="42.95203582135486" lon="-3.3783619033582633"><ele>673.0</ele><time>2026-04-13T16:21:36Z</time></trkpt><trkpt lat="42.95221053862895" lon="-3.3783792616925252"><ele>673.0</ele><time>2026-04-13T16:21:37Z</time></trkpt><trkpt lat="42.952382970683956" lon="-3.3783934877330997"><ele>673.0</ele><time>2026-04-13T16:21:38Z</time></trkpt><trkpt lat="42.9525560803887" lon="-3.378382493956621"><ele>672.6666666666667</ele><time>2026-04-13T16:21:39Z</time></trkpt><trkpt lat="42.95272802220819" lon="-3.3783927660009683"><ele>672.3333333333334</ele><time>2026-04-13T16:21:40Z</time></trkpt><trkpt lat="42.95291319745266" lon="-3.3784241595031643"><ele>672.0</ele><time>2026-04-13T16:21:41Z</time></trkpt><trkpt lat="42.95311719066994" lon="-3.37842503364381"><ele>672.0</ele><time>2026-04-13T16:21:42Z</time></trkpt><trkpt lat="42.95329040296936" lon="-3.37846686613615"><ele>672.0</ele><time>2026-04-13T16:21:43Z</time></trkpt><trkpt lat="42.95347879738524" lon="-3.3784995663432715"><ele>672.0</ele><time>2026-04-13T16:21:44Z</time></trkpt><trkpt lat="42.95364207968608" lon="-3.378536599428964"><ele>672.25</ele><time>2026-04-13T16:21:45Z</time></trkpt><trkpt lat="42.95378407295236" lon="-3.3785696329640134"><ele>672.5</ele><time>2026-04-13T16:21:46Z</time></trkpt><trkpt lat="42.95392346582145" lon="-3.378601384034118"><ele>672.75</ele><time>2026-04-13T16:21:47Z</time></trkpt><trkpt lat="42.95406866743577" lon="-3.3786293958092655"><ele>673.0</ele><time>2026-04-13T16:21:48Z</time></trkpt><trkpt lat="42.95423046957895" lon="-3.378661278655406"><ele>672.3333333333334</ele><time>2026-04-13T16:21:49Z</time></trkpt><trkpt lat="42.9543979381712" lon="-3.3787014237903983"><ele>671.6666666666666</ele><time>2026-04-13T16:21:50Z</time></trkpt><trkpt lat="42.954571624498584" lon="-3.3787117124401367"><ele>671.0</ele><time>2026-04-13T16:21:51Z</time></trkpt><trkpt lat="42.95473343149037" lon="-3.378762646890059"><ele>671.0</ele><time>2026-04-13T16:21:52Z</time></trkpt><trkpt lat="42.95489217855306" lon="-3.3787895400895436"><ele>671.0</ele><time>2026-04-13T16:21:53Z</time></trkpt><trkpt lat="42.95506870459328" lon="-3.3788242322473394"><ele>671.0</ele><time>2026-04-13T16:21:54Z</time></trkpt><trkpt lat="42.955255115706635" lon="-3.3788379206138712"><ele>668.6666666666666</ele><time>2026-04-13T16:21:55Z</time></trkpt><trkpt lat="42.95541906058164" lon="-3.378864542485107"><ele>666.3333333333334</ele><time>2026-04-13T16:21:56Z</time></trkpt><trkpt lat="42.95558893253993" lon="-3.37891374092883"><ele>664.0</ele><time>2026-04-13T16:21:57Z</time></trkpt><trkpt lat="42.95576511920678" lon="-3.3789364244893876"><ele>664.0</ele><time>2026-04-13T16:21:58Z</time></trkpt><trkpt lat="42.95592788041646" lon="-3.3789596378413664"><ele>664.0</ele><time>2026-04-13T16:21:59Z</time></trkpt><trkpt lat="42.9560699545854" lon="-3.3790038727257663"><ele>664.0</ele><time>2026-04-13T16:22:00Z</time></trkpt><trkpt lat="42.95620841118315" lon="-3.3790724814297324"><ele>664.0</ele><time>2026-04-13T16:22:01Z</time></trkpt><trkpt lat="42.95633170397193" lon="-3.379157439086922"><ele>664.0</ele><time>2026-04-13T16:22:02Z</time></trkpt><trkpt lat="42.95646111718613" lon="-3.3792741722520634"><ele>664.0</ele><time>2026-04-13T16:22:03Z</time></trkpt><trkpt lat="42.95660402305164" lon="-3.379421667299089"><ele>663.6666666666667</ele><time>2026-04-13T16:22:04Z</time></trkpt><trkpt lat="42.95675835263355" lon="-3.3795804354805106"><ele>663.3333333333334</ele><time>2026-04-13T16:22:05Z</time></trkpt><trkpt lat="42.95690099998543" lon="-3.3797236869458427"><ele>663.0</ele><time>2026-04-13T16:22:06Z</time></trkpt><trkpt lat="42.95702330195771" lon="-3.379836869757313"><ele>662.25</ele><time>2026-04-13T16:22:07Z</time></trkpt><trkpt lat="42.957130942683676" lon="-3.379940696337209"><ele>661.5</ele><time>2026-04-13T16:22:08Z</time></trkpt><trkpt lat="42.95722310568999" lon="-3.380027350693693"><ele>660.75</ele><time>2026-04-13T16:22:09Z</time></trkpt><trkpt lat="42.95730575342245" lon="-3.380109544020725"><ele>660.0</ele><time>2026-04-13T16:22:10Z</time></trkpt><trkpt lat="42.95739778458495" lon="-3.3801952043462316"><ele>660.0</ele><time>2026-04-13T16:22:11Z</time></trkpt><trkpt lat="42.95748422709835" lon="-3.380280529391038"><ele>660.0</ele><time>2026-04-13T16:22:12Z</time></trkpt><trkpt lat="42.95755975805042" lon="-3.380363457425777"><ele>660.0</ele><time>2026-04-13T16:22:13Z</time></trkpt><trkpt lat="42.95765591591427" lon="-3.3804506845006355"><ele>660.0</ele><time>2026-04-13T16:22:14Z</time></trkpt><trkpt lat="42.95776412032347" lon="-3.3805580116843976"><ele>658.6</ele><time>2026-04-13T16:22:15Z</time></trkpt><trkpt lat="42.95787080421423" lon="-3.38063741638935"><ele>657.2</ele><time>2026-04-13T16:22:16Z</time></trkpt><trkpt lat="42.95795616713289" lon="-3.3807345912783164"><ele>655.8</ele><time>2026-04-13T16:22:17Z</time></trkpt><trkpt lat="42.95804250334766" lon="-3.3808091726484113"><ele>654.4</ele><time>2026-04-13T16:22:18Z</time></trkpt><trkpt lat="42.95814203695929" lon="-3.380882028940206"><ele>653.0</ele><time>2026-04-13T16:22:19Z</time></trkpt><trkpt lat="42.9582441607074" lon="-3.3809302160607664"><ele>653.0</ele><time>2026-04-13T16:22:20Z</time></trkpt><trkpt lat="42.95833818212538" lon="-3.380945655030756"><ele>653.0</ele><time>2026-04-13T16:22:21Z</time></trkpt><trkpt lat="42.958443845564815" lon="-3.3809427465646715"><ele>653.0</ele><time>2026-04-13T16:22:22Z</time></trkpt><trkpt lat="42.95856204237159" lon="-3.3809078955851266"><ele>653.0</ele><time>2026-04-13T16:22:23Z</time></trkpt><trkpt lat="42.958701977191645" lon="-3.380885897631611"><ele>652.6666666666666</ele><time>2026-04-13T16:22:24Z</time></trkpt><trkpt lat="42.95884386734355" lon="-3.3808635923074086"><ele>652.3333333333334</ele><time>2026-04-13T16:22:25Z</time></trkpt><trkpt lat="42.958994132333714" lon="-3.380840684087917"><ele>652.0</ele><time>2026-04-13T16:22:26Z</time></trkpt><trkpt lat="42.959164734824604" lon="-3.3808150610978234"><ele>650.6666666666667</ele><time>2026-04-13T16:22:27Z</time></trkpt><trkpt lat="42.95936839935882" lon="-3.38078354675019"><ele>649.3333333333334</ele><time>2026-04-13T16:22:28Z</time></trkpt><trkpt lat="42.959584698466045" lon="-3.3807710650383656"><ele>648.0</ele><time>2026-04-13T16:22:29Z</time></trkpt><trkpt lat="42.95978885537236" lon="-3.3807191765783364"><ele>648.0</ele><time>2026-04-13T16:22:30Z</time></trkpt><trkpt lat="42.95996963299168" lon="-3.380692505906167"><ele>648.0</ele><time>2026-04-13T16:22:31Z</time></trkpt><trkpt lat="42.96012948244038" lon="-3.3806685664053355"><ele>648.0</ele><time>2026-04-13T16:22:32Z</time></trkpt><trkpt lat="42.96028817583341" lon="-3.3806459578085217"><ele>647.25</ele><time>2026-04-13T16:22:33Z</time></trkpt><trkpt lat="42.96042954363006" lon="-3.3806395575416657"><ele>646.5</ele><time>2026-04-13T16:22:34Z</time></trkpt><trkpt lat="42.960556933056274" lon="-3.380673142942521"><ele>645.75</ele><time>2026-04-13T16:22:35Z</time></trkpt><trkpt lat="42.96069026941255" lon="-3.3807001593854045"><ele>645.0</ele><time>2026-04-13T16:22:36Z</time></trkpt><trkpt lat="42.96082297191837" lon="-3.3807425169553125"><ele>644.0</ele><time>2026-04-13T16:22:37Z</time></trkpt><trkpt lat="42.96094653681583" lon="-3.380792328185933"><ele>643.0</ele><time>2026-04-13T16:22:38Z</time></trkpt><trkpt lat="42.961048434714016" lon="-3.3808632948646764"><ele>642.0</ele><time>2026-04-13T16:22:39Z</time></trkpt><trkpt lat="42.961158048016216" lon="-3.380950860417675"><ele>641.0</ele><time>2026-04-13T16:22:40Z</time></trkpt><trkpt lat="42.961276101203325" lon="-3.381043683699163"><ele>641.0</ele><time>2026-04-13T16:22:41Z</time></trkpt><trkpt lat="42.96138027169387" lon="-3.381128253611214"><ele>641.0</ele><time>2026-04-13T16:22:42Z</time></trkpt><trkpt lat="42.96145658254015" lon="-3.3811979984475604"><ele>641.0</ele><time>2026-04-13T16:22:43Z</time></trkpt><trkpt lat="42.96151798683441" lon="-3.3812544760521734"><ele>641.0</ele><time>2026-04-13T16:22:44Z</time></trkpt><trkpt lat="42.961618511957" lon="-3.381327760484115"><ele>641.0</ele><time>2026-04-13T16:22:46Z</time></trkpt><trkpt lat="42.961678014423455" lon="-3.38135716411684"><ele>641.0</ele><time>2026-04-13T16:22:47Z</time></trkpt><trkpt lat="42.961666639196224" lon="-3.381561938995634"><ele>641.0</ele><time>2026-04-13T16:22:48Z</time></trkpt><trkpt lat="42.96169121711186" lon="-3.3816852336690846"><ele>641.0</ele><time>2026-04-13T16:22:49Z</time></trkpt><trkpt lat="42.96170933625348" lon="-3.381821146033857"><ele>641.0</ele><time>2026-04-13T16:22:50Z</time></trkpt><trkpt lat="42.96172498550035" lon="-3.3819493673660292"><ele>641.0</ele><time>2026-04-13T16:22:51Z</time></trkpt><trkpt lat="42.961742180538856" lon="-3.3820908704937134"><ele>641.4</ele><time>2026-04-13T16:22:52Z</time></trkpt><trkpt lat="42.961759156722934" lon="-3.3822283287093247"><ele>641.8</ele><time>2026-04-13T16:22:53Z</time></trkpt><trkpt lat="42.96177729774217" lon="-3.382356890355992"><ele>642.1999999999999</ele><time>2026-04-13T16:22:54Z</time></trkpt><trkpt lat="42.96179995441997" lon="-3.382494395565181"><ele>642.5999999999999</ele><time>2026-04-13T16:22:55Z</time></trkpt><trkpt lat="42.961820211370714" lon="-3.3826389143333078"><ele>643.0</ele><time>2026-04-13T16:22:56Z</time></trkpt><trkpt lat="42.961866820607995" lon="-3.382773361495265"><ele>643.0</ele><time>2026-04-13T16:22:57Z</time></trkpt><trkpt lat="42.96191586860775" lon="-3.382889622166854"><ele>643.0</ele><time>2026-04-13T16:22:58Z</time></trkpt><trkpt lat="42.961955543428175" lon="-3.383008482889285"><ele>643.0</ele><time>2026-04-13T16:22:59Z</time></trkpt><trkpt lat="42.96199594898261" lon="-3.3831181568198865"><ele>643.0</ele><time>2026-04-13T16:23:00Z</time></trkpt><trkpt lat="42.961991103243456" lon="-3.3832525191885265"><ele>643.0</ele><time>2026-04-13T16:23:01Z</time></trkpt><trkpt lat="42.961935235356314" lon="-3.3833854348604975"><ele>642.5</ele><time>2026-04-13T16:23:02Z</time></trkpt><trkpt lat="42.96187847177047" lon="-3.383559432315581"><ele>642.0</ele><time>2026-04-13T16:23:03Z</time></trkpt><trkpt lat="42.961848084620854" lon="-3.3837178679759035"><ele>641.5</ele><time>2026-04-13T16:23:04Z</time></trkpt><trkpt lat="42.96188646908551" lon="-3.3838737116145015"><ele>641.0</ele><time>2026-04-13T16:23:05Z</time></trkpt><trkpt lat="42.96193460243785" lon="-3.3840351872339465"><ele>641.0</ele><time>2026-04-13T16:23:06Z</time></trkpt><trkpt lat="42.96199091284813" lon="-3.384226679078262"><ele>641.0</ele><time>2026-04-13T16:23:07Z</time></trkpt><trkpt lat="42.96204311630915" lon="-3.384459001125248"><ele>641.0</ele><time>2026-04-13T16:23:08Z</time></trkpt><trkpt lat="42.96211291143756" lon="-3.3847067780843907"><ele>641.0</ele><time>2026-04-13T16:23:09Z</time></trkpt><trkpt lat="42.962207269254684" lon="-3.3849812158829327"><ele>641.0</ele><time>2026-04-13T16:23:10Z</time></trkpt><trkpt lat="42.96228764686178" lon="-3.385262831838238"><ele>641.0</ele><time>2026-04-13T16:23:11Z</time></trkpt><trkpt lat="42.96236534418102" lon="-3.385534131839785"><ele>641.0</ele><time>2026-04-13T16:23:12Z</time></trkpt><trkpt lat="42.96241430575948" lon="-3.385762075807843"><ele>641.0</ele><time>2026-04-13T16:23:13Z</time></trkpt><trkpt lat="42.962485426607834" lon="-3.3859997309750187"><ele>641.0</ele><time>2026-04-13T16:23:14Z</time></trkpt><trkpt lat="42.962549618766836" lon="-3.3862019708264257"><ele>643.0</ele><time>2026-04-13T16:23:15Z</time></trkpt><trkpt lat="42.962602208530626" lon="-3.386385329268948"><ele>645.0</ele><time>2026-04-13T16:23:16Z</time></trkpt><trkpt lat="42.96265903523076" lon="-3.3865635617041976"><ele>647.0</ele><time>2026-04-13T16:23:17Z</time></trkpt><trkpt lat="42.96271199112355" lon="-3.3867290918304"><ele>649.0</ele><time>2026-04-13T16:23:18Z</time></trkpt><trkpt lat="42.96276361417953" lon="-3.386900870487171"><ele>649.0</ele><time>2026-04-13T16:23:19Z</time></trkpt><trkpt lat="42.96282030242666" lon="-3.387096330562951"><ele>649.0</ele><time>2026-04-13T16:23:20Z</time></trkpt><trkpt lat="42.96286976627953" lon="-3.3872960299916404"><ele>649.0</ele><time>2026-04-13T16:23:21Z</time></trkpt><trkpt lat="42.96291829863354" lon="-3.387513883913107"><ele>649.0</ele><time>2026-04-13T16:23:22Z</time></trkpt><trkpt lat="42.9629734988659" lon="-3.3877518391324877"><ele>649.0</ele><time>2026-04-13T16:23:23Z</time></trkpt><trkpt lat="42.96303519511062" lon="-3.3880037291021705"><ele>649.0</ele><time>2026-04-13T16:23:24Z</time></trkpt><trkpt lat="42.96309854749168" lon="-3.3882637487443494"><ele>649.0</ele><time>2026-04-13T16:23:25Z</time></trkpt><trkpt lat="42.96315815282723" lon="-3.3885191410688598"><ele>649.0</ele><time>2026-04-13T16:23:26Z</time></trkpt><trkpt lat="42.963218174726826" lon="-3.3887866395999438"><ele>649.0</ele><time>2026-04-13T16:23:27Z</time></trkpt><trkpt lat="42.96327789794312" lon="-3.389055815983357"><ele>649.0</ele><time>2026-04-13T16:23:28Z</time></trkpt><trkpt lat="42.96334542230273" lon="-3.3893386269707926"><ele>649.0</ele><time>2026-04-13T16:23:29Z</time></trkpt><trkpt lat="42.96341180626029" lon="-3.3896133583073498"><ele>649.0</ele><time>2026-04-13T16:23:30Z</time></trkpt><trkpt lat="42.96347815788062" lon="-3.3898886972401354"><ele>649.0</ele><time>2026-04-13T16:23:31Z</time></trkpt><trkpt lat="42.96354450950009" lon="-3.390169616593728"><ele>649.0</ele><time>2026-04-13T16:23:32Z</time></trkpt><trkpt lat="42.96361128268012" lon="-3.390448344478142"><ele>649.0</ele><time>2026-04-13T16:23:33Z</time></trkpt><trkpt lat="42.96368519308294" lon="-3.390721263407746"><ele>649.0</ele><time>2026-04-13T16:23:34Z</time></trkpt><trkpt lat="42.96374803200011" lon="-3.390998425475924"><ele>649.0</ele><time>2026-04-13T16:23:35Z</time></trkpt><trkpt lat="42.96381694064811" lon="-3.391286522016695"><ele>649.0</ele><time>2026-04-13T16:23:36Z</time></trkpt><trkpt lat="42.9638886212959" lon="-3.3915757977172754"><ele>650.0</ele><time>2026-04-13T16:23:37Z</time></trkpt><trkpt lat="42.963958032587065" lon="-3.3918695355447763"><ele>651.0</ele><time>2026-04-13T16:23:38Z</time></trkpt><trkpt lat="42.9640229405857" lon="-3.392138217950243"><ele>652.0</ele><time>2026-04-13T16:23:39Z</time></trkpt><trkpt lat="42.96407734677334" lon="-3.3923678939826707"><ele>652.25</ele><time>2026-04-13T16:23:40Z</time></trkpt><trkpt lat="42.964127551150135" lon="-3.3925757169192923"><ele>652.5</ele><time>2026-04-13T16:23:41Z</time></trkpt><trkpt lat="42.96417116922499" lon="-3.392751783246289"><ele>652.75</ele><time>2026-04-13T16:23:42Z</time></trkpt><trkpt lat="42.96421591289017" lon="-3.3929109334499468"><ele>653.0</ele><time>2026-04-13T16:23:43Z</time></trkpt><trkpt lat="42.96426744511151" lon="-3.393046125348554"><ele>653.25</ele><time>2026-04-13T16:23:44Z</time></trkpt><trkpt lat="42.96434157139268" lon="-3.393170705302442"><ele>653.5</ele><time>2026-04-13T16:23:45Z</time></trkpt><trkpt lat="42.96444496427438" lon="-3.3933077359384263"><ele>653.75</ele><time>2026-04-13T16:23:46Z</time></trkpt><trkpt lat="42.96455636689485" lon="-3.393453741295503"><ele>654.0</ele><time>2026-04-13T16:23:47Z</time></trkpt><trkpt lat="42.96468009047736" lon="-3.3936227876358886"><ele>654.0</ele><time>2026-04-13T16:23:48Z</time></trkpt><trkpt lat="42.964795659586585" lon="-3.393795246203496"><ele>654.0</ele><time>2026-04-13T16:23:49Z</time></trkpt><trkpt lat="42.964893850120475" lon="-3.3939386054529654"><ele>654.0</ele><time>2026-04-13T16:23:50Z</time></trkpt><trkpt lat="42.96498338657998" lon="-3.394073994183721"><ele>654.0</ele><time>2026-04-13T16:23:51Z</time></trkpt><trkpt lat="42.96506609737136" lon="-3.394196774551979"><ele>653.25</ele><time>2026-04-13T16:23:52Z</time></trkpt><trkpt lat="42.965143729309084" lon="-3.394306772001261"><ele>652.5</ele><time>2026-04-13T16:23:53Z</time></trkpt><trkpt lat="42.96522420970948" lon="-3.394424666368518"><ele>651.75</ele><time>2026-04-13T16:23:54Z</time></trkpt><trkpt lat="42.965303423114335" lon="-3.3945551946961765"><ele>651.0</ele><time>2026-04-13T16:23:55Z</time></trkpt><trkpt lat="42.96537483046434" lon="-3.3946808157356307"><ele>650.5999999999999</ele><time>2026-04-13T16:23:56Z</time></trkpt><trkpt lat="42.96543596595309" lon="-3.3947943476820934"><ele>650.2</ele><time>2026-04-13T16:23:57Z</time></trkpt><trkpt lat="42.96549467650794" lon="-3.3949055738040097"><ele>649.8</ele><time>2026-04-13T16:23:58Z</time></trkpt><trkpt lat="42.96554676380695" lon="-3.3950114976083854"><ele>649.4000000000001</ele><time>2026-04-13T16:23:59Z</time></trkpt><trkpt lat="42.965605675838866" lon="-3.395134902432447"><ele>649.0</ele><time>2026-04-13T16:24:00Z</time></trkpt><trkpt lat="42.9656748847974" lon="-3.3952676971777263"><ele>649.0</ele><time>2026-04-13T16:24:01Z</time></trkpt><trkpt lat="42.96574764821865" lon="-3.395404098895629"><ele>649.0</ele><time>2026-04-13T16:24:02Z</time></trkpt><trkpt lat="42.96581999659332" lon="-3.395543000514719"><ele>649.0</ele><time>2026-04-13T16:24:03Z</time></trkpt><trkpt lat="42.96589603396138" lon="-3.3956975282806345"><ele>649.0</ele><time>2026-04-13T16:24:04Z</time></trkpt><trkpt lat="42.96597653032124" lon="-3.3958618557205624"><ele>648.25</ele><time>2026-04-13T16:24:05Z</time></trkpt><trkpt lat="42.96606461300662" lon="-3.396027914945777"><ele>647.5</ele><time>2026-04-13T16:24:06Z</time></trkpt><trkpt lat="42.96615259702533" lon="-3.396183834496411"><ele>646.75</ele><time>2026-04-13T16:24:07Z</time></trkpt><trkpt lat="42.96624063876618" lon="-3.396341948709903"><ele>646.0</ele><time>2026-04-13T16:24:08Z</time></trkpt><trkpt lat="42.966325146743976" lon="-3.3964951350974855"><ele>646.0</ele><time>2026-04-13T16:24:09Z</time></trkpt><trkpt lat="42.966408379834164" lon="-3.396657618137193"><ele>646.0</ele><time>2026-04-13T16:24:10Z</time></trkpt><trkpt lat="42.966506135153814" lon="-3.3968407004088745"><ele>646.0</ele><time>2026-04-13T16:24:11Z</time></trkpt><trkpt lat="42.966610619293114" lon="-3.397032451281033"><ele>646.0</ele><time>2026-04-13T16:24:12Z</time></trkpt><trkpt lat="42.966692545024" lon="-3.3972002676525594"><ele>646.0</ele><time>2026-04-13T16:24:13Z</time></trkpt><trkpt lat="42.9667674349518" lon="-3.397346127513247"><ele>646.0</ele><time>2026-04-13T16:24:14Z</time></trkpt><trkpt lat="42.96683466791611" lon="-3.39747282627634"><ele>646.0</ele><time>2026-04-13T16:24:15Z</time></trkpt><trkpt lat="42.966892627113396" lon="-3.3975791324287763"><ele>644.5</ele><time>2026-04-13T16:24:16Z</time></trkpt><trkpt lat="42.96693744133551" lon="-3.3976788068436017"><ele>643.0</ele><time>2026-04-13T16:24:17Z</time></trkpt><trkpt lat="42.96698036925091" lon="-3.397813311594099"><ele>641.5</ele><time>2026-04-13T16:24:18Z</time></trkpt><trkpt lat="42.96703136824685" lon="-3.397976495068145"><ele>640.0</ele><time>2026-04-13T16:24:19Z</time></trkpt><trkpt lat="42.9670911001523" lon="-3.398154890875372"><ele>640.0</ele><time>2026-04-13T16:24:20Z</time></trkpt><trkpt lat="42.96715228852017" lon="-3.3983415420158436"><ele>640.0</ele><time>2026-04-13T16:24:21Z</time></trkpt><trkpt lat="42.96721485405229" lon="-3.3985246548830426"><ele>640.0</ele><time>2026-04-13T16:24:22Z</time></trkpt><trkpt lat="42.96727995769965" lon="-3.398676754093059"><ele>640.0</ele><time>2026-04-13T16:24:23Z</time></trkpt><trkpt lat="42.967353409101314" lon="-3.398785533262661"><ele>640.5</ele><time>2026-04-13T16:24:24Z</time></trkpt><trkpt lat="42.967444714246085" lon="-3.398886269394923"><ele>641.0</ele><time>2026-04-13T16:24:25Z</time></trkpt><trkpt lat="42.96754924221664" lon="-3.398982912604391"><ele>641.5</ele><time>2026-04-13T16:24:26Z</time></trkpt><trkpt lat="42.96766041952754" lon="-3.3990859259314496"><ele>642.0</ele><time>2026-04-13T16:24:27Z</time></trkpt><trkpt lat="42.96777139484891" lon="-3.399191707719138"><ele>639.3333333333334</ele><time>2026-04-13T16:24:28Z</time></trkpt><trkpt lat="42.96790388200499" lon="-3.399324957789742"><ele>636.6666666666667</ele><time>2026-04-13T16:24:29Z</time></trkpt><trkpt lat="42.96803700303889" lon="-3.399451625283534"><ele>634.0</ele><time>2026-04-13T16:24:30Z</time></trkpt><trkpt lat="42.968166832943616" lon="-3.399581477367306"><ele>634.3333333333334</ele><time>2026-04-13T16:24:31Z</time></trkpt><trkpt lat="42.96829337064949" lon="-3.3997150343444726"><ele>634.6666666666666</ele><time>2026-04-13T16:24:32Z</time></trkpt><trkpt lat="42.96842640221757" lon="-3.399843814672192"><ele>635.0</ele><time>2026-04-13T16:24:33Z</time></trkpt><trkpt lat="42.96855423289134" lon="-3.399965719208563"><ele>634.0</ele><time>2026-04-13T16:24:34Z</time></trkpt><trkpt lat="42.96869687089283" lon="-3.400100579117348"><ele>633.0</ele><time>2026-04-13T16:24:35Z</time></trkpt><trkpt lat="42.968826775776925" lon="-3.400228135778403"><ele>632.0</ele><time>2026-04-13T16:24:36Z</time></trkpt><trkpt lat="42.96897043843328" lon="-3.4003648741261427"><ele>632.0</ele><time>2026-04-13T16:24:37Z</time></trkpt><trkpt lat="42.96911010226641" lon="-3.4004984048009446"><ele>632.0</ele><time>2026-04-13T16:24:38Z</time></trkpt><trkpt lat="42.96924988538128" lon="-3.400636426457396"><ele>632.0</ele><time>2026-04-13T16:24:39Z</time></trkpt><trkpt lat="42.96939499812091" lon="-3.400770566394856"><ele>632.0</ele><time>2026-04-13T16:24:40Z</time></trkpt><trkpt lat="42.96953386804295" lon="-3.400906543675892"><ele>632.0</ele><time>2026-04-13T16:24:41Z</time></trkpt><trkpt lat="42.96967859912684" lon="-3.401049827659891"><ele>632.0</ele><time>2026-04-13T16:24:42Z</time></trkpt><trkpt lat="42.96982125456363" lon="-3.4011810514689587"><ele>632.0</ele><time>2026-04-13T16:24:43Z</time></trkpt><trkpt lat="42.96996689240117" lon="-3.4013180647157895"><ele>632.0</ele><time>2026-04-13T16:24:44Z</time></trkpt><trkpt lat="42.97008983434407" lon="-3.401430570262016"><ele>632.0</ele><time>2026-04-13T16:24:45Z</time></trkpt><trkpt lat="42.97018755383852" lon="-3.4015226229736375"><ele>632.0</ele><time>2026-04-13T16:24:46Z</time></trkpt><trkpt lat="42.9702815386263" lon="-3.401614513043617"><ele>632.4</ele><time>2026-04-13T16:24:47Z</time></trkpt><trkpt lat="42.9703647590827" lon="-3.4016922181843943"><ele>632.8000000000001</ele><time>2026-04-13T16:24:48Z</time></trkpt><trkpt lat="42.97042137916617" lon="-3.4017356287601928"><ele>633.2</ele><time>2026-04-13T16:24:49Z</time></trkpt><trkpt lat="42.97055965724751" lon="-3.401768186570191"><ele>633.6</ele><time>2026-04-13T16:24:51Z</time></trkpt><trkpt lat="42.970642595292745" lon="-3.4017447676224317"><ele>634.0</ele><time>2026-04-13T16:24:52Z</time></trkpt><trkpt lat="42.970720423725105" lon="-3.4016907102324314"><ele>634.0</ele><time>2026-04-13T16:24:53Z</time></trkpt><trkpt lat="42.97078069878691" lon="-3.4016171497949212"><ele>634.0</ele><time>2026-04-13T16:24:54Z</time></trkpt><trkpt lat="42.97083037187649" lon="-3.4015361461142213"><ele>634.0</ele><time>2026-04-13T16:24:55Z</time></trkpt><trkpt lat="42.97087174638298" lon="-3.4014598809496337"><ele>634.0</ele><time>2026-04-13T16:24:56Z</time></trkpt><trkpt lat="42.97091763808595" lon="-3.4013899501345612"><ele>634.0</ele><time>2026-04-13T16:24:57Z</time></trkpt><trkpt lat="42.970963389137" lon="-3.4013283498692646"><ele>634.0</ele><time>2026-04-13T16:24:58Z</time></trkpt><trkpt lat="42.97100246087721" lon="-3.4012506907474123"><ele>634.0</ele><time>2026-04-13T16:24:59Z</time></trkpt><trkpt lat="42.97104129494832" lon="-3.4011472403044665"><ele>634.2</ele><time>2026-04-13T16:25:00Z</time></trkpt><trkpt lat="42.97109709261779" lon="-3.4010142573561857"><ele>634.4</ele><time>2026-04-13T16:25:01Z</time></trkpt><trkpt lat="42.971151963619064" lon="-3.4008763075862865"><ele>634.6</ele><time>2026-04-13T16:25:02Z</time></trkpt><trkpt lat="42.97119433522431" lon="-3.400778318177516"><ele>634.8</ele><time>2026-04-13T16:25:03Z</time></trkpt><trkpt lat="42.971252843362066" lon="-3.400676961161338"><ele>635.0</ele><time>2026-04-13T16:25:05Z</time></trkpt><trkpt lat="42.97132789950592" lon="-3.400643682083632"><ele>635.0</ele><time>2026-04-13T16:25:27Z</time></trkpt><trkpt lat="42.971434412882054" lon="-3.400686321032344"><ele>635.0</ele><time>2026-04-13T16:25:29Z</time></trkpt><trkpt lat="42.97150070429826" lon="-3.4007326150883848"><ele>635.0</ele><time>2026-04-13T16:25:30Z</time></trkpt><trkpt lat="42.97157135751335" lon="-3.4007858762227086"><ele>635.0</ele><time>2026-04-13T16:25:31Z</time></trkpt><trkpt lat="42.97163980891874" lon="-3.400830567893899"><ele>635.0</ele><time>2026-04-13T16:25:32Z</time></trkpt><trkpt lat="42.97170565621737" lon="-3.4008693642411005"><ele>635.0</ele><time>2026-04-13T16:25:33Z</time></trkpt><trkpt lat="42.97178122464324" lon="-3.4009165200653255"><ele>635.8333333333333</ele><time>2026-04-13T16:25:34Z</time></trkpt><trkpt lat="42.971855759533504" lon="-3.400975279917842"><ele>636.6666666666666</ele><time>2026-04-13T16:25:35Z</time></trkpt><trkpt lat="42.97192321851748" lon="-3.4010333277729305"><ele>637.5</ele><time>2026-04-13T16:25:36Z</time></trkpt><trkpt lat="42.97199004623115" lon="-3.401090831016745"><ele>638.3333333333334</ele><time>2026-04-13T16:25:37Z</time></trkpt><trkpt lat="42.972100849462144" lon="-3.401119186811554"><ele>639.1666666666667</ele><time>2026-04-13T16:25:38Z</time></trkpt><trkpt lat="42.972175941996184" lon="-3.4011836289497572"><ele>640.0</ele><time>2026-04-13T16:25:39Z</time></trkpt><trkpt lat="42.9722450197289" lon="-3.40124860727027"><ele>640.0</ele><time>2026-04-13T16:25:40Z</time></trkpt><trkpt lat="42.97230104508239" lon="-3.40132290290248"><ele>640.0</ele><time>2026-04-13T16:25:41Z</time></trkpt><trkpt lat="42.972357077326244" lon="-3.401393212097581"><ele>640.0</ele><time>2026-04-13T16:25:42Z</time></trkpt><trkpt lat="42.972418101294316" lon="-3.401467436824281"><ele>640.0</ele><time>2026-04-13T16:25:43Z</time></trkpt><trkpt lat="42.97247132669956" lon="-3.401558365676219"><ele>640.0</ele><time>2026-04-13T16:25:44Z</time></trkpt><trkpt lat="42.97251157282438" lon="-3.4016685148234806"><ele>640.0</ele><time>2026-04-13T16:25:45Z</time></trkpt><trkpt lat="42.97254789203364" lon="-3.4017666732049787"><ele>639.1666666666667</ele><time>2026-04-13T16:25:46Z</time></trkpt><trkpt lat="42.9725786259339" lon="-3.401874579179291"><ele>638.3333333333334</ele><time>2026-04-13T16:25:47Z</time></trkpt><trkpt lat="42.972601231672435" lon="-3.401972259964294"><ele>637.5</ele><time>2026-04-13T16:25:48Z</time></trkpt><trkpt lat="42.97262913733046" lon="-3.4020513575750138"><ele>636.6666666666666</ele><time>2026-04-13T16:25:49Z</time></trkpt><trkpt lat="42.97268978578273" lon="-3.4021586417631537"><ele>635.8333333333333</ele><time>2026-04-13T16:25:51Z</time></trkpt><trkpt lat="42.97278634160672" lon="-3.4021457212071464"><ele>635.0</ele><time>2026-04-13T16:25:54Z</time></trkpt><trkpt lat="42.9728882295389" lon="-3.402055647955977"><ele>635.0</ele><time>2026-04-13T16:25:56Z</time></trkpt><trkpt lat="42.97295366384921" lon="-3.402007846361348"><ele>635.0</ele><time>2026-04-13T16:25:57Z</time></trkpt><trkpt lat="42.973020757593915" lon="-3.4019650717558454"><ele>635.0</ele><time>2026-04-13T16:25:58Z</time></trkpt><trkpt lat="42.973089281747576" lon="-3.4019291945905676"><ele>635.0</ele><time>2026-04-13T16:25:59Z</time></trkpt><trkpt lat="42.973135351736104" lon="-3.4018328285268677"><ele>635.0</ele><time>2026-04-13T16:26:00Z</time></trkpt><trkpt lat="42.97315882435731" lon="-3.4017120235418736"><ele>635.0</ele><time>2026-04-13T16:26:01Z</time></trkpt><trkpt lat="42.973150128212886" lon="-3.4015693506349103"><ele>635.0</ele><time>2026-04-13T16:26:02Z</time></trkpt><trkpt lat="42.973130361061905" lon="-3.401437689233041"><ele>635.0</ele><time>2026-04-13T16:26:03Z</time></trkpt><trkpt lat="42.973108754769115" lon="-3.4012861090015036"><ele>635.0</ele><time>2026-04-13T16:26:04Z</time></trkpt><trkpt lat="42.973090033450326" lon="-3.40111861297392"><ele>635.0</ele><time>2026-04-13T16:26:05Z</time></trkpt><trkpt lat="42.97307362116407" lon="-3.4009356696064046"><ele>635.0</ele><time>2026-04-13T16:26:06Z</time></trkpt><trkpt lat="42.97306559692487" lon="-3.400768023204253"><ele>635.0</ele><time>2026-04-13T16:26:07Z</time></trkpt><trkpt lat="42.97307015403784" lon="-3.400599843656335"><ele>635.0</ele><time>2026-04-13T16:26:08Z</time></trkpt><trkpt lat="42.97309947698396" lon="-3.4004275398216395"><ele>635.0</ele><time>2026-04-13T16:26:09Z</time></trkpt><trkpt lat="42.97314653257066" lon="-3.400248044824121"><ele>636.0</ele><time>2026-04-13T16:26:10Z</time></trkpt><trkpt lat="42.97319600207844" lon="-3.400057452505126"><ele>637.0</ele><time>2026-04-13T16:26:11Z</time></trkpt><trkpt lat="42.973236574014315" lon="-3.399859334127647"><ele>638.0</ele><time>2026-04-13T16:26:12Z</time></trkpt><trkpt lat="42.97326948230415" lon="-3.399641820255061"><ele>637.6666666666666</ele><time>2026-04-13T16:26:13Z</time></trkpt><trkpt lat="42.9732998898029" lon="-3.399404198521146"><ele>637.3333333333334</ele><time>2026-04-13T16:26:14Z</time></trkpt><trkpt lat="42.97333635492111" lon="-3.399155397769324"><ele>637.0</ele><time>2026-04-13T16:26:15Z</time></trkpt><trkpt lat="42.973364371290096" lon="-3.3988906677349857"><ele>637.3333333333334</ele><time>2026-04-13T16:26:16Z</time></trkpt><trkpt lat="42.97338803737576" lon="-3.398611026087436"><ele>637.6666666666666</ele><time>2026-04-13T16:26:17Z</time></trkpt><trkpt lat="42.97340536070652" lon="-3.3983525476271077"><ele>638.0</ele><time>2026-04-13T16:26:18Z</time></trkpt><trkpt lat="42.97342847343887" lon="-3.3980853783739966"><ele>638.0</ele><time>2026-04-13T16:26:19Z</time></trkpt><trkpt lat="42.97345163939846" lon="-3.3978081910861375"><ele>638.0</ele><time>2026-04-13T16:26:20Z</time></trkpt><trkpt lat="42.973471365358726" lon="-3.397524672563968"><ele>638.0</ele><time>2026-04-13T16:26:21Z</time></trkpt><trkpt lat="42.97348795959876" lon="-3.3972358033353087"><ele>638.6666666666666</ele><time>2026-04-13T16:26:22Z</time></trkpt><trkpt lat="42.97349726097233" lon="-3.3969448654991115"><ele>639.3333333333334</ele><time>2026-04-13T16:26:23Z</time></trkpt><trkpt lat="42.97350967876324" lon="-3.3967276363467556"><ele>640.0</ele><time>2026-04-13T16:26:24Z</time></trkpt><trkpt lat="42.97352614831719" lon="-3.3965336260703256"><ele>640.0</ele><time>2026-04-13T16:26:25Z</time></trkpt><trkpt lat="42.97349037038824" lon="-3.396052048780739"><ele>640.0</ele><time>2026-04-13T16:26:26Z</time></trkpt><trkpt lat="42.9734801694772" lon="-3.3957544794112997"><ele>640.3333333333334</ele><time>2026-04-13T16:26:27Z</time></trkpt><trkpt lat="42.97347018322358" lon="-3.3954547464817204"><ele>640.6666666666666</ele><time>2026-04-13T16:26:28Z</time></trkpt><trkpt lat="42.973471359192594" lon="-3.3951602732496067"><ele>641.0</ele><time>2026-04-13T16:26:29Z</time></trkpt><trkpt lat="42.973463379982476" lon="-3.394866281674656"><ele>641.3333333333333</ele><time>2026-04-13T16:26:30Z</time></trkpt><trkpt lat="42.97345653691598" lon="-3.3945811428126236"><ele>641.6666666666666</ele><time>2026-04-13T16:26:31Z</time></trkpt><trkpt lat="42.973454214986255" lon="-3.3943309453074124"><ele>642.0</ele><time>2026-04-13T16:26:32Z</time></trkpt><trkpt lat="42.97345616385707" lon="-3.3941060519073103"><ele>642.0</ele><time>2026-04-13T16:26:33Z</time></trkpt><trkpt lat="42.973452461547744" lon="-3.3938977865313977"><ele>642.0</ele><time>2026-04-13T16:26:34Z</time></trkpt><trkpt lat="42.97344765515164" lon="-3.3936946708176996"><ele>642.0</ele><time>2026-04-13T16:26:35Z</time></trkpt><trkpt lat="42.9734430077001" lon="-3.3934768903819714"><ele>642.3333333333334</ele><time>2026-04-13T16:26:36Z</time></trkpt><trkpt lat="42.97342646865375" lon="-3.393251985676494"><ele>642.6666666666667</ele><time>2026-04-13T16:26:37Z</time></trkpt><trkpt lat="42.97340124812513" lon="-3.39301633536345"><ele>643.0</ele><time>2026-04-13T16:26:38Z</time></trkpt><trkpt lat="42.97335893455504" lon="-3.392778670982526"><ele>645.0</ele><time>2026-04-13T16:26:39Z</time></trkpt><trkpt lat="42.973308359802935" lon="-3.3925368434067886"><ele>647.0</ele><time>2026-04-13T16:26:40Z</time></trkpt><trkpt lat="42.9732638201551" lon="-3.3922944993687913"><ele>649.0</ele><time>2026-04-13T16:26:41Z</time></trkpt><trkpt lat="42.973228227787374" lon="-3.3920439712220185"><ele>649.0</ele><time>2026-04-13T16:26:42Z</time></trkpt><trkpt lat="42.973197060906216" lon="-3.3917858137323775"><ele>649.0</ele><time>2026-04-13T16:26:43Z</time></trkpt><trkpt lat="42.973181307985705" lon="-3.3915249014956412"><ele>649.0</ele><time>2026-04-13T16:26:44Z</time></trkpt><trkpt lat="42.97316849331961" lon="-3.3912695684894234"><ele>649.0</ele><time>2026-04-13T16:26:45Z</time></trkpt><trkpt lat="42.973154114313814" lon="-3.391019727633047"><ele>649.0</ele><time>2026-04-13T16:26:46Z</time></trkpt><trkpt lat="42.973136804787714" lon="-3.390758403183716"><ele>649.0</ele><time>2026-04-13T16:26:47Z</time></trkpt><trkpt lat="42.97311393482029" lon="-3.3904853002166013"><ele>649.0</ele><time>2026-04-13T16:26:48Z</time></trkpt><trkpt lat="42.97308621862248" lon="-3.3902115406216744"><ele>649.0</ele><time>2026-04-13T16:26:49Z</time></trkpt><trkpt lat="42.97306115646649" lon="-3.3899395385450632"><ele>649.0</ele><time>2026-04-13T16:26:50Z</time></trkpt><trkpt lat="42.973039617701616" lon="-3.389669074438833"><ele>649.6666666666667</ele><time>2026-04-13T16:26:51Z</time></trkpt><trkpt lat="42.9730218924895" lon="-3.389410250740872"><ele>650.3333333333334</ele><time>2026-04-13T16:26:51.999Z</time></trkpt><trkpt lat="42.973007277324136" lon="-3.3891845187508416"><ele>651.0</ele><time>2026-04-13T16:26:53Z</time></trkpt><trkpt lat="42.97299319853926" lon="-3.3889604660079975"><ele>651.0</ele><time>2026-04-13T16:26:54Z</time></trkpt><trkpt lat="42.97297698247693" lon="-3.388723865786418"><ele>651.0</ele><time>2026-04-13T16:26:55Z</time></trkpt><trkpt lat="42.9729469086339" lon="-3.3884940035993174"><ele>651.0</ele><time>2026-04-13T16:26:56Z</time></trkpt><trkpt lat="42.97289483690324" lon="-3.38826786806777"><ele>651.0</ele><time>2026-04-13T16:26:57Z</time></trkpt><trkpt lat="42.972828529496155" lon="-3.3880454370161"><ele>651.0</ele><time>2026-04-13T16:26:58Z</time></trkpt><trkpt lat="42.972762500236655" lon="-3.387834084975437"><ele>651.0</ele><time>2026-04-13T16:26:59Z</time></trkpt><trkpt lat="42.972701857372044" lon="-3.387620055803185"><ele>650.6666666666666</ele><time>2026-04-13T16:27:00Z</time></trkpt><trkpt lat="42.97264788955348" lon="-3.3874002540693082"><ele>650.3333333333333</ele><time>2026-04-13T16:27:01Z</time></trkpt><trkpt lat="42.97259819838872" lon="-3.387184111220699"><ele>650.0</ele><time>2026-04-13T16:27:02Z</time></trkpt><trkpt lat="42.97255762228066" lon="-3.386965456853083"><ele>653.3333333333333</ele><time>2026-04-13T16:27:03Z</time></trkpt><trkpt lat="42.972518151735194" lon="-3.3867568920347133"><ele>656.6666666666666</ele><time>2026-04-13T16:27:04Z</time></trkpt><trkpt lat="42.97248814353463" lon="-3.3865479262638782"><ele>660.0</ele><time>2026-04-13T16:27:05Z</time></trkpt><trkpt lat="42.972454080906274" lon="-3.3863537919893547"><ele>660.75</ele><time>2026-04-13T16:27:06Z</time></trkpt><trkpt lat="42.972417957102" lon="-3.3861607304878363"><ele>661.5</ele><time>2026-04-13T16:27:07Z</time></trkpt><trkpt lat="42.97238308837753" lon="-3.38597883767473"><ele>662.25</ele><time>2026-04-13T16:27:08Z</time></trkpt><trkpt lat="42.97233578187967" lon="-3.3858010821902"><ele>663.0</ele><time>2026-04-13T16:27:09Z</time></trkpt><trkpt lat="42.97228158179086" lon="-3.3856184727111103"><ele>662.0</ele><time>2026-04-13T16:27:10Z</time></trkpt><trkpt lat="42.97222153953007" lon="-3.3854363163114196"><ele>661.0</ele><time>2026-04-13T16:27:11Z</time></trkpt><trkpt lat="42.972163849852386" lon="-3.3852446117242883"><ele>660.0</ele><time>2026-04-13T16:27:12Z</time></trkpt><trkpt lat="42.972108078077426" lon="-3.385057517964572"><ele>659.0</ele><time>2026-04-13T16:27:13Z</time></trkpt><trkpt lat="42.97205610542999" lon="-3.384866634065501"><ele>660.3333333333333</ele><time>2026-04-13T16:27:14Z</time></trkpt><trkpt lat="42.972006736827986" lon="-3.384678545769084"><ele>661.6666666666666</ele><time>2026-04-13T16:27:15Z</time></trkpt><trkpt lat="42.971962912775105" lon="-3.384476127919489"><ele>663.0</ele><time>2026-04-13T16:27:16Z</time></trkpt><trkpt lat="42.971933225248" lon="-3.3842637728749105"><ele>663.0</ele><time>2026-04-13T16:27:17Z</time></trkpt><trkpt lat="42.971918243839276" lon="-3.384045611995007"><ele>663.0</ele><time>2026-04-13T16:27:18Z</time></trkpt><trkpt lat="42.971908933257346" lon="-3.3838219180068076"><ele>663.0</ele><time>2026-04-13T16:27:19Z</time></trkpt><trkpt lat="42.97188963792492" lon="-3.3836131358670656"><ele>664.0</ele><time>2026-04-13T16:27:20Z</time></trkpt><trkpt lat="42.97185701175201" lon="-3.38342048009871"><ele>665.0</ele><time>2026-04-13T16:27:21Z</time></trkpt><trkpt lat="42.97181789018414" lon="-3.383219945443567"><ele>666.0</ele><time>2026-04-13T16:27:22Z</time></trkpt><trkpt lat="42.97176643758327" lon="-3.383015159593369"><ele>665.0</ele><time>2026-04-13T16:27:23Z</time></trkpt><trkpt lat="42.97170625717232" lon="-3.3827917006956265"><ele>664.0</ele><time>2026-04-13T16:27:24Z</time></trkpt><trkpt lat="42.971646454745674" lon="-3.3825505363241817"><ele>663.0</ele><time>2026-04-13T16:27:25Z</time></trkpt><trkpt lat="42.971589394165186" lon="-3.382285290443328"><ele>662.3333333333334</ele><time>2026-04-13T16:27:26Z</time></trkpt><trkpt lat="42.97155290837637" lon="-3.3820148011061644"><ele>661.6666666666667</ele><time>2026-04-13T16:27:27Z</time></trkpt><trkpt lat="42.97153291551345" lon="-3.381738111921741"><ele>661.0</ele><time>2026-04-13T16:27:28Z</time></trkpt><trkpt lat="42.971513840175355" lon="-3.381458641183404"><ele>661.0</ele><time>2026-04-13T16:27:29Z</time></trkpt><trkpt lat="42.971488598920615" lon="-3.3811738857752287"><ele>661.0</ele><time>2026-04-13T16:27:30Z</time></trkpt><trkpt lat="42.97145963054642" lon="-3.380886160568228"><ele>661.0</ele><time>2026-04-13T16:27:31Z</time></trkpt><trkpt lat="42.97143921013361" lon="-3.3806137399180187"><ele>660.0</ele><time>2026-04-13T16:27:32Z</time></trkpt><trkpt lat="42.971418466501966" lon="-3.380360948330701"><ele>659.0</ele><time>2026-04-13T16:27:33Z</time></trkpt><trkpt lat="42.97139705500695" lon="-3.380127491954464"><ele>658.0</ele><time>2026-04-13T16:27:34Z</time></trkpt><trkpt lat="42.97137537286858" lon="-3.37989736331768"><ele>658.0</ele><time>2026-04-13T16:27:35Z</time></trkpt><trkpt lat="42.97135304029123" lon="-3.379679945175147"><ele>658.0</ele><time>2026-04-13T16:27:36Z</time></trkpt><trkpt lat="42.97133166718506" lon="-3.3794874858165866"><ele>658.0</ele><time>2026-04-13T16:27:37Z</time></trkpt><trkpt lat="42.971309595294706" lon="-3.3792740962446244"><ele>658.0</ele><time>2026-04-13T16:27:38Z</time></trkpt><trkpt lat="42.97128818875871" lon="-3.3790541757344656"><ele>658.0</ele><time>2026-04-13T16:27:39Z</time></trkpt><trkpt lat="42.971273723574704" lon="-3.3788449815873225"><ele>658.0</ele><time>2026-04-13T16:27:40Z</time></trkpt><trkpt lat="42.971272989855606" lon="-3.378650201041083"><ele>658.6666666666667</ele><time>2026-04-13T16:27:41Z</time></trkpt><trkpt lat="42.97129389405031" lon="-3.37845055179145"><ele>659.3333333333334</ele><time>2026-04-13T16:27:42Z</time></trkpt><trkpt lat="42.97134403031155" lon="-3.378254613161479"><ele>660.0</ele><time>2026-04-13T16:27:43Z</time></trkpt><trkpt lat="42.97142509165694" lon="-3.3780702396838826"><ele>661.0</ele><time>2026-04-13T16:27:44Z</time></trkpt><trkpt lat="42.97152343112853" lon="-3.377897097389507"><ele>662.0</ele><time>2026-04-13T16:27:45Z</time></trkpt><trkpt lat="42.97160787482268" lon="-3.377710900567977"><ele>663.0</ele><time>2026-04-13T16:27:46Z</time></trkpt><trkpt lat="42.97167391957275" lon="-3.3775113869063924"><ele>665.6666666666666</ele><time>2026-04-13T16:27:47Z</time></trkpt><trkpt lat="42.97171876565032" lon="-3.3773069242392837"><ele>668.3333333333333</ele><time>2026-04-13T16:27:48Z</time></trkpt><trkpt lat="42.971759384855815" lon="-3.377087712044185"><ele>671.0</ele><time>2026-04-13T16:27:49Z</time></trkpt><trkpt lat="42.97179538539042" lon="-3.3768865524121954"><ele>671.75</ele><time>2026-04-13T16:27:50Z</time></trkpt><trkpt lat="42.971834691778184" lon="-3.3767014990509345"><ele>672.5</ele><time>2026-04-13T16:27:51Z</time></trkpt><trkpt lat="42.97187340460376" lon="-3.376521178739305"><ele>673.25</ele><time>2026-04-13T16:27:52Z</time></trkpt><trkpt lat="42.97191245884621" lon="-3.3763410585646225"><ele>674.0</ele><time>2026-04-13T16:27:53Z</time></trkpt><trkpt lat="42.971949672924815" lon="-3.376163528378685"><ele>674.25</ele><time>2026-04-13T16:27:54Z</time></trkpt><trkpt lat="42.97198799735861" lon="-3.3759918999427523"><ele>674.5</ele><time>2026-04-13T16:27:55Z</time></trkpt><trkpt lat="42.97203175076217" lon="-3.3758111426033506"><ele>674.75</ele><time>2026-04-13T16:27:56Z</time></trkpt><trkpt lat="42.97207873845221" lon="-3.375624215952753"><ele>675.0</ele><time>2026-04-13T16:27:57Z</time></trkpt><trkpt lat="42.97212571160489" lon="-3.3754384522820056"><ele>674.25</ele><time>2026-04-13T16:27:58Z</time></trkpt><trkpt lat="42.972169957980114" lon="-3.375254615559182"><ele>673.5</ele><time>2026-04-13T16:27:59Z</time></trkpt><trkpt lat="42.97220945742353" lon="-3.3750622796061864"><ele>672.75</ele><time>2026-04-13T16:28:00Z</time></trkpt><trkpt lat="42.97224314261554" lon="-3.3748805040971326"><ele>672.0</ele><time>2026-04-13T16:28:01Z</time></trkpt><trkpt lat="42.97227067498697" lon="-3.3747023544008536"><ele>673.0</ele><time>2026-04-13T16:28:02Z</time></trkpt><trkpt lat="42.972287192316315" lon="-3.3745019420117264"><ele>674.0</ele><time>2026-04-13T16:28:03Z</time></trkpt><trkpt lat="42.972303805656075" lon="-3.374283966545248"><ele>675.0</ele><time>2026-04-13T16:28:04Z</time></trkpt><trkpt lat="42.97232939186313" lon="-3.3740377385848315"><ele>676.0</ele><time>2026-04-13T16:28:05Z</time></trkpt><trkpt lat="42.97236275507456" lon="-3.3737828856774614"><ele>677.0</ele><time>2026-04-13T16:28:06Z</time></trkpt><trkpt lat="42.97240954689998" lon="-3.373529237580758"><ele>678.0</ele><time>2026-04-13T16:28:07Z</time></trkpt><trkpt lat="42.97247196246078" lon="-3.3732749893860143"><ele>680.0</ele><time>2026-04-13T16:28:08Z</time></trkpt><trkpt lat="42.972545245767215" lon="-3.3730064637546113"><ele>682.0</ele><time>2026-04-13T16:28:09Z</time></trkpt><trkpt lat="42.97261948900002" lon="-3.3727150539427493"><ele>684.0</ele><time>2026-04-13T16:28:10Z</time></trkpt><trkpt lat="42.972689675388935" lon="-3.372424431298472"><ele>684.0</ele><time>2026-04-13T16:28:11Z</time></trkpt><trkpt lat="42.972754926570246" lon="-3.3721232860959685"><ele>684.0</ele><time>2026-04-13T16:28:12Z</time></trkpt><trkpt lat="42.97281756807389" lon="-3.371821897071596"><ele>684.0</ele><time>2026-04-13T16:28:13Z</time></trkpt><trkpt lat="42.9728607364641" lon="-3.371551179956537"><ele>684.0</ele><time>2026-04-13T16:28:14Z</time></trkpt><trkpt lat="42.972891570778096" lon="-3.371301592085569"><ele>684.0</ele><time>2026-04-13T16:28:15Z</time></trkpt><trkpt lat="42.972923362253816" lon="-3.3710786960693433"><ele>683.75</ele><time>2026-04-13T16:28:16Z</time></trkpt><trkpt lat="42.972956961121426" lon="-3.3708885738427905"><ele>683.5</ele><time>2026-04-13T16:28:17Z</time></trkpt><trkpt lat="42.972994022012415" lon="-3.3707153222877526"><ele>683.25</ele><time>2026-04-13T16:28:18Z</time></trkpt><trkpt lat="42.9730437687217" lon="-3.370541029538493"><ele>683.0</ele><time>2026-04-13T16:28:19Z</time></trkpt><trkpt lat="42.973117789523826" lon="-3.3703821647327956"><ele>683.2</ele><time>2026-04-13T16:28:20Z</time></trkpt><trkpt lat="42.973190465640954" lon="-3.3702444905958004"><ele>683.4</ele><time>2026-04-13T16:28:21Z</time></trkpt><trkpt lat="42.973253625932145" lon="-3.3701196555393595"><ele>683.6</ele><time>2026-04-13T16:28:22Z</time></trkpt><trkpt lat="42.97330585270264" lon="-3.369997897190984"><ele>683.8000000000001</ele><time>2026-04-13T16:28:23Z</time></trkpt><trkpt lat="42.97335137756061" lon="-3.369884347215183"><ele>684.0</ele><time>2026-04-13T16:28:24Z</time></trkpt><trkpt lat="42.97339716554398" lon="-3.369778654139523"><ele>684.6666666666666</ele><time>2026-04-13T16:28:25Z</time></trkpt><trkpt lat="42.97344531102773" lon="-3.3696819889540355"><ele>685.3333333333334</ele><time>2026-04-13T16:28:26Z</time></trkpt><trkpt lat="42.973486777543165" lon="-3.369599564668949"><ele>686.0</ele><time>2026-04-13T16:28:27Z</time></trkpt><trkpt lat="42.97354306867926" lon="-3.3694744789346065"><ele>686.6666666666667</ele><time>2026-04-13T16:28:29Z</time></trkpt><trkpt lat="42.97357802822143" lon="-3.3693984361639555"><ele>687.3333333333334</ele><time>2026-04-13T16:28:31Z</time></trkpt><trkpt lat="42.973604187443826" lon="-3.3693197337604976"><ele>688.0</ele><time>2026-04-13T16:28:34Z</time></trkpt><trkpt lat="42.97362223495476" lon="-3.369439669292956"><ele>688.0</ele><time>2026-04-13T16:28:39Z</time></trkpt><trkpt lat="42.97355553670002" lon="-3.369524816845938"><ele>688.0</ele><time>2026-04-13T16:28:40Z</time></trkpt><trkpt lat="42.973482831124365" lon="-3.369621155157749"><ele>688.0</ele><time>2026-04-13T16:28:41Z</time></trkpt><trkpt lat="42.97341630811346" lon="-3.369762630724076"><ele>688.0</ele><time>2026-04-13T16:28:41.999Z</time></trkpt><trkpt lat="42.973350054664294" lon="-3.3699241403791143"><ele>685.75</ele><time>2026-04-13T16:28:42.999Z</time></trkpt><trkpt lat="42.97328904073897" lon="-3.370069086421871"><ele>683.5</ele><time>2026-04-13T16:28:43.999Z</time></trkpt><trkpt lat="42.97322370686152" lon="-3.3702115212614467"><ele>681.25</ele><time>2026-04-13T16:28:44.999Z</time></trkpt><trkpt lat="42.9731493372242" lon="-3.3703557270633167"><ele>679.0</ele><time>2026-04-13T16:28:45.999Z</time></trkpt><trkpt lat="42.97307653012107" lon="-3.370508138853814"><ele>679.8000000000001</ele><time>2026-04-13T16:28:46.999Z</time></trkpt><trkpt lat="42.973022126710326" lon="-3.3706597157940448"><ele>680.6</ele><time>2026-04-13T16:28:47.999Z</time></trkpt><trkpt lat="42.97298351461819" lon="-3.370789072492299"><ele>681.4</ele><time>2026-04-13T16:28:48.999Z</time></trkpt><trkpt lat="42.97296297470893" lon="-3.3709027197183867"><ele>682.2</ele><time>2026-04-13T16:28:49.999Z</time></trkpt><trkpt lat="42.97295461064212" lon="-3.370999197709908"><ele>683.0</ele><time>2026-04-13T16:28:50.999Z</time></trkpt><trkpt lat="42.972891606488126" lon="-3.3711143223201994"><ele>683.0</ele><time>2026-04-13T16:28:52.999Z</time></trkpt><trkpt lat="42.972762989485055" lon="-3.37113169229179"><ele>683.0</ele><time>2026-04-13T16:28:54.999Z</time></trkpt><trkpt lat="42.97267804509572" lon="-3.3711204344502694"><ele>683.0</ele><time>2026-04-13T16:28:55.999Z</time></trkpt><trkpt lat="42.972585643527424" lon="-3.3711079739318808"><ele>683.0</ele><time>2026-04-13T16:28:56.999Z</time></trkpt><trkpt lat="42.97248326391524" lon="-3.3711007714131527"><ele>683.0</ele><time>2026-04-13T16:28:57.999Z</time></trkpt><trkpt lat="42.972383535261905" lon="-3.371098145736601"><ele>681.2</ele><time>2026-04-13T16:28:59Z</time></trkpt><trkpt lat="42.972297783927104" lon="-3.371095402321209"><ele>679.4</ele><time>2026-04-13T16:29:00Z</time></trkpt><trkpt lat="42.97219665426822" lon="-3.3710920562473103"><ele>677.6</ele><time>2026-04-13T16:29:01Z</time></trkpt><trkpt lat="42.972086438399984" lon="-3.3710851149869243"><ele>675.8000000000001</ele><time>2026-04-13T16:29:02Z</time></trkpt><trkpt lat="42.971974648746524" lon="-3.371078800952056"><ele>674.0</ele><time>2026-04-13T16:29:03Z</time></trkpt><trkpt lat="42.97184361714003" lon="-3.371074529481549"><ele>674.0</ele><time>2026-04-13T16:29:04Z</time></trkpt><trkpt lat="42.97170747223674" lon="-3.3710716330397457"><ele>674.0</ele><time>2026-04-13T16:29:05Z</time></trkpt><trkpt lat="42.97155712496862" lon="-3.3710605427040603"><ele>674.0</ele><time>2026-04-13T16:29:06Z</time></trkpt><trkpt lat="42.9713936460779" lon="-3.371044055096452"><ele>674.25</ele><time>2026-04-13T16:29:07Z</time></trkpt><trkpt lat="42.9712432569598" lon="-3.3710270085595866"><ele>674.5</ele><time>2026-04-13T16:29:08Z</time></trkpt><trkpt lat="42.971109701461494" lon="-3.371016396817235"><ele>674.75</ele><time>2026-04-13T16:29:09Z</time></trkpt><trkpt lat="42.97097676947225" lon="-3.3710065639783706"><ele>675.0</ele><time>2026-04-13T16:29:10Z</time></trkpt><trkpt lat="42.970856463640686" lon="-3.370997869611377"><ele>675.0</ele><time>2026-04-13T16:29:11Z</time></trkpt><trkpt lat="42.97076024783959" lon="-3.3709872417298365"><ele>675.0</ele><time>2026-04-13T16:29:12Z</time></trkpt><trkpt lat="42.970674586338156" lon="-3.3709762435779567"><ele>675.0</ele><time>2026-04-13T16:29:13Z</time></trkpt><trkpt lat="42.97060409353138" lon="-3.370927339496647"><ele>675.0</ele><time>2026-04-13T16:29:14Z</time></trkpt><trkpt lat="42.97053989530075" lon="-3.370836135733633"><ele>675.0</ele><time>2026-04-13T16:29:15Z</time></trkpt><trkpt lat="42.97051168863926" lon="-3.370720667503577"><ele>675.0</ele><time>2026-04-13T16:29:16Z</time></trkpt><trkpt lat="42.97050894594325" lon="-3.3705795820427005"><ele>675.0</ele><time>2026-04-13T16:29:17Z</time></trkpt><trkpt lat="42.970506381521254" lon="-3.3703856191485624"><ele>675.0</ele><time>2026-04-13T16:29:18Z</time></trkpt><trkpt lat="42.97050000510543" lon="-3.370163498295945"><ele>675.0</ele><time>2026-04-13T16:29:19Z</time></trkpt><trkpt lat="42.97047859115565" lon="-3.3699406306649706"><ele>675.0</ele><time>2026-04-13T16:29:20Z</time></trkpt><trkpt lat="42.97044979804407" lon="-3.3697581527978224"><ele>675.0</ele><time>2026-04-13T16:29:21Z</time></trkpt><trkpt lat="42.97042178397995" lon="-3.369591390976145"><ele>675.0</ele><time>2026-04-13T16:29:22Z</time></trkpt><trkpt lat="42.970394681033895" lon="-3.369425548558587"><ele>675.0</ele><time>2026-04-13T16:29:23Z</time></trkpt><trkpt lat="42.970358565173846" lon="-3.369249519185462"><ele>675.6666666666666</ele><time>2026-04-13T16:29:24Z</time></trkpt><trkpt lat="42.970309743192125" lon="-3.3690645442824643"><ele>676.3333333333333</ele><time>2026-04-13T16:29:25Z</time></trkpt><trkpt lat="42.97025502853414" lon="-3.36886883337465"><ele>677.0</ele><time>2026-04-13T16:29:26Z</time></trkpt><trkpt lat="42.97019724231096" lon="-3.3686591547102895"><ele>677.25</ele><time>2026-04-13T16:29:27Z</time></trkpt><trkpt lat="42.97014554700824" lon="-3.3684741574922508"><ele>677.5</ele><time>2026-04-13T16:29:28Z</time></trkpt><trkpt lat="42.97009233895272" lon="-3.3682946365297397"><ele>677.75</ele><time>2026-04-13T16:29:29Z</time></trkpt><trkpt lat="42.97003745868537" lon="-3.3680977620930275"><ele>678.0</ele><time>2026-04-13T16:29:30Z</time></trkpt><trkpt lat="42.96997695403619" lon="-3.3678931742930796"><ele>677.0</ele><time>2026-04-13T16:29:31Z</time></trkpt><trkpt lat="42.96991323352783" lon="-3.3676827065696915"><ele>676.0</ele><time>2026-04-13T16:29:32Z</time></trkpt><trkpt lat="42.96984841976876" lon="-3.3674853572704935"><ele>675.0</ele><time>2026-04-13T16:29:33Z</time></trkpt><trkpt lat="42.969776455875135" lon="-3.3672749337854975"><ele>673.3333333333334</ele><time>2026-04-13T16:29:34Z</time></trkpt><trkpt lat="42.96970342919482" lon="-3.3670729766139087"><ele>671.6666666666667</ele><time>2026-04-13T16:29:35Z</time></trkpt><trkpt lat="42.96963632744756" lon="-3.3668770283986023"><ele>670.0</ele><time>2026-04-13T16:29:36Z</time></trkpt><trkpt lat="42.969570226851516" lon="-3.3666479274614045"><ele>670.0</ele><time>2026-04-13T16:29:37Z</time></trkpt><trkpt lat="42.969504639836984" lon="-3.3664158839979215"><ele>670.0</ele><time>2026-04-13T16:29:38Z</time></trkpt><trkpt lat="42.969444394896854" lon="-3.366204423939165"><ele>670.0</ele><time>2026-04-13T16:29:39Z</time></trkpt><trkpt lat="42.96937900691823" lon="-3.365976400062755"><ele>669.0</ele><time>2026-04-13T16:29:40Z</time></trkpt><trkpt lat="42.9693121166373" lon="-3.365764369439832"><ele>668.0</ele><time>2026-04-13T16:29:41Z</time></trkpt><trkpt lat="42.969247482251525" lon="-3.3655576437354204"><ele>667.0</ele><time>2026-04-13T16:29:42Z</time></trkpt><trkpt lat="42.969193880397455" lon="-3.3653679079019723"><ele>665.6666666666667</ele><time>2026-04-13T16:29:43Z</time></trkpt><trkpt lat="42.96914276575376" lon="-3.3651608810708233"><ele>664.3333333333334</ele><time>2026-04-13T16:29:44Z</time></trkpt><trkpt lat="42.9690873276941" lon="-3.3649506004253067"><ele>663.0</ele><time>2026-04-13T16:29:45Z</time></trkpt><trkpt lat="42.96902291766157" lon="-3.364741878608911"><ele>663.0</ele><time>2026-04-13T16:29:46Z</time></trkpt><trkpt lat="42.968967495052205" lon="-3.3645520667987703"><ele>663.0</ele><time>2026-04-13T16:29:47Z</time></trkpt><trkpt lat="42.96891224831051" lon="-3.364367508127462"><ele>663.0</ele><time>2026-04-13T16:29:48Z</time></trkpt><trkpt lat="42.96886631270891" lon="-3.364201485572323"><ele>663.0</ele><time>2026-04-13T16:29:49Z</time></trkpt><trkpt lat="42.96881725548349" lon="-3.3640455988745535"><ele>663.0</ele><time>2026-04-13T16:29:50Z</time></trkpt><trkpt lat="42.96876128567679" lon="-3.36390497081565"><ele>663.0</ele><time>2026-04-13T16:29:51Z</time></trkpt><trkpt lat="42.9686943947182" lon="-3.363749589423528"><ele>663.0</ele><time>2026-04-13T16:29:52Z</time></trkpt><trkpt lat="42.96862268009023" lon="-3.363581249210582"><ele>663.0</ele><time>2026-04-13T16:29:53Z</time></trkpt><trkpt lat="42.968541929553766" lon="-3.363401927460534"><ele>663.0</ele><time>2026-04-13T16:29:54Z</time></trkpt><trkpt lat="42.968444959984694" lon="-3.363214291466225"><ele>663.0</ele><time>2026-04-13T16:29:55Z</time></trkpt><trkpt lat="42.96834141129993" lon="-3.363018795103868"><ele>663.0</ele><time>2026-04-13T16:29:56Z</time></trkpt><trkpt lat="42.9682388822269" lon="-3.3628134575143394"><ele>662.3333333333334</ele><time>2026-04-13T16:29:57Z</time></trkpt><trkpt lat="42.968136001503574" lon="-3.3626083065860812"><ele>661.6666666666667</ele><time>2026-04-13T16:29:58Z</time></trkpt><trkpt lat="42.9680313617225" lon="-3.3623939871180424"><ele>661.0</ele><time>2026-04-13T16:29:59Z</time></trkpt><trkpt lat="42.96794139698614" lon="-3.362217006487055"><ele>660.6666666666667</ele><time>2026-04-13T16:30:00Z</time></trkpt><trkpt lat="42.96785392819214" lon="-3.3620469471538468"><ele>660.3333333333334</ele><time>2026-04-13T16:30:01Z</time></trkpt><trkpt lat="42.9677533786909" lon="-3.361856444935234"><ele>660.0</ele><time>2026-04-13T16:30:02Z</time></trkpt><trkpt lat="42.96764577248922" lon="-3.3616538741321405"><ele>660.0</ele><time>2026-04-13T16:30:03Z</time></trkpt><trkpt lat="42.967529156461595" lon="-3.3614329205047158"><ele>660.0</ele><time>2026-04-13T16:30:04Z</time></trkpt><trkpt lat="42.9674167740077" lon="-3.361209697545262"><ele>660.0</ele><time>2026-04-13T16:30:05Z</time></trkpt><trkpt lat="42.96731796764449" lon="-3.3610128263729124"><ele>658.3333333333334</ele><time>2026-04-13T16:30:06Z</time></trkpt><trkpt lat="42.96723160913665" lon="-3.3608310218632336"><ele>656.6666666666667</ele><time>2026-04-13T16:30:07Z</time></trkpt><trkpt lat="42.967152670871236" lon="-3.3606539190164106"><ele>655.0</ele><time>2026-04-13T16:30:08Z</time></trkpt><trkpt lat="42.96707509257687" lon="-3.3604759956004835"><ele>655.0</ele><time>2026-04-13T16:30:09Z</time></trkpt><trkpt lat="42.96700351543835" lon="-3.3603089496071368"><ele>655.0</ele><time>2026-04-13T16:30:10Z</time></trkpt><trkpt lat="42.96693214861393" lon="-3.360123324482125"><ele>655.0</ele><time>2026-04-13T16:30:11Z</time></trkpt><trkpt lat="42.96686522650687" lon="-3.3599270195148137"><ele>655.0</ele><time>2026-04-13T16:30:12Z</time></trkpt><trkpt lat="42.96680453790172" lon="-3.3597149533665376"><ele>655.0</ele><time>2026-04-13T16:30:13Z</time></trkpt><trkpt lat="42.966765967652606" lon="-3.3595082626182884"><ele>655.0</ele><time>2026-04-13T16:30:14Z</time></trkpt><trkpt lat="42.96673700049532" lon="-3.3593192817541913"><ele>655.0</ele><time>2026-04-13T16:30:15Z</time></trkpt><trkpt lat="42.96671108884773" lon="-3.3591459310230025"><ele>655.0</ele><time>2026-04-13T16:30:16Z</time></trkpt><trkpt lat="42.96668516924658" lon="-3.3589944656871893"><ele>655.0</ele><time>2026-04-13T16:30:17Z</time></trkpt><trkpt lat="42.966656551541675" lon="-3.3588579022543077"><ele>655.0</ele><time>2026-04-13T16:30:18Z</time></trkpt><trkpt lat="42.966623187407144" lon="-3.35873004382988"><ele>655.0</ele><time>2026-04-13T16:30:19Z</time></trkpt><trkpt lat="42.96657785312938" lon="-3.3586212719016886"><ele>654.6666666666667</ele><time>2026-04-13T16:30:19.999Z</time></trkpt><trkpt lat="42.96652341268277" lon="-3.358538001219395"><ele>654.3333333333334</ele><time>2026-04-13T16:30:20.999Z</time></trkpt><trkpt lat="42.9664618260452" lon="-3.3584690789836382"><ele>654.0</ele><time>2026-04-13T16:30:21.999Z</time></trkpt><trkpt lat="42.966391480846475" lon="-3.358389514611255"><ele>653.6666666666666</ele><time>2026-04-13T16:30:22.999Z</time></trkpt><trkpt lat="42.96631937650776" lon="-3.3583132748793316"><ele>653.3333333333333</ele><time>2026-04-13T16:30:23.999Z</time></trkpt><trkpt lat="42.966252715104744" lon="-3.3582476121445795"><ele>653.0</ele><time>2026-04-13T16:30:24.999Z</time></trkpt><trkpt lat="42.96619339086191" lon="-3.358190812858218"><ele>653.0</ele><time>2026-04-13T16:30:25.999Z</time></trkpt><trkpt lat="42.966133548807704" lon="-3.3581251249873225"><ele>653.0</ele><time>2026-04-13T16:30:26.999Z</time></trkpt><trkpt lat="42.9660714504316" lon="-3.358047249258142"><ele>653.0</ele><time>2026-04-13T16:30:27.999Z</time></trkpt><trkpt lat="42.96600651457595" lon="-3.3579584537224583"><ele>653.0</ele><time>2026-04-13T16:30:28.999Z</time></trkpt><trkpt lat="42.965943494659236" lon="-3.3578468106571906"><ele>653.0</ele><time>2026-04-13T16:30:29.999Z</time></trkpt><trkpt lat="42.96588010181678" lon="-3.357722518918867"><ele>653.0</ele><time>2026-04-13T16:30:30.999Z</time></trkpt><trkpt lat="42.965809092309804" lon="-3.3575945833591647"><ele>653.0</ele><time>2026-04-13T16:30:31.999Z</time></trkpt><trkpt lat="42.96573395807237" lon="-3.357468980320712"><ele>653.0</ele><time>2026-04-13T16:30:32.999Z</time></trkpt><trkpt lat="42.965648204023125" lon="-3.357334334977336"><ele>653.0</ele><time>2026-04-13T16:30:33.999Z</time></trkpt><trkpt lat="42.9655554810805" lon="-3.3571960325753523"><ele>653.25</ele><time>2026-04-13T16:30:34.999Z</time></trkpt><trkpt lat="42.9654577053687" lon="-3.357049907284714"><ele>653.5</ele><time>2026-04-13T16:30:35.999Z</time></trkpt><trkpt lat="42.96538031451423" lon="-3.356916808513007"><ele>653.75</ele><time>2026-04-13T16:30:36.999Z</time></trkpt><trkpt lat="42.96532114890099" lon="-3.3567961250604275"><ele>654.0</ele><time>2026-04-13T16:30:37.999Z</time></trkpt><trkpt lat="42.96527240632931" lon="-3.356676631498737"><ele>654.0</ele><time>2026-04-13T16:30:38.999Z</time></trkpt><trkpt lat="42.965234436434706" lon="-3.3565429444522326"><ele>654.0</ele><time>2026-04-13T16:30:39.999Z</time></trkpt><trkpt lat="42.96521831715155" lon="-3.356415380195504"><ele>654.0</ele><time>2026-04-13T16:30:40.999Z</time></trkpt><trkpt lat="42.9652205284852" lon="-3.356274975691454"><ele>654.0</ele><time>2026-04-13T16:30:41.999Z</time></trkpt><trkpt lat="42.96523287045494" lon="-3.356134935378666"><ele>654.0</ele><time>2026-04-13T16:30:42.999Z</time></trkpt><trkpt lat="42.96524147314537" lon="-3.3560143249652103"><ele>654.0</ele><time>2026-04-13T16:30:43.999Z</time></trkpt><trkpt lat="42.96524750194203" lon="-3.355906547885158"><ele>654.0</ele><time>2026-04-13T16:30:44.999Z</time></trkpt><trkpt lat="42.96525169864685" lon="-3.3558078233420314"><ele>654.0</ele><time>2026-04-13T16:30:45.999Z</time></trkpt><trkpt lat="42.96525643845082" lon="-3.3556700350763586"><ele>654.0</ele><time>2026-04-13T16:30:47.999Z</time></trkpt><trkpt lat="42.96527680093494" lon="-3.3555608208988583"><ele>654.0</ele><time>2026-04-13T16:32:09Z</time></trkpt><trkpt lat="42.96527901272862" lon="-3.355461480645438"><ele>654.0</ele><time>2026-04-13T16:32:10Z</time></trkpt><trkpt lat="42.96527834806179" lon="-3.3553405278632433"><ele>654.0</ele><time>2026-04-13T16:32:11Z</time></trkpt><trkpt lat="42.96528339111875" lon="-3.3552212801736467"><ele>654.0</ele><time>2026-04-13T16:32:12Z</time></trkpt><trkpt lat="42.96529044566939" lon="-3.3550958392569754"><ele>654.0</ele><time>2026-04-13T16:32:13Z</time></trkpt><trkpt lat="42.965297740624926" lon="-3.3549387198792786"><ele>654.0</ele><time>2026-04-13T16:32:14Z</time></trkpt><trkpt lat="42.965304315408005" lon="-3.3548183583994904"><ele>654.0</ele><time>2026-04-13T16:32:15Z</time></trkpt><trkpt lat="42.96531240611964" lon="-3.3546770049862316"><ele>654.0</ele><time>2026-04-13T16:32:16Z</time></trkpt><trkpt lat="42.965316048018174" lon="-3.3545150298041735"><ele>654.0</ele><time>2026-04-13T16:32:17Z</time></trkpt><trkpt lat="42.96531250771758" lon="-3.3543295879432744"><ele>654.0</ele><time>2026-04-13T16:32:17.999Z</time></trkpt><trkpt lat="42.9653084736991" lon="-3.354128660578555"><ele>654.0</ele><time>2026-04-13T16:32:18.999Z</time></trkpt><trkpt lat="42.965297244427354" lon="-3.353944009558771"><ele>654.6666666666666</ele><time>2026-04-13T16:32:19.999Z</time></trkpt><trkpt lat="42.96528333667461" lon="-3.353733240087345"><ele>655.3333333333333</ele><time>2026-04-13T16:32:20.999Z</time></trkpt><trkpt lat="42.9652670538087" lon="-3.353508733346463"><ele>656.0</ele><time>2026-04-13T16:32:21.999Z</time></trkpt><trkpt lat="42.96525178612309" lon="-3.3532679778427195"><ele>657.0</ele><time>2026-04-13T16:32:22.999Z</time></trkpt><trkpt lat="42.965240326769596" lon="-3.35300573876312"><ele>658.0</ele><time>2026-04-13T16:32:23.999Z</time></trkpt><trkpt lat="42.965229029944425" lon="-3.352757547707279"><ele>659.0</ele><time>2026-04-13T16:32:24.999Z</time></trkpt><trkpt lat="42.96522265579081" lon="-3.3524973953332204"><ele>659.0</ele><time>2026-04-13T16:32:25.999Z</time></trkpt><trkpt lat="42.965221601295845" lon="-3.352229696272085"><ele>659.0</ele><time>2026-04-13T16:32:26.999Z</time></trkpt><trkpt lat="42.96522681080512" lon="-3.35196216206361"><ele>659.0</ele><time>2026-04-13T16:32:27.999Z</time></trkpt><trkpt lat="42.965236233929204" lon="-3.3516887852210235"><ele>659.6666666666666</ele><time>2026-04-13T16:32:28.999Z</time></trkpt><trkpt lat="42.96524408141715" lon="-3.351449105355514"><ele>660.3333333333334</ele><time>2026-04-13T16:32:29.999Z</time></trkpt><trkpt lat="42.965250586963364" lon="-3.3512453999218907"><ele>661.0</ele><time>2026-04-13T16:32:30.999Z</time></trkpt><trkpt lat="42.96525202195913" lon="-3.3510289127297956"><ele>661.6666666666667</ele><time>2026-04-13T16:32:31.999Z</time></trkpt><trkpt lat="42.965251337856586" lon="-3.3507965818215637"><ele>662.3333333333334</ele><time>2026-04-13T16:32:32.999Z</time></trkpt><trkpt lat="42.96525167915166" lon="-3.3505640817988476"><ele>663.0</ele><time>2026-04-13T16:32:33.999Z</time></trkpt><trkpt lat="42.96525214473958" lon="-3.3503204903763404"><ele>663.3333333333334</ele><time>2026-04-13T16:32:34.999Z</time></trkpt><trkpt lat="42.96525040726522" lon="-3.350068052274775"><ele>663.6666666666667</ele><time>2026-04-13T16:32:35.999Z</time></trkpt><trkpt lat="42.965250376168484" lon="-3.3498131352929277"><ele>664.0</ele><time>2026-04-13T16:32:36.999Z</time></trkpt><trkpt lat="42.96524822850731" lon="-3.3495718550160407"><ele>664.6666666666667</ele><time>2026-04-13T16:32:37.999Z</time></trkpt><trkpt lat="42.96524796221664" lon="-3.3493204925561377"><ele>665.3333333333334</ele><time>2026-04-13T16:32:38.999Z</time></trkpt><trkpt lat="42.9652481069863" lon="-3.3490796390517747"><ele>666.0</ele><time>2026-04-13T16:32:39.999Z</time></trkpt><trkpt lat="42.96525006644122" lon="-3.348843757997696"><ele>667.3333333333334</ele><time>2026-04-13T16:32:40.999Z</time></trkpt><trkpt lat="42.96525255195792" lon="-3.3486107846604494"><ele>668.6666666666667</ele><time>2026-04-13T16:32:41.999Z</time></trkpt><trkpt lat="42.96525186604745" lon="-3.348378767080216"><ele>670.0</ele><time>2026-04-13T16:32:42.999Z</time></trkpt><trkpt lat="42.965247239674326" lon="-3.34814185921697"><ele>669.0</ele><time>2026-04-13T16:32:43.999Z</time></trkpt><trkpt lat="42.96524261564685" lon="-3.347898547527936"><ele>668.0</ele><time>2026-04-13T16:32:44.999Z</time></trkpt><trkpt lat="42.96523793021707" lon="-3.3476541791495817"><ele>667.0</ele><time>2026-04-13T16:32:45.999Z</time></trkpt><trkpt lat="42.96522977573667" lon="-3.34740789659052"><ele>667.6666666666667</ele><time>2026-04-13T16:32:46.999Z</time></trkpt><trkpt lat="42.96522337666504" lon="-3.3471860640519315"><ele>668.3333333333334</ele><time>2026-04-13T16:32:47.999Z</time></trkpt><trkpt lat="42.96521657104736" lon="-3.3469877687630896"><ele>669.0</ele><time>2026-04-13T16:32:48.999Z</time></trkpt><trkpt lat="42.96521149993742" lon="-3.3467734358324153"><ele>669.0</ele><time>2026-04-13T16:32:49.999Z</time></trkpt><trkpt lat="42.965207657193886" lon="-3.346562785456892"><ele>669.0</ele><time>2026-04-13T16:32:50.999Z</time></trkpt><trkpt lat="42.96520230057319" lon="-3.346344297448348"><ele>669.0</ele><time>2026-04-13T16:32:51.999Z</time></trkpt><trkpt lat="42.965197092230156" lon="-3.3461258213845704"><ele>669.3333333333334</ele><time>2026-04-13T16:32:52.999Z</time></trkpt><trkpt lat="42.965193431703675" lon="-3.345898772488226"><ele>669.6666666666667</ele><time>2026-04-13T16:32:53.999Z</time></trkpt><trkpt lat="42.96519313157866" lon="-3.3456828804074483"><ele>670.0</ele><time>2026-04-13T16:32:54.999Z</time></trkpt><trkpt lat="42.96519019187427" lon="-3.345444866042359"><ele>671.0</ele><time>2026-04-13T16:32:55.999Z</time></trkpt><trkpt lat="42.96518886480979" lon="-3.3451935393477146"><ele>672.0</ele><time>2026-04-13T16:32:56.999Z</time></trkpt><trkpt lat="42.96519458495011" lon="-3.3449517052502733"><ele>673.0</ele><time>2026-04-13T16:32:57.999Z</time></trkpt><trkpt lat="42.96519897614508" lon="-3.344735205680707"><ele>673.75</ele><time>2026-04-13T16:32:58.999Z</time></trkpt><trkpt lat="42.96520089705128" lon="-3.344554252536781"><ele>674.5</ele><time>2026-04-13T16:32:59.999Z</time></trkpt><trkpt lat="42.96520888013436" lon="-3.344390905567861"><ele>675.25</ele><time>2026-04-13T16:33:00.999Z</time></trkpt><trkpt lat="42.96522493894821" lon="-3.3442414739036055"><ele>676.0</ele><time>2026-04-13T16:33:01.999Z</time></trkpt><trkpt lat="42.96523882739057" lon="-3.3440791628862"><ele>676.0</ele><time>2026-04-13T16:33:02.999Z</time></trkpt><trkpt lat="42.965238276412926" lon="-3.3439186468022"><ele>676.0</ele><time>2026-04-13T16:33:03.999Z</time></trkpt><trkpt lat="42.965228256271885" lon="-3.3437412250658602"><ele>676.0</ele><time>2026-04-13T16:33:04.999Z</time></trkpt><trkpt lat="42.96522153760784" lon="-3.343551677036331"><ele>676.0</ele><time>2026-04-13T16:33:05.999Z</time></trkpt><trkpt lat="42.96522131495155" lon="-3.343349875522229"><ele>676.75</ele><time>2026-04-13T16:33:06.999Z</time></trkpt><trkpt lat="42.96523226959624" lon="-3.343151392082526"><ele>677.5</ele><time>2026-04-13T16:33:07.999Z</time></trkpt><trkpt lat="42.96525601121148" lon="-3.34297273184444"><ele>678.25</ele><time>2026-04-13T16:33:08.999Z</time></trkpt><trkpt lat="42.965289827775806" lon="-3.3427868196734334"><ele>679.0</ele><time>2026-04-13T16:33:10Z</time></trkpt><trkpt lat="42.96532833809066" lon="-3.342584313462566"><ele>681.6666666666667</ele><time>2026-04-13T16:33:11Z</time></trkpt><trkpt lat="42.96537024524316" lon="-3.3423605763338955"><ele>684.3333333333334</ele><time>2026-04-13T16:33:12Z</time></trkpt><trkpt lat="42.9654119847914" lon="-3.3421581425849944"><ele>687.0</ele><time>2026-04-13T16:33:13Z</time></trkpt><trkpt lat="42.96545308365142" lon="-3.3419304335489852"><ele>688.3333333333334</ele><time>2026-04-13T16:33:14Z</time></trkpt><trkpt lat="42.9654918547225" lon="-3.34169499376324"><ele>689.6666666666667</ele><time>2026-04-13T16:33:15Z</time></trkpt><trkpt lat="42.96552407308457" lon="-3.3414578059757054"><ele>691.0</ele><time>2026-04-13T16:33:16Z</time></trkpt><trkpt lat="42.965548593243554" lon="-3.341243118527375"><ele>691.0</ele><time>2026-04-13T16:33:17Z</time></trkpt><trkpt lat="42.965557867887235" lon="-3.3410215954007203"><ele>691.0</ele><time>2026-04-13T16:33:18Z</time></trkpt><trkpt lat="42.965553324543215" lon="-3.3407927868688803"><ele>691.0</ele><time>2026-04-13T16:33:19Z</time></trkpt><trkpt lat="42.965541277204174" lon="-3.3405428590043846"><ele>691.0</ele><time>2026-04-13T16:33:20Z</time></trkpt><trkpt lat="42.96553073763081" lon="-3.3402857511262045"><ele>691.0</ele><time>2026-04-13T16:33:21Z</time></trkpt><trkpt lat="42.96553098023249" lon="-3.3400342632096116"><ele>691.0</ele><time>2026-04-13T16:33:22Z</time></trkpt><trkpt lat="42.96552909421706" lon="-3.3397764965316017"><ele>691.6666666666667</ele><time>2026-04-13T16:33:23Z</time></trkpt><trkpt lat="42.96554146813472" lon="-3.3395232541150333"><ele>692.3333333333334</ele><time>2026-04-13T16:33:24Z</time></trkpt><trkpt lat="42.965565372009834" lon="-3.3392519683998887"><ele>693.0</ele><time>2026-04-13T16:33:25Z</time></trkpt><trkpt lat="42.96560017307691" lon="-3.338986027390997"><ele>694.75</ele><time>2026-04-13T16:33:26Z</time></trkpt><trkpt lat="42.965621491479986" lon="-3.3387549424555254"><ele>696.5</ele><time>2026-04-13T16:33:27Z</time></trkpt><trkpt lat="42.96564222098752" lon="-3.338549368057183"><ele>698.25</ele><time>2026-04-13T16:33:28Z</time></trkpt><trkpt lat="42.96565779352983" lon="-3.3383861477406693"><ele>700.0</ele><time>2026-04-13T16:33:29Z</time></trkpt><trkpt lat="42.96566750762703" lon="-3.3382340228604193"><ele>700.0</ele><time>2026-04-13T16:33:30Z</time></trkpt><trkpt lat="42.96565905425216" lon="-3.338077501351079"><ele>700.0</ele><time>2026-04-13T16:33:31Z</time></trkpt><trkpt lat="42.96563796152989" lon="-3.337933238733951"><ele>700.0</ele><time>2026-04-13T16:33:32Z</time></trkpt><trkpt lat="42.9656088810919" lon="-3.337798136130046"><ele>700.0</ele><time>2026-04-13T16:33:33Z</time></trkpt><trkpt lat="42.965562173252145" lon="-3.33766118827112"><ele>700.0</ele><time>2026-04-13T16:33:34Z</time></trkpt><trkpt lat="42.96551763739056" lon="-3.3375049373001935"><ele>700.5</ele><time>2026-04-13T16:33:35Z</time></trkpt><trkpt lat="42.96549088517453" lon="-3.3373414033075814"><ele>701.0</ele><time>2026-04-13T16:33:36Z</time></trkpt><trkpt lat="42.96548119864719" lon="-3.3371699505175307"><ele>701.5</ele><time>2026-04-13T16:33:37Z</time></trkpt><trkpt lat="42.96547432749053" lon="-3.3369825287214643"><ele>702.0</ele><time>2026-04-13T16:33:38Z</time></trkpt><trkpt lat="42.96548047031727" lon="-3.336782597478248"><ele>704.0</ele><time>2026-04-13T16:33:39Z</time></trkpt><trkpt lat="42.96550164812968" lon="-3.3365646430199627"><ele>706.0</ele><time>2026-04-13T16:33:40Z</time></trkpt><trkpt lat="42.96553424369541" lon="-3.336294000019716"><ele>708.0</ele><time>2026-04-13T16:33:41Z</time></trkpt><trkpt lat="42.96555520013747" lon="-3.336067008793378"><ele>709.75</ele><time>2026-04-13T16:33:42Z</time></trkpt><trkpt lat="42.96557423013552" lon="-3.335872051640125"><ele>711.5</ele><time>2026-04-13T16:33:43Z</time></trkpt><trkpt lat="42.96559298597131" lon="-3.3357197251321273"><ele>713.25</ele><time>2026-04-13T16:33:44Z</time></trkpt><trkpt lat="42.96561221236643" lon="-3.335577843899147"><ele>715.0</ele><time>2026-04-13T16:33:45Z</time></trkpt><trkpt lat="42.96562357888746" lon="-3.3354300380747692"><ele>715.75</ele><time>2026-04-13T16:33:46Z</time></trkpt><trkpt lat="42.96560960905705" lon="-3.335270953456615"><ele>716.5</ele><time>2026-04-13T16:33:47Z</time></trkpt><trkpt lat="42.965570474393495" lon="-3.3351225446962607"><ele>717.25</ele><time>2026-04-13T16:33:48Z</time></trkpt><trkpt lat="42.96551180284735" lon="-3.334965188736854"><ele>718.0</ele><time>2026-04-13T16:33:49Z</time></trkpt><trkpt lat="42.965434572409556" lon="-3.334799786846366"><ele>717.25</ele><time>2026-04-13T16:33:50Z</time></trkpt><trkpt lat="42.96534866251716" lon="-3.3346514657378057"><ele>716.5</ele><time>2026-04-13T16:33:51Z</time></trkpt><trkpt lat="42.96525823371646" lon="-3.33452526549916"><ele>715.75</ele><time>2026-04-13T16:33:52Z</time></trkpt><trkpt lat="42.96516035235071" lon="-3.3343903939515043"><ele>715.0</ele><time>2026-04-13T16:33:53Z</time></trkpt><trkpt lat="42.96505198552325" lon="-3.33423216147999"><ele>716.6666666666667</ele><time>2026-04-13T16:33:54Z</time></trkpt><trkpt lat="42.96493514081509" lon="-3.3340630643093845"><ele>718.3333333333334</ele><time>2026-04-13T16:33:55Z</time></trkpt><trkpt lat="42.96480578773132" lon="-3.3338805082630834"><ele>720.0</ele><time>2026-04-13T16:33:56Z</time></trkpt><trkpt lat="42.964689585444056" lon="-3.333709961929841"><ele>720.0</ele><time>2026-04-13T16:33:57Z</time></trkpt><trkpt lat="42.964578492811796" lon="-3.333529316934725"><ele>720.0</ele><time>2026-04-13T16:33:58Z</time></trkpt><trkpt lat="42.96447204761281" lon="-3.3333493682752926"><ele>720.0</ele><time>2026-04-13T16:33:59Z</time></trkpt><trkpt lat="42.96438416411871" lon="-3.333192126479281"><ele>719.75</ele><time>2026-04-13T16:34:00Z</time></trkpt><trkpt lat="42.96430209054142" lon="-3.3330339235759947"><ele>719.5</ele><time>2026-04-13T16:34:01Z</time></trkpt><trkpt lat="42.96422752625264" lon="-3.3328659062575463"><ele>719.25</ele><time>2026-04-13T16:34:02Z</time></trkpt><trkpt lat="42.96415667816139" lon="-3.332679774042122"><ele>719.0</ele><time>2026-04-13T16:34:03Z</time></trkpt><trkpt lat="42.9640747800403" lon="-3.3324666129716953"><ele>721.3333333333333</ele><time>2026-04-13T16:34:04Z</time></trkpt><trkpt lat="42.963994130307256" lon="-3.3322527532291915"><ele>723.6666666666666</ele><time>2026-04-13T16:34:05Z</time></trkpt><trkpt lat="42.9639069674104" lon="-3.3319996956029643"><ele>726.0</ele><time>2026-04-13T16:34:06Z</time></trkpt><trkpt lat="42.96382210260008" lon="-3.3317393364320775"><ele>726.0</ele><time>2026-04-13T16:34:07Z</time></trkpt><trkpt lat="42.96374147653201" lon="-3.33146580896299"><ele>726.0</ele><time>2026-04-13T16:34:08Z</time></trkpt><trkpt lat="42.96366029336738" lon="-3.3312058868599803"><ele>726.0</ele><time>2026-04-13T16:34:09Z</time></trkpt><trkpt lat="42.96359389490563" lon="-3.33098454240119"><ele>724.6666666666666</ele><time>2026-04-13T16:34:10Z</time></trkpt><trkpt lat="42.963529686955994" lon="-3.3307756318922013"><ele>723.3333333333333</ele><time>2026-04-13T16:34:11Z</time></trkpt><trkpt lat="42.963468220800415" lon="-3.3305783089520626"><ele>722.0</ele><time>2026-04-13T16:34:12Z</time></trkpt><trkpt lat="42.96340235827027" lon="-3.330366300173578"><ele>724.3333333333333</ele><time>2026-04-13T16:34:13Z</time></trkpt><trkpt lat="42.96334833111158" lon="-3.3301528348084743"><ele>726.6666666666666</ele><time>2026-04-13T16:34:14Z</time></trkpt><trkpt lat="42.96329619572862" lon="-3.3299134666013295"><ele>729.0</ele><time>2026-04-13T16:34:15Z</time></trkpt><trkpt lat="42.96324724137994" lon="-3.3296770368998914"><ele>729.0</ele><time>2026-04-13T16:34:16Z</time></trkpt><trkpt lat="42.963202008268695" lon="-3.3294423327284592"><ele>729.0</ele><time>2026-04-13T16:34:17Z</time></trkpt><trkpt lat="42.96315135453412" lon="-3.32920709211606"><ele>729.0</ele><time>2026-04-13T16:34:18Z</time></trkpt><trkpt lat="42.96309501941425" lon="-3.328976534069356"><ele>729.6666666666666</ele><time>2026-04-13T16:34:19Z</time></trkpt><trkpt lat="42.963028384010954" lon="-3.3287635793333363"><ele>730.3333333333333</ele><time>2026-04-13T16:34:20Z</time></trkpt><trkpt lat="42.96295339848019" lon="-3.3285349556342174"><ele>731.0</ele><time>2026-04-13T16:34:21Z</time></trkpt><trkpt lat="42.962869198800675" lon="-3.3283021315872494"><ele>731.0</ele><time>2026-04-13T16:34:22Z</time></trkpt><trkpt lat="42.96277434986237" lon="-3.3280636784839155"><ele>731.0</ele><time>2026-04-13T16:34:23Z</time></trkpt><trkpt lat="42.96266921238113" lon="-3.327821468046845"><ele>731.0</ele><time>2026-04-13T16:34:24Z</time></trkpt><trkpt lat="42.962558545594696" lon="-3.327576710600449"><ele>732.3333333333333</ele><time>2026-04-13T16:34:24.999Z</time></trkpt><trkpt lat="42.96244899720198" lon="-3.32732516404376"><ele>733.6666666666666</ele><time>2026-04-13T16:34:25.999Z</time></trkpt><trkpt lat="42.96235698119981" lon="-3.3270899450748743"><ele>735.0</ele><time>2026-04-13T16:34:26.999Z</time></trkpt><trkpt lat="42.96227514061465" lon="-3.326877445964049"><ele>735.0</ele><time>2026-04-13T16:34:27.999Z</time></trkpt><trkpt lat="42.96219914507459" lon="-3.3266706042391743"><ele>735.0</ele><time>2026-04-13T16:34:28.999Z</time></trkpt><trkpt lat="42.96211457898167" lon="-3.3264535695642823"><ele>735.0</ele><time>2026-04-13T16:34:29.999Z</time></trkpt><trkpt lat="42.962038806547866" lon="-3.326259029354296"><ele>734.5</ele><time>2026-04-13T16:34:30.999Z</time></trkpt><trkpt lat="42.96197485539853" lon="-3.3260824768452273"><ele>734.0</ele><time>2026-04-13T16:34:31.999Z</time></trkpt><trkpt lat="42.96192191068452" lon="-3.325920593218578"><ele>733.5</ele><time>2026-04-13T16:34:32.999Z</time></trkpt><trkpt lat="42.961872071903315" lon="-3.3257688281962956"><ele>733.0</ele><time>2026-04-13T16:34:33.999Z</time></trkpt><trkpt lat="42.961826345443804" lon="-3.325635386791474"><ele>732.8333333333334</ele><time>2026-04-13T16:34:34.999Z</time></trkpt><trkpt lat="42.96178396661467" lon="-3.325510036282101"><ele>732.6666666666667</ele><time>2026-04-13T16:34:35.999Z</time></trkpt><trkpt lat="42.96174707485124" lon="-3.3253896421442377"><ele>732.5</ele><time>2026-04-13T16:34:36.999Z</time></trkpt><trkpt lat="42.96171574314019" lon="-3.3252730865273508"><ele>732.3333333333334</ele><time>2026-04-13T16:34:37.999Z</time></trkpt><trkpt lat="42.9616906161397" lon="-3.3251881560297294"><ele>732.1666666666666</ele><time>2026-04-13T16:34:38.999Z</time></trkpt><trkpt lat="42.96166591970832" lon="-3.3250772673524573"><ele>732.0</ele><time>2026-04-13T16:34:40.999Z</time></trkpt><trkpt lat="42.961680752487894" lon="-3.3249909748748294"><ele>732.0</ele><time>2026-04-13T16:34:43.999Z</time></trkpt><trkpt lat="42.96174694850604" lon="-3.324967855079079"><ele>732.0</ele><time>2026-04-13T16:34:45.999Z</time></trkpt><trkpt lat="42.961810088947345" lon="-3.325010019247066"><ele>732.0</ele><time>2026-04-13T16:34:46.999Z</time></trkpt><trkpt lat="42.96188698442068" lon="-3.3250941923806505"><ele>732.0</ele><time>2026-04-13T16:34:47.999Z</time></trkpt><trkpt lat="42.96198622296642" lon="-3.3251796422474613"><ele>732.0</ele><time>2026-04-13T16:34:48.999Z</time></trkpt><trkpt lat="42.96210059986848" lon="-3.3252680786580906"><ele>732.0</ele><time>2026-04-13T16:34:49.999Z</time></trkpt><trkpt lat="42.96222807298574" lon="-3.3253724641721893"><ele>732.0</ele><time>2026-04-13T16:34:50.999Z</time></trkpt><trkpt lat="42.9623814183135" lon="-3.3254952794264705"><ele>732.0</ele><time>2026-04-13T16:34:51.999Z</time></trkpt><trkpt lat="42.96251425986753" lon="-3.325601546879984"><ele>731.3333333333334</ele><time>2026-04-13T16:34:52.999Z</time></trkpt><trkpt lat="42.96267646047273" lon="-3.3257320989446337"><ele>730.6666666666667</ele><time>2026-04-13T16:34:53.999Z</time></trkpt><trkpt lat="42.96284733469235" lon="-3.3258661982769664"><ele>730.0</ele><time>2026-04-13T16:34:54.999Z</time></trkpt><trkpt lat="42.96301492775907" lon="-3.3260016719694843"><ele>730.0</ele><time>2026-04-13T16:34:55.999Z</time></trkpt><trkpt lat="42.96317324752971" lon="-3.326134690131298"><ele>730.0</ele><time>2026-04-13T16:34:56.999Z</time></trkpt><trkpt lat="42.96331583733016" lon="-3.326252262475943"><ele>730.0</ele><time>2026-04-13T16:34:57.999Z</time></trkpt><trkpt lat="42.96345014149246" lon="-3.3263542486946704"><ele>729.0</ele><time>2026-04-13T16:34:58.999Z</time></trkpt><trkpt lat="42.963575404405304" lon="-3.3264492310024414"><ele>728.0</ele><time>2026-04-13T16:34:59.999Z</time></trkpt><trkpt lat="42.96369501523477" lon="-3.3265402687202017"><ele>727.0</ele><time>2026-04-13T16:35:00.999Z</time></trkpt><trkpt lat="42.96379126167005" lon="-3.32662321616586"><ele>726.0</ele><time>2026-04-13T16:35:01.999Z</time></trkpt><trkpt lat="42.96387190670253" lon="-3.3267101880099874"><ele>726.0</ele><time>2026-04-13T16:35:02.999Z</time></trkpt><trkpt lat="42.96393985059593" lon="-3.3268201841833474"><ele>726.0</ele><time>2026-04-13T16:35:03.999Z</time></trkpt><trkpt lat="42.96400350075697" lon="-3.32698514991055"><ele>726.0</ele><time>2026-04-13T16:35:04.999Z</time></trkpt><trkpt lat="42.96406276326836" lon="-3.3271909758902556"><ele>726.0</ele><time>2026-04-13T16:35:05.999Z</time></trkpt><trkpt lat="42.96411886856889" lon="-3.327369539828311"><ele>725.25</ele><time>2026-04-13T16:35:06.999Z</time></trkpt><trkpt lat="42.9641965907866" lon="-3.327508701822591"><ele>724.5</ele><time>2026-04-13T16:35:07.999Z</time></trkpt><trkpt lat="42.96431048376209" lon="-3.3276278804085497"><ele>723.75</ele><time>2026-04-13T16:35:08.999Z</time></trkpt><trkpt lat="42.96444109345719" lon="-3.3277095009885933"><ele>723.0</ele><time>2026-04-13T16:35:09.999Z</time></trkpt><trkpt lat="42.96456084726644" lon="-3.32777639928973"><ele>722.0</ele><time>2026-04-13T16:35:10.999Z</time></trkpt><trkpt lat="42.96466111114743" lon="-3.327868339443907"><ele>721.0</ele><time>2026-04-13T16:35:11.999Z</time></trkpt><trkpt lat="42.96476206047714" lon="-3.3280088891352633"><ele>720.0</ele><time>2026-04-13T16:35:12.999Z</time></trkpt><trkpt lat="42.96485583270042" lon="-3.3281993694840213"><ele>719.0</ele><time>2026-04-13T16:35:13.999Z</time></trkpt><trkpt lat="42.9649624973288" lon="-3.3284053398127385"><ele>714.6666666666666</ele><time>2026-04-13T16:35:14.999Z</time></trkpt><trkpt lat="42.96508945916473" lon="-3.328617962354817"><ele>710.3333333333334</ele><time>2026-04-13T16:35:16Z</time></trkpt><trkpt lat="42.965217137470376" lon="-3.328789028121382"><ele>706.0</ele><time>2026-04-13T16:35:17Z</time></trkpt><trkpt lat="42.96533865644364" lon="-3.3289348576093043"><ele>705.75</ele><time>2026-04-13T16:35:18Z</time></trkpt><trkpt lat="42.96543936791951" lon="-3.329062706905504"><ele>705.5</ele><time>2026-04-13T16:35:19Z</time></trkpt><trkpt lat="42.96552412470505" lon="-3.3291552634785813"><ele>705.25</ele><time>2026-04-13T16:35:20Z</time></trkpt><trkpt lat="42.96562859688483" lon="-3.3292289252856557"><ele>705.0</ele><time>2026-04-13T16:35:21Z</time></trkpt><trkpt lat="42.96575501221187" lon="-3.3292541408680405"><ele>703.6666666666666</ele><time>2026-04-13T16:35:22Z</time></trkpt><trkpt lat="42.9658947846291" lon="-3.329242628881787"><ele>702.3333333333333</ele><time>2026-04-13T16:35:23Z</time></trkpt><trkpt lat="42.96605085300643" lon="-3.329201019673652"><ele>701.0</ele><time>2026-04-13T16:35:24Z</time></trkpt><trkpt lat="42.966219531725834" lon="-3.3291523159599326"><ele>701.0</ele><time>2026-04-13T16:35:25Z</time></trkpt><trkpt lat="42.966366949221154" lon="-3.3291272274815715"><ele>701.0</ele><time>2026-04-13T16:35:26Z</time></trkpt><trkpt lat="42.96650305925325" lon="-3.3291312845387546"><ele>701.0</ele><time>2026-04-13T16:35:27Z</time></trkpt><trkpt lat="42.96664920740805" lon="-3.329174060130611"><ele>701.0</ele><time>2026-04-13T16:35:28Z</time></trkpt><trkpt lat="42.96681186156902" lon="-3.329253835372015"><ele>700.3333333333333</ele><time>2026-04-13T16:35:29Z</time></trkpt><trkpt lat="42.96699345201368" lon="-3.32933432777307"><ele>699.6666666666666</ele><time>2026-04-13T16:35:30Z</time></trkpt><trkpt lat="42.96716556170279" lon="-3.3293975327995966"><ele>699.0</ele><time>2026-04-13T16:35:31Z</time></trkpt><trkpt lat="42.96731622931026" lon="-3.3294391510569943"><ele>699.0</ele><time>2026-04-13T16:35:32Z</time></trkpt><trkpt lat="42.96746415540641" lon="-3.3294682063935084"><ele>699.0</ele><time>2026-04-13T16:35:33Z</time></trkpt><trkpt lat="42.967599359874804" lon="-3.329495011163852"><ele>699.0</ele><time>2026-04-13T16:35:34Z</time></trkpt><trkpt lat="42.96773827975464" lon="-3.3295181037349084"><ele>699.0</ele><time>2026-04-13T16:35:35Z</time></trkpt><trkpt lat="42.967888279017224" lon="-3.3295168241913577"><ele>697.0</ele><time>2026-04-13T16:35:36Z</time></trkpt><trkpt lat="42.96802996223529" lon="-3.3294686250404197"><ele>695.0</ele><time>2026-04-13T16:35:37Z</time></trkpt><trkpt lat="42.96816449378515" lon="-3.329383161725757"><ele>693.0</ele><time>2026-04-13T16:35:38Z</time></trkpt><trkpt lat="42.96828490765681" lon="-3.329315584284543"><ele>691.0</ele><time>2026-04-13T16:35:39Z</time></trkpt><trkpt lat="42.96837032911507" lon="-3.3292816031697234"><ele>689.75</ele><time>2026-04-13T16:35:40Z</time></trkpt><trkpt lat="42.96844793711003" lon="-3.3292794954302227"><ele>688.5</ele><time>2026-04-13T16:35:41Z</time></trkpt><trkpt lat="42.968541663415884" lon="-3.3293087914717154"><ele>687.25</ele><time>2026-04-13T16:35:42Z</time></trkpt><trkpt lat="42.968663675792186" lon="-3.329394479496105"><ele>686.0</ele><time>2026-04-13T16:35:43Z</time></trkpt><trkpt lat="42.96879133929368" lon="-3.329531481711544"><ele>686.0</ele><time>2026-04-13T16:35:44Z</time></trkpt><trkpt lat="42.96893216192163" lon="-3.329687489278594"><ele>686.0</ele><time>2026-04-13T16:35:45Z</time></trkpt><trkpt lat="42.96906482863441" lon="-3.3298264376716853"><ele>686.0</ele><time>2026-04-13T16:35:46Z</time></trkpt><trkpt lat="42.96917693596469" lon="-3.3299487396652885"><ele>687.0</ele><time>2026-04-13T16:35:47Z</time></trkpt><trkpt lat="42.96927916569216" lon="-3.330082507568038"><ele>688.0</ele><time>2026-04-13T16:35:48Z</time></trkpt><trkpt lat="42.969376026521076" lon="-3.330261693021615"><ele>689.0</ele><time>2026-04-13T16:35:49Z</time></trkpt><trkpt lat="42.9694713392383" lon="-3.3304933212388304"><ele>687.0</ele><time>2026-04-13T16:35:50Z</time></trkpt><trkpt lat="42.96955396942045" lon="-3.3307283270694494"><ele>685.0</ele><time>2026-04-13T16:35:51Z</time></trkpt><trkpt lat="42.969634117062625" lon="-3.3309091957294354"><ele>683.0</ele><time>2026-04-13T16:35:52Z</time></trkpt><trkpt lat="42.96972968866263" lon="-3.3310553196384265"><ele>683.0</ele><time>2026-04-13T16:35:53Z</time></trkpt><trkpt lat="42.969827314200536" lon="-3.3311893906956467"><ele>683.0</ele><time>2026-04-13T16:35:54Z</time></trkpt><trkpt lat="42.969922277146104" lon="-3.3312985930179884"><ele>683.0</ele><time>2026-04-13T16:35:55Z</time></trkpt><trkpt lat="42.9700325099289" lon="-3.3313885767687306"><ele>683.0</ele><time>2026-04-13T16:35:56Z</time></trkpt><trkpt lat="42.97016620237707" lon="-3.331452787784943"><ele>678.6666666666666</ele><time>2026-04-13T16:35:57Z</time></trkpt><trkpt lat="42.97031496689415" lon="-3.3314824201605298"><ele>674.3333333333334</ele><time>2026-04-13T16:35:58Z</time></trkpt><trkpt lat="42.97049490451556" lon="-3.331484492827402"><ele>670.0</ele><time>2026-04-13T16:35:59Z</time></trkpt><trkpt lat="42.97068804898052" lon="-3.3314860932757573"><ele>670.0</ele><time>2026-04-13T16:36:00Z</time></trkpt><trkpt lat="42.970885000017596" lon="-3.33148797483372"><ele>670.0</ele><time>2026-04-13T16:36:01Z</time></trkpt><trkpt lat="42.971089755694294" lon="-3.3314916583346483"><ele>670.0</ele><time>2026-04-13T16:36:02Z</time></trkpt><trkpt lat="42.971301664044034" lon="-3.3314902899873764"><ele>670.0</ele><time>2026-04-13T16:36:03Z</time></trkpt><trkpt lat="42.97148941389206" lon="-3.33148891866146"><ele>670.0</ele><time>2026-04-13T16:36:04Z</time></trkpt><trkpt lat="42.97167013277115" lon="-3.3314931971692983"><ele>670.0</ele><time>2026-04-13T16:36:05Z</time></trkpt><trkpt lat="42.97185829839665" lon="-3.3314990105925903"><ele>671.3333333333334</ele><time>2026-04-13T16:36:06Z</time></trkpt><trkpt lat="42.972048288586464" lon="-3.3315060569209236"><ele>672.6666666666666</ele><time>2026-04-13T16:36:07Z</time></trkpt><trkpt lat="42.97223238496262" lon="-3.331508081616251"><ele>674.0</ele><time>2026-04-13T16:36:08Z</time></trkpt><trkpt lat="42.97241495496876" lon="-3.3315088913233692"><ele>675.6666666666666</ele><time>2026-04-13T16:36:09Z</time></trkpt><trkpt lat="42.97260223629663" lon="-3.331504935038397"><ele>677.3333333333334</ele><time>2026-04-13T16:36:10Z</time></trkpt><trkpt lat="42.97280262847804" lon="-3.3315060085045167"><ele>679.0</ele><time>2026-04-13T16:36:11Z</time></trkpt><trkpt lat="42.97300522486557" lon="-3.331508971759098"><ele>679.0</ele><time>2026-04-13T16:36:12Z</time></trkpt><trkpt lat="42.97321122414466" lon="-3.331520536103762"><ele>679.0</ele><time>2026-04-13T16:36:13Z</time></trkpt><trkpt lat="42.97341373039121" lon="-3.331549204570814"><ele>679.0</ele><time>2026-04-13T16:36:14Z</time></trkpt><trkpt lat="42.97360286727453" lon="-3.331591834575159"><ele>679.0</ele><time>2026-04-13T16:36:15Z</time></trkpt><trkpt lat="42.973766622444444" lon="-3.3316395241337142"><ele>679.0</ele><time>2026-04-13T16:36:16Z</time></trkpt><trkpt lat="42.973927676731414" lon="-3.331678015680681"><ele>679.0</ele><time>2026-04-13T16:36:17Z</time></trkpt><trkpt lat="42.97406757502035" lon="-3.3317075552744746"><ele>679.0</ele><time>2026-04-13T16:36:18Z</time></trkpt><trkpt lat="42.974168457212635" lon="-3.331729039622442"><ele>679.0</ele><time>2026-04-13T16:36:18.999Z</time></trkpt><trkpt lat="42.97424107687389" lon="-3.331756674724947"><ele>679.0</ele><time>2026-04-13T16:36:19.999Z</time></trkpt><trkpt lat="42.974333297848794" lon="-3.3317706248844523"><ele>679.0</ele><time>2026-04-13T16:36:21.999Z</time></trkpt><trkpt lat="42.974415546238035" lon="-3.331697945793479"><ele>679.0</ele><time>2026-04-13T16:36:23.999Z</time></trkpt><trkpt lat="42.974504266873936" lon="-3.3316245657520835"><ele>678.4000000000001</ele><time>2026-04-13T16:36:25.999Z</time></trkpt><trkpt lat="42.97455214337268" lon="-3.3315644703975233"><ele>677.8</ele><time>2026-04-13T16:36:26.999Z</time></trkpt><trkpt lat="42.97459379517724" lon="-3.3314750688633086"><ele>677.2</ele><time>2026-04-13T16:36:27.999Z</time></trkpt><trkpt lat="42.97463359306762" lon="-3.3313597134551536"><ele>676.5999999999999</ele><time>2026-04-13T16:36:28.999Z</time></trkpt><trkpt lat="42.97466665490531" lon="-3.3312251549885787"><ele>676.0</ele><time>2026-04-13T16:36:29.999Z</time></trkpt><trkpt lat="42.97470373810401" lon="-3.331063224463237"><ele>678.0</ele><time>2026-04-13T16:36:30.999Z</time></trkpt><trkpt lat="42.97473971262423" lon="-3.330884961056427"><ele>680.0</ele><time>2026-04-13T16:36:31.999Z</time></trkpt><trkpt lat="42.974783012776726" lon="-3.330709047832059"><ele>682.0</ele><time>2026-04-13T16:36:32.999Z</time></trkpt><trkpt lat="42.97482323353441" lon="-3.33052045281268"><ele>684.0</ele><time>2026-04-13T16:36:33.999Z</time></trkpt><trkpt lat="42.97486363978693" lon="-3.3303221504892253"><ele>685.0</ele><time>2026-04-13T16:36:34.999Z</time></trkpt><trkpt lat="42.97490222605299" lon="-3.330111622417242"><ele>686.0</ele><time>2026-04-13T16:36:35.999Z</time></trkpt><trkpt lat="42.9749451961339" lon="-3.329917201850486"><ele>687.0</ele><time>2026-04-13T16:36:36.999Z</time></trkpt><trkpt lat="42.97497930880359" lon="-3.3297222589487876"><ele>686.3333333333334</ele><time>2026-04-13T16:36:37.999Z</time></trkpt><trkpt lat="42.97501246144489" lon="-3.329517974024698"><ele>685.6666666666667</ele><time>2026-04-13T16:36:38.999Z</time></trkpt><trkpt lat="42.97504073660889" lon="-3.3293030518368"><ele>685.0</ele><time>2026-04-13T16:36:39.999Z</time></trkpt><trkpt lat="42.97506326828965" lon="-3.3290893152845813"><ele>686.0</ele><time>2026-04-13T16:36:40.999Z</time></trkpt><trkpt lat="42.97508491928508" lon="-3.328883112125308"><ele>687.0</ele><time>2026-04-13T16:36:41.999Z</time></trkpt><trkpt lat="42.97510800925072" lon="-3.3287353169716503"><ele>688.0</ele><time>2026-04-13T16:36:42.999Z</time></trkpt><trkpt lat="42.97515512555843" lon="-3.328548160439018"><ele>689.0</ele><time>2026-04-13T16:36:43.999Z</time></trkpt><trkpt lat="42.97521571214011" lon="-3.328350482223477"><ele>689.0</ele><time>2026-04-13T16:36:44.999Z</time></trkpt><trkpt lat="42.97528328575678" lon="-3.3281481263445105"><ele>689.0</ele><time>2026-04-13T16:36:45.999Z</time></trkpt><trkpt lat="42.97534902064402" lon="-3.3279575216154473"><ele>689.0</ele><time>2026-04-13T16:36:46.999Z</time></trkpt><trkpt lat="42.97539565686152" lon="-3.3278095440164064"><ele>689.0</ele><time>2026-04-13T16:36:47.999Z</time></trkpt><trkpt lat="42.97543891233932" lon="-3.327664117954677"><ele>690.5</ele><time>2026-04-13T16:36:48.999Z</time></trkpt><trkpt lat="42.975463415056986" lon="-3.32748938864416"><ele>692.0</ele><time>2026-04-13T16:36:49.999Z</time></trkpt><trkpt lat="42.97547351462448" lon="-3.327289149038794"><ele>693.5</ele><time>2026-04-13T16:36:50.999Z</time></trkpt><trkpt lat="42.97547756822168" lon="-3.327086957275301"><ele>695.0</ele><time>2026-04-13T16:36:51.999Z</time></trkpt><trkpt lat="42.97547714626191" lon="-3.3268643025936595"><ele>696.5</ele><time>2026-04-13T16:36:52.999Z</time></trkpt><trkpt lat="42.97548374588822" lon="-3.326660802087862"><ele>698.0</ele><time>2026-04-13T16:36:53.999Z</time></trkpt><trkpt lat="42.975492637370145" lon="-3.3264924210678646"><ele>699.5</ele><time>2026-04-13T16:36:54.999Z</time></trkpt><trkpt lat="42.97550965863438" lon="-3.326311361247167"><ele>701.0</ele><time>2026-04-13T16:36:55.999Z</time></trkpt><trkpt lat="42.97554580280877" lon="-3.3260997845897213"><ele>702.5</ele><time>2026-04-13T16:36:56.999Z</time></trkpt><trkpt lat="42.9755903520777" lon="-3.325868095825457"><ele>704.0</ele><time>2026-04-13T16:36:57.999Z</time></trkpt><trkpt lat="42.97563918128713" lon="-3.3256841222825284"><ele>705.5</ele><time>2026-04-13T16:36:58.999Z</time></trkpt><trkpt lat="42.9756777756962" lon="-3.3255159375356462"><ele>707.0</ele><time>2026-04-13T16:36:59.999Z</time></trkpt><trkpt lat="42.97569996658556" lon="-3.3253486359904545"><ele>708.5</ele><time>2026-04-13T16:37:00.999Z</time></trkpt><trkpt lat="42.97571196686719" lon="-3.325164187089475"><ele>710.0</ele><time>2026-04-13T16:37:01.999Z</time></trkpt><trkpt lat="42.975715826751234" lon="-3.324961386021414"><ele>711.5</ele><time>2026-04-13T16:37:02.999Z</time></trkpt><trkpt lat="42.97570785796515" lon="-3.3247550885919925"><ele>713.0</ele><time>2026-04-13T16:37:03.999Z</time></trkpt><trkpt lat="42.97569531511469" lon="-3.324536978990448"><ele>713.3333333333333</ele><time>2026-04-13T16:37:04.999Z</time></trkpt><trkpt lat="42.97567668208711" lon="-3.324334702349753"><ele>713.6666666666666</ele><time>2026-04-13T16:37:05.999Z</time></trkpt><trkpt lat="42.975650092566156" lon="-3.3241296300445935"><ele>714.0</ele><time>2026-04-13T16:37:06.999Z</time></trkpt><trkpt lat="42.975619042075444" lon="-3.323922116360925"><ele>713.3333333333334</ele><time>2026-04-13T16:37:07.999Z</time></trkpt><trkpt lat="42.97559143747487" lon="-3.323716130252355"><ele>712.6666666666667</ele><time>2026-04-13T16:37:08.999Z</time></trkpt><trkpt lat="42.9755585160793" lon="-3.323494720009429"><ele>712.0</ele><time>2026-04-13T16:37:09.999Z</time></trkpt><trkpt lat="42.97551816900407" lon="-3.3232812095838486"><ele>713.0</ele><time>2026-04-13T16:37:10.999Z</time></trkpt><trkpt lat="42.975468974838904" lon="-3.32306034351598"><ele>714.0</ele><time>2026-04-13T16:37:11.999Z</time></trkpt><trkpt lat="42.975417855541274" lon="-3.322865385116941"><ele>715.0</ele><time>2026-04-13T16:37:12.999Z</time></trkpt><trkpt lat="42.9753638170044" lon="-3.3226436105808634"><ele>715.0</ele><time>2026-04-13T16:37:13.999Z</time></trkpt><trkpt lat="42.97531057584002" lon="-3.322443427434542"><ele>715.0</ele><time>2026-04-13T16:37:14.999Z</time></trkpt><trkpt lat="42.97526126579085" lon="-3.3222561445052157"><ele>715.0</ele><time>2026-04-13T16:37:15.999Z</time></trkpt><trkpt lat="42.975219766751906" lon="-3.3221014318565065"><ele>715.0</ele><time>2026-04-13T16:37:16.999Z</time></trkpt><trkpt lat="42.97517838580337" lon="-3.321948472657237"><ele>716.25</ele><time>2026-04-13T16:37:17.999Z</time></trkpt><trkpt lat="42.9751413582622" lon="-3.3217902189481547"><ele>717.5</ele><time>2026-04-13T16:37:18.999Z</time></trkpt><trkpt lat="42.97509821190831" lon="-3.3216302050867403"><ele>718.75</ele><time>2026-04-13T16:37:19.999Z</time></trkpt><trkpt lat="42.97505862912792" lon="-3.321476588341604"><ele>720.0</ele><time>2026-04-13T16:37:20.999Z</time></trkpt><trkpt lat="42.97501620488918" lon="-3.321317315172334"><ele>720.75</ele><time>2026-04-13T16:37:22Z</time></trkpt><trkpt lat="42.974968505696886" lon="-3.3211642292868677"><ele>721.5</ele><time>2026-04-13T16:37:23Z</time></trkpt><trkpt lat="42.974912051190316" lon="-3.321006967376514"><ele>722.25</ele><time>2026-04-13T16:37:24Z</time></trkpt><trkpt lat="42.97485097301526" lon="-3.320846407562094"><ele>723.0</ele><time>2026-04-13T16:37:25Z</time></trkpt><trkpt lat="42.974783867762206" lon="-3.3206843259399745"><ele>723.0</ele><time>2026-04-13T16:37:26Z</time></trkpt><trkpt lat="42.97471549323827" lon="-3.3205175046529365"><ele>723.0</ele><time>2026-04-13T16:37:27Z</time></trkpt><trkpt lat="42.97464504213856" lon="-3.320345798858855"><ele>723.0</ele><time>2026-04-13T16:37:28Z</time></trkpt><trkpt lat="42.97457650755337" lon="-3.320168272046252"><ele>723.0</ele><time>2026-04-13T16:37:29Z</time></trkpt><trkpt lat="42.974507870336566" lon="-3.3199996019407925"><ele>723.0</ele><time>2026-04-13T16:37:30Z</time></trkpt><trkpt lat="42.974438752419985" lon="-3.3198496719905415"><ele>723.0</ele><time>2026-04-13T16:37:31Z</time></trkpt><trkpt lat="42.974369631038925" lon="-3.3196945908657454"><ele>723.0</ele><time>2026-04-13T16:37:32Z</time></trkpt><trkpt lat="42.97429372718823" lon="-3.3195338810444524"><ele>723.0</ele><time>2026-04-13T16:37:33Z</time></trkpt><trkpt lat="42.97421911153983" lon="-3.3193649617439367"><ele>724.0</ele><time>2026-04-13T16:37:34Z</time></trkpt><trkpt lat="42.97415008577804" lon="-3.3192114927097314"><ele>725.0</ele><time>2026-04-13T16:37:35Z</time></trkpt><trkpt lat="42.97407502553398" lon="-3.3190327672478546"><ele>726.0</ele><time>2026-04-13T16:37:36Z</time></trkpt><trkpt lat="42.9739920276199" lon="-3.3188567908916355"><ele>727.0</ele><time>2026-04-13T16:37:37Z</time></trkpt><trkpt lat="42.97389570191492" lon="-3.3186864804299625"><ele>727.25</ele><time>2026-04-13T16:37:38Z</time></trkpt><trkpt lat="42.97380132144875" lon="-3.3185169138691792"><ele>727.5</ele><time>2026-04-13T16:37:39Z</time></trkpt><trkpt lat="42.97372422513352" lon="-3.318363488147254"><ele>727.75</ele><time>2026-04-13T16:37:40Z</time></trkpt><trkpt lat="42.97364401558973" lon="-3.3182089895374967"><ele>728.0</ele><time>2026-04-13T16:37:41Z</time></trkpt><trkpt lat="42.97355499299745" lon="-3.3180437700787726"><ele>729.6666666666666</ele><time>2026-04-13T16:37:42Z</time></trkpt><trkpt lat="42.97346025327202" lon="-3.3178653146766033"><ele>731.3333333333334</ele><time>2026-04-13T16:37:43Z</time></trkpt><trkpt lat="42.97337316860443" lon="-3.3176882211387566"><ele>733.0</ele><time>2026-04-13T16:37:44Z</time></trkpt><trkpt lat="42.97329366221775" lon="-3.317500651052513"><ele>734.0</ele><time>2026-04-13T16:37:45Z</time></trkpt><trkpt lat="42.97321904175652" lon="-3.31731194884118"><ele>735.0</ele><time>2026-04-13T16:37:46Z</time></trkpt><trkpt lat="42.97313960403163" lon="-3.317122548948793"><ele>736.0</ele><time>2026-04-13T16:37:47Z</time></trkpt><trkpt lat="42.97304914780982" lon="-3.316924032111121"><ele>736.0</ele><time>2026-04-13T16:37:48Z</time></trkpt><trkpt lat="42.97295405290063" lon="-3.3167252359963877"><ele>736.0</ele><time>2026-04-13T16:37:49Z</time></trkpt><trkpt lat="42.97285313625237" lon="-3.316508749224367"><ele>736.0</ele><time>2026-04-13T16:37:50Z</time></trkpt><trkpt lat="42.97274113689129" lon="-3.3162999014542973"><ele>737.3333333333334</ele><time>2026-04-13T16:37:51Z</time></trkpt><trkpt lat="42.97262314421996" lon="-3.3160862783963743"><ele>738.6666666666666</ele><time>2026-04-13T16:37:52Z</time></trkpt><trkpt lat="42.97250919249127" lon="-3.315855715097363"><ele>740.0</ele><time>2026-04-13T16:37:53Z</time></trkpt><trkpt lat="42.97239021234144" lon="-3.3156280646187164"><ele>741.0</ele><time>2026-04-13T16:37:54Z</time></trkpt><trkpt lat="42.97225746884768" lon="-3.3153801280325643"><ele>742.0</ele><time>2026-04-13T16:37:55Z</time></trkpt><trkpt lat="42.97212136192629" lon="-3.3151334212100636"><ele>742.0</ele><time>2026-04-13T16:37:56Z</time></trkpt><trkpt lat="42.9719980426269" lon="-3.3149126957243813"><ele>742.0</ele><time>2026-04-13T16:37:57Z</time></trkpt><trkpt lat="42.9719106765648" lon="-3.314728165252811"><ele>742.0</ele><time>2026-04-13T16:37:58Z</time></trkpt><trkpt lat="42.97181744629667" lon="-3.3145526371049683"><ele>743.3333333333334</ele><time>2026-04-13T16:37:59Z</time></trkpt><trkpt lat="42.97171016856162" lon="-3.3143704642248566"><ele>744.6666666666666</ele><time>2026-04-13T16:38:00Z</time></trkpt><trkpt lat="42.97159573310063" lon="-3.3141723274516965"><ele>746.0</ele><time>2026-04-13T16:38:01Z</time></trkpt><trkpt lat="42.97148044289735" lon="-3.313974198949485"><ele>747.0</ele><time>2026-04-13T16:38:02Z</time></trkpt><trkpt lat="42.971367506007574" lon="-3.313767348082603"><ele>748.0</ele><time>2026-04-13T16:38:03Z</time></trkpt><trkpt lat="42.97125663262136" lon="-3.31356972496604"><ele>749.0</ele><time>2026-04-13T16:38:04Z</time></trkpt><trkpt lat="42.97115838717915" lon="-3.3133875500755376"><ele>749.0</ele><time>2026-04-13T16:38:05Z</time></trkpt><trkpt lat="42.97106480000979" lon="-3.3132140511485555"><ele>749.0</ele><time>2026-04-13T16:38:06Z</time></trkpt><trkpt lat="42.970966061834396" lon="-3.3130425018039884"><ele>749.0</ele><time>2026-04-13T16:38:07Z</time></trkpt><trkpt lat="42.97089062532071" lon="-3.312888506118619"><ele>749.5</ele><time>2026-04-13T16:38:08Z</time></trkpt><trkpt lat="42.97081975555571" lon="-3.3127258219066293"><ele>750.0</ele><time>2026-04-13T16:38:09Z</time></trkpt><trkpt lat="42.970752216925014" lon="-3.312585070190491"><ele>750.5</ele><time>2026-04-13T16:38:10Z</time></trkpt><trkpt lat="42.970726487549435" lon="-3.312420494388255"><ele>751.0</ele><time>2026-04-13T16:38:11Z</time></trkpt><trkpt lat="42.97070759976769" lon="-3.312250736011181"><ele>752.0</ele><time>2026-04-13T16:38:12Z</time></trkpt><trkpt lat="42.9706897471872" lon="-3.3120653570142924"><ele>753.0</ele><time>2026-04-13T16:38:13Z</time></trkpt><trkpt lat="42.97066646258653" lon="-3.3118819452983415"><ele>754.0</ele><time>2026-04-13T16:38:14Z</time></trkpt><trkpt lat="42.97064783958359" lon="-3.3116864065975062"><ele>755.0</ele><time>2026-04-13T16:38:15Z</time></trkpt><trkpt lat="42.9706357316705" lon="-3.3114989718747547"><ele>756.25</ele><time>2026-04-13T16:38:16Z</time></trkpt><trkpt lat="42.970629206875415" lon="-3.3113295339429683"><ele>757.5</ele><time>2026-04-13T16:38:17Z</time></trkpt><trkpt lat="42.97063899357346" lon="-3.3111394716535827"><ele>758.75</ele><time>2026-04-13T16:38:18Z</time></trkpt><trkpt lat="42.97065026824538" lon="-3.3109552374041398"><ele>760.0</ele><time>2026-04-13T16:38:18.999Z</time></trkpt><trkpt lat="42.97068001888176" lon="-3.310763482165741"><ele>761.3333333333334</ele><time>2026-04-13T16:38:19.999Z</time></trkpt><trkpt lat="42.970721241519605" lon="-3.310561962901811"><ele>762.6666666666666</ele><time>2026-04-13T16:38:20.999Z</time></trkpt><trkpt lat="42.97076610272339" lon="-3.310362650629435"><ele>764.0</ele><time>2026-04-13T16:38:21.999Z</time></trkpt><trkpt lat="42.97081112664998" lon="-3.3101403828203386"><ele>764.0</ele><time>2026-04-13T16:38:22.999Z</time></trkpt><trkpt lat="42.97084644335655" lon="-3.3099224136250305"><ele>764.0</ele><time>2026-04-13T16:38:23.999Z</time></trkpt><trkpt lat="42.97088070668303" lon="-3.3096956682389895"><ele>764.0</ele><time>2026-04-13T16:38:24.999Z</time></trkpt><trkpt lat="42.9709179866859" lon="-3.30948192594378"><ele>768.3333333333333</ele><time>2026-04-13T16:38:25.999Z</time></trkpt><trkpt lat="42.97095978971804" lon="-3.309255850727531"><ele>772.6666666666666</ele><time>2026-04-13T16:38:26.999Z</time></trkpt><trkpt lat="42.97100378795724" lon="-3.3090200665872587"><ele>777.0</ele><time>2026-04-13T16:38:27.999Z</time></trkpt><trkpt lat="42.9710348565919" lon="-3.3088172886440383"><ele>778.25</ele><time>2026-04-13T16:38:28.999Z</time></trkpt><trkpt lat="42.97105034382484" lon="-3.3086435949613264"><ele>779.5</ele><time>2026-04-13T16:38:29.999Z</time></trkpt><trkpt lat="42.97104924255551" lon="-3.3084767677287172"><ele>780.75</ele><time>2026-04-13T16:38:30.999Z</time></trkpt><trkpt lat="42.971036457233254" lon="-3.3083007531743087"><ele>782.0</ele><time>2026-04-13T16:38:31.999Z</time></trkpt><trkpt lat="42.97102896750605" lon="-3.3081072775983684"><ele>782.5</ele><time>2026-04-13T16:38:32.999Z</time></trkpt><trkpt lat="42.970997532372934" lon="-3.30791507794218"><ele>783.0</ele><time>2026-04-13T16:38:33.999Z</time></trkpt><trkpt lat="42.970950062267384" lon="-3.3077238198911636"><ele>783.5</ele><time>2026-04-13T16:38:34.999Z</time></trkpt><trkpt lat="42.97089789667318" lon="-3.307552131846567"><ele>784.0</ele><time>2026-04-13T16:38:35.999Z</time></trkpt><trkpt lat="42.970853327038526" lon="-3.307405173627374"><ele>783.25</ele><time>2026-04-13T16:38:36.999Z</time></trkpt><trkpt lat="42.970820977279686" lon="-3.3072673890596764"><ele>782.5</ele><time>2026-04-13T16:38:37.999Z</time></trkpt><trkpt lat="42.970811328392706" lon="-3.307122836678967"><ele>781.75</ele><time>2026-04-13T16:38:38.999Z</time></trkpt><trkpt lat="42.97080827489903" lon="-3.3069613034146785"><ele>781.0</ele><time>2026-04-13T16:38:39.999Z</time></trkpt><trkpt lat="42.97082237567577" lon="-3.3067993158744855"><ele>781.0</ele><time>2026-04-13T16:38:40.999Z</time></trkpt><trkpt lat="42.97083676738899" lon="-3.3066630047543004"><ele>781.0</ele><time>2026-04-13T16:38:41.999Z</time></trkpt><trkpt lat="42.97085920582581" lon="-3.3065237335115474"><ele>781.0</ele><time>2026-04-13T16:38:42.999Z</time></trkpt><trkpt lat="42.970905845490186" lon="-3.3063901170497303"><ele>781.0</ele><time>2026-04-13T16:38:43.999Z</time></trkpt><trkpt lat="42.970988530260364" lon="-3.3062591053969292"><ele>781.0</ele><time>2026-04-13T16:38:44.999Z</time></trkpt><trkpt lat="42.97106816230511" lon="-3.3061207784553774"><ele>783.5999999999999</ele><time>2026-04-13T16:38:45.999Z</time></trkpt><trkpt lat="42.971128399144916" lon="-3.305957494309918"><ele>786.2</ele><time>2026-04-13T16:38:46.999Z</time></trkpt><trkpt lat="42.97116743339974" lon="-3.305781731490122"><ele>788.8</ele><time>2026-04-13T16:38:47.999Z</time></trkpt><trkpt lat="42.97119879727167" lon="-3.3056356828411624"><ele>791.4000000000001</ele><time>2026-04-13T16:38:48.999Z</time></trkpt><trkpt lat="42.971209906705504" lon="-3.305543703869271"><ele>794.0</ele><time>2026-04-13T16:38:49.999Z</time></trkpt><trkpt lat="42.97123183559467" lon="-3.3054591442929877"><ele>794.3333333333334</ele><time>2026-04-13T16:38:51.999Z</time></trkpt><trkpt lat="42.971266635601985" lon="-3.305352615496844"><ele>794.6666666666667</ele><time>2026-04-13T16:38:54.999Z</time></trkpt><trkpt lat="42.97132489914253" lon="-3.3052668521573736"><ele>795.0</ele><time>2026-04-13T16:38:57.999Z</time></trkpt><trkpt lat="42.97140491598368" lon="-3.3052007181408185"><ele>795.3333333333333</ele><time>2026-04-13T16:38:59.999Z</time></trkpt><trkpt lat="42.971479753135156" lon="-3.3051064263313883"><ele>795.6666666666666</ele><time>2026-04-13T16:39:02.999Z</time></trkpt><trkpt lat="42.97152317793477" lon="-3.3050190965780004"><ele>796.0</ele><time>2026-04-13T16:39:04.999Z</time></trkpt><trkpt lat="42.971548393040884" lon="-3.3049072278249088"><ele>795.9999999999999</ele><time>2026-04-13T16:39:07.999Z</time></trkpt><trkpt lat="42.97156648324417" lon="-3.3048085074880333"><ele>796.0</ele><time>2026-04-13T16:39:10.999Z</time></trkpt><trkpt lat="42.971586405572886" lon="-3.304721990927261"><ele>796.0</ele><time>2026-04-13T16:39:13.999Z</time></trkpt><trkpt lat="42.97160372896804" lon="-3.304615130668019"><ele>796.0</ele><time>2026-04-13T16:39:16.999Z</time></trkpt><trkpt lat="42.971659513801576" lon="-3.3045085941798553"><ele>795.9999999999999</ele><time>2026-04-13T16:39:19.999Z</time></trkpt><trkpt lat="42.97172085685893" lon="-3.3044368000171556"><ele>796.0</ele><time>2026-04-13T16:39:21.999Z</time></trkpt><trkpt lat="42.971778324582665" lon="-3.3043828710110783"><ele>797.4999999999999</ele><time>2026-04-13T16:39:23.999Z</time></trkpt><trkpt lat="42.97185246448521" lon="-3.304309889287564"><ele>799.0</ele><time>2026-04-13T16:39:25.999Z</time></trkpt><trkpt lat="42.97193173755492" lon="-3.3042246989583295"><ele>800.5</ele><time>2026-04-13T16:39:28Z</time></trkpt><trkpt lat="42.97197288091242" lon="-3.3041502090094013"><ele>802.0</ele><time>2026-04-13T16:39:29Z</time></trkpt><trkpt lat="42.972012584086706" lon="-3.30407836692325"><ele>803.4999999999999</ele><time>2026-04-13T16:39:30Z</time></trkpt><trkpt lat="42.9720559264322" lon="-3.3039943518390955"><ele>805.0</ele><time>2026-04-13T16:39:31Z</time></trkpt><trkpt lat="42.972104593838154" lon="-3.303900645789981"><ele>805.0</ele><time>2026-04-13T16:39:32Z</time></trkpt><trkpt lat="42.97215424473304" lon="-3.3038091436582757"><ele>805.0</ele><time>2026-04-13T16:39:33Z</time></trkpt><trkpt lat="42.972206673543944" lon="-3.3037123245712685"><ele>805.0</ele><time>2026-04-13T16:39:34Z</time></trkpt><trkpt lat="42.97226612507055" lon="-3.303618654984112"><ele>805.0</ele><time>2026-04-13T16:39:35Z</time></trkpt><trkpt lat="42.972335585224286" lon="-3.3035249902047843"><ele>805.0</ele><time>2026-04-13T16:39:36Z</time></trkpt><trkpt lat="42.97240829291051" lon="-3.303425755211142"><ele>805.0</ele><time>2026-04-13T16:39:37Z</time></trkpt><trkpt lat="42.972482487214315" lon="-3.3033227571127983"><ele>805.0</ele><time>2026-04-13T16:39:38Z</time></trkpt><trkpt lat="42.9725560628244" lon="-3.303200787730487"><ele>805.0</ele><time>2026-04-13T16:39:39Z</time></trkpt><trkpt lat="42.972620329766144" lon="-3.3030673293435675"><ele>805.0</ele><time>2026-04-13T16:39:40Z</time></trkpt><trkpt lat="42.97267302893459" lon="-3.3029080863457905"><ele>809.0</ele><time>2026-04-13T16:39:41Z</time></trkpt><trkpt lat="42.97272587376034" lon="-3.3027436893978233"><ele>813.0</ele><time>2026-04-13T16:39:42Z</time></trkpt><trkpt lat="42.97278143494963" lon="-3.302587036092682"><ele>817.0</ele><time>2026-04-13T16:39:43Z</time></trkpt><trkpt lat="42.97284328742867" lon="-3.3024326474050762"><ele>821.0</ele><time>2026-04-13T16:39:44Z</time></trkpt><trkpt lat="42.972917994943366" lon="-3.3022832965131736"><ele>819.5</ele><time>2026-04-13T16:39:45Z</time></trkpt><trkpt lat="42.9729991893587" lon="-3.3021295288467383"><ele>818.0</ele><time>2026-04-13T16:39:46Z</time></trkpt><trkpt lat="42.973081893002416" lon="-3.3019922835896485"><ele>816.5</ele><time>2026-04-13T16:39:47Z</time></trkpt><trkpt lat="42.97315840323207" lon="-3.3018663660153105"><ele>815.0</ele><time>2026-04-13T16:39:48Z</time></trkpt><trkpt lat="42.97322907125021" lon="-3.3017437688788105"><ele>815.0</ele><time>2026-04-13T16:39:49Z</time></trkpt><trkpt lat="42.973301026279074" lon="-3.301621938991792"><ele>815.0</ele><time>2026-04-13T16:39:50Z</time></trkpt><trkpt lat="42.97338536845201" lon="-3.301499661339093"><ele>815.0</ele><time>2026-04-13T16:39:51Z</time></trkpt><trkpt lat="42.97345950806144" lon="-3.3013601631180447"><ele>815.0</ele><time>2026-04-13T16:39:52Z</time></trkpt><trkpt lat="42.973552249541086" lon="-3.30123932079663"><ele>816.5</ele><time>2026-04-13T16:39:53Z</time></trkpt><trkpt lat="42.97363882332196" lon="-3.3011056470127307"><ele>818.0</ele><time>2026-04-13T16:39:54Z</time></trkpt><trkpt lat="42.97373129375526" lon="-3.3009814734163916"><ele>819.5</ele><time>2026-04-13T16:39:55Z</time></trkpt><trkpt lat="42.97381235659692" lon="-3.300852347561066"><ele>821.0</ele><time>2026-04-13T16:39:56Z</time></trkpt><trkpt lat="42.97389403866573" lon="-3.3007332317055234"><ele>821.0</ele><time>2026-04-13T16:39:57Z</time></trkpt><trkpt lat="42.9739860074716" lon="-3.300614962225017"><ele>821.0</ele><time>2026-04-13T16:39:58Z</time></trkpt><trkpt lat="42.97408760752341" lon="-3.3004847476051484"><ele>821.0</ele><time>2026-04-13T16:39:59Z</time></trkpt><trkpt lat="42.97418908011987" lon="-3.3003590918306878"><ele>821.0</ele><time>2026-04-13T16:40:00Z</time></trkpt><trkpt lat="42.974293788919795" lon="-3.30024180158261"><ele>820.25</ele><time>2026-04-13T16:40:01Z</time></trkpt><trkpt lat="42.97438766652127" lon="-3.3001389291344942"><ele>819.5</ele><time>2026-04-13T16:40:02Z</time></trkpt><trkpt lat="42.974483262032486" lon="-3.3000359677450724"><ele>818.75</ele><time>2026-04-13T16:40:03Z</time></trkpt><trkpt lat="42.97457116298666" lon="-3.2999249802504207"><ele>818.0</ele><time>2026-04-13T16:40:04Z</time></trkpt><trkpt lat="42.974668069360334" lon="-3.299806721608493"><ele>817.25</ele><time>2026-04-13T16:40:05Z</time></trkpt><trkpt lat="42.97476771751962" lon="-3.299682360832423"><ele>816.5</ele><time>2026-04-13T16:40:06Z</time></trkpt><trkpt lat="42.97486177071406" lon="-3.29956605514725"><ele>815.75</ele><time>2026-04-13T16:40:07Z</time></trkpt><trkpt lat="42.97495167038005" lon="-3.2994581027449357"><ele>815.0</ele><time>2026-04-13T16:40:08Z</time></trkpt><trkpt lat="42.975041962873085" lon="-3.2993479559708296"><ele>814.8</ele><time>2026-04-13T16:40:09Z</time></trkpt><trkpt lat="42.975131768709936" lon="-3.2992489378340886"><ele>814.6</ele><time>2026-04-13T16:40:10Z</time></trkpt><trkpt lat="42.975213144016635" lon="-3.299145655359758"><ele>814.4000000000001</ele><time>2026-04-13T16:40:11Z</time></trkpt><trkpt lat="42.97529578819065" lon="-3.299044388492761"><ele>814.2</ele><time>2026-04-13T16:40:12Z</time></trkpt><trkpt lat="42.97537921544501" lon="-3.298946641929967"><ele>814.0</ele><time>2026-04-13T16:40:13Z</time></trkpt><trkpt lat="42.975462567175015" lon="-3.2988432454731873"><ele>814.0</ele><time>2026-04-13T16:40:14Z</time></trkpt><trkpt lat="42.97554143374364" lon="-3.2987470671393213"><ele>814.0</ele><time>2026-04-13T16:40:15Z</time></trkpt><trkpt lat="42.97561054382555" lon="-3.298665933361581"><ele>814.0</ele><time>2026-04-13T16:40:16Z</time></trkpt><trkpt lat="42.97567092702725" lon="-3.2985958642486346"><ele>814.0</ele><time>2026-04-13T16:40:17Z</time></trkpt><trkpt lat="42.975735090823534" lon="-3.2985115347687723"><ele>814.0</ele><time>2026-04-13T16:40:18Z</time></trkpt><trkpt lat="42.97580631202265" lon="-3.298426664681643"><ele>814.4000000000001</ele><time>2026-04-13T16:40:19Z</time></trkpt><trkpt lat="42.97587714048676" lon="-3.298339253882767"><ele>814.8</ele><time>2026-04-13T16:40:20Z</time></trkpt><trkpt lat="42.97594889372686" lon="-3.2982571717948748"><ele>815.2</ele><time>2026-04-13T16:40:21Z</time></trkpt><trkpt lat="42.97601692148534" lon="-3.2981753659908364"><ele>815.5999999999999</ele><time>2026-04-13T16:40:22Z</time></trkpt><trkpt lat="42.9760801427647" lon="-3.298095996565265"><ele>816.0</ele><time>2026-04-13T16:40:23Z</time></trkpt><trkpt lat="42.97614167025428" lon="-3.2980127271791257"><ele>816.4</ele><time>2026-04-13T16:40:24Z</time></trkpt><trkpt lat="42.97621446712101" lon="-3.297923500679373"><ele>816.8</ele><time>2026-04-13T16:40:25Z</time></trkpt><trkpt lat="42.97629279633856" lon="-3.2978274686007456"><ele>817.1999999999999</ele><time>2026-04-13T16:40:26Z</time></trkpt><trkpt lat="42.97636954956866" lon="-3.297730160099883"><ele>817.5999999999999</ele><time>2026-04-13T16:40:27Z</time></trkpt><trkpt lat="42.97644246432509" lon="-3.2976347392196557"><ele>818.0</ele><time>2026-04-13T16:40:28Z</time></trkpt><trkpt lat="42.9765114820715" lon="-3.297541687313502"><ele>818.0</ele><time>2026-04-13T16:40:28.999Z</time></trkpt><trkpt lat="42.97657728561861" lon="-3.2974629875617323"><ele>818.0</ele><time>2026-04-13T16:40:29.999Z</time></trkpt><trkpt lat="42.97663899110899" lon="-3.29739148541249"><ele>818.0</ele><time>2026-04-13T16:40:30.999Z</time></trkpt><trkpt lat="42.97669034018875" lon="-3.297330945140038"><ele>818.0</ele><time>2026-04-13T16:40:31.999Z</time></trkpt><trkpt lat="42.97676854258372" lon="-3.297253480634984"><ele>818.0</ele><time>2026-04-13T16:40:33.999Z</time></trkpt><trkpt lat="42.97686294175435" lon="-3.297145978134059"><ele>818.3333333333334</ele><time>2026-04-13T16:40:35.999Z</time></trkpt><trkpt lat="42.9769135531705" lon="-3.2970691070929035"><ele>818.6666666666667</ele><time>2026-04-13T16:40:36.999Z</time></trkpt><trkpt lat="42.976969701699865" lon="-3.296984141729018"><ele>819.0</ele><time>2026-04-13T16:40:37.999Z</time></trkpt><trkpt lat="42.97702816638085" lon="-3.296905041077981"><ele>819.3333333333333</ele><time>2026-04-13T16:40:38.999Z</time></trkpt><trkpt lat="42.97709771654331" lon="-3.2968271201735986"><ele>819.6666666666666</ele><time>2026-04-13T16:40:39.999Z</time></trkpt><trkpt lat="42.97718015743886" lon="-3.2967418171332574"><ele>820.0</ele><time>2026-04-13T16:40:40.999Z</time></trkpt><trkpt lat="42.97726377695821" lon="-3.2966385781707443"><ele>820.0</ele><time>2026-04-13T16:40:41.999Z</time></trkpt><trkpt lat="42.977351708602754" lon="-3.2965292015529943"><ele>820.0</ele><time>2026-04-13T16:40:42.999Z</time></trkpt><trkpt lat="42.97743411368449" lon="-3.2964238064967093"><ele>820.0</ele><time>2026-04-13T16:40:43.999Z</time></trkpt><trkpt lat="42.97750045716732" lon="-3.2963437011413994"><ele>820.0</ele><time>2026-04-13T16:40:44.999Z</time></trkpt><trkpt lat="42.97756939698493" lon="-3.296253756321848"><ele>820.0</ele><time>2026-04-13T16:40:45.999Z</time></trkpt><trkpt lat="42.97762701779285" lon="-3.29615051815586"><ele>822.0</ele><time>2026-04-13T16:40:46.999Z</time></trkpt><trkpt lat="42.977668816088396" lon="-3.2960349759004117"><ele>824.0</ele><time>2026-04-13T16:40:47.999Z</time></trkpt><trkpt lat="42.977695382097835" lon="-3.295901174999065"><ele>826.0</ele><time>2026-04-13T16:40:48.999Z</time></trkpt><trkpt lat="42.9776950103745" lon="-3.295755554891422"><ele>828.0</ele><time>2026-04-13T16:40:49.999Z</time></trkpt><trkpt lat="42.97767066695778" lon="-3.2955869125576545"><ele>830.0</ele><time>2026-04-13T16:40:50.999Z</time></trkpt><trkpt lat="42.977641270977756" lon="-3.2954016645448205"><ele>831.0</ele><time>2026-04-13T16:40:51.999Z</time></trkpt><trkpt lat="42.97761366210397" lon="-3.295226949239145"><ele>832.0</ele><time>2026-04-13T16:40:52.999Z</time></trkpt><trkpt lat="42.9775949056364" lon="-3.2950690919639922"><ele>833.0</ele><time>2026-04-13T16:40:53.999Z</time></trkpt><trkpt lat="42.97760278848269" lon="-3.2949076393240935"><ele>834.0</ele><time>2026-04-13T16:40:54.999Z</time></trkpt><trkpt lat="42.9776139641246" lon="-3.29475044869059"><ele>835.0</ele><time>2026-04-13T16:40:55.999Z</time></trkpt><trkpt lat="42.97765268196875" lon="-3.294581409877564"><ele>836.0</ele><time>2026-04-13T16:40:56.999Z</time></trkpt><trkpt lat="42.97772201942924" lon="-3.294416942871689"><ele>837.0</ele><time>2026-04-13T16:40:57.999Z</time></trkpt><trkpt lat="42.97780285607897" lon="-3.29426034450878"><ele>838.0</ele><time>2026-04-13T16:40:58.999Z</time></trkpt><trkpt lat="42.977876145435374" lon="-3.2941057450829625"><ele>838.0</ele><time>2026-04-13T16:40:59.999Z</time></trkpt><trkpt lat="42.97794355400374" lon="-3.2939748665065425"><ele>838.0</ele><time>2026-04-13T16:41:00.999Z</time></trkpt><trkpt lat="42.97801411071659" lon="-3.2938857679746776"><ele>838.0</ele><time>2026-04-13T16:41:01.999Z</time></trkpt><trkpt lat="42.978092850666144" lon="-3.293831918782252"><ele>838.0</ele><time>2026-04-13T16:41:02.999Z</time></trkpt><trkpt lat="42.9781985817004" lon="-3.29380630558769"><ele>838.0</ele><time>2026-04-13T16:41:03.999Z</time></trkpt><trkpt lat="42.97832271333285" lon="-3.2937964682627445"><ele>840.5</ele><time>2026-04-13T16:41:04.999Z</time></trkpt><trkpt lat="42.97845037916773" lon="-3.293794043878255"><ele>843.0</ele><time>2026-04-13T16:41:05.999Z</time></trkpt><trkpt lat="42.97857396838949" lon="-3.2937796599552382"><ele>845.5</ele><time>2026-04-13T16:41:06.999Z</time></trkpt><trkpt lat="42.978692936909816" lon="-3.2937618839306917"><ele>848.0</ele><time>2026-04-13T16:41:07.999Z</time></trkpt><trkpt lat="42.978803145508145" lon="-3.2937232583309144"><ele>848.0</ele><time>2026-04-13T16:41:08.999Z</time></trkpt><trkpt lat="42.97899533906304" lon="-3.2935516522514856"><ele>848.0</ele><time>2026-04-13T16:41:10.999Z</time></trkpt><trkpt lat="42.97909769291769" lon="-3.2934487005454964"><ele>848.0</ele><time>2026-04-13T16:41:11.999Z</time></trkpt><trkpt lat="42.97919233697316" lon="-3.2933266238829755"><ele>849.0</ele><time>2026-04-13T16:41:12.999Z</time></trkpt><trkpt lat="42.97929763558234" lon="-3.293194738826205"><ele>850.0</ele><time>2026-04-13T16:41:13.999Z</time></trkpt><trkpt lat="42.979407574986695" lon="-3.2930620515233304"><ele>851.0</ele><time>2026-04-13T16:41:14.999Z</time></trkpt><trkpt lat="42.97951422315549" lon="-3.2929261614620318"><ele>852.0</ele><time>2026-04-13T16:41:15.999Z</time></trkpt><trkpt lat="42.97962404676196" lon="-3.292776537346114"><ele>852.0</ele><time>2026-04-13T16:41:16.999Z</time></trkpt><trkpt lat="42.97973318132963" lon="-3.2926272600603497"><ele>852.0</ele><time>2026-04-13T16:41:17.999Z</time></trkpt><trkpt lat="42.97985081000822" lon="-3.292483576154653"><ele>852.0</ele><time>2026-04-13T16:41:18.999Z</time></trkpt><trkpt lat="42.979970089731935" lon="-3.2923212692700927"><ele>853.3333333333333</ele><time>2026-04-13T16:41:19.999Z</time></trkpt><trkpt lat="42.98009675559708" lon="-3.2921564952606994"><ele>854.6666666666666</ele><time>2026-04-13T16:41:20.999Z</time></trkpt><trkpt lat="42.980209230942165" lon="-3.2920061678347827"><ele>856.0</ele><time>2026-04-13T16:41:21.999Z</time></trkpt><trkpt lat="42.98032201649457" lon="-3.291855719277786"><ele>856.0</ele><time>2026-04-13T16:41:22.999Z</time></trkpt><trkpt lat="42.980418590246124" lon="-3.291719361168311"><ele>856.0</ele><time>2026-04-13T16:41:23.999Z</time></trkpt><trkpt lat="42.98051473717751" lon="-3.291594255297463"><ele>856.0</ele><time>2026-04-13T16:41:24.999Z</time></trkpt><trkpt lat="42.98058624709839" lon="-3.2915036852966115"><ele>856.0</ele><time>2026-04-13T16:41:25.999Z</time></trkpt><trkpt lat="42.98065174828619" lon="-3.2914232979909297"><ele>857.5</ele><time>2026-04-13T16:41:26.999Z</time></trkpt><trkpt lat="42.98071612372907" lon="-3.2913199028000686"><ele>859.0</ele><time>2026-04-13T16:41:27.999Z</time></trkpt><trkpt lat="42.98077052522898" lon="-3.2912374477932578"><ele>860.5</ele><time>2026-04-13T16:41:28.999Z</time></trkpt><trkpt lat="42.980880372003455" lon="-3.2910280257706264"><ele>862.0</ele><time>2026-04-13T16:41:30.999Z</time></trkpt><trkpt lat="42.9809088126984" lon="-3.290861659366488"><ele>862.0</ele><time>2026-04-13T16:41:31.999Z</time></trkpt><trkpt lat="42.98093259196468" lon="-3.2906800845567252"><ele>862.0</ele><time>2026-04-13T16:41:33Z</time></trkpt><trkpt lat="42.98096253518166" lon="-3.2904649245420847"><ele>862.0</ele><time>2026-04-13T16:41:34Z</time></trkpt><trkpt lat="42.98098959803796" lon="-3.290282747171678"><ele>862.0</ele><time>2026-04-13T16:41:35Z</time></trkpt><trkpt lat="42.98100664285685" lon="-3.2901085192694666"><ele>863.1666666666666</ele><time>2026-04-13T16:41:36Z</time></trkpt><trkpt lat="42.98103257435363" lon="-3.2899763109440325"><ele>864.3333333333333</ele><time>2026-04-13T16:41:37Z</time></trkpt><trkpt lat="42.98107316886715" lon="-3.289909024798681"><ele>865.5</ele><time>2026-04-13T16:41:38Z</time></trkpt><trkpt lat="42.981130929174796" lon="-3.2898549283049325"><ele>866.6666666666667</ele><time>2026-04-13T16:41:39Z</time></trkpt><trkpt lat="42.9812024901896" lon="-3.2897931336133786"><ele>867.8333333333334</ele><time>2026-04-13T16:41:40Z</time></trkpt><trkpt lat="42.981275857896705" lon="-3.2897317961583643"><ele>869.0</ele><time>2026-04-13T16:41:41Z</time></trkpt><trkpt lat="42.981360454193975" lon="-3.2896562882617566"><ele>869.3333333333334</ele><time>2026-04-13T16:41:42Z</time></trkpt><trkpt lat="42.98144598429358" lon="-3.2895755999822542"><ele>869.6666666666667</ele><time>2026-04-13T16:41:43Z</time></trkpt><trkpt lat="42.98151777940019" lon="-3.2894934160981317"><ele>870.0</ele><time>2026-04-13T16:41:44Z</time></trkpt><trkpt lat="42.98156554257619" lon="-3.2894127360297754"><ele>870.3333333333333</ele><time>2026-04-13T16:41:45Z</time></trkpt><trkpt lat="42.981585742563674" lon="-3.289324540239862"><ele>870.6666666666666</ele><time>2026-04-13T16:41:46Z</time></trkpt><trkpt lat="42.98157020098918" lon="-3.2891994621611556"><ele>871.0</ele><time>2026-04-13T16:41:47Z</time></trkpt><trkpt lat="42.98156532973262" lon="-3.289086799489469"><ele>870.9999999999999</ele><time>2026-04-13T16:41:48Z</time></trkpt><trkpt lat="42.98155242904529" lon="-3.2889564722429827"><ele>871.0</ele><time>2026-04-13T16:41:49Z</time></trkpt><trkpt lat="42.98154596395883" lon="-3.288823201800823"><ele>871.0</ele><time>2026-04-13T16:41:50Z</time></trkpt><trkpt lat="42.98155876701757" lon="-3.2887289251551723"><ele>871.0</ele><time>2026-04-13T16:41:51Z</time></trkpt><trkpt lat="42.981577405810775" lon="-3.288643275478318"><ele>870.9999999999999</ele><time>2026-04-13T16:41:52Z</time></trkpt><trkpt lat="42.98160802965478" lon="-3.2885576849460856"><ele>871.0</ele><time>2026-04-13T16:41:53Z</time></trkpt><trkpt lat="42.981641905755254" lon="-3.28845692919979"><ele>870.8333333333333</ele><time>2026-04-13T16:41:54Z</time></trkpt><trkpt lat="42.9816619897703" lon="-3.28834924461267"><ele>870.6666666666666</ele><time>2026-04-13T16:41:55Z</time></trkpt><trkpt lat="42.98167199412225" lon="-3.2882512564214825"><ele>870.5</ele><time>2026-04-13T16:41:56Z</time></trkpt><trkpt lat="42.98167862577982" lon="-3.2881365622643157"><ele>870.3333333333333</ele><time>2026-04-13T16:41:57Z</time></trkpt><trkpt lat="42.98167648337217" lon="-3.288017269681038"><ele>870.1666666666666</ele><time>2026-04-13T16:41:58Z</time></trkpt><trkpt lat="42.98167131695432" lon="-3.287912988094101"><ele>870.0</ele><time>2026-04-13T16:41:59Z</time></trkpt><trkpt lat="42.98163054327408" lon="-3.2877551447524964"><ele>870.6666666666666</ele><time>2026-04-13T16:42:01Z</time></trkpt><trkpt lat="42.98158207901431" lon="-3.287693344904749"><ele>871.3333333333333</ele><time>2026-04-13T16:42:02Z</time></trkpt><trkpt lat="42.98151876814614" lon="-3.2876464624584747"><ele>872.0</ele><time>2026-04-13T16:42:03Z</time></trkpt><trkpt lat="42.981453946704995" lon="-3.287605295927566"><ele>872.6666666666666</ele><time>2026-04-13T16:42:04Z</time></trkpt><trkpt lat="42.981385599886956" lon="-3.287568221456842"><ele>873.3333333333333</ele><time>2026-04-13T16:42:05Z</time></trkpt><trkpt lat="42.98126651627484" lon="-3.287484356261538"><ele>874.0</ele><time>2026-04-13T16:42:07Z</time></trkpt><trkpt lat="42.98120259542438" lon="-3.28744126711063"><ele>873.9999999999999</ele><time>2026-04-13T16:42:08Z</time></trkpt><trkpt lat="42.98113807284142" lon="-3.2873971701333073"><ele>874.0</ele><time>2026-04-13T16:42:09Z</time></trkpt><trkpt lat="42.9810274840323" lon="-3.2873146894018506"><ele>874.0</ele><time>2026-04-13T16:42:11Z</time></trkpt><trkpt lat="42.98097336763794" lon="-3.2872582377958115"><ele>874.0</ele><time>2026-04-13T16:42:12Z</time></trkpt><trkpt lat="42.980925954666326" lon="-3.2871867621286306"><ele>873.9999999999999</ele><time>2026-04-13T16:42:13Z</time></trkpt><trkpt lat="42.98089035620008" lon="-3.287106246991363"><ele>874.0</ele><time>2026-04-13T16:42:14Z</time></trkpt><trkpt lat="42.98085825342468" lon="-3.2870074089748615"><ele>873.8333333333333</ele><time>2026-04-13T16:42:15Z</time></trkpt><trkpt lat="42.9808292040197" lon="-3.2869117177900065"><ele>873.6666666666666</ele><time>2026-04-13T16:42:16Z</time></trkpt><trkpt lat="42.98079462903019" lon="-3.2868102509779566"><ele>873.5</ele><time>2026-04-13T16:42:17Z</time></trkpt><trkpt lat="42.98075709203206" lon="-3.286717936243746"><ele>873.3333333333333</ele><time>2026-04-13T16:42:18Z</time></trkpt><trkpt lat="42.980716389544526" lon="-3.2866202644650153"><ele>873.1666666666666</ele><time>2026-04-13T16:42:19Z</time></trkpt><trkpt lat="42.980677551242835" lon="-3.286545815366906"><ele>873.0</ele><time>2026-04-13T16:42:20Z</time></trkpt><trkpt lat="42.98059146263654" lon="-3.2864257648986084"><ele>873.0</ele><time>2026-04-13T16:42:22Z</time></trkpt><trkpt lat="42.98052961990279" lon="-3.286367523942913"><ele>873.0</ele><time>2026-04-13T16:42:23Z</time></trkpt><trkpt lat="42.98046613327107" lon="-3.286311213137466"><ele>873.0</ele><time>2026-04-13T16:42:24Z</time></trkpt><trkpt lat="42.98040307759251" lon="-3.286263790733978"><ele>873.0</ele><time>2026-04-13T16:42:25Z</time></trkpt><trkpt lat="42.980346597659675" lon="-3.28622026569124"><ele>873.0</ele><time>2026-04-13T16:42:26Z</time></trkpt><trkpt lat="42.980242872954555" lon="-3.286138240599265"><ele>873.0</ele><time>2026-04-13T16:42:27.999Z</time></trkpt><trkpt lat="42.9801722836364" lon="-3.2860524991546027"><ele>873.0</ele><time>2026-04-13T16:42:29.999Z</time></trkpt><trkpt lat="42.98015735734403" lon="-3.2859132366110337"><ele>873.0</ele><time>2026-04-13T16:42:31.999Z</time></trkpt><trkpt lat="42.980181373202306" lon="-3.285771480583008"><ele>873.0</ele><time>2026-04-13T16:42:33.999Z</time></trkpt><trkpt lat="42.980214472794636" lon="-3.285629175807369"><ele>873.0</ele><time>2026-04-13T16:42:35.999Z</time></trkpt><trkpt lat="42.98022604293493" lon="-3.2855196188931846"><ele>873.0</ele><time>2026-04-13T16:42:37.999Z</time></trkpt><trkpt lat="42.98017062810907" lon="-3.2854181038090275"><ele>871.5999999999999</ele><time>2026-04-13T16:42:39.999Z</time></trkpt><trkpt lat="42.980045129430415" lon="-3.2853223635543847"><ele>870.1999999999999</ele><time>2026-04-13T16:42:41.999Z</time></trkpt><trkpt lat="42.97996458439871" lon="-3.2852490765700413"><ele>868.8</ele><time>2026-04-13T16:42:42.999Z</time></trkpt><trkpt lat="42.97989951704859" lon="-3.285174562075362"><ele>867.4</ele><time>2026-04-13T16:42:43.999Z</time></trkpt><trkpt lat="42.979842962229505" lon="-3.2851129998692854"><ele>866.0</ele><time>2026-04-13T16:42:44.999Z</time></trkpt><trkpt lat="42.97977744093668" lon="-3.285059122312137"><ele>865.1999999999999</ele><time>2026-04-13T16:42:45.999Z</time></trkpt><trkpt lat="42.97971555856344" lon="-3.2850076215842248"><ele>864.3999999999999</ele><time>2026-04-13T16:42:46.999Z</time></trkpt><trkpt lat="42.979634401184455" lon="-3.28494827844391"><ele>863.6</ele><time>2026-04-13T16:42:47.999Z</time></trkpt><trkpt lat="42.979570894721995" lon="-3.2847947147558805"><ele>862.8</ele><time>2026-04-13T16:42:49.999Z</time></trkpt><trkpt lat="42.97952143118008" lon="-3.284667337965108"><ele>862.0</ele><time>2026-04-13T16:42:51.999Z</time></trkpt><trkpt lat="42.97947914336346" lon="-3.2845546217795394"><ele>860.9999999999999</ele><time>2026-04-13T16:42:53.999Z</time></trkpt><trkpt lat="42.979444210754494" lon="-3.2844515604135207"><ele>860.0</ele><time>2026-04-13T16:42:55.999Z</time></trkpt><trkpt lat="42.97942006894178" lon="-3.2843316157773534"><ele>859.0</ele><time>2026-04-13T16:44:06Z</time></trkpt><trkpt lat="42.979401699389925" lon="-3.2842448938688156"><ele>858.0</ele><time>2026-04-13T16:44:07Z</time></trkpt><trkpt lat="42.97938199622884" lon="-3.284139239761092"><ele>856.9999999999999</ele><time>2026-04-13T16:44:08Z</time></trkpt><trkpt lat="42.97936837581551" lon="-3.2840389804950574"><ele>856.0</ele><time>2026-04-13T16:44:09Z</time></trkpt><trkpt lat="42.97935778384409" lon="-3.2839258807963585"><ele>854.5999999999999</ele><time>2026-04-13T16:44:10Z</time></trkpt><trkpt lat="42.97936247080808" lon="-3.283815509735884"><ele>853.1999999999999</ele><time>2026-04-13T16:44:11Z</time></trkpt><trkpt lat="42.979373471686905" lon="-3.283689167509349"><ele>851.8</ele><time>2026-04-13T16:44:12Z</time></trkpt><trkpt lat="42.97940879856057" lon="-3.2835732420600237"><ele>850.4000000000001</ele><time>2026-04-13T16:44:13Z</time></trkpt><trkpt lat="42.97945873690944" lon="-3.283457103178134"><ele>849.0</ele><time>2026-04-13T16:44:14Z</time></trkpt><trkpt lat="42.979532987869746" lon="-3.2833032722962017"><ele>849.0</ele><time>2026-04-13T16:44:14.999Z</time></trkpt><trkpt lat="42.979603050911365" lon="-3.2831360194660424"><ele>849.0</ele><time>2026-04-13T16:44:15.999Z</time></trkpt><trkpt lat="42.979671157265265" lon="-3.2829706441810007"><ele>849.0</ele><time>2026-04-13T16:44:16.999Z</time></trkpt><trkpt lat="42.9797364467234" lon="-3.2828027445564105"><ele>849.0</ele><time>2026-04-13T16:44:17.999Z</time></trkpt><trkpt lat="42.97979752417856" lon="-3.282635661514774"><ele>847.0</ele><time>2026-04-13T16:44:18.999Z</time></trkpt><trkpt lat="42.979848607775395" lon="-3.2824819734542845"><ele>845.0</ele><time>2026-04-13T16:44:19.999Z</time></trkpt><trkpt lat="42.97989483546385" lon="-3.2823322894354154"><ele>843.0</ele><time>2026-04-13T16:44:20.999Z</time></trkpt><trkpt lat="42.97993103849023" lon="-3.282194177696289"><ele>841.0</ele><time>2026-04-13T16:44:21.999Z</time></trkpt><trkpt lat="42.97995476516678" lon="-3.282073691944871"><ele>839.0</ele><time>2026-04-13T16:44:22.999Z</time></trkpt><trkpt lat="42.97996658582468" lon="-3.2819715264950093"><ele>838.2</ele><time>2026-04-13T16:44:23.999Z</time></trkpt><trkpt lat="42.97996736010692" lon="-3.2818442255680544"><ele>837.4000000000001</ele><time>2026-04-13T16:44:24.999Z</time></trkpt><trkpt lat="42.9799430816932" lon="-3.2817143600862577"><ele>836.6</ele><time>2026-04-13T16:44:25.999Z</time></trkpt><trkpt lat="42.97989991556466" lon="-3.2815931772696474"><ele>835.8</ele><time>2026-04-13T16:44:26.999Z</time></trkpt><trkpt lat="42.97983863192868" lon="-3.281482037575782"><ele>835.0</ele><time>2026-04-13T16:44:27.999Z</time></trkpt><trkpt lat="42.97976890322314" lon="-3.2813931279323287"><ele>832.0</ele><time>2026-04-13T16:44:28.999Z</time></trkpt><trkpt lat="42.979672513749136" lon="-3.281301048941659"><ele>829.0</ele><time>2026-04-13T16:44:29.999Z</time></trkpt><trkpt lat="42.97957036130611" lon="-3.2812089371103172"><ele>826.0</ele><time>2026-04-13T16:44:30.999Z</time></trkpt><trkpt lat="42.97946927027042" lon="-3.28109986533254"><ele>823.0</ele><time>2026-04-13T16:44:31.999Z</time></trkpt><trkpt lat="42.97938335069272" lon="-3.280986534065057"><ele>823.0</ele><time>2026-04-13T16:44:32.999Z</time></trkpt><trkpt lat="42.97930785531727" lon="-3.280871025463116"><ele>823.0</ele><time>2026-04-13T16:44:33.999Z</time></trkpt><trkpt lat="42.97924657332705" lon="-3.2807632551586043"><ele>823.0</ele><time>2026-04-13T16:44:34.999Z</time></trkpt><trkpt lat="42.979211912460705" lon="-3.280665877340829"><ele>823.0</ele><time>2026-04-13T16:44:35.999Z</time></trkpt><trkpt lat="42.97920061487758" lon="-3.2805799855436533"><ele>823.0</ele><time>2026-04-13T16:44:36.999Z</time></trkpt><trkpt lat="42.97923900407264" lon="-3.2804533688461825"><ele>823.0</ele><time>2026-04-13T16:44:38.999Z</time></trkpt><trkpt lat="42.97933397617129" lon="-3.280376545201588"><ele>823.0</ele><time>2026-04-13T16:44:40.999Z</time></trkpt><trkpt lat="42.97946190130691" lon="-3.280436560791513"><ele>823.0</ele><time>2026-04-13T16:44:42.999Z</time></trkpt><trkpt lat="42.97952961485984" lon="-3.2805042601324823"><ele>823.0</ele><time>2026-04-13T16:44:43.999Z</time></trkpt><trkpt lat="42.97960583424767" lon="-3.2805905144333973"><ele>823.0</ele><time>2026-04-13T16:44:44.999Z</time></trkpt><trkpt lat="42.979697507887465" lon="-3.2806865333507043"><ele>823.0</ele><time>2026-04-13T16:44:45.999Z</time></trkpt><trkpt lat="42.97980777087557" lon="-3.280812222944582"><ele>823.0</ele><time>2026-04-13T16:44:46.999Z</time></trkpt><trkpt lat="42.97990791728048" lon="-3.2809216661125027"><ele>823.0</ele><time>2026-04-13T16:44:47.999Z</time></trkpt><trkpt lat="42.97999471907667" lon="-3.281018441076704"><ele>823.0</ele><time>2026-04-13T16:44:48.999Z</time></trkpt><trkpt lat="42.980076117074525" lon="-3.281105836038781"><ele>821.5999999999999</ele><time>2026-04-13T16:44:49.999Z</time></trkpt><trkpt lat="42.98015381601131" lon="-3.2811873185266314"><ele>820.1999999999999</ele><time>2026-04-13T16:44:50.999Z</time></trkpt><trkpt lat="42.980227046410725" lon="-3.281267906014075"><ele>818.8</ele><time>2026-04-13T16:44:51.999Z</time></trkpt><trkpt lat="42.98029756455452" lon="-3.2813565312217494"><ele>817.4</ele><time>2026-04-13T16:44:52.999Z</time></trkpt><trkpt lat="42.9803756112549" lon="-3.2814740464337873"><ele>816.0</ele><time>2026-04-13T16:44:53.999Z</time></trkpt><trkpt lat="42.980453187410866" lon="-3.281605027605693"><ele>816.0</ele><time>2026-04-13T16:44:54.999Z</time></trkpt><trkpt lat="42.9805145104385" lon="-3.2817167804797083"><ele>816.0</ele><time>2026-04-13T16:44:55.999Z</time></trkpt><trkpt lat="42.980561439725555" lon="-3.281808301525746"><ele>816.0</ele><time>2026-04-13T16:44:56.999Z</time></trkpt><trkpt lat="42.98060626307005" lon="-3.281881481138956"><ele>816.0</ele><time>2026-04-13T16:44:57.999Z</time></trkpt><trkpt lat="42.98070123555944" lon="-3.281963857209323"><ele>816.0</ele><time>2026-04-13T16:44:59.999Z</time></trkpt><trkpt lat="42.98081520504193" lon="-3.2819433686088924"><ele>815.5</ele><time>2026-04-13T16:45:01.999Z</time></trkpt><trkpt lat="42.980871931386474" lon="-3.2818875513880754"><ele>815.0</ele><time>2026-04-13T16:45:02.999Z</time></trkpt><trkpt lat="42.98089710096135" lon="-3.281798249168366"><ele>814.5</ele><time>2026-04-13T16:45:03.999Z</time></trkpt><trkpt lat="42.9809245407327" lon="-3.2816739525019836"><ele>814.0</ele><time>2026-04-13T16:45:04.999Z</time></trkpt><trkpt lat="42.98094381341886" lon="-3.2815520568923073"><ele>813.5</ele><time>2026-04-13T16:45:05.999Z</time></trkpt><trkpt lat="42.98097121922878" lon="-3.2814484217099618"><ele>813.0</ele><time>2026-04-13T16:45:06.999Z</time></trkpt><trkpt lat="42.981023615270495" lon="-3.2813655343992107"><ele>811.0</ele><time>2026-04-13T16:45:07.999Z</time></trkpt><trkpt lat="42.98109480805946" lon="-3.2813109715456226"><ele>809.0</ele><time>2026-04-13T16:45:08.999Z</time></trkpt><trkpt lat="42.98119155147499" lon="-3.2812555601377817"><ele>807.0</ele><time>2026-04-13T16:45:09.999Z</time></trkpt><trkpt lat="42.98128893555629" lon="-3.281204318118038"><ele>805.0</ele><time>2026-04-13T16:45:10.999Z</time></trkpt><trkpt lat="42.98137188739066" lon="-3.2811563810717885"><ele>803.0</ele><time>2026-04-13T16:45:11.999Z</time></trkpt><trkpt lat="42.981440388667835" lon="-3.28109050236899"><ele>803.0</ele><time>2026-04-13T16:45:12.999Z</time></trkpt><trkpt lat="42.98149306363276" lon="-3.2809940060320417"><ele>803.0</ele><time>2026-04-13T16:45:13.999Z</time></trkpt><trkpt lat="42.981516474403" lon="-3.2808799687591357"><ele>803.0</ele><time>2026-04-13T16:45:14.999Z</time></trkpt><trkpt lat="42.98153291915074" lon="-3.2807264723247163"><ele>803.0</ele><time>2026-04-13T16:45:15.999Z</time></trkpt><trkpt lat="42.981519128415556" lon="-3.2805810211611792"><ele>803.0</ele><time>2026-04-13T16:45:16.999Z</time></trkpt><trkpt lat="42.981486383886114" lon="-3.2804301250233223"><ele>805.3333333333334</ele><time>2026-04-13T16:45:17.999Z</time></trkpt><trkpt lat="42.98145219776493" lon="-3.280249163277797"><ele>807.6666666666667</ele><time>2026-04-13T16:45:18.999Z</time></trkpt><trkpt lat="42.98138831701676" lon="-3.2800314325839186"><ele>810.0</ele><time>2026-04-13T16:45:19.999Z</time></trkpt><trkpt lat="42.981335155210374" lon="-3.2798443695677535"><ele>811.75</ele><time>2026-04-13T16:45:20.999Z</time></trkpt><trkpt lat="42.98128977241148" lon="-3.2796600755902996"><ele>813.5</ele><time>2026-04-13T16:45:21.999Z</time></trkpt><trkpt lat="42.98125903420218" lon="-3.2794864124443937"><ele>815.25</ele><time>2026-04-13T16:45:22.999Z</time></trkpt><trkpt lat="42.98123488107815" lon="-3.27932674888774"><ele>817.0</ele><time>2026-04-13T16:45:23.999Z</time></trkpt><trkpt lat="42.981211380401504" lon="-3.279139903485629"><ele>817.0</ele><time>2026-04-13T16:45:24.999Z</time></trkpt><trkpt lat="42.98119586434344" lon="-3.2789580345111458"><ele>817.0</ele><time>2026-04-13T16:45:25.999Z</time></trkpt><trkpt lat="42.98118526574456" lon="-3.2787725244862975"><ele>817.0</ele><time>2026-04-13T16:45:26.999Z</time></trkpt><trkpt lat="42.98117897804496" lon="-3.2785752838231867"><ele>817.0</ele><time>2026-04-13T16:45:27.999Z</time></trkpt><trkpt lat="42.981183658779095" lon="-3.2783654802233677"><ele>817.5</ele><time>2026-04-13T16:45:28.999Z</time></trkpt><trkpt lat="42.981192329415165" lon="-3.278133795852021"><ele>818.0</ele><time>2026-04-13T16:45:29.999Z</time></trkpt><trkpt lat="42.98120434396962" lon="-3.277938399430905"><ele>818.5</ele><time>2026-04-13T16:45:30.999Z</time></trkpt><trkpt lat="42.98121831581433" lon="-3.2777544659704367"><ele>819.0</ele><time>2026-04-13T16:45:31.999Z</time></trkpt><trkpt lat="42.98122409698497" lon="-3.2775576196339684"><ele>819.2</ele><time>2026-04-13T16:45:32.999Z</time></trkpt><trkpt lat="42.981223567973835" lon="-3.2773856352050723"><ele>819.4000000000001</ele><time>2026-04-13T16:45:33.999Z</time></trkpt><trkpt lat="42.98122633830605" lon="-3.2772404210468684"><ele>819.6</ele><time>2026-04-13T16:45:34.999Z</time></trkpt><trkpt lat="42.98123430363458" lon="-3.277130379522459"><ele>819.8</ele><time>2026-04-13T16:45:35.999Z</time></trkpt><trkpt lat="42.98125791801736" lon="-3.277031589625477"><ele>820.0</ele><time>2026-04-13T16:45:36.999Z</time></trkpt><trkpt lat="42.981295625480094" lon="-3.2769414903059193"><ele>821.0</ele><time>2026-04-13T16:45:37.999Z</time></trkpt><trkpt lat="42.9813430879551" lon="-3.2768700183319233"><ele>822.0</ele><time>2026-04-13T16:45:38.999Z</time></trkpt><trkpt lat="42.9814234126846" lon="-3.2767978961165665"><ele>823.0</ele><time>2026-04-13T16:45:39.999Z</time></trkpt><trkpt lat="42.98154737134261" lon="-3.276714108330075"><ele>824.0</ele><time>2026-04-13T16:45:40.999Z</time></trkpt><trkpt lat="42.9817047887974" lon="-3.2766221696028186"><ele>824.0</ele><time>2026-04-13T16:45:41.999Z</time></trkpt><trkpt lat="42.981856225270256" lon="-3.2765402470223783"><ele>824.0</ele><time>2026-04-13T16:45:42.999Z</time></trkpt><trkpt lat="42.98198216628013" lon="-3.2764474847204084"><ele>824.0</ele><time>2026-04-13T16:45:44Z</time></trkpt><trkpt lat="42.982096934623" lon="-3.2763591902357754"><ele>824.0</ele><time>2026-04-13T16:45:45Z</time></trkpt><trkpt lat="42.98220271402192" lon="-3.2762881616862143"><ele>819.75</ele><time>2026-04-13T16:45:46Z</time></trkpt><trkpt lat="42.98231982152667" lon="-3.276219731257161"><ele>815.5</ele><time>2026-04-13T16:45:47Z</time></trkpt><trkpt lat="42.982457787429254" lon="-3.276166871334047"><ele>811.25</ele><time>2026-04-13T16:45:48Z</time></trkpt><trkpt lat="42.9826259046499" lon="-3.276123953618245"><ele>807.0</ele><time>2026-04-13T16:45:49Z</time></trkpt><trkpt lat="42.982808406117606" lon="-3.2760878308545958"><ele>807.0</ele><time>2026-04-13T16:45:50Z</time></trkpt><trkpt lat="42.98300038925675" lon="-3.276037056035024"><ele>807.0</ele><time>2026-04-13T16:45:51Z</time></trkpt><trkpt lat="42.98319962020793" lon="-3.2759776621437555"><ele>807.0</ele><time>2026-04-13T16:45:52Z</time></trkpt><trkpt lat="42.983377183266455" lon="-3.2759198517317167"><ele>808.6666666666667</ele><time>2026-04-13T16:45:53Z</time></trkpt><trkpt lat="42.983538548870534" lon="-3.2758674548453546"><ele>810.3333333333334</ele><time>2026-04-13T16:45:54Z</time></trkpt><trkpt lat="42.98370857552888" lon="-3.275810445567952"><ele>812.0</ele><time>2026-04-13T16:45:55Z</time></trkpt><trkpt lat="42.9838881817365" lon="-3.275752189091878"><ele>812.0</ele><time>2026-04-13T16:45:56Z</time></trkpt><trkpt lat="42.984059162367245" lon="-3.2757018855804723"><ele>812.0</ele><time>2026-04-13T16:45:57Z</time></trkpt><trkpt lat="42.98421345077055" lon="-3.275663423225082"><ele>812.0</ele><time>2026-04-13T16:45:58Z</time></trkpt><trkpt lat="42.98435317857839" lon="-3.2756302626613123"><ele>810.0</ele><time>2026-04-13T16:45:59Z</time></trkpt><trkpt lat="42.9845052929683" lon="-3.275597834549806"><ele>808.0</ele><time>2026-04-13T16:46:00Z</time></trkpt><trkpt lat="42.98467920129987" lon="-3.2755749584937406"><ele>806.0</ele><time>2026-04-13T16:46:01Z</time></trkpt><trkpt lat="42.984867060906836" lon="-3.275562678531649"><ele>807.0</ele><time>2026-04-13T16:46:02Z</time></trkpt><trkpt lat="42.98505709726397" lon="-3.275548706031666"><ele>808.0</ele><time>2026-04-13T16:46:03Z</time></trkpt><trkpt lat="42.98526825568323" lon="-3.275523782167112"><ele>809.0</ele><time>2026-04-13T16:46:04Z</time></trkpt><trkpt lat="42.98549516288863" lon="-3.2755222577202407"><ele>809.0</ele><time>2026-04-13T16:46:05Z</time></trkpt><trkpt lat="42.98567711265215" lon="-3.27553310252943"><ele>809.0</ele><time>2026-04-13T16:46:06Z</time></trkpt><trkpt lat="42.98583960970953" lon="-3.275538864272103"><ele>809.0</ele><time>2026-04-13T16:46:07Z</time></trkpt><trkpt lat="42.98600429863512" lon="-3.275545552319904"><ele>810.3333333333334</ele><time>2026-04-13T16:46:08Z</time></trkpt><trkpt lat="42.98616727630198" lon="-3.2755466007938256"><ele>811.6666666666667</ele><time>2026-04-13T16:46:09Z</time></trkpt><trkpt lat="42.986350554455306" lon="-3.27554516230026"><ele>813.0</ele><time>2026-04-13T16:46:10Z</time></trkpt><trkpt lat="42.986503831405514" lon="-3.275528080383645"><ele>813.0</ele><time>2026-04-13T16:46:11Z</time></trkpt><trkpt lat="42.98663653077028" lon="-3.275499289754808"><ele>813.0</ele><time>2026-04-13T16:46:12Z</time></trkpt><trkpt lat="42.98675190843302" lon="-3.275460380041848"><ele>813.0</ele><time>2026-04-13T16:46:12.999Z</time></trkpt><trkpt lat="42.9868539373725" lon="-3.2754177011173526"><ele>813.0</ele><time>2026-04-13T16:46:13.999Z</time></trkpt><trkpt lat="42.98693578915986" lon="-3.2753680548142015"><ele>813.0</ele><time>2026-04-13T16:46:14.999Z</time></trkpt><trkpt lat="42.986998179103075" lon="-3.2753133639813834"><ele>811.1666666666666</ele><time>2026-04-13T16:46:15.999Z</time></trkpt><trkpt lat="42.98704926150221" lon="-3.275232449333425"><ele>809.3333333333333</ele><time>2026-04-13T16:46:16.999Z</time></trkpt><trkpt lat="42.98709326079192" lon="-3.275133486096504"><ele>807.5</ele><time>2026-04-13T16:46:17.999Z</time></trkpt><trkpt lat="42.987116055846535" lon="-3.2750221557688155"><ele>805.6666666666666</ele><time>2026-04-13T16:46:18.999Z</time></trkpt><trkpt lat="42.98712713717224" lon="-3.274895191720537"><ele>803.8333333333333</ele><time>2026-04-13T16:46:19.999Z</time></trkpt><trkpt lat="42.98712916076543" lon="-3.2747950090182276"><ele>802.0</ele><time>2026-04-13T16:46:20.999Z</time></trkpt><trkpt lat="42.98711680251882" lon="-3.274694223662395"><ele>798.25</ele><time>2026-04-13T16:46:21.999Z</time></trkpt><trkpt lat="42.987093007527335" lon="-3.2745697043132758"><ele>794.5</ele><time>2026-04-13T16:46:22.999Z</time></trkpt><trkpt lat="42.987065957207115" lon="-3.2744268033731556"><ele>790.75</ele><time>2026-04-13T16:46:23.999Z</time></trkpt><trkpt lat="42.987020525265294" lon="-3.274263415327388"><ele>787.0</ele><time>2026-04-13T16:46:24.999Z</time></trkpt><trkpt lat="42.98696338806876" lon="-3.2740917851493125"><ele>787.0</ele><time>2026-04-13T16:46:25.999Z</time></trkpt><trkpt lat="42.98691452728796" lon="-3.273945622001632"><ele>787.0</ele><time>2026-04-13T16:46:26.999Z</time></trkpt><trkpt lat="42.98686518126851" lon="-3.2738114366185798"><ele>787.0</ele><time>2026-04-13T16:46:27.999Z</time></trkpt><trkpt lat="42.986793750207" lon="-3.273650131374129"><ele>787.0</ele><time>2026-04-13T16:46:28.999Z</time></trkpt><trkpt lat="42.98670876023983" lon="-3.273471626620977"><ele>788.2</ele><time>2026-04-13T16:46:29.999Z</time></trkpt><trkpt lat="42.98663114173771" lon="-3.2733212242189236"><ele>789.4000000000001</ele><time>2026-04-13T16:46:30.999Z</time></trkpt><trkpt lat="42.98656658807464" lon="-3.2731856601510794"><ele>790.5999999999999</ele><time>2026-04-13T16:46:31.999Z</time></trkpt><trkpt lat="42.98652299377579" lon="-3.2730832822407203"><ele>791.8</ele><time>2026-04-13T16:46:32.999Z</time></trkpt><trkpt lat="42.986487030720156" lon="-3.27298351403622"><ele>793.0</ele><time>2026-04-13T16:46:33.999Z</time></trkpt><trkpt lat="42.98645877028141" lon="-3.2728568398439677"><ele>793.0</ele><time>2026-04-13T16:46:34.999Z</time></trkpt><trkpt lat="42.98644461349348" lon="-3.2727206958033332"><ele>793.0</ele><time>2026-04-13T16:46:35.999Z</time></trkpt><trkpt lat="42.98645111302806" lon="-3.2725719494085004"><ele>793.0</ele><time>2026-04-13T16:46:36.999Z</time></trkpt><trkpt lat="42.98647829207898" lon="-3.2723620390531365"><ele>793.0</ele><time>2026-04-13T16:46:37.999Z</time></trkpt><trkpt lat="42.9865181020048" lon="-3.2721693206884055"><ele>791.75</ele><time>2026-04-13T16:46:38.999Z</time></trkpt><trkpt lat="42.986560688136876" lon="-3.2719822051346545"><ele>790.5</ele><time>2026-04-13T16:46:39.999Z</time></trkpt><trkpt lat="42.98660266402149" lon="-3.271808746320264"><ele>789.25</ele><time>2026-04-13T16:46:40.999Z</time></trkpt><trkpt lat="42.986648491645795" lon="-3.271638737950088"><ele>788.0</ele><time>2026-04-13T16:46:41.999Z</time></trkpt><trkpt lat="42.98669119327537" lon="-3.2714834863049105"><ele>786.4</ele><time>2026-04-13T16:46:42.999Z</time></trkpt><trkpt lat="42.98671970450016" lon="-3.271331066260835"><ele>784.8</ele><time>2026-04-13T16:46:43.999Z</time></trkpt><trkpt lat="42.98673044703965" lon="-3.271189120504288"><ele>783.2</ele><time>2026-04-13T16:46:44.999Z</time></trkpt><trkpt lat="42.98671461839947" lon="-3.2710467785484436"><ele>781.6</ele><time>2026-04-13T16:46:45.999Z</time></trkpt><trkpt lat="42.98668257438921" lon="-3.270911353367178"><ele>780.0</ele><time>2026-04-13T16:46:46.999Z</time></trkpt><trkpt lat="42.98664342819233" lon="-3.2708006967411167"><ele>780.0</ele><time>2026-04-13T16:46:47.999Z</time></trkpt><trkpt lat="42.986614619704696" lon="-3.2707040780259033"><ele>780.0</ele><time>2026-04-13T16:46:48.999Z</time></trkpt><trkpt lat="42.98659329241683" lon="-3.2705764936024653"><ele>780.0</ele><time>2026-04-13T16:46:50.999Z</time></trkpt><trkpt lat="42.98665234724549" lon="-3.2705188736038564"><ele>780.0</ele><time>2026-04-13T16:46:52.999Z</time></trkpt><trkpt lat="42.9867185982051" lon="-3.2705178526233576"><ele>780.0</ele><time>2026-04-13T16:46:53.999Z</time></trkpt><trkpt lat="42.986804506998936" lon="-3.2705382143951183"><ele>780.0</ele><time>2026-04-13T16:46:54.999Z</time></trkpt><trkpt lat="42.98688511079051" lon="-3.2705843658782503"><ele>774.6</ele><time>2026-04-13T16:46:55.999Z</time></trkpt><trkpt lat="42.98695005050197" lon="-3.270636799161919"><ele>769.2</ele><time>2026-04-13T16:46:56.999Z</time></trkpt><trkpt lat="42.98701557594411" lon="-3.270685217030637"><ele>763.8</ele><time>2026-04-13T16:46:57.999Z</time></trkpt><trkpt lat="42.98710700825821" lon="-3.270829779660541"><ele>758.4</ele><time>2026-04-13T16:46:59.999Z</time></trkpt><trkpt lat="42.987156252518304" lon="-3.270971406380182"><ele>753.0</ele><time>2026-04-13T16:47:00.999Z</time></trkpt><trkpt lat="42.98721595419717" lon="-3.2711704329246927"><ele>753.0</ele><time>2026-04-13T16:47:01.999Z</time></trkpt><trkpt lat="42.98728311342748" lon="-3.271367654590985"><ele>753.0</ele><time>2026-04-13T16:47:02.999Z</time></trkpt><trkpt lat="42.98735606593347" lon="-3.2715779558340796"><ele>753.0</ele><time>2026-04-13T16:47:03.999Z</time></trkpt><trkpt lat="42.98742669690263" lon="-3.2717636979624114"><ele>751.75</ele><time>2026-04-13T16:47:04.999Z</time></trkpt><trkpt lat="42.98749629433823" lon="-3.271927565436881"><ele>750.5</ele><time>2026-04-13T16:47:05.999Z</time></trkpt><trkpt lat="42.98756786829739" lon="-3.2720724571395103"><ele>749.25</ele><time>2026-04-13T16:47:06.999Z</time></trkpt><trkpt lat="42.98763594706655" lon="-3.272202420200874"><ele>748.0</ele><time>2026-04-13T16:47:07.999Z</time></trkpt><trkpt lat="42.98769888860707" lon="-3.2723257564354205"><ele>748.0</ele><time>2026-04-13T16:47:08.999Z</time></trkpt><trkpt lat="42.9877562555529" lon="-3.272442447426876"><ele>748.0</ele><time>2026-04-13T16:47:09.999Z</time></trkpt><trkpt lat="42.98781347782733" lon="-3.272547634268177"><ele>748.0</ele><time>2026-04-13T16:47:10.999Z</time></trkpt><trkpt lat="42.98787102688819" lon="-3.2726507534932767"><ele>748.0</ele><time>2026-04-13T16:47:11.999Z</time></trkpt><trkpt lat="42.987928719569126" lon="-3.2727305825611888"><ele>748.0</ele><time>2026-04-13T16:47:12.999Z</time></trkpt><trkpt lat="42.98798635693073" lon="-3.2727746151297685"><ele>748.0</ele><time>2026-04-13T16:47:13.999Z</time></trkpt><trkpt lat="42.98806037719454" lon="-3.2727993572392555"><ele>748.0</ele><time>2026-04-13T16:47:14.999Z</time></trkpt><trkpt lat="42.98812955819818" lon="-3.2727905984689065"><ele>748.0</ele><time>2026-04-13T16:47:15.999Z</time></trkpt><trkpt lat="42.9882000297667" lon="-3.2727499813074075"><ele>748.0</ele><time>2026-04-13T16:47:16.999Z</time></trkpt><trkpt lat="42.98827493225509" lon="-3.2726663220827765"><ele>748.0</ele><time>2026-04-13T16:47:17.999Z</time></trkpt><trkpt lat="42.98836463836091" lon="-3.2725238855833556"><ele>748.0</ele><time>2026-04-13T16:47:18.999Z</time></trkpt><trkpt lat="42.98845540697145" lon="-3.27236471048217"><ele>745.0</ele><time>2026-04-13T16:47:19.999Z</time></trkpt><trkpt lat="42.988543023712836" lon="-3.2722010238054713"><ele>742.0</ele><time>2026-04-13T16:47:20.999Z</time></trkpt><trkpt lat="42.98861902263842" lon="-3.2720411326728587"><ele>739.0</ele><time>2026-04-13T16:47:21.999Z</time></trkpt><trkpt lat="42.98867836296042" lon="-3.271886256667619"><ele>736.0</ele><time>2026-04-13T16:47:22.999Z</time></trkpt><trkpt lat="42.98872205180429" lon="-3.271738730191845"><ele>736.0</ele><time>2026-04-13T16:47:23.999Z</time></trkpt><trkpt lat="42.98876592385176" lon="-3.271603558442336"><ele>736.0</ele><time>2026-04-13T16:47:24.999Z</time></trkpt><trkpt lat="42.98882941635182" lon="-3.271465096752983"><ele>736.0</ele><time>2026-04-13T16:47:25.999Z</time></trkpt><trkpt lat="42.98892987717531" lon="-3.2713230007971137"><ele>736.0</ele><time>2026-04-13T16:47:26.999Z</time></trkpt><trkpt lat="42.98903849161716" lon="-3.2711793160963207"><ele>734.8</ele><time>2026-04-13T16:47:27.999Z</time></trkpt><trkpt lat="42.9891205428509" lon="-3.2710648255427683"><ele>733.5999999999999</ele><time>2026-04-13T16:47:28.999Z</time></trkpt><trkpt lat="42.98918398484282" lon="-3.2709565785941637"><ele>732.4</ele><time>2026-04-13T16:47:29.999Z</time></trkpt><trkpt lat="42.989232926016946" lon="-3.2708583110108247"><ele>731.2</ele><time>2026-04-13T16:47:30.999Z</time></trkpt><trkpt lat="42.98925878684662" lon="-3.270731635643459"><ele>730.0</ele><time>2026-04-13T16:47:31.999Z</time></trkpt><trkpt lat="42.98928467468492" lon="-3.270561150764301"><ele>726.75</ele><time>2026-04-13T16:47:32.999Z</time></trkpt><trkpt lat="42.989300245685456" lon="-3.2703576501865506"><ele>723.5</ele><time>2026-04-13T16:47:33.999Z</time></trkpt><trkpt lat="42.98931481403021" lon="-3.270158977173629"><ele>720.25</ele><time>2026-04-13T16:47:34.999Z</time></trkpt><trkpt lat="42.98932917304139" lon="-3.2699831622772244"><ele>717.0</ele><time>2026-04-13T16:47:35.999Z</time></trkpt><trkpt lat="42.989332199962256" lon="-3.2698240228822453"><ele>716.2</ele><time>2026-04-13T16:47:36.999Z</time></trkpt><trkpt lat="42.98932298663832" lon="-3.2696708693810077"><ele>715.4000000000001</ele><time>2026-04-13T16:47:37.999Z</time></trkpt><trkpt lat="42.98930380637464" lon="-3.2695316750944308"><ele>714.5999999999999</ele><time>2026-04-13T16:47:38.999Z</time></trkpt><trkpt lat="42.98928546188966" lon="-3.269418459768974"><ele>713.8</ele><time>2026-04-13T16:47:39.999Z</time></trkpt><trkpt lat="42.98927984868363" lon="-3.2693212545015733"><ele>713.0</ele><time>2026-04-13T16:47:41.999Z</time></trkpt><trkpt lat="42.98938703902758" lon="-3.2692581202613784"><ele>713.0</ele><time>2026-04-13T16:47:44.999Z</time></trkpt><trkpt lat="42.98947092078036" lon="-3.2691726676730752"><ele>713.0</ele><time>2026-04-13T16:47:45.999Z</time></trkpt><trkpt lat="42.9895780561967" lon="-3.2690384110127026"><ele>713.0</ele><time>2026-04-13T16:47:46.999Z</time></trkpt><trkpt lat="42.98969080669119" lon="-3.268880135374814"><ele>713.0</ele><time>2026-04-13T16:47:47.999Z</time></trkpt><trkpt lat="42.989810418592775" lon="-3.2687192010642243"><ele>711.3333333333333</ele><time>2026-04-13T16:47:48.999Z</time></trkpt><trkpt lat="42.98993903708735" lon="-3.2685466913989085"><ele>709.6666666666666</ele><time>2026-04-13T16:47:50Z</time></trkpt><trkpt lat="42.990076286504525" lon="-3.2683637432078236"><ele>708.0</ele><time>2026-04-13T16:47:51Z</time></trkpt><trkpt lat="42.99022091003348" lon="-3.2681815161736494"><ele>705.0</ele><time>2026-04-13T16:47:52Z</time></trkpt><trkpt lat="42.99035650688355" lon="-3.2680023707971917"><ele>702.0</ele><time>2026-04-13T16:47:53Z</time></trkpt><trkpt lat="42.99047921285938" lon="-3.2678292379369878"><ele>699.0</ele><time>2026-04-13T16:47:54Z</time></trkpt><trkpt lat="42.99059599366294" lon="-3.267653133674578"><ele>699.0</ele><time>2026-04-13T16:47:55Z</time></trkpt><trkpt lat="42.990718792873444" lon="-3.2674624753885104"><ele>699.0</ele><time>2026-04-13T16:47:56Z</time></trkpt><trkpt lat="42.990848662426124" lon="-3.2672598208313897"><ele>699.0</ele><time>2026-04-13T16:47:57Z</time></trkpt><trkpt lat="42.99097741787263" lon="-3.267063176873216"><ele>696.3333333333334</ele><time>2026-04-13T16:47:58Z</time></trkpt><trkpt lat="42.9911087849918" lon="-3.266873112432572"><ele>693.6666666666667</ele><time>2026-04-13T16:47:59Z</time></trkpt><trkpt lat="42.99124070235049" lon="-3.266689936521818"><ele>691.0</ele><time>2026-04-13T16:48:00Z</time></trkpt><trkpt lat="42.99137382166629" lon="-3.266500277202366"><ele>689.6666666666667</ele><time>2026-04-13T16:48:01Z</time></trkpt><trkpt lat="42.99150153916433" lon="-3.2663055685215454"><ele>688.3333333333334</ele><time>2026-04-13T16:48:02Z</time></trkpt><trkpt lat="42.99163840711577" lon="-3.2661049365376407"><ele>687.0</ele><time>2026-04-13T16:48:03Z</time></trkpt><trkpt lat="42.99176869684914" lon="-3.265915344104928"><ele>687.0</ele><time>2026-04-13T16:48:04Z</time></trkpt><trkpt lat="42.99190770178179" lon="-3.265717647087168"><ele>687.0</ele><time>2026-04-13T16:48:05Z</time></trkpt><trkpt lat="42.99205081037774" lon="-3.2655123055617885"><ele>687.0</ele><time>2026-04-13T16:48:06Z</time></trkpt><trkpt lat="42.99219104329367" lon="-3.2653064276815567"><ele>685.3333333333334</ele><time>2026-04-13T16:48:07Z</time></trkpt><trkpt lat="42.99231412801467" lon="-3.2651262331116726"><ele>683.6666666666667</ele><time>2026-04-13T16:48:08Z</time></trkpt><trkpt lat="42.992425719175735" lon="-3.2649611082152536"><ele>682.0</ele><time>2026-04-13T16:48:09Z</time></trkpt><trkpt lat="42.99252716501733" lon="-3.26480299821425"><ele>682.0</ele><time>2026-04-13T16:48:10Z</time></trkpt><trkpt lat="42.992633929794025" lon="-3.264642833897607"><ele>682.0</ele><time>2026-04-13T16:48:11Z</time></trkpt><trkpt lat="42.99274487765041" lon="-3.264480211137408"><ele>682.0</ele><time>2026-04-13T16:48:12Z</time></trkpt><trkpt lat="42.99284864173288" lon="-3.2643271281196657"><ele>682.0</ele><time>2026-04-13T16:48:13Z</time></trkpt><trkpt lat="42.99293289401637" lon="-3.264189268236625"><ele>682.0</ele><time>2026-04-13T16:48:14Z</time></trkpt><trkpt lat="42.992999202741416" lon="-3.264060748608499"><ele>682.0</ele><time>2026-04-13T16:48:14.999Z</time></trkpt><trkpt lat="42.99304890139816" lon="-3.2639258525235966"><ele>682.0</ele><time>2026-04-13T16:48:15.999Z</time></trkpt><trkpt lat="42.99307903968075" lon="-3.2637789972937097"><ele>682.25</ele><time>2026-04-13T16:48:16.999Z</time></trkpt><trkpt lat="42.99308471569263" lon="-3.2636160030017987"><ele>682.5</ele><time>2026-04-13T16:48:17.999Z</time></trkpt><trkpt lat="42.99305721102791" lon="-3.2634533666033825"><ele>682.75</ele><time>2026-04-13T16:48:18.999Z</time></trkpt><trkpt lat="42.99300539984228" lon="-3.263272402875851"><ele>683.0</ele><time>2026-04-13T16:48:19.999Z</time></trkpt><trkpt lat="42.99293445682597" lon="-3.2630625814247867"><ele>683.6666666666666</ele><time>2026-04-13T16:48:20.999Z</time></trkpt><trkpt lat="42.99286502387848" lon="-3.262822738628822"><ele>684.3333333333334</ele><time>2026-04-13T16:48:21.999Z</time></trkpt><trkpt lat="42.99280506389959" lon="-3.2626325667962517"><ele>685.0</ele><time>2026-04-13T16:48:22.999Z</time></trkpt><trkpt lat="42.992745085381465" lon="-3.2623897440263776"><ele>685.3333333333334</ele><time>2026-04-13T16:48:23.999Z</time></trkpt><trkpt lat="42.99269008901666" lon="-3.262199865128492"><ele>685.6666666666666</ele><time>2026-04-13T16:48:24.999Z</time></trkpt><trkpt lat="42.99263366965375" lon="-3.262004362731449"><ele>686.0</ele><time>2026-04-13T16:48:25.999Z</time></trkpt><trkpt lat="42.992582659853056" lon="-3.2618104247971735"><ele>686.0</ele><time>2026-04-13T16:48:26.999Z</time></trkpt><trkpt lat="42.99254048814744" lon="-3.2616271734477014"><ele>686.0</ele><time>2026-04-13T16:48:27.999Z</time></trkpt><trkpt lat="42.99250465288802" lon="-3.2614548513576684"><ele>686.0</ele><time>2026-04-13T16:48:28.999Z</time></trkpt><trkpt lat="42.992470008677245" lon="-3.26130254900645"><ele>686.0</ele><time>2026-04-13T16:48:29.999Z</time></trkpt><trkpt lat="42.992433735375606" lon="-3.2611680359087387"><ele>684.1999999999999</ele><time>2026-04-13T16:48:30.999Z</time></trkpt><trkpt lat="42.99238469506495" lon="-3.2610323166982234"><ele>682.4</ele><time>2026-04-13T16:48:31.999Z</time></trkpt><trkpt lat="42.992321527879845" lon="-3.260890748041813"><ele>680.6</ele><time>2026-04-13T16:48:32.999Z</time></trkpt><trkpt lat="42.99225705484323" lon="-3.260761674267575"><ele>678.8</ele><time>2026-04-13T16:48:33.999Z</time></trkpt><trkpt lat="42.992206352255906" lon="-3.260638952449657"><ele>677.0</ele><time>2026-04-13T16:48:34.999Z</time></trkpt><trkpt lat="42.99216708277602" lon="-3.2604940861298677"><ele>675.0</ele><time>2026-04-13T16:48:35.999Z</time></trkpt><trkpt lat="42.99213268200786" lon="-3.260292718567688"><ele>673.0</ele><time>2026-04-13T16:48:36.999Z</time></trkpt><trkpt lat="42.99211105464005" lon="-3.2600907839286974"><ele>671.0</ele><time>2026-04-13T16:48:37.999Z</time></trkpt><trkpt lat="42.99209037349883" lon="-3.259884553609593"><ele>669.0</ele><time>2026-04-13T16:48:38.999Z</time></trkpt><trkpt lat="42.99206964403009" lon="-3.259671336284025"><ele>667.0</ele><time>2026-04-13T16:48:39.999Z</time></trkpt><trkpt lat="42.99204884957467" lon="-3.2594763317167588"><ele>665.0</ele><time>2026-04-13T16:48:40.999Z</time></trkpt><trkpt lat="42.99202426629949" lon="-3.2592952509970377"><ele>663.0</ele><time>2026-04-13T16:48:41.999Z</time></trkpt><trkpt lat="42.99199877271251" lon="-3.259106787221519"><ele>660.3333333333334</ele><time>2026-04-13T16:48:42.999Z</time></trkpt><trkpt lat="42.991979985414275" lon="-3.258894131945183"><ele>657.6666666666667</ele><time>2026-04-13T16:48:43.999Z</time></trkpt><trkpt lat="42.99196200452562" lon="-3.2586621206546584"><ele>655.0</ele><time>2026-04-13T16:48:44.999Z</time></trkpt><trkpt lat="42.9919476628622" lon="-3.2584400236759876"><ele>655.0</ele><time>2026-04-13T16:48:45.999Z</time></trkpt><trkpt lat="42.99193514101176" lon="-3.258251196375304"><ele>655.0</ele><time>2026-04-13T16:48:46.999Z</time></trkpt><trkpt lat="42.991925683933545" lon="-3.2580602229243025"><ele>655.0</ele><time>2026-04-13T16:48:47.999Z</time></trkpt><trkpt lat="42.99190874761671" lon="-3.2578703914352527"><ele>655.0</ele><time>2026-04-13T16:48:48.999Z</time></trkpt><trkpt lat="42.991871624075614" lon="-3.2576586431521415"><ele>654.3333333333334</ele><time>2026-04-13T16:48:49.999Z</time></trkpt><trkpt lat="42.991816468261355" lon="-3.25745398552112"><ele>653.6666666666666</ele><time>2026-04-13T16:48:50.999Z</time></trkpt><trkpt lat="42.991735637051995" lon="-3.257225754641761"><ele>653.0</ele><time>2026-04-13T16:48:51.999Z</time></trkpt><trkpt lat="42.99165035342767" lon="-3.256974994063713"><ele>651.5</ele><time>2026-04-13T16:48:52.999Z</time></trkpt><trkpt lat="42.991553643862275" lon="-3.2567068848594944"><ele>650.0</ele><time>2026-04-13T16:48:53.999Z</time></trkpt><trkpt lat="42.991448903576945" lon="-3.2564172198942822"><ele>649.5</ele><time>2026-04-13T16:48:54.999Z</time></trkpt><trkpt lat="42.99134337439677" lon="-3.2561157081053564"><ele>649.0</ele><time>2026-04-13T16:48:55.999Z</time></trkpt><trkpt lat="42.99123910836073" lon="-3.2558276158405075"><ele>649.3333333333334</ele><time>2026-04-13T16:48:56.999Z</time></trkpt><trkpt lat="42.99115211899906" lon="-3.255590222017537"><ele>649.6666666666666</ele><time>2026-04-13T16:48:57.999Z</time></trkpt><trkpt lat="42.99108703016686" lon="-3.255376520863385"><ele>650.0</ele><time>2026-04-13T16:48:58.999Z</time></trkpt><trkpt lat="42.99099211446816" lon="-3.2551251574437647"><ele>650.0</ele><time>2026-04-13T16:48:59.999Z</time></trkpt><trkpt lat="42.990914927889" lon="-3.254931222149475"><ele>650.0</ele><time>2026-04-13T16:49:00.999Z</time></trkpt><trkpt lat="42.99086000938233" lon="-3.2547778408471157"><ele>650.0</ele><time>2026-04-13T16:49:01.999Z</time></trkpt><trkpt lat="42.99082302864534" lon="-3.2546240296834545"><ele>650.0</ele><time>2026-04-13T16:49:02.999Z</time></trkpt><trkpt lat="42.99080081579948" lon="-3.2544615920959328"><ele>648.6666666666666</ele><time>2026-04-13T16:49:03.999Z</time></trkpt><trkpt lat="42.990804422661704" lon="-3.254255952990177"><ele>647.3333333333334</ele><time>2026-04-13T16:49:04.999Z</time></trkpt><trkpt lat="42.99083115534134" lon="-3.254002717076522"><ele>646.0</ele><time>2026-04-13T16:49:05.999Z</time></trkpt><trkpt lat="42.990861087116414" lon="-3.253710014958533"><ele>645.3333333333334</ele><time>2026-04-13T16:49:06.999Z</time></trkpt><trkpt lat="42.990883252448256" lon="-3.2534598336554943"><ele>644.6666666666666</ele><time>2026-04-13T16:49:07.999Z</time></trkpt><trkpt lat="42.99087540690181" lon="-3.253257679693017"><ele>644.0</ele><time>2026-04-13T16:49:08.999Z</time></trkpt><trkpt lat="42.99088960245255" lon="-3.253074822586965"><ele>643.25</ele><time>2026-04-13T16:49:09.999Z</time></trkpt><trkpt lat="42.99090502115336" lon="-3.2529003026848615"><ele>642.5</ele><time>2026-04-13T16:49:10.999Z</time></trkpt><trkpt lat="42.99092105962882" lon="-3.2527384108931288"><ele>641.75</ele><time>2026-04-13T16:49:11.999Z</time></trkpt><trkpt lat="42.990936420829975" lon="-3.252584859029376"><ele>641.0</ele><time>2026-04-13T16:49:12.999Z</time></trkpt><trkpt lat="42.99096128070991" lon="-3.2524156623436604"><ele>641.0</ele><time>2026-04-13T16:49:13.999Z</time></trkpt><trkpt lat="42.9909891614237" lon="-3.25225105153998"><ele>641.0</ele><time>2026-04-13T16:49:14.999Z</time></trkpt><trkpt lat="42.99101496296095" lon="-3.252098716320912"><ele>641.0</ele><time>2026-04-13T16:49:15.999Z</time></trkpt><trkpt lat="42.99103671403626" lon="-3.251946988380962"><ele>641.0</ele><time>2026-04-13T16:49:16.999Z</time></trkpt><trkpt lat="42.99105579008331" lon="-3.2517986174191553"><ele>641.0</ele><time>2026-04-13T16:49:17.999Z</time></trkpt><trkpt lat="42.99108941630074" lon="-3.2516736897879985"><ele>641.0</ele><time>2026-04-13T16:49:18.999Z</time></trkpt><trkpt lat="42.9911053646796" lon="-3.2515590511428463"><ele>641.0</ele><time>2026-04-13T16:49:19.999Z</time></trkpt><trkpt lat="42.991107044422215" lon="-3.251455782971901"><ele>641.0</ele><time>2026-04-13T16:49:20.999Z</time></trkpt><trkpt lat="42.99111348933379" lon="-3.251355936356906"><ele>641.0</ele><time>2026-04-13T16:49:21.999Z</time></trkpt><trkpt lat="42.991315495827" lon="-3.2512768778809176"><ele>641.5</ele><time>2026-04-13T16:49:22.999Z</time></trkpt><trkpt lat="42.99143015808193" lon="-3.251200069298068"><ele>642.0</ele><time>2026-04-13T16:49:23.999Z</time></trkpt><trkpt lat="42.99154767689009" lon="-3.251121347195959"><ele>642.5</ele><time>2026-04-13T16:49:24.999Z</time></trkpt><trkpt lat="42.99166278271529" lon="-3.2510442414774006"><ele>643.0</ele><time>2026-04-13T16:49:25.999Z</time></trkpt><trkpt lat="42.991791268515136" lon="-3.2509581729378123"><ele>643.0</ele><time>2026-04-13T16:49:26.999Z</time></trkpt><trkpt lat="42.99191804337109" lon="-3.2508732505050597"><ele>643.0</ele><time>2026-04-13T16:49:27.999Z</time></trkpt><trkpt lat="42.99203309519434" lon="-3.250821108796978"><ele>643.0</ele><time>2026-04-13T16:49:28.999Z</time></trkpt><trkpt lat="42.992130461095066" lon="-3.250756663122452"><ele>643.0</ele><time>2026-04-13T16:49:29.999Z</time></trkpt><trkpt lat="42.992224406530575" lon="-3.2506879781941977"><ele>643.0</ele><time>2026-04-13T16:49:30.999Z</time></trkpt><trkpt lat="42.992329388201235" lon="-3.250618776223912"><ele>643.0</ele><time>2026-04-13T16:49:31.999Z</time></trkpt><trkpt lat="42.992437234274206" lon="-3.2505505583110708"><ele>643.0</ele><time>2026-04-13T16:49:32.999Z</time></trkpt><trkpt lat="42.9925438488712" lon="-3.2504795169015654"><ele>643.0</ele><time>2026-04-13T16:49:33.999Z</time></trkpt><trkpt lat="42.992653714201516" lon="-3.250401948877508"><ele>644.0</ele><time>2026-04-13T16:49:34.999Z</time></trkpt><trkpt lat="42.99277961060171" lon="-3.2502931417665235"><ele>645.0</ele><time>2026-04-13T16:49:35.999Z</time></trkpt><trkpt lat="42.992906976475886" lon="-3.250165301086869"><ele>646.0</ele><time>2026-04-13T16:49:36.999Z</time></trkpt><trkpt lat="42.99303512390649" lon="-3.250036339406094"><ele>646.0</ele><time>2026-04-13T16:49:37.999Z</time></trkpt><trkpt lat="42.99317089138203" lon="-3.2499015219529745"><ele>646.0</ele><time>2026-04-13T16:49:39.999Z</time></trkpt><trkpt lat="42.993258896774236" lon="-3.2497934109435964"><ele>646.0</ele><time>2026-04-13T16:49:40.999Z</time></trkpt><trkpt lat="42.99333106975568" lon="-3.249704749406844"><ele>646.0</ele><time>2026-04-13T16:49:41.999Z</time></trkpt><trkpt lat="42.99338768127833" lon="-3.2496314066253"><ele>646.5999999999999</ele><time>2026-04-13T16:49:42.999Z</time></trkpt><trkpt lat="42.993442623834966" lon="-3.2495230546061538"><ele>647.2</ele><time>2026-04-13T16:49:44.999Z</time></trkpt><trkpt lat="42.99332697691338" lon="-3.2494051203031455"><ele>647.8</ele><time>2026-04-13T16:49:47.999Z</time></trkpt><trkpt lat="42.993266348193714" lon="-3.2493321125972163"><ele>648.4000000000001</ele><time>2026-04-13T16:49:48.999Z</time></trkpt><trkpt lat="42.9931943866249" lon="-3.2492454581131374"><ele>649.0</ele><time>2026-04-13T16:49:49.999Z</time></trkpt><trkpt lat="42.993128800007035" lon="-3.249166057138374"><ele>649.0</ele><time>2026-04-13T16:49:51Z</time></trkpt><trkpt lat="42.99306075496211" lon="-3.2490815885789703"><ele>649.0</ele><time>2026-04-13T16:49:52Z</time></trkpt><trkpt lat="42.992984189862014" lon="-3.248986543558392"><ele>649.0</ele><time>2026-04-13T16:49:53Z</time></trkpt><trkpt lat="42.992900252945994" lon="-3.2488823474325486"><ele>649.0</ele><time>2026-04-13T16:49:54Z</time></trkpt><trkpt lat="42.99281614008219" lon="-3.2487779328919637"><ele>649.0</ele><time>2026-04-13T16:49:55.001Z</time></trkpt><trkpt lat="42.992733335471165" lon="-3.2486751423652023"><ele>649.5</ele><time>2026-04-13T16:49:56.001Z</time></trkpt><trkpt lat="42.99265396290802" lon="-3.2485460572214873"><ele>650.0</ele><time>2026-04-13T16:49:57.001Z</time></trkpt><trkpt lat="42.99256131279911" lon="-3.248439977229649"><ele>650.5</ele><time>2026-04-13T16:49:58.001Z</time></trkpt><trkpt lat="42.99247334789611" lon="-3.2483304280440852"><ele>651.0</ele><time>2026-04-13T16:49:59.001Z</time></trkpt><trkpt lat="42.99237382699327" lon="-3.2482011293964552"><ele>649.0</ele><time>2026-04-13T16:50:00.001Z</time></trkpt><trkpt lat="42.99226968337239" lon="-3.248067419129351"><ele>647.0</ele><time>2026-04-13T16:50:01.001Z</time></trkpt><trkpt lat="42.992158923678424" lon="-3.2479278717638818"><ele>645.0</ele><time>2026-04-13T16:50:02.001Z</time></trkpt><trkpt lat="42.992056559297694" lon="-3.2477978170031396"><ele>643.0</ele><time>2026-04-13T16:50:03.001Z</time></trkpt><trkpt lat="42.99194362300387" lon="-3.2476634276821548"><ele>643.0</ele><time>2026-04-13T16:50:04.001Z</time></trkpt><trkpt lat="42.991834784884404" lon="-3.24752519046866"><ele>643.0</ele><time>2026-04-13T16:50:05.001Z</time></trkpt><trkpt lat="42.99172192361495" lon="-3.2473810387995847"><ele>643.0</ele><time>2026-04-13T16:50:06.001Z</time></trkpt><trkpt lat="42.99160781135414" lon="-3.2472367296565805"><ele>643.75</ele><time>2026-04-13T16:50:07.001Z</time></trkpt><trkpt lat="42.99149597687903" lon="-3.2470898457228174"><ele>644.5</ele><time>2026-04-13T16:50:08.001Z</time></trkpt><trkpt lat="42.99138874537224" lon="-3.2469481955971884"><ele>645.25</ele><time>2026-04-13T16:50:09.001Z</time></trkpt><trkpt lat="42.99129772557077" lon="-3.246824046382206"><ele>646.0</ele><time>2026-04-13T16:50:10.001Z</time></trkpt><trkpt lat="42.99120575336326" lon="-3.2466964153228393"><ele>646.0</ele><time>2026-04-13T16:50:11.001Z</time></trkpt><trkpt lat="42.99110841601436" lon="-3.246569443677898"><ele>646.0</ele><time>2026-04-13T16:50:12Z</time></trkpt><trkpt lat="42.99101328460062" lon="-3.246445428907886"><ele>646.0</ele><time>2026-04-13T16:50:13Z</time></trkpt><trkpt lat="42.990932899328314" lon="-3.246337536020356"><ele>646.0</ele><time>2026-04-13T16:50:14Z</time></trkpt><trkpt lat="42.990851169272624" lon="-3.246255246892024"><ele>646.5</ele><time>2026-04-13T16:50:15Z</time></trkpt><trkpt lat="42.990772426402785" lon="-3.2461520502966756"><ele>647.0</ele><time>2026-04-13T16:50:16Z</time></trkpt><trkpt lat="42.990698297933804" lon="-3.2460277444302728"><ele>647.5</ele><time>2026-04-13T16:50:17Z</time></trkpt><trkpt lat="42.990610064011975" lon="-3.245915227995666"><ele>648.0</ele><time>2026-04-13T16:50:18Z</time></trkpt><trkpt lat="42.99051892938462" lon="-3.2457939757106176"><ele>648.0</ele><time>2026-04-13T16:50:19Z</time></trkpt><trkpt lat="42.99042871825074" lon="-3.245679593324892"><ele>648.0</ele><time>2026-04-13T16:50:20Z</time></trkpt><trkpt lat="42.990333292970995" lon="-3.245559435254823"><ele>648.0</ele><time>2026-04-13T16:50:21Z</time></trkpt><trkpt lat="42.99022918520182" lon="-3.2454276893645626"><ele>648.0</ele><time>2026-04-13T16:50:22Z</time></trkpt><trkpt lat="42.99011659038796" lon="-3.2452828774980644"><ele>648.75</ele><time>2026-04-13T16:50:23Z</time></trkpt><trkpt lat="42.99001905952526" lon="-3.2451523560074294"><ele>649.5</ele><time>2026-04-13T16:50:24Z</time></trkpt><trkpt lat="42.989933090685454" lon="-3.2450383509407996"><ele>650.25</ele><time>2026-04-13T16:50:25Z</time></trkpt><trkpt lat="42.98985214299598" lon="-3.24493467488952"><ele>651.0</ele><time>2026-04-13T16:50:26Z</time></trkpt><trkpt lat="42.98978012841625" lon="-3.244841329362627"><ele>651.5</ele><time>2026-04-13T16:50:27Z</time></trkpt><trkpt lat="42.98972154245531" lon="-3.2447522403745634"><ele>652.0</ele><time>2026-04-13T16:50:28Z</time></trkpt><trkpt lat="42.989666164265664" lon="-3.244669554300654"><ele>652.5</ele><time>2026-04-13T16:50:29Z</time></trkpt><trkpt lat="42.989608375428254" lon="-3.24462143529394"><ele>653.0</ele><time>2026-04-13T16:50:30Z</time></trkpt><trkpt lat="42.989593172873754" lon="-3.2445367253049966"><ele>653.5</ele><time>2026-04-13T16:50:31Z</time></trkpt><trkpt lat="42.989596705964516" lon="-3.244393328478881"><ele>654.0</ele><time>2026-04-13T16:50:33Z</time></trkpt><trkpt lat="42.98954941490456" lon="-3.2442579933670097"><ele>654.0</ele><time>2026-04-13T16:50:35Z</time></trkpt><trkpt lat="42.989463392730734" lon="-3.244183627766553"><ele>654.0</ele><time>2026-04-13T16:50:37Z</time></trkpt><trkpt lat="42.98940714375058" lon="-3.2441033269871777"><ele>654.0</ele><time>2026-04-13T16:50:39Z</time></trkpt><trkpt lat="42.98930205961507" lon="-3.244211502034648"><ele>654.0</ele><time>2026-04-13T16:50:40Z</time></trkpt><trkpt lat="42.989451936860256" lon="-3.2440362322644076"><ele>654.0</ele><time>2026-04-13T16:50:44Z</time></trkpt><trkpt lat="42.98931631021925" lon="-3.2442303670384187"><ele>654.0</ele><time>2026-04-13T16:50:48Z</time></trkpt><trkpt lat="42.98945393627525" lon="-3.244039518064353"><ele>654.0</ele><time>2026-04-13T16:50:51Z</time></trkpt><trkpt lat="42.98931737077287" lon="-3.2442317710013593"><ele>654.0</ele><time>2026-04-13T16:50:55Z</time></trkpt><trkpt lat="42.98945251295445" lon="-3.2440423364188358"><ele>654.0</ele><time>2026-04-13T16:50:58Z</time></trkpt><trkpt lat="42.989317370772625" lon="-3.2442317710017003"><ele>654.0</ele><time>2026-04-13T16:51:08Z</time></trkpt><trkpt lat="42.98937345224536" lon="-3.244275516675675"><ele>654.0</ele><time>2026-04-13T16:52:12Z</time></trkpt><trkpt lat="42.98941566788669" lon="-3.244356957976496"><ele>654.0</ele><time>2026-04-13T16:52:36Z</time></trkpt><trkpt lat="42.98945828752872" lon="-3.2444207392895925"><ele>654.0</ele><time>2026-04-13T16:52:43Z</time></trkpt><trkpt lat="42.98950611421751" lon="-3.2444870103827563"><ele>654.0</ele><time>2026-04-13T16:52:48Z</time></trkpt><trkpt lat="42.989557176156914" lon="-3.2445582547829925"><ele>654.0</ele><time>2026-04-13T16:52:54Z</time></trkpt><trkpt lat="42.989604124887194" lon="-3.2446181620895653"><ele>654.0</ele><time>2026-04-13T16:53:00Z</time></trkpt><trkpt lat="42.989650093626885" lon="-3.244680706299817"><ele>654.0</ele><time>2026-04-13T16:53:07Z</time></trkpt><trkpt lat="42.98970879228458" lon="-3.2447404922280287"><ele>654.0</ele><time>2026-04-13T16:53:12Z</time></trkpt><trkpt lat="42.989776289369615" lon="-3.244683301067445"><ele>654.0</ele><time>2026-04-13T16:54:30.074Z</time></trkpt><trkpt lat="42.98991289590634" lon="-3.244643913870688"><ele>654.0</ele><time>2026-04-13T16:54:32Z</time></trkpt><trkpt lat="42.989865323517385" lon="-3.2445425664800376"><ele>654.0</ele><time>2026-04-13T16:54:45Z</time></trkpt><trkpt lat="42.98979824871982" lon="-3.2445332974002064"><ele>654.0</ele><time>2026-04-13T16:54:56Z</time></trkpt><trkpt lat="42.98966327808579" lon="-3.2445994775515503"><ele>654.0</ele><time>2026-04-13T16:55:02Z</time></trkpt><trkpt lat="42.9897444283447" lon="-3.2446581236867074"><ele>654.0</ele><time>2026-04-13T16:55:59.075Z</time></trkpt><trkpt lat="42.98968284646231" lon="-3.244612481568934"><ele>654.0</ele><time>2026-04-13T16:56:02.071Z</time></trkpt><trkpt lat="42.989757325713114" lon="-3.244731099899209"><ele>654.0</ele><time>2026-04-13T16:56:09Z</time></trkpt><trkpt lat="42.98962809108543" lon="-3.2445107198368937"><ele>654.0</ele><time>2026-04-13T16:58:34.357Z</time></trkpt><trkpt lat="42.98954288467211" lon="-3.2445072671331965"><ele>654.0</ele><time>2026-04-13T17:01:03.018Z</time></trkpt><trkpt lat="42.98949427067838" lon="-3.244425274369026"><ele>654.0</ele><time>2026-04-13T17:01:07.019Z</time></trkpt><trkpt lat="42.98937934738028" lon="-3.2443717690473273"><ele>654.0</ele><time>2026-04-13T17:01:10.017Z</time></trkpt><trkpt lat="42.989330334122876" lon="-3.244304573576865"><ele>654.0</ele><time>2026-04-13T17:01:18.018Z</time></trkpt><trkpt lat="42.98941612171913" lon="-3.244305327086406"><ele>654.0</ele><time>2026-04-13T17:01:30.019Z</time></trkpt><trkpt lat="42.989481818638296" lon="-3.244336094875264"><ele>654.0</ele><time>2026-04-13T17:01:30.998Z</time></trkpt><trkpt lat="42.9895430543643" lon="-3.2443603012208024"><ele>654.0</ele><time>2026-04-13T17:01:32.998Z</time></trkpt><trkpt lat="42.98961916985571" lon="-3.244444684016789"><ele>654.0</ele><time>2026-04-13T17:01:33.998Z</time></trkpt><trkpt lat="42.98967684743062" lon="-3.2445100537595835"><ele>654.0</ele><time>2026-04-13T17:01:34.998Z</time></trkpt><trkpt lat="42.98961146558614" lon="-3.244546652922108"><ele>654.0</ele><time>2026-04-13T17:01:40Z</time></trkpt><trkpt lat="42.989602764480985" lon="-3.244459440264732"><ele>654.0</ele><time>2026-04-13T17:01:50Z</time></trkpt><trkpt lat="42.98958819629388" lon="-3.24437231272147"><ele>654.0</ele><time>2026-04-13T17:01:57Z</time></trkpt><trkpt lat="42.989541758954566" lon="-3.244296291275532"><ele>654.0</ele><time>2026-04-13T17:02:03Z</time></trkpt><trkpt lat="42.98950036766016" lon="-3.2442236399384017"><ele>654.0</ele><time>2026-04-13T17:02:08Z</time></trkpt><trkpt lat="42.98945640335556" lon="-3.2441504015987452"><ele>654.0</ele><time>2026-04-13T17:02:13Z</time></trkpt></trkseg></trk></gpx>